<?xml version="1.0" encoding="UTF-8" standalone="no" ?>
<gpx xmlns="http://www.topografix.com/GPX/1/1" xmlns:xsi="http://www.w3.org/2001/XMLSchema-instance" xsi:schemaLocation="http://www.topografix.com/GPX/1/1 http://www.topografix.com/GPX/1/1/gpx.xsd" version="1.1" creator="VisuGPX - https://www.visugpx.com">
  <metadata>
    <name>Cadaques J14</name>
    <desc><![CDATA[File with points/tracks from Locus Map/4.25.1]]></desc>
  </metadata>
  <trk>
    <name><![CDATA[2024-09-29 Pont de Suert J14]]></name>
    <extensions>
      <line xmlns="http://www.topografix.com/GPX/gpx_style/0/2">
        <color>0000FF</color>
        <opacity>0.70</opacity>
        <width>6.0</width>
      </line>
    </extensions>
    <trkseg>
      <trkpt lat="42.36992" lon="1.18995">
        <ele>1322</ele>
        <time>2024-09-29T06:44:01.999Z</time>
      </trkpt>
      <trkpt lat="42.36984" lon="1.1899">
        <ele>1316.66</ele>
        <time>2024-09-29T06:46:21.000Z</time>
      </trkpt>
      <trkpt lat="42.36967" lon="1.18992">
        <ele>1316.58</ele>
        <time>2024-09-29T06:46:26.000Z</time>
      </trkpt>
      <trkpt lat="42.36957" lon="1.18998">
        <ele>1316.48</ele>
        <time>2024-09-29T06:46:31.000Z</time>
      </trkpt>
      <trkpt lat="42.36964" lon="1.18987">
        <ele>1316.38</ele>
        <time>2024-09-29T06:46:36.000Z</time>
      </trkpt>
      <trkpt lat="42.36974" lon="1.18971">
        <ele>1316.12</ele>
        <time>2024-09-29T06:46:41.000Z</time>
      </trkpt>
      <trkpt lat="42.36992" lon="1.18953">
        <ele>1315.3</ele>
        <time>2024-09-29T06:46:46.000Z</time>
      </trkpt>
      <trkpt lat="42.37021" lon="1.18955">
        <ele>1314.88</ele>
        <time>2024-09-29T06:46:51.000Z</time>
      </trkpt>
      <trkpt lat="42.37039" lon="1.1896">
        <ele>1314.76</ele>
        <time>2024-09-29T06:46:56.000Z</time>
      </trkpt>
      <trkpt lat="42.37052" lon="1.18959">
        <ele>1314.76</ele>
        <time>2024-09-29T06:47:01.000Z</time>
      </trkpt>
      <trkpt lat="42.37063" lon="1.18958">
        <ele>1314.78</ele>
        <time>2024-09-29T06:47:07.000Z</time>
      </trkpt>
      <trkpt lat="42.37072" lon="1.18957">
        <ele>1314.81</ele>
        <time>2024-09-29T06:47:12.000Z</time>
      </trkpt>
      <trkpt lat="42.37083" lon="1.18958">
        <ele>1314.87</ele>
        <time>2024-09-29T06:47:18.000Z</time>
      </trkpt>
      <trkpt lat="42.37093" lon="1.18961">
        <ele>1314.92</ele>
        <time>2024-09-29T06:47:24.000Z</time>
      </trkpt>
      <trkpt lat="42.37103" lon="1.18965">
        <ele>1314.96</ele>
        <time>2024-09-29T06:47:29.000Z</time>
      </trkpt>
      <trkpt lat="42.37113" lon="1.18969">
        <ele>1314.99</ele>
        <time>2024-09-29T06:47:34.000Z</time>
      </trkpt>
      <trkpt lat="42.37129" lon="1.18976">
        <ele>1315.05</ele>
        <time>2024-09-29T06:47:39.000Z</time>
      </trkpt>
      <trkpt lat="42.37149" lon="1.18982">
        <ele>1315.11</ele>
        <time>2024-09-29T06:47:44.000Z</time>
      </trkpt>
      <trkpt lat="42.37169" lon="1.18998">
        <ele>1315.07</ele>
        <time>2024-09-29T06:47:49.000Z</time>
      </trkpt>
      <trkpt lat="42.37199" lon="1.19024">
        <ele>1315.03</ele>
        <time>2024-09-29T06:47:54.000Z</time>
      </trkpt>
      <trkpt lat="42.37234" lon="1.19013">
        <ele>1314.85</ele>
        <time>2024-09-29T06:47:59.000Z</time>
      </trkpt>
      <trkpt lat="42.37249" lon="1.18968">
        <ele>1314.57</ele>
        <time>2024-09-29T06:48:04.000Z</time>
      </trkpt>
      <trkpt lat="42.37243" lon="1.18913">
        <ele>1314.76</ele>
        <time>2024-09-29T06:48:09.000Z</time>
      </trkpt>
      <trkpt lat="42.3725" lon="1.18857">
        <ele>1315.01</ele>
        <time>2024-09-29T06:48:14.000Z</time>
      </trkpt>
      <trkpt lat="42.37244" lon="1.18801">
        <ele>1314.83</ele>
        <time>2024-09-29T06:48:19.000Z</time>
      </trkpt>
      <trkpt lat="42.37239" lon="1.18748">
        <ele>1314.19</ele>
        <time>2024-09-29T06:48:24.000Z</time>
      </trkpt>
      <trkpt lat="42.37231" lon="1.18699">
        <ele>1313.56</ele>
        <time>2024-09-29T06:48:29.000Z</time>
      </trkpt>
      <trkpt lat="42.37233" lon="1.1865">
        <ele>1313.02</ele>
        <time>2024-09-29T06:48:34.000Z</time>
      </trkpt>
      <trkpt lat="42.37242" lon="1.186">
        <ele>1312.19</ele>
        <time>2024-09-29T06:48:39.000Z</time>
      </trkpt>
      <trkpt lat="42.3725" lon="1.18551">
        <ele>1311.09</ele>
        <time>2024-09-29T06:48:44.000Z</time>
      </trkpt>
      <trkpt lat="42.3726" lon="1.18503">
        <ele>1310.1</ele>
        <time>2024-09-29T06:48:49.000Z</time>
      </trkpt>
      <trkpt lat="42.37268" lon="1.18458">
        <ele>1309.35</ele>
        <time>2024-09-29T06:48:54.000Z</time>
      </trkpt>
      <trkpt lat="42.37278" lon="1.18414">
        <ele>1308.71</ele>
        <time>2024-09-29T06:48:59.000Z</time>
      </trkpt>
      <trkpt lat="42.3729" lon="1.18373">
        <ele>1308.42</ele>
        <time>2024-09-29T06:49:04.000Z</time>
      </trkpt>
      <trkpt lat="42.37307" lon="1.18342">
        <ele>1308.16</ele>
        <time>2024-09-29T06:49:09.000Z</time>
      </trkpt>
      <trkpt lat="42.37319" lon="1.1832">
        <ele>1308</ele>
        <time>2024-09-29T06:49:14.000Z</time>
      </trkpt>
      <trkpt lat="42.37328" lon="1.18307">
        <ele>1307.97</ele>
        <time>2024-09-29T06:49:19.000Z</time>
      </trkpt>
      <trkpt lat="42.37337" lon="1.18299">
        <ele>1307.9</ele>
        <time>2024-09-29T06:49:24.000Z</time>
      </trkpt>
      <trkpt lat="42.37343" lon="1.1829">
        <ele>1307.8</ele>
        <time>2024-09-29T06:49:29.000Z</time>
      </trkpt>
      <trkpt lat="42.37351" lon="1.18283">
        <ele>1307.68</ele>
        <time>2024-09-29T06:49:34.000Z</time>
      </trkpt>
      <trkpt lat="42.37358" lon="1.18275">
        <ele>1307.58</ele>
        <time>2024-09-29T06:49:39.000Z</time>
      </trkpt>
      <trkpt lat="42.37366" lon="1.18266">
        <ele>1307.45</ele>
        <time>2024-09-29T06:49:46.000Z</time>
      </trkpt>
      <trkpt lat="42.37374" lon="1.18259">
        <ele>1307.34</ele>
        <time>2024-09-29T06:49:52.000Z</time>
      </trkpt>
      <trkpt lat="42.37383" lon="1.18252">
        <ele>1307.22</ele>
        <time>2024-09-29T06:49:59.000Z</time>
      </trkpt>
      <trkpt lat="42.37392" lon="1.18247">
        <ele>1307.17</ele>
        <time>2024-09-29T06:50:06.000Z</time>
      </trkpt>
      <trkpt lat="42.37402" lon="1.18245">
        <ele>1307.21</ele>
        <time>2024-09-29T06:50:13.000Z</time>
      </trkpt>
      <trkpt lat="42.37412" lon="1.18245">
        <ele>1307.33</ele>
        <time>2024-09-29T06:50:21.000Z</time>
      </trkpt>
      <trkpt lat="42.37421" lon="1.18249">
        <ele>1307.54</ele>
        <time>2024-09-29T06:50:30.000Z</time>
      </trkpt>
      <trkpt lat="42.37431" lon="1.18253">
        <ele>1307.81</ele>
        <time>2024-09-29T06:50:37.000Z</time>
      </trkpt>
      <trkpt lat="42.3744" lon="1.18253">
        <ele>1308.21</ele>
        <time>2024-09-29T06:50:45.000Z</time>
      </trkpt>
      <trkpt lat="42.37445" lon="1.18242">
        <ele>1308.56</ele>
        <time>2024-09-29T06:50:51.000Z</time>
      </trkpt>
      <trkpt lat="42.37443" lon="1.18228">
        <ele>1308.94</ele>
        <time>2024-09-29T06:50:57.000Z</time>
      </trkpt>
      <trkpt lat="42.3744" lon="1.18215">
        <ele>1309.39</ele>
        <time>2024-09-29T06:51:04.000Z</time>
      </trkpt>
      <trkpt lat="42.37438" lon="1.18202">
        <ele>1309.82</ele>
        <time>2024-09-29T06:51:10.000Z</time>
      </trkpt>
      <trkpt lat="42.37435" lon="1.18189">
        <ele>1310.28</ele>
        <time>2024-09-29T06:51:16.000Z</time>
      </trkpt>
      <trkpt lat="42.37432" lon="1.18176">
        <ele>1310.76</ele>
        <time>2024-09-29T06:51:22.000Z</time>
      </trkpt>
      <trkpt lat="42.3743" lon="1.18164">
        <ele>1311.26</ele>
        <time>2024-09-29T06:51:28.000Z</time>
      </trkpt>
      <trkpt lat="42.37429" lon="1.18152">
        <ele>1311.74</ele>
        <time>2024-09-29T06:51:34.000Z</time>
      </trkpt>
      <trkpt lat="42.37428" lon="1.18139">
        <ele>1312.2</ele>
        <time>2024-09-29T06:51:40.000Z</time>
      </trkpt>
      <trkpt lat="42.37428" lon="1.18127">
        <ele>1312.63</ele>
        <time>2024-09-29T06:51:46.000Z</time>
      </trkpt>
      <trkpt lat="42.37427" lon="1.18114">
        <ele>1313.07</ele>
        <time>2024-09-29T06:51:52.000Z</time>
      </trkpt>
      <trkpt lat="42.37426" lon="1.18101">
        <ele>1313.49</ele>
        <time>2024-09-29T06:51:58.000Z</time>
      </trkpt>
      <trkpt lat="42.37423" lon="1.18089">
        <ele>1313.93</ele>
        <time>2024-09-29T06:52:04.000Z</time>
      </trkpt>
      <trkpt lat="42.37422" lon="1.18077">
        <ele>1314.35</ele>
        <time>2024-09-29T06:52:10.000Z</time>
      </trkpt>
      <trkpt lat="42.3743" lon="1.18066">
        <ele>1315.11</ele>
        <time>2024-09-29T06:53:26.000Z</time>
      </trkpt>
      <trkpt lat="42.37427" lon="1.18042">
        <ele>1315.91</ele>
        <time>2024-09-29T06:53:31.000Z</time>
      </trkpt>
      <trkpt lat="42.37424" lon="1.18005">
        <ele>1316.41</ele>
        <time>2024-09-29T06:53:36.000Z</time>
      </trkpt>
      <trkpt lat="42.37425" lon="1.1796">
        <ele>1316.34</ele>
        <time>2024-09-29T06:53:41.000Z</time>
      </trkpt>
      <trkpt lat="42.37431" lon="1.1791">
        <ele>1316</ele>
        <time>2024-09-29T06:53:46.000Z</time>
      </trkpt>
      <trkpt lat="42.37444" lon="1.17862">
        <ele>1315.73</ele>
        <time>2024-09-29T06:53:51.000Z</time>
      </trkpt>
      <trkpt lat="42.3746" lon="1.17814">
        <ele>1315.41</ele>
        <time>2024-09-29T06:53:56.000Z</time>
      </trkpt>
      <trkpt lat="42.37479" lon="1.17765">
        <ele>1314.8</ele>
        <time>2024-09-29T06:54:01.000Z</time>
      </trkpt>
      <trkpt lat="42.37496" lon="1.17713">
        <ele>1314.48</ele>
        <time>2024-09-29T06:54:06.000Z</time>
      </trkpt>
      <trkpt lat="42.37507" lon="1.1766">
        <ele>1314.11</ele>
        <time>2024-09-29T06:54:11.000Z</time>
      </trkpt>
      <trkpt lat="42.37511" lon="1.17606">
        <ele>1313.66</ele>
        <time>2024-09-29T06:54:16.000Z</time>
      </trkpt>
      <trkpt lat="42.37514" lon="1.17554">
        <ele>1313.28</ele>
        <time>2024-09-29T06:54:21.000Z</time>
      </trkpt>
      <trkpt lat="42.37517" lon="1.17503">
        <ele>1312.9</ele>
        <time>2024-09-29T06:54:26.000Z</time>
      </trkpt>
      <trkpt lat="42.37524" lon="1.17453">
        <ele>1312.55</ele>
        <time>2024-09-29T06:54:31.000Z</time>
      </trkpt>
      <trkpt lat="42.37538" lon="1.17403">
        <ele>1312.32</ele>
        <time>2024-09-29T06:54:36.000Z</time>
      </trkpt>
      <trkpt lat="42.37557" lon="1.17361">
        <ele>1312.24</ele>
        <time>2024-09-29T06:54:41.000Z</time>
      </trkpt>
      <trkpt lat="42.37577" lon="1.1732">
        <ele>1312.19</ele>
        <time>2024-09-29T06:54:46.000Z</time>
      </trkpt>
      <trkpt lat="42.37594" lon="1.17277">
        <ele>1312.06</ele>
        <time>2024-09-29T06:54:51.000Z</time>
      </trkpt>
      <trkpt lat="42.37607" lon="1.17233">
        <ele>1311.91</ele>
        <time>2024-09-29T06:54:56.000Z</time>
      </trkpt>
      <trkpt lat="42.37618" lon="1.1719">
        <ele>1311.85</ele>
        <time>2024-09-29T06:55:01.000Z</time>
      </trkpt>
      <trkpt lat="42.37624" lon="1.17147">
        <ele>1311.74</ele>
        <time>2024-09-29T06:55:06.000Z</time>
      </trkpt>
      <trkpt lat="42.37628" lon="1.17105">
        <ele>1311.77</ele>
        <time>2024-09-29T06:55:11.000Z</time>
      </trkpt>
      <trkpt lat="42.37627" lon="1.17064">
        <ele>1311.53</ele>
        <time>2024-09-29T06:55:16.000Z</time>
      </trkpt>
      <trkpt lat="42.37626" lon="1.17025">
        <ele>1311.2</ele>
        <time>2024-09-29T06:55:21.000Z</time>
      </trkpt>
      <trkpt lat="42.37624" lon="1.16987">
        <ele>1310.97</ele>
        <time>2024-09-29T06:55:26.000Z</time>
      </trkpt>
      <trkpt lat="42.37623" lon="1.16951">
        <ele>1310.92</ele>
        <time>2024-09-29T06:55:31.000Z</time>
      </trkpt>
      <trkpt lat="42.37622" lon="1.16915">
        <ele>1310.93</ele>
        <time>2024-09-29T06:55:36.000Z</time>
      </trkpt>
      <trkpt lat="42.37621" lon="1.1688">
        <ele>1310.78</ele>
        <time>2024-09-29T06:55:41.000Z</time>
      </trkpt>
      <trkpt lat="42.3762" lon="1.16843">
        <ele>1310.54</ele>
        <time>2024-09-29T06:55:46.000Z</time>
      </trkpt>
      <trkpt lat="42.37622" lon="1.16806">
        <ele>1310.19</ele>
        <time>2024-09-29T06:55:51.000Z</time>
      </trkpt>
      <trkpt lat="42.3763" lon="1.16767">
        <ele>1309.89</ele>
        <time>2024-09-29T06:55:56.000Z</time>
      </trkpt>
      <trkpt lat="42.37646" lon="1.1673">
        <ele>1309.64</ele>
        <time>2024-09-29T06:56:01.000Z</time>
      </trkpt>
      <trkpt lat="42.37668" lon="1.16699">
        <ele>1309.5</ele>
        <time>2024-09-29T06:56:06.000Z</time>
      </trkpt>
      <trkpt lat="42.37695" lon="1.16673">
        <ele>1309.35</ele>
        <time>2024-09-29T06:56:11.000Z</time>
      </trkpt>
      <trkpt lat="42.37723" lon="1.16646">
        <ele>1309.24</ele>
        <time>2024-09-29T06:56:16.000Z</time>
      </trkpt>
      <trkpt lat="42.37752" lon="1.16622">
        <ele>1309.01</ele>
        <time>2024-09-29T06:56:21.000Z</time>
      </trkpt>
      <trkpt lat="42.37779" lon="1.16597">
        <ele>1308.78</ele>
        <time>2024-09-29T06:56:26.000Z</time>
      </trkpt>
      <trkpt lat="42.37808" lon="1.16572">
        <ele>1308.52</ele>
        <time>2024-09-29T06:56:31.000Z</time>
      </trkpt>
      <trkpt lat="42.37838" lon="1.16543">
        <ele>1308.25</ele>
        <time>2024-09-29T06:56:36.000Z</time>
      </trkpt>
      <trkpt lat="42.3787" lon="1.16515">
        <ele>1307.8</ele>
        <time>2024-09-29T06:56:41.000Z</time>
      </trkpt>
      <trkpt lat="42.37903" lon="1.16481">
        <ele>1307.27</ele>
        <time>2024-09-29T06:56:46.000Z</time>
      </trkpt>
      <trkpt lat="42.37937" lon="1.16445">
        <ele>1306.65</ele>
        <time>2024-09-29T06:56:51.000Z</time>
      </trkpt>
      <trkpt lat="42.37961" lon="1.16396">
        <ele>1305.87</ele>
        <time>2024-09-29T06:56:56.000Z</time>
      </trkpt>
      <trkpt lat="42.37977" lon="1.1634">
        <ele>1305.04</ele>
        <time>2024-09-29T06:57:01.000Z</time>
      </trkpt>
      <trkpt lat="42.38" lon="1.16284">
        <ele>1303.92</ele>
        <time>2024-09-29T06:57:06.000Z</time>
      </trkpt>
      <trkpt lat="42.38034" lon="1.16232">
        <ele>1302.8</ele>
        <time>2024-09-29T06:57:11.000Z</time>
      </trkpt>
      <trkpt lat="42.38079" lon="1.16192">
        <ele>1301.79</ele>
        <time>2024-09-29T06:57:16.000Z</time>
      </trkpt>
      <trkpt lat="42.38135" lon="1.16188">
        <ele>1300.71</ele>
        <time>2024-09-29T06:57:21.000Z</time>
      </trkpt>
      <trkpt lat="42.38189" lon="1.16167">
        <ele>1299.15</ele>
        <time>2024-09-29T06:57:26.000Z</time>
      </trkpt>
      <trkpt lat="42.38221" lon="1.161">
        <ele>1297.04</ele>
        <time>2024-09-29T06:57:31.000Z</time>
      </trkpt>
      <trkpt lat="42.38225" lon="1.16016">
        <ele>1294.07</ele>
        <time>2024-09-29T06:57:36.000Z</time>
      </trkpt>
      <trkpt lat="42.38238" lon="1.15934">
        <ele>1292.18</ele>
        <time>2024-09-29T06:57:41.000Z</time>
      </trkpt>
      <trkpt lat="42.3827" lon="1.15848">
        <ele>1290.87</ele>
        <time>2024-09-29T06:57:46.999Z</time>
      </trkpt>
      <trkpt lat="42.38298" lon="1.15787">
        <ele>1289.49</ele>
        <time>2024-09-29T06:57:51.999Z</time>
      </trkpt>
      <trkpt lat="42.38329" lon="1.15732">
        <ele>1287.76</ele>
        <time>2024-09-29T06:57:56.999Z</time>
      </trkpt>
      <trkpt lat="42.38362" lon="1.15686">
        <ele>1285.54</ele>
        <time>2024-09-29T06:58:01.999Z</time>
      </trkpt>
      <trkpt lat="42.38404" lon="1.15658">
        <ele>1283.21</ele>
        <time>2024-09-29T06:58:06.999Z</time>
      </trkpt>
      <trkpt lat="42.38449" lon="1.15673">
        <ele>1279.51</ele>
        <time>2024-09-29T06:58:11.999Z</time>
      </trkpt>
      <trkpt lat="42.38478" lon="1.15716">
        <ele>1275.37</ele>
        <time>2024-09-29T06:58:16.999Z</time>
      </trkpt>
      <trkpt lat="42.38501" lon="1.15771">
        <ele>1269.55</ele>
        <time>2024-09-29T06:58:21.999Z</time>
      </trkpt>
      <trkpt lat="42.38525" lon="1.15824">
        <ele>1264.96</ele>
        <time>2024-09-29T06:58:26.999Z</time>
      </trkpt>
      <trkpt lat="42.38557" lon="1.15871">
        <ele>1260.91</ele>
        <time>2024-09-29T06:58:31.999Z</time>
      </trkpt>
      <trkpt lat="42.38594" lon="1.15909">
        <ele>1258.11</ele>
        <time>2024-09-29T06:58:36.999Z</time>
      </trkpt>
      <trkpt lat="42.38631" lon="1.15947">
        <ele>1255.92</ele>
        <time>2024-09-29T06:58:41.999Z</time>
      </trkpt>
      <trkpt lat="42.38666" lon="1.15984">
        <ele>1253.48</ele>
        <time>2024-09-29T06:58:46.999Z</time>
      </trkpt>
      <trkpt lat="42.38705" lon="1.16015">
        <ele>1250.32</ele>
        <time>2024-09-29T06:58:51.999Z</time>
      </trkpt>
      <trkpt lat="42.3875" lon="1.16025">
        <ele>1247.5</ele>
        <time>2024-09-29T06:58:56.999Z</time>
      </trkpt>
      <trkpt lat="42.38796" lon="1.16033">
        <ele>1245.43</ele>
        <time>2024-09-29T06:59:01.999Z</time>
      </trkpt>
      <trkpt lat="42.3884" lon="1.16037">
        <ele>1243.74</ele>
        <time>2024-09-29T06:59:06.999Z</time>
      </trkpt>
      <trkpt lat="42.38885" lon="1.1603">
        <ele>1242.01</ele>
        <time>2024-09-29T06:59:11.999Z</time>
      </trkpt>
      <trkpt lat="42.38929" lon="1.16021">
        <ele>1239.86</ele>
        <time>2024-09-29T06:59:16.999Z</time>
      </trkpt>
      <trkpt lat="42.38974" lon="1.16013">
        <ele>1237.41</ele>
        <time>2024-09-29T06:59:21.999Z</time>
      </trkpt>
      <trkpt lat="42.39017" lon="1.16002">
        <ele>1235.23</ele>
        <time>2024-09-29T06:59:26.999Z</time>
      </trkpt>
      <trkpt lat="42.39058" lon="1.15995">
        <ele>1233.28</ele>
        <time>2024-09-29T06:59:31.999Z</time>
      </trkpt>
      <trkpt lat="42.39092" lon="1.15964">
        <ele>1231.41</ele>
        <time>2024-09-29T06:59:36.999Z</time>
      </trkpt>
      <trkpt lat="42.39108" lon="1.15908">
        <ele>1229.44</ele>
        <time>2024-09-29T06:59:41.999Z</time>
      </trkpt>
      <trkpt lat="42.39121" lon="1.15849">
        <ele>1227.45</ele>
        <time>2024-09-29T06:59:46.999Z</time>
      </trkpt>
      <trkpt lat="42.39122" lon="1.15782">
        <ele>1225.41</ele>
        <time>2024-09-29T06:59:51.999Z</time>
      </trkpt>
      <trkpt lat="42.39125" lon="1.15706">
        <ele>1223.69</ele>
        <time>2024-09-29T06:59:56.999Z</time>
      </trkpt>
      <trkpt lat="42.39132" lon="1.15623">
        <ele>1222.27</ele>
        <time>2024-09-29T07:00:01.999Z</time>
      </trkpt>
      <trkpt lat="42.39147" lon="1.1554">
        <ele>1220.85</ele>
        <time>2024-09-29T07:00:06.999Z</time>
      </trkpt>
      <trkpt lat="42.39166" lon="1.15457">
        <ele>1219.28</ele>
        <time>2024-09-29T07:00:11.999Z</time>
      </trkpt>
      <trkpt lat="42.3918" lon="1.1537">
        <ele>1217.48</ele>
        <time>2024-09-29T07:00:16.999Z</time>
      </trkpt>
      <trkpt lat="42.39185" lon="1.15284">
        <ele>1215.12</ele>
        <time>2024-09-29T07:00:21.999Z</time>
      </trkpt>
      <trkpt lat="42.39175" lon="1.15201">
        <ele>1212.6</ele>
        <time>2024-09-29T07:00:26.999Z</time>
      </trkpt>
      <trkpt lat="42.39168" lon="1.15118">
        <ele>1209.96</ele>
        <time>2024-09-29T07:00:31.999Z</time>
      </trkpt>
      <trkpt lat="42.39172" lon="1.15036">
        <ele>1207.07</ele>
        <time>2024-09-29T07:00:36.999Z</time>
      </trkpt>
      <trkpt lat="42.39193" lon="1.14958">
        <ele>1203.63</ele>
        <time>2024-09-29T07:00:41.999Z</time>
      </trkpt>
      <trkpt lat="42.39224" lon="1.14887">
        <ele>1198.3</ele>
        <time>2024-09-29T07:00:46.999Z</time>
      </trkpt>
      <trkpt lat="42.39251" lon="1.14813">
        <ele>1189.95</ele>
        <time>2024-09-29T07:00:51.999Z</time>
      </trkpt>
      <trkpt lat="42.39277" lon="1.14736">
        <ele>1182.01</ele>
        <time>2024-09-29T07:00:56.999Z</time>
      </trkpt>
      <trkpt lat="42.39332" lon="1.14732">
        <ele>1175.64</ele>
        <time>2024-09-29T07:01:01.999Z</time>
      </trkpt>
      <trkpt lat="42.39371" lon="1.1479">
        <ele>1170.89</ele>
        <time>2024-09-29T07:01:06.999Z</time>
      </trkpt>
      <trkpt lat="42.3942" lon="1.14819">
        <ele>1167.93</ele>
        <time>2024-09-29T07:01:11.999Z</time>
      </trkpt>
      <trkpt lat="42.39471" lon="1.14834">
        <ele>1165.16</ele>
        <time>2024-09-29T07:01:16.999Z</time>
      </trkpt>
      <trkpt lat="42.39508" lon="1.14795">
        <ele>1160.92</ele>
        <time>2024-09-29T07:01:21.999Z</time>
      </trkpt>
      <trkpt lat="42.39475" lon="1.14765">
        <ele>1157.12</ele>
        <time>2024-09-29T07:01:26.999Z</time>
      </trkpt>
      <trkpt lat="42.3943" lon="1.14778">
        <ele>1154.17</ele>
        <time>2024-09-29T07:01:31.999Z</time>
      </trkpt>
      <trkpt lat="42.39388" lon="1.14757">
        <ele>1151.17</ele>
        <time>2024-09-29T07:01:36.999Z</time>
      </trkpt>
      <trkpt lat="42.3936" lon="1.14708">
        <ele>1147.99</ele>
        <time>2024-09-29T07:01:41.999Z</time>
      </trkpt>
      <trkpt lat="42.3934" lon="1.14651">
        <ele>1144.84</ele>
        <time>2024-09-29T07:01:46.999Z</time>
      </trkpt>
      <trkpt lat="42.39315" lon="1.14598">
        <ele>1141.47</ele>
        <time>2024-09-29T07:01:51.999Z</time>
      </trkpt>
      <trkpt lat="42.39266" lon="1.14585">
        <ele>1138.86</ele>
        <time>2024-09-29T07:01:56.999Z</time>
      </trkpt>
      <trkpt lat="42.39225" lon="1.14627">
        <ele>1137.46</ele>
        <time>2024-09-29T07:02:01.999Z</time>
      </trkpt>
      <trkpt lat="42.3919" lon="1.14681">
        <ele>1136.22</ele>
        <time>2024-09-29T07:02:06.999Z</time>
      </trkpt>
      <trkpt lat="42.39156" lon="1.14737">
        <ele>1134.51</ele>
        <time>2024-09-29T07:02:11.999Z</time>
      </trkpt>
      <trkpt lat="42.39121" lon="1.14793">
        <ele>1132.57</ele>
        <time>2024-09-29T07:02:16.999Z</time>
      </trkpt>
      <trkpt lat="42.39081" lon="1.14844">
        <ele>1130.41</ele>
        <time>2024-09-29T07:02:21.999Z</time>
      </trkpt>
      <trkpt lat="42.39037" lon="1.14891">
        <ele>1127.86</ele>
        <time>2024-09-29T07:02:26.999Z</time>
      </trkpt>
      <trkpt lat="42.38997" lon="1.14947">
        <ele>1125.05</ele>
        <time>2024-09-29T07:02:31.999Z</time>
      </trkpt>
      <trkpt lat="42.38976" lon="1.15019">
        <ele>1122.03</ele>
        <time>2024-09-29T07:02:36.999Z</time>
      </trkpt>
      <trkpt lat="42.38983" lon="1.15096">
        <ele>1117.46</ele>
        <time>2024-09-29T07:02:41.999Z</time>
      </trkpt>
      <trkpt lat="42.38998" lon="1.15172">
        <ele>1113.3</ele>
        <time>2024-09-29T07:02:46.999Z</time>
      </trkpt>
      <trkpt lat="42.38991" lon="1.15247">
        <ele>1108.45</ele>
        <time>2024-09-29T07:02:51.999Z</time>
      </trkpt>
      <trkpt lat="42.38968" lon="1.15313">
        <ele>1101.52</ele>
        <time>2024-09-29T07:02:56.999Z</time>
      </trkpt>
      <trkpt lat="42.38954" lon="1.1538">
        <ele>1095.91</ele>
        <time>2024-09-29T07:03:01.999Z</time>
      </trkpt>
      <trkpt lat="42.3892" lon="1.15396">
        <ele>1090.17</ele>
        <time>2024-09-29T07:03:06.999Z</time>
      </trkpt>
      <trkpt lat="42.38933" lon="1.15335">
        <ele>1084.76</ele>
        <time>2024-09-29T07:03:11.999Z</time>
      </trkpt>
      <trkpt lat="42.3896" lon="1.15271">
        <ele>1080.17</ele>
        <time>2024-09-29T07:03:16.999Z</time>
      </trkpt>
      <trkpt lat="42.38965" lon="1.15193">
        <ele>1076.22</ele>
        <time>2024-09-29T07:03:21.999Z</time>
      </trkpt>
      <trkpt lat="42.38939" lon="1.1512">
        <ele>1072.09</ele>
        <time>2024-09-29T07:03:26.999Z</time>
      </trkpt>
      <trkpt lat="42.38917" lon="1.15042">
        <ele>1064.15</ele>
        <time>2024-09-29T07:03:31.999Z</time>
      </trkpt>
      <trkpt lat="42.38916" lon="1.14958">
        <ele>1057.92</ele>
        <time>2024-09-29T07:03:36.999Z</time>
      </trkpt>
      <trkpt lat="42.38926" lon="1.14876">
        <ele>1053.35</ele>
        <time>2024-09-29T07:03:41.999Z</time>
      </trkpt>
      <trkpt lat="42.38936" lon="1.14794">
        <ele>1049.95</ele>
        <time>2024-09-29T07:03:46.999Z</time>
      </trkpt>
      <trkpt lat="42.38952" lon="1.14714">
        <ele>1046.78</ele>
        <time>2024-09-29T07:03:51.999Z</time>
      </trkpt>
      <trkpt lat="42.38976" lon="1.14639">
        <ele>1043.48</ele>
        <time>2024-09-29T07:03:56.999Z</time>
      </trkpt>
      <trkpt lat="42.39002" lon="1.14566">
        <ele>1039.88</ele>
        <time>2024-09-29T07:04:01.999Z</time>
      </trkpt>
      <trkpt lat="42.39025" lon="1.1449">
        <ele>1035.62</ele>
        <time>2024-09-29T07:04:06.999Z</time>
      </trkpt>
      <trkpt lat="42.39055" lon="1.14419">
        <ele>1032.21</ele>
        <time>2024-09-29T07:04:11.999Z</time>
      </trkpt>
      <trkpt lat="42.39084" lon="1.14344">
        <ele>1029.47</ele>
        <time>2024-09-29T07:04:16.999Z</time>
      </trkpt>
      <trkpt lat="42.39112" lon="1.14268">
        <ele>1025.97</ele>
        <time>2024-09-29T07:04:21.999Z</time>
      </trkpt>
      <trkpt lat="42.39142" lon="1.14194">
        <ele>1021.99</ele>
        <time>2024-09-29T07:04:26.999Z</time>
      </trkpt>
      <trkpt lat="42.39177" lon="1.14124">
        <ele>1017.94</ele>
        <time>2024-09-29T07:04:31.999Z</time>
      </trkpt>
      <trkpt lat="42.39216" lon="1.14057">
        <ele>1014.19</ele>
        <time>2024-09-29T07:04:36.999Z</time>
      </trkpt>
      <trkpt lat="42.39272" lon="1.14014">
        <ele>1009.66</ele>
        <time>2024-09-29T07:04:41.999Z</time>
      </trkpt>
      <trkpt lat="42.39336" lon="1.14021">
        <ele>1002.03</ele>
        <time>2024-09-29T07:04:46.999Z</time>
      </trkpt>
      <trkpt lat="42.39389" lon="1.14073">
        <ele>992.47</ele>
        <time>2024-09-29T07:04:51.999Z</time>
      </trkpt>
      <trkpt lat="42.39423" lon="1.14147">
        <ele>986</ele>
        <time>2024-09-29T07:04:56.999Z</time>
      </trkpt>
      <trkpt lat="42.39457" lon="1.14221">
        <ele>979.71</ele>
        <time>2024-09-29T07:05:01.999Z</time>
      </trkpt>
      <trkpt lat="42.39508" lon="1.14274">
        <ele>973.78</ele>
        <time>2024-09-29T07:05:06.999Z</time>
      </trkpt>
      <trkpt lat="42.39569" lon="1.14288">
        <ele>968.04</ele>
        <time>2024-09-29T07:05:11.999Z</time>
      </trkpt>
      <trkpt lat="42.39629" lon="1.14292">
        <ele>963.42</ele>
        <time>2024-09-29T07:05:16.999Z</time>
      </trkpt>
      <trkpt lat="42.39689" lon="1.14296">
        <ele>959.47</ele>
        <time>2024-09-29T07:05:21.999Z</time>
      </trkpt>
      <trkpt lat="42.3975" lon="1.14297">
        <ele>956.33</ele>
        <time>2024-09-29T07:05:26.999Z</time>
      </trkpt>
      <trkpt lat="42.39812" lon="1.14301">
        <ele>952.42</ele>
        <time>2024-09-29T07:05:31.999Z</time>
      </trkpt>
      <trkpt lat="42.39868" lon="1.14272">
        <ele>949.29</ele>
        <time>2024-09-29T07:05:36.999Z</time>
      </trkpt>
      <trkpt lat="42.3992" lon="1.14227">
        <ele>945.75</ele>
        <time>2024-09-29T07:05:41.999Z</time>
      </trkpt>
      <trkpt lat="42.39972" lon="1.14182">
        <ele>942.5</ele>
        <time>2024-09-29T07:05:46.999Z</time>
      </trkpt>
      <trkpt lat="42.40034" lon="1.14189">
        <ele>932.84</ele>
        <time>2024-09-29T07:05:51.999Z</time>
      </trkpt>
      <trkpt lat="42.40093" lon="1.14194">
        <ele>926.71</ele>
        <time>2024-09-29T07:05:56.999Z</time>
      </trkpt>
      <trkpt lat="42.40152" lon="1.14196">
        <ele>922.66</ele>
        <time>2024-09-29T07:06:01.999Z</time>
      </trkpt>
      <trkpt lat="42.40208" lon="1.14181">
        <ele>917.45</ele>
        <time>2024-09-29T07:06:06.999Z</time>
      </trkpt>
      <trkpt lat="42.40214" lon="1.14114">
        <ele>910.74</ele>
        <time>2024-09-29T07:06:11.999Z</time>
      </trkpt>
      <trkpt lat="42.40156" lon="1.14106">
        <ele>904.98</ele>
        <time>2024-09-29T07:06:16.999Z</time>
      </trkpt>
      <trkpt lat="42.40097" lon="1.14129">
        <ele>899.9</ele>
        <time>2024-09-29T07:06:21.999Z</time>
      </trkpt>
      <trkpt lat="42.40042" lon="1.14096">
        <ele>895.82</ele>
        <time>2024-09-29T07:06:26.999Z</time>
      </trkpt>
      <trkpt lat="42.39984" lon="1.14082">
        <ele>890.01</ele>
        <time>2024-09-29T07:06:31.999Z</time>
      </trkpt>
      <trkpt lat="42.39926" lon="1.14072">
        <ele>882.24</ele>
        <time>2024-09-29T07:06:36.999Z</time>
      </trkpt>
      <trkpt lat="42.39869" lon="1.14049">
        <ele>876.14</ele>
        <time>2024-09-29T07:06:41.999Z</time>
      </trkpt>
      <trkpt lat="42.39821" lon="1.14004">
        <ele>870.84</ele>
        <time>2024-09-29T07:06:46.999Z</time>
      </trkpt>
      <trkpt lat="42.39777" lon="1.13948">
        <ele>866.39</ele>
        <time>2024-09-29T07:06:51.999Z</time>
      </trkpt>
      <trkpt lat="42.39723" lon="1.13911">
        <ele>861.28</ele>
        <time>2024-09-29T07:06:56.999Z</time>
      </trkpt>
      <trkpt lat="42.39664" lon="1.13906">
        <ele>856.91</ele>
        <time>2024-09-29T07:07:01.999Z</time>
      </trkpt>
      <trkpt lat="42.39609" lon="1.13902">
        <ele>853.29</ele>
        <time>2024-09-29T07:07:06.999Z</time>
      </trkpt>
      <trkpt lat="42.39598" lon="1.13845">
        <ele>849.35</ele>
        <time>2024-09-29T07:07:11.999Z</time>
      </trkpt>
      <trkpt lat="42.39641" lon="1.13813">
        <ele>844.3</ele>
        <time>2024-09-29T07:07:16.999Z</time>
      </trkpt>
      <trkpt lat="42.39695" lon="1.1382">
        <ele>841.38</ele>
        <time>2024-09-29T07:07:21.999Z</time>
      </trkpt>
      <trkpt lat="42.39744" lon="1.13807">
        <ele>839.14</ele>
        <time>2024-09-29T07:07:26.999Z</time>
      </trkpt>
      <trkpt lat="42.39791" lon="1.13801">
        <ele>837.52</ele>
        <time>2024-09-29T07:07:31.999Z</time>
      </trkpt>
      <trkpt lat="42.39841" lon="1.13806">
        <ele>835.92</ele>
        <time>2024-09-29T07:07:36.999Z</time>
      </trkpt>
      <trkpt lat="42.39892" lon="1.13823">
        <ele>833.47</ele>
        <time>2024-09-29T07:07:41.999Z</time>
      </trkpt>
      <trkpt lat="42.39942" lon="1.13855">
        <ele>830.9</ele>
        <time>2024-09-29T07:07:46.999Z</time>
      </trkpt>
      <trkpt lat="42.39994" lon="1.13885">
        <ele>828.4</ele>
        <time>2024-09-29T07:07:51.999Z</time>
      </trkpt>
      <trkpt lat="42.40049" lon="1.13896">
        <ele>825.69</ele>
        <time>2024-09-29T07:07:56.999Z</time>
      </trkpt>
      <trkpt lat="42.40104" lon="1.13879">
        <ele>822.35</ele>
        <time>2024-09-29T07:08:01.999Z</time>
      </trkpt>
      <trkpt lat="42.40159" lon="1.13852">
        <ele>818.58</ele>
        <time>2024-09-29T07:08:06.999Z</time>
      </trkpt>
      <trkpt lat="42.40216" lon="1.13828">
        <ele>814.69</ele>
        <time>2024-09-29T07:08:11.999Z</time>
      </trkpt>
      <trkpt lat="42.40273" lon="1.13809">
        <ele>808.81</ele>
        <time>2024-09-29T07:08:16.999Z</time>
      </trkpt>
      <trkpt lat="42.40328" lon="1.13796">
        <ele>802.88</ele>
        <time>2024-09-29T07:08:21.999Z</time>
      </trkpt>
      <trkpt lat="42.40373" lon="1.13754">
        <ele>796.72</ele>
        <time>2024-09-29T07:08:26.999Z</time>
      </trkpt>
      <trkpt lat="42.40412" lon="1.13698">
        <ele>791.74</ele>
        <time>2024-09-29T07:08:31.999Z</time>
      </trkpt>
      <trkpt lat="42.40454" lon="1.13642">
        <ele>787.24</ele>
        <time>2024-09-29T07:08:36.999Z</time>
      </trkpt>
      <trkpt lat="42.40508" lon="1.13608">
        <ele>783.06</ele>
        <time>2024-09-29T07:08:41.999Z</time>
      </trkpt>
      <trkpt lat="42.40566" lon="1.1359">
        <ele>778.77</ele>
        <time>2024-09-29T07:08:46.999Z</time>
      </trkpt>
      <trkpt lat="42.40621" lon="1.13564">
        <ele>774.77</ele>
        <time>2024-09-29T07:08:51.999Z</time>
      </trkpt>
      <trkpt lat="42.40669" lon="1.13524">
        <ele>770.35</ele>
        <time>2024-09-29T07:08:56.999Z</time>
      </trkpt>
      <trkpt lat="42.40707" lon="1.13466">
        <ele>765.76</ele>
        <time>2024-09-29T07:09:01.999Z</time>
      </trkpt>
      <trkpt lat="42.40744" lon="1.13408">
        <ele>761.45</ele>
        <time>2024-09-29T07:09:06.999Z</time>
      </trkpt>
      <trkpt lat="42.40783" lon="1.13355">
        <ele>757.62</ele>
        <time>2024-09-29T07:09:11.999Z</time>
      </trkpt>
      <trkpt lat="42.40828" lon="1.13313">
        <ele>754.28</ele>
        <time>2024-09-29T07:09:16.999Z</time>
      </trkpt>
      <trkpt lat="42.40872" lon="1.13273">
        <ele>750.74</ele>
        <time>2024-09-29T07:09:21.999Z</time>
      </trkpt>
      <trkpt lat="42.40894" lon="1.13213">
        <ele>747.31</ele>
        <time>2024-09-29T07:09:26.999Z</time>
      </trkpt>
      <trkpt lat="42.4091" lon="1.13148">
        <ele>743.92</ele>
        <time>2024-09-29T07:09:31.999Z</time>
      </trkpt>
      <trkpt lat="42.40923" lon="1.13097">
        <ele>741.04</ele>
        <time>2024-09-29T07:09:36.999Z</time>
      </trkpt>
      <trkpt lat="42.40931" lon="1.13064">
        <ele>738.62</ele>
        <time>2024-09-29T07:09:41.999Z</time>
      </trkpt>
      <trkpt lat="42.40938" lon="1.13038">
        <ele>737.68</ele>
        <time>2024-09-29T07:09:46.999Z</time>
      </trkpt>
      <trkpt lat="42.40943" lon="1.13021">
        <ele>737.23</ele>
        <time>2024-09-29T07:09:51.999Z</time>
      </trkpt>
      <trkpt lat="42.40948" lon="1.13007">
        <ele>736.24</ele>
        <time>2024-09-29T07:10:06.999Z</time>
      </trkpt>
      <trkpt lat="42.40952" lon="1.12991">
        <ele>734.16</ele>
        <time>2024-09-29T07:10:27.999Z</time>
      </trkpt>
      <trkpt lat="42.40956" lon="1.12978">
        <ele>732.17</ele>
        <time>2024-09-29T07:10:41.999Z</time>
      </trkpt>
      <trkpt lat="42.4096" lon="1.12965">
        <ele>730.94</ele>
        <time>2024-09-29T07:10:48.999Z</time>
      </trkpt>
      <trkpt lat="42.40964" lon="1.12954">
        <ele>729.79</ele>
        <time>2024-09-29T07:10:55.000Z</time>
      </trkpt>
      <trkpt lat="42.40972" lon="1.12944">
        <ele>727.14</ele>
        <time>2024-09-29T07:11:39.000Z</time>
      </trkpt>
      <trkpt lat="42.40982" lon="1.12931">
        <ele>726.07</ele>
        <time>2024-09-29T07:11:44.000Z</time>
      </trkpt>
      <trkpt lat="42.40989" lon="1.12923">
        <ele>724.82</ele>
        <time>2024-09-29T07:11:51.000Z</time>
      </trkpt>
      <trkpt lat="42.40999" lon="1.12918">
        <ele>723.84</ele>
        <time>2024-09-29T07:11:56.000Z</time>
      </trkpt>
      <trkpt lat="42.41008" lon="1.12932">
        <ele>722.92</ele>
        <time>2024-09-29T07:12:01.000Z</time>
      </trkpt>
      <trkpt lat="42.41014" lon="1.12941">
        <ele>722.03</ele>
        <time>2024-09-29T07:12:06.000Z</time>
      </trkpt>
      <trkpt lat="42.41005" lon="1.12936">
        <ele>720.53</ele>
        <time>2024-09-29T07:12:21.000Z</time>
      </trkpt>
      <trkpt lat="42.41" lon="1.12921">
        <ele>720.02</ele>
        <time>2024-09-29T07:12:26.000Z</time>
      </trkpt>
      <trkpt lat="42.40998" lon="1.12906">
        <ele>718.85</ele>
        <time>2024-09-29T07:12:39.000Z</time>
      </trkpt>
      <trkpt lat="42.40989" lon="1.12899">
        <ele>717.79</ele>
        <time>2024-09-29T07:12:47.000Z</time>
      </trkpt>
      <trkpt lat="42.40978" lon="1.12905">
        <ele>717.06</ele>
        <time>2024-09-29T07:12:52.000Z</time>
      </trkpt>
      <trkpt lat="42.40974" lon="1.12924">
        <ele>716.33</ele>
        <time>2024-09-29T07:12:57.000Z</time>
      </trkpt>
      <trkpt lat="42.40961" lon="1.12938">
        <ele>715.63</ele>
        <time>2024-09-29T07:13:02.000Z</time>
      </trkpt>
      <trkpt lat="42.40959" lon="1.12956">
        <ele>714.98</ele>
        <time>2024-09-29T07:13:07.000Z</time>
      </trkpt>
      <trkpt lat="42.40954" lon="1.12972">
        <ele>714.38</ele>
        <time>2024-09-29T07:13:12.000Z</time>
      </trkpt>
      <trkpt lat="42.4095" lon="1.12984">
        <ele>713.82</ele>
        <time>2024-09-29T07:13:17.000Z</time>
      </trkpt>
      <trkpt lat="42.40951" lon="1.12998">
        <ele>713.29</ele>
        <time>2024-09-29T07:13:22.000Z</time>
      </trkpt>
      <trkpt lat="42.40942" lon="1.13">
        <ele>712.43</ele>
        <time>2024-09-29T07:13:31.000Z</time>
      </trkpt>
      <trkpt lat="42.40917" lon="1.1299">
        <ele>709.02</ele>
        <time>2024-09-29T07:13:36.000Z</time>
      </trkpt>
      <trkpt lat="42.40897" lon="1.12979">
        <ele>707.93</ele>
        <time>2024-09-29T07:13:41.000Z</time>
      </trkpt>
      <trkpt lat="42.40894" lon="1.12967">
        <ele>707.8</ele>
        <time>2024-09-29T07:13:47.000Z</time>
      </trkpt>
      <trkpt lat="42.4089" lon="1.12953">
        <ele>707.68</ele>
        <time>2024-09-29T07:13:52.000Z</time>
      </trkpt>
      <trkpt lat="42.40891" lon="1.1294">
        <ele>706.92</ele>
        <time>2024-09-29T07:15:55.000Z</time>
      </trkpt>
      <trkpt lat="42.40883" lon="1.12947">
        <ele>704.81</ele>
        <time>2024-09-29T07:24:18.999Z</time>
      </trkpt>
      <trkpt lat="42.40873" lon="1.12952">
        <ele>704.58</ele>
        <time>2024-09-29T07:24:23.999Z</time>
      </trkpt>
      <trkpt lat="42.40855" lon="1.12953">
        <ele>703.65</ele>
        <time>2024-09-29T07:24:28.999Z</time>
      </trkpt>
      <trkpt lat="42.40829" lon="1.12952">
        <ele>703.05</ele>
        <time>2024-09-29T07:24:33.999Z</time>
      </trkpt>
      <trkpt lat="42.40801" lon="1.12953">
        <ele>702.63</ele>
        <time>2024-09-29T07:24:38.999Z</time>
      </trkpt>
      <trkpt lat="42.40775" lon="1.12954">
        <ele>702.23</ele>
        <time>2024-09-29T07:24:43.999Z</time>
      </trkpt>
      <trkpt lat="42.40748" lon="1.12956">
        <ele>702.03</ele>
        <time>2024-09-29T07:24:48.999Z</time>
      </trkpt>
      <trkpt lat="42.40722" lon="1.12958">
        <ele>701.96</ele>
        <time>2024-09-29T07:24:53.999Z</time>
      </trkpt>
      <trkpt lat="42.407" lon="1.1297">
        <ele>701.85</ele>
        <time>2024-09-29T07:24:58.999Z</time>
      </trkpt>
      <trkpt lat="42.40682" lon="1.12978">
        <ele>701.78</ele>
        <time>2024-09-29T07:25:03.999Z</time>
      </trkpt>
      <trkpt lat="42.40666" lon="1.12982">
        <ele>701.76</ele>
        <time>2024-09-29T07:25:08.999Z</time>
      </trkpt>
      <trkpt lat="42.40675" lon="1.12982">
        <ele>701.29</ele>
        <time>2024-09-29T07:26:01.999Z</time>
      </trkpt>
      <trkpt lat="42.40686" lon="1.12979">
        <ele>701.13</ele>
        <time>2024-09-29T07:26:06.999Z</time>
      </trkpt>
      <trkpt lat="42.40701" lon="1.1297">
        <ele>700.98</ele>
        <time>2024-09-29T07:26:11.999Z</time>
      </trkpt>
      <trkpt lat="42.40719" lon="1.12964">
        <ele>700.83</ele>
        <time>2024-09-29T07:26:16.999Z</time>
      </trkpt>
      <trkpt lat="42.40735" lon="1.12963">
        <ele>700.7</ele>
        <time>2024-09-29T07:26:21.999Z</time>
      </trkpt>
      <trkpt lat="42.40752" lon="1.12962">
        <ele>700.57</ele>
        <time>2024-09-29T07:26:26.999Z</time>
      </trkpt>
      <trkpt lat="42.40768" lon="1.12963">
        <ele>700.43</ele>
        <time>2024-09-29T07:26:31.999Z</time>
      </trkpt>
      <trkpt lat="42.40785" lon="1.12964">
        <ele>700.09</ele>
        <time>2024-09-29T07:26:36.999Z</time>
      </trkpt>
      <trkpt lat="42.40806" lon="1.12958">
        <ele>699.3</ele>
        <time>2024-09-29T07:26:41.999Z</time>
      </trkpt>
      <trkpt lat="42.40816" lon="1.12934">
        <ele>699.12</ele>
        <time>2024-09-29T07:26:46.999Z</time>
      </trkpt>
      <trkpt lat="42.40814" lon="1.12907">
        <ele>699.04</ele>
        <time>2024-09-29T07:26:51.999Z</time>
      </trkpt>
      <trkpt lat="42.40811" lon="1.12883">
        <ele>698.98</ele>
        <time>2024-09-29T07:26:56.999Z</time>
      </trkpt>
      <trkpt lat="42.40813" lon="1.12863">
        <ele>698.92</ele>
        <time>2024-09-29T07:27:01.999Z</time>
      </trkpt>
      <trkpt lat="42.40808" lon="1.12877">
        <ele>698.84</ele>
        <time>2024-09-29T07:27:08.999Z</time>
      </trkpt>
      <trkpt lat="42.4082" lon="1.12884">
        <ele>698.69</ele>
        <time>2024-09-29T07:27:13.999Z</time>
      </trkpt>
      <trkpt lat="42.40842" lon="1.12877">
        <ele>698.28</ele>
        <time>2024-09-29T07:27:18.999Z</time>
      </trkpt>
      <trkpt lat="42.40867" lon="1.12869">
        <ele>698.15</ele>
        <time>2024-09-29T07:27:23.999Z</time>
      </trkpt>
      <trkpt lat="42.40896" lon="1.12863">
        <ele>698.19</ele>
        <time>2024-09-29T07:27:28.999Z</time>
      </trkpt>
      <trkpt lat="42.40922" lon="1.12875">
        <ele>698.35</ele>
        <time>2024-09-29T07:27:33.999Z</time>
      </trkpt>
      <trkpt lat="42.40949" lon="1.12893">
        <ele>698.41</ele>
        <time>2024-09-29T07:27:38.999Z</time>
      </trkpt>
      <trkpt lat="42.4097" lon="1.12904">
        <ele>698.44</ele>
        <time>2024-09-29T07:27:43.999Z</time>
      </trkpt>
      <trkpt lat="42.40981" lon="1.12901">
        <ele>698.44</ele>
        <time>2024-09-29T07:27:48.999Z</time>
      </trkpt>
      <trkpt lat="42.40985" lon="1.12912">
        <ele>698.45</ele>
        <time>2024-09-29T07:27:53.999Z</time>
      </trkpt>
      <trkpt lat="42.40994" lon="1.12919">
        <ele>698.43</ele>
        <time>2024-09-29T07:27:59.999Z</time>
      </trkpt>
      <trkpt lat="42.41006" lon="1.12907">
        <ele>698.41</ele>
        <time>2024-09-29T07:28:04.999Z</time>
      </trkpt>
      <trkpt lat="42.41019" lon="1.12891">
        <ele>698.33</ele>
        <time>2024-09-29T07:28:09.999Z</time>
      </trkpt>
      <trkpt lat="42.41031" lon="1.12877">
        <ele>698.3</ele>
        <time>2024-09-29T07:28:14.999Z</time>
      </trkpt>
      <trkpt lat="42.41031" lon="1.12862">
        <ele>698.28</ele>
        <time>2024-09-29T07:28:22.999Z</time>
      </trkpt>
      <trkpt lat="42.41015" lon="1.12838">
        <ele>698.25</ele>
        <time>2024-09-29T07:28:27.999Z</time>
      </trkpt>
      <trkpt lat="42.40998" lon="1.12812">
        <ele>698.24</ele>
        <time>2024-09-29T07:28:32.999Z</time>
      </trkpt>
      <trkpt lat="42.40981" lon="1.12783">
        <ele>698.24</ele>
        <time>2024-09-29T07:28:37.999Z</time>
      </trkpt>
      <trkpt lat="42.40965" lon="1.12756">
        <ele>698.2</ele>
        <time>2024-09-29T07:28:42.999Z</time>
      </trkpt>
      <trkpt lat="42.40949" lon="1.12738">
        <ele>698.13</ele>
        <time>2024-09-29T07:28:47.999Z</time>
      </trkpt>
      <trkpt lat="42.40929" lon="1.12725">
        <ele>698.06</ele>
        <time>2024-09-29T07:28:52.999Z</time>
      </trkpt>
      <trkpt lat="42.40909" lon="1.12715">
        <ele>698</ele>
        <time>2024-09-29T07:28:57.999Z</time>
      </trkpt>
      <trkpt lat="42.4089" lon="1.12713">
        <ele>697.95</ele>
        <time>2024-09-29T07:29:02.999Z</time>
      </trkpt>
      <trkpt lat="42.40871" lon="1.12719">
        <ele>697.97</ele>
        <time>2024-09-29T07:29:07.999Z</time>
      </trkpt>
      <trkpt lat="42.40854" lon="1.12729">
        <ele>698.01</ele>
        <time>2024-09-29T07:29:12.999Z</time>
      </trkpt>
      <trkpt lat="42.40837" lon="1.12742">
        <ele>698.07</ele>
        <time>2024-09-29T07:29:17.999Z</time>
      </trkpt>
      <trkpt lat="42.4082" lon="1.12758">
        <ele>698.11</ele>
        <time>2024-09-29T07:29:22.999Z</time>
      </trkpt>
      <trkpt lat="42.40805" lon="1.12774">
        <ele>698.17</ele>
        <time>2024-09-29T07:29:27.999Z</time>
      </trkpt>
      <trkpt lat="42.40789" lon="1.12791">
        <ele>698.24</ele>
        <time>2024-09-29T07:29:32.999Z</time>
      </trkpt>
      <trkpt lat="42.40773" lon="1.12806">
        <ele>698.33</ele>
        <time>2024-09-29T07:29:37.999Z</time>
      </trkpt>
      <trkpt lat="42.40755" lon="1.12817">
        <ele>698.43</ele>
        <time>2024-09-29T07:29:42.999Z</time>
      </trkpt>
      <trkpt lat="42.40735" lon="1.12824">
        <ele>698.51</ele>
        <time>2024-09-29T07:29:47.999Z</time>
      </trkpt>
      <trkpt lat="42.40715" lon="1.12829">
        <ele>698.62</ele>
        <time>2024-09-29T07:29:52.999Z</time>
      </trkpt>
      <trkpt lat="42.40695" lon="1.12833">
        <ele>698.75</ele>
        <time>2024-09-29T07:29:57.999Z</time>
      </trkpt>
      <trkpt lat="42.40676" lon="1.12838">
        <ele>698.87</ele>
        <time>2024-09-29T07:30:02.999Z</time>
      </trkpt>
      <trkpt lat="42.40656" lon="1.12843">
        <ele>698.97</ele>
        <time>2024-09-29T07:30:07.999Z</time>
      </trkpt>
      <trkpt lat="42.40637" lon="1.12851">
        <ele>699.07</ele>
        <time>2024-09-29T07:30:12.999Z</time>
      </trkpt>
      <trkpt lat="42.40616" lon="1.12858">
        <ele>699.19</ele>
        <time>2024-09-29T07:30:17.999Z</time>
      </trkpt>
      <trkpt lat="42.40595" lon="1.12867">
        <ele>699.29</ele>
        <time>2024-09-29T07:30:22.999Z</time>
      </trkpt>
      <trkpt lat="42.40573" lon="1.12877">
        <ele>699.36</ele>
        <time>2024-09-29T07:30:27.999Z</time>
      </trkpt>
      <trkpt lat="42.40552" lon="1.12887">
        <ele>699.44</ele>
        <time>2024-09-29T07:30:32.999Z</time>
      </trkpt>
      <trkpt lat="42.4053" lon="1.12897">
        <ele>699.51</ele>
        <time>2024-09-29T07:30:37.999Z</time>
      </trkpt>
      <trkpt lat="42.40507" lon="1.12908">
        <ele>699.6</ele>
        <time>2024-09-29T07:30:42.999Z</time>
      </trkpt>
      <trkpt lat="42.40483" lon="1.1292">
        <ele>699.67</ele>
        <time>2024-09-29T07:30:47.999Z</time>
      </trkpt>
      <trkpt lat="42.4046" lon="1.12931">
        <ele>699.72</ele>
        <time>2024-09-29T07:30:52.999Z</time>
      </trkpt>
      <trkpt lat="42.40436" lon="1.12945">
        <ele>699.75</ele>
        <time>2024-09-29T07:30:57.999Z</time>
      </trkpt>
      <trkpt lat="42.40413" lon="1.1296">
        <ele>699.81</ele>
        <time>2024-09-29T07:31:02.999Z</time>
      </trkpt>
      <trkpt lat="42.40391" lon="1.12976">
        <ele>699.86</ele>
        <time>2024-09-29T07:31:07.999Z</time>
      </trkpt>
      <trkpt lat="42.40369" lon="1.12993">
        <ele>699.91</ele>
        <time>2024-09-29T07:31:12.999Z</time>
      </trkpt>
      <trkpt lat="42.40346" lon="1.13011">
        <ele>699.97</ele>
        <time>2024-09-29T07:31:17.999Z</time>
      </trkpt>
      <trkpt lat="42.40323" lon="1.13029">
        <ele>700.03</ele>
        <time>2024-09-29T07:31:22.999Z</time>
      </trkpt>
      <trkpt lat="42.40299" lon="1.13045">
        <ele>700.1</ele>
        <time>2024-09-29T07:31:27.999Z</time>
      </trkpt>
      <trkpt lat="42.40275" lon="1.13059">
        <ele>700.15</ele>
        <time>2024-09-29T07:31:32.999Z</time>
      </trkpt>
      <trkpt lat="42.40251" lon="1.13071">
        <ele>700.21</ele>
        <time>2024-09-29T07:31:37.999Z</time>
      </trkpt>
      <trkpt lat="42.40226" lon="1.13082">
        <ele>700.25</ele>
        <time>2024-09-29T07:31:42.999Z</time>
      </trkpt>
      <trkpt lat="42.40202" lon="1.13089">
        <ele>700.27</ele>
        <time>2024-09-29T07:31:47.999Z</time>
      </trkpt>
      <trkpt lat="42.40178" lon="1.13094">
        <ele>700.27</ele>
        <time>2024-09-29T07:31:52.999Z</time>
      </trkpt>
      <trkpt lat="42.40157" lon="1.13097">
        <ele>700.27</ele>
        <time>2024-09-29T07:31:57.999Z</time>
      </trkpt>
      <trkpt lat="42.40134" lon="1.13098">
        <ele>700.3</ele>
        <time>2024-09-29T07:32:02.999Z</time>
      </trkpt>
      <trkpt lat="42.4011" lon="1.13091">
        <ele>700.38</ele>
        <time>2024-09-29T07:32:07.999Z</time>
      </trkpt>
      <trkpt lat="42.40086" lon="1.13077">
        <ele>700.47</ele>
        <time>2024-09-29T07:32:12.999Z</time>
      </trkpt>
      <trkpt lat="42.40065" lon="1.13061">
        <ele>700.52</ele>
        <time>2024-09-29T07:32:17.999Z</time>
      </trkpt>
      <trkpt lat="42.40046" lon="1.13039">
        <ele>700.58</ele>
        <time>2024-09-29T07:32:22.999Z</time>
      </trkpt>
      <trkpt lat="42.4003" lon="1.13013">
        <ele>700.64</ele>
        <time>2024-09-29T07:32:27.999Z</time>
      </trkpt>
      <trkpt lat="42.40014" lon="1.12985">
        <ele>700.7</ele>
        <time>2024-09-29T07:32:32.999Z</time>
      </trkpt>
      <trkpt lat="42.39998" lon="1.12957">
        <ele>700.76</ele>
        <time>2024-09-29T07:32:37.999Z</time>
      </trkpt>
      <trkpt lat="42.39984" lon="1.12927">
        <ele>700.81</ele>
        <time>2024-09-29T07:32:42.999Z</time>
      </trkpt>
      <trkpt lat="42.39971" lon="1.12898">
        <ele>700.86</ele>
        <time>2024-09-29T07:32:47.999Z</time>
      </trkpt>
      <trkpt lat="42.39957" lon="1.12871">
        <ele>700.9</ele>
        <time>2024-09-29T07:32:52.999Z</time>
      </trkpt>
      <trkpt lat="42.3994" lon="1.12845">
        <ele>700.93</ele>
        <time>2024-09-29T07:32:57.999Z</time>
      </trkpt>
      <trkpt lat="42.39921" lon="1.12819">
        <ele>700.94</ele>
        <time>2024-09-29T07:33:02.999Z</time>
      </trkpt>
      <trkpt lat="42.39899" lon="1.12795">
        <ele>700.94</ele>
        <time>2024-09-29T07:33:07.999Z</time>
      </trkpt>
      <trkpt lat="42.39876" lon="1.12772">
        <ele>700.95</ele>
        <time>2024-09-29T07:33:12.999Z</time>
      </trkpt>
      <trkpt lat="42.39852" lon="1.12751">
        <ele>700.92</ele>
        <time>2024-09-29T07:33:17.999Z</time>
      </trkpt>
      <trkpt lat="42.39825" lon="1.12735">
        <ele>700.92</ele>
        <time>2024-09-29T07:33:22.999Z</time>
      </trkpt>
      <trkpt lat="42.39798" lon="1.12721">
        <ele>701.04</ele>
        <time>2024-09-29T07:33:27.999Z</time>
      </trkpt>
      <trkpt lat="42.39768" lon="1.12708">
        <ele>701.21</ele>
        <time>2024-09-29T07:33:32.999Z</time>
      </trkpt>
      <trkpt lat="42.39736" lon="1.12693">
        <ele>701.32</ele>
        <time>2024-09-29T07:33:37.999Z</time>
      </trkpt>
      <trkpt lat="42.39704" lon="1.12677">
        <ele>701.22</ele>
        <time>2024-09-29T07:33:42.999Z</time>
      </trkpt>
      <trkpt lat="42.39671" lon="1.12663">
        <ele>701.29</ele>
        <time>2024-09-29T07:33:47.999Z</time>
      </trkpt>
      <trkpt lat="42.39637" lon="1.12648">
        <ele>701.38</ele>
        <time>2024-09-29T07:33:52.999Z</time>
      </trkpt>
      <trkpt lat="42.39602" lon="1.12633">
        <ele>701.53</ele>
        <time>2024-09-29T07:33:57.999Z</time>
      </trkpt>
      <trkpt lat="42.39568" lon="1.12617">
        <ele>701.6</ele>
        <time>2024-09-29T07:34:02.999Z</time>
      </trkpt>
      <trkpt lat="42.39533" lon="1.12601">
        <ele>701.56</ele>
        <time>2024-09-29T07:34:07.999Z</time>
      </trkpt>
      <trkpt lat="42.39498" lon="1.12583">
        <ele>701.55</ele>
        <time>2024-09-29T07:34:12.999Z</time>
      </trkpt>
      <trkpt lat="42.39463" lon="1.12568">
        <ele>701.34</ele>
        <time>2024-09-29T07:34:17.999Z</time>
      </trkpt>
      <trkpt lat="42.39428" lon="1.12558">
        <ele>701.04</ele>
        <time>2024-09-29T07:34:22.999Z</time>
      </trkpt>
      <trkpt lat="42.39392" lon="1.12555">
        <ele>700.72</ele>
        <time>2024-09-29T07:34:27.999Z</time>
      </trkpt>
      <trkpt lat="42.39356" lon="1.1256">
        <ele>700.24</ele>
        <time>2024-09-29T07:34:32.999Z</time>
      </trkpt>
      <trkpt lat="42.39321" lon="1.12567">
        <ele>699.76</ele>
        <time>2024-09-29T07:34:37.999Z</time>
      </trkpt>
      <trkpt lat="42.39284" lon="1.12572">
        <ele>699.37</ele>
        <time>2024-09-29T07:34:42.999Z</time>
      </trkpt>
      <trkpt lat="42.39247" lon="1.12567">
        <ele>698.88</ele>
        <time>2024-09-29T07:34:47.999Z</time>
      </trkpt>
      <trkpt lat="42.39211" lon="1.12554">
        <ele>698.33</ele>
        <time>2024-09-29T07:34:52.999Z</time>
      </trkpt>
      <trkpt lat="42.39177" lon="1.12531">
        <ele>697.71</ele>
        <time>2024-09-29T07:34:57.999Z</time>
      </trkpt>
      <trkpt lat="42.39148" lon="1.12501">
        <ele>697.22</ele>
        <time>2024-09-29T07:35:02.999Z</time>
      </trkpt>
      <trkpt lat="42.39122" lon="1.12467">
        <ele>696.76</ele>
        <time>2024-09-29T07:35:07.999Z</time>
      </trkpt>
      <trkpt lat="42.39096" lon="1.12429">
        <ele>696.52</ele>
        <time>2024-09-29T07:35:12.999Z</time>
      </trkpt>
      <trkpt lat="42.39069" lon="1.12392">
        <ele>696.43</ele>
        <time>2024-09-29T07:35:17.999Z</time>
      </trkpt>
      <trkpt lat="42.3904" lon="1.12358">
        <ele>696.28</ele>
        <time>2024-09-29T07:35:22.999Z</time>
      </trkpt>
      <trkpt lat="42.3901" lon="1.1233">
        <ele>696.17</ele>
        <time>2024-09-29T07:35:27.999Z</time>
      </trkpt>
      <trkpt lat="42.38976" lon="1.12305">
        <ele>695.89</ele>
        <time>2024-09-29T07:35:32.999Z</time>
      </trkpt>
      <trkpt lat="42.38941" lon="1.12284">
        <ele>695.52</ele>
        <time>2024-09-29T07:35:37.999Z</time>
      </trkpt>
      <trkpt lat="42.38906" lon="1.12261">
        <ele>695.18</ele>
        <time>2024-09-29T07:35:42.999Z</time>
      </trkpt>
      <trkpt lat="42.38874" lon="1.12231">
        <ele>694.95</ele>
        <time>2024-09-29T07:35:47.999Z</time>
      </trkpt>
      <trkpt lat="42.38847" lon="1.12194">
        <ele>694.68</ele>
        <time>2024-09-29T07:35:52.999Z</time>
      </trkpt>
      <trkpt lat="42.38826" lon="1.12149">
        <ele>694.59</ele>
        <time>2024-09-29T07:35:57.999Z</time>
      </trkpt>
      <trkpt lat="42.38812" lon="1.12099">
        <ele>694.4</ele>
        <time>2024-09-29T07:36:02.999Z</time>
      </trkpt>
      <trkpt lat="42.38803" lon="1.12047">
        <ele>694.22</ele>
        <time>2024-09-29T07:36:07.999Z</time>
      </trkpt>
      <trkpt lat="42.38796" lon="1.11995">
        <ele>693.69</ele>
        <time>2024-09-29T07:36:12.999Z</time>
      </trkpt>
      <trkpt lat="42.38786" lon="1.11946">
        <ele>692.79</ele>
        <time>2024-09-29T07:36:17.999Z</time>
      </trkpt>
      <trkpt lat="42.38771" lon="1.11898">
        <ele>691.47</ele>
        <time>2024-09-29T07:36:22.999Z</time>
      </trkpt>
      <trkpt lat="42.38753" lon="1.11854">
        <ele>690.57</ele>
        <time>2024-09-29T07:36:27.999Z</time>
      </trkpt>
      <trkpt lat="42.38736" lon="1.11814">
        <ele>690.29</ele>
        <time>2024-09-29T07:36:32.999Z</time>
      </trkpt>
      <trkpt lat="42.38717" lon="1.1178">
        <ele>690.32</ele>
        <time>2024-09-29T07:36:37.999Z</time>
      </trkpt>
      <trkpt lat="42.38698" lon="1.11751">
        <ele>690.46</ele>
        <time>2024-09-29T07:36:42.999Z</time>
      </trkpt>
      <trkpt lat="42.38678" lon="1.1173">
        <ele>690.56</ele>
        <time>2024-09-29T07:36:47.999Z</time>
      </trkpt>
      <trkpt lat="42.38659" lon="1.11713">
        <ele>690.6</ele>
        <time>2024-09-29T07:36:53.000Z</time>
      </trkpt>
      <trkpt lat="42.3864" lon="1.11699">
        <ele>690.01</ele>
        <time>2024-09-29T07:36:58.000Z</time>
      </trkpt>
      <trkpt lat="42.38622" lon="1.11689">
        <ele>689.61</ele>
        <time>2024-09-29T07:37:03.000Z</time>
      </trkpt>
      <trkpt lat="42.38604" lon="1.11681">
        <ele>689.43</ele>
        <time>2024-09-29T07:37:08.000Z</time>
      </trkpt>
      <trkpt lat="42.38585" lon="1.11674">
        <ele>689.49</ele>
        <time>2024-09-29T07:37:13.000Z</time>
      </trkpt>
      <trkpt lat="42.38566" lon="1.11668">
        <ele>689.43</ele>
        <time>2024-09-29T07:37:18.000Z</time>
      </trkpt>
      <trkpt lat="42.38547" lon="1.11663">
        <ele>689.37</ele>
        <time>2024-09-29T07:37:23.000Z</time>
      </trkpt>
      <trkpt lat="42.38528" lon="1.11659">
        <ele>689.29</ele>
        <time>2024-09-29T07:37:28.000Z</time>
      </trkpt>
      <trkpt lat="42.3851" lon="1.11655">
        <ele>689.22</ele>
        <time>2024-09-29T07:37:33.000Z</time>
      </trkpt>
      <trkpt lat="42.3849" lon="1.11648">
        <ele>688.95</ele>
        <time>2024-09-29T07:37:38.000Z</time>
      </trkpt>
      <trkpt lat="42.3847" lon="1.11647">
        <ele>688.81</ele>
        <time>2024-09-29T07:37:43.000Z</time>
      </trkpt>
      <trkpt lat="42.38452" lon="1.11637">
        <ele>688.84</ele>
        <time>2024-09-29T07:37:48.000Z</time>
      </trkpt>
      <trkpt lat="42.38438" lon="1.11627">
        <ele>688.86</ele>
        <time>2024-09-29T07:37:53.000Z</time>
      </trkpt>
      <trkpt lat="42.3842" lon="1.11617">
        <ele>688.98</ele>
        <time>2024-09-29T07:37:58.000Z</time>
      </trkpt>
      <trkpt lat="42.38402" lon="1.11607">
        <ele>688.95</ele>
        <time>2024-09-29T07:38:03.000Z</time>
      </trkpt>
      <trkpt lat="42.38384" lon="1.11597">
        <ele>688.82</ele>
        <time>2024-09-29T07:38:08.000Z</time>
      </trkpt>
      <trkpt lat="42.38367" lon="1.11588">
        <ele>688.8</ele>
        <time>2024-09-29T07:38:13.000Z</time>
      </trkpt>
      <trkpt lat="42.38352" lon="1.11578">
        <ele>688.78</ele>
        <time>2024-09-29T07:38:18.000Z</time>
      </trkpt>
      <trkpt lat="42.38339" lon="1.11565">
        <ele>688.76</ele>
        <time>2024-09-29T07:38:23.000Z</time>
      </trkpt>
      <trkpt lat="42.38326" lon="1.11553">
        <ele>688.7</ele>
        <time>2024-09-29T07:38:28.000Z</time>
      </trkpt>
      <trkpt lat="42.38302" lon="1.11535">
        <ele>688.56</ele>
        <time>2024-09-29T07:38:33.000Z</time>
      </trkpt>
      <trkpt lat="42.38277" lon="1.11512">
        <ele>688.45</ele>
        <time>2024-09-29T07:38:38.000Z</time>
      </trkpt>
      <trkpt lat="42.38251" lon="1.11486">
        <ele>688.33</ele>
        <time>2024-09-29T07:38:43.000Z</time>
      </trkpt>
      <trkpt lat="42.38227" lon="1.11456">
        <ele>688.37</ele>
        <time>2024-09-29T07:38:48.000Z</time>
      </trkpt>
      <trkpt lat="42.38204" lon="1.11425">
        <ele>688.28</ele>
        <time>2024-09-29T07:38:53.000Z</time>
      </trkpt>
      <trkpt lat="42.38181" lon="1.11393">
        <ele>688.12</ele>
        <time>2024-09-29T07:38:58.000Z</time>
      </trkpt>
      <trkpt lat="42.38157" lon="1.11361">
        <ele>687.98</ele>
        <time>2024-09-29T07:39:03.000Z</time>
      </trkpt>
      <trkpt lat="42.38135" lon="1.11329">
        <ele>687.71</ele>
        <time>2024-09-29T07:39:08.000Z</time>
      </trkpt>
      <trkpt lat="42.38115" lon="1.11299">
        <ele>687.55</ele>
        <time>2024-09-29T07:39:13.000Z</time>
      </trkpt>
      <trkpt lat="42.38096" lon="1.11271">
        <ele>687.35</ele>
        <time>2024-09-29T07:39:18.000Z</time>
      </trkpt>
      <trkpt lat="42.38079" lon="1.11246">
        <ele>687.55</ele>
        <time>2024-09-29T07:39:23.000Z</time>
      </trkpt>
      <trkpt lat="42.3806" lon="1.11223">
        <ele>687.69</ele>
        <time>2024-09-29T07:39:28.000Z</time>
      </trkpt>
      <trkpt lat="42.38042" lon="1.11203">
        <ele>687.67</ele>
        <time>2024-09-29T07:39:33.000Z</time>
      </trkpt>
      <trkpt lat="42.38022" lon="1.11187">
        <ele>687.48</ele>
        <time>2024-09-29T07:39:38.000Z</time>
      </trkpt>
      <trkpt lat="42.38001" lon="1.11174">
        <ele>687.77</ele>
        <time>2024-09-29T07:39:43.000Z</time>
      </trkpt>
      <trkpt lat="42.3798" lon="1.11163">
        <ele>688.17</ele>
        <time>2024-09-29T07:39:48.000Z</time>
      </trkpt>
      <trkpt lat="42.37962" lon="1.11156">
        <ele>688.46</ele>
        <time>2024-09-29T07:39:53.000Z</time>
      </trkpt>
      <trkpt lat="42.37944" lon="1.11154">
        <ele>688.48</ele>
        <time>2024-09-29T07:39:58.000Z</time>
      </trkpt>
      <trkpt lat="42.37928" lon="1.11152">
        <ele>688.51</ele>
        <time>2024-09-29T07:40:03.000Z</time>
      </trkpt>
      <trkpt lat="42.37911" lon="1.11152">
        <ele>688.56</ele>
        <time>2024-09-29T07:40:08.000Z</time>
      </trkpt>
      <trkpt lat="42.37895" lon="1.11155">
        <ele>688.63</ele>
        <time>2024-09-29T07:40:13.000Z</time>
      </trkpt>
      <trkpt lat="42.3788" lon="1.11157">
        <ele>688.71</ele>
        <time>2024-09-29T07:40:18.000Z</time>
      </trkpt>
      <trkpt lat="42.37864" lon="1.11161">
        <ele>688.79</ele>
        <time>2024-09-29T07:40:23.000Z</time>
      </trkpt>
      <trkpt lat="42.37848" lon="1.11166">
        <ele>688.86</ele>
        <time>2024-09-29T07:40:28.000Z</time>
      </trkpt>
      <trkpt lat="42.37833" lon="1.1117">
        <ele>688.93</ele>
        <time>2024-09-29T07:40:33.000Z</time>
      </trkpt>
      <trkpt lat="42.37817" lon="1.11175">
        <ele>689</ele>
        <time>2024-09-29T07:40:38.000Z</time>
      </trkpt>
      <trkpt lat="42.37802" lon="1.11179">
        <ele>689.07</ele>
        <time>2024-09-29T07:40:43.000Z</time>
      </trkpt>
      <trkpt lat="42.37786" lon="1.11186">
        <ele>689.15</ele>
        <time>2024-09-29T07:40:48.000Z</time>
      </trkpt>
      <trkpt lat="42.37771" lon="1.11194">
        <ele>689.23</ele>
        <time>2024-09-29T07:40:53.000Z</time>
      </trkpt>
      <trkpt lat="42.37759" lon="1.11199">
        <ele>689.33</ele>
        <time>2024-09-29T07:40:58.000Z</time>
      </trkpt>
      <trkpt lat="42.37745" lon="1.11204">
        <ele>689.43</ele>
        <time>2024-09-29T07:41:03.000Z</time>
      </trkpt>
      <trkpt lat="42.37728" lon="1.11207">
        <ele>689.53</ele>
        <time>2024-09-29T07:41:08.000Z</time>
      </trkpt>
      <trkpt lat="42.37712" lon="1.11209">
        <ele>689.66</ele>
        <time>2024-09-29T07:41:13.000Z</time>
      </trkpt>
      <trkpt lat="42.37697" lon="1.11209">
        <ele>689.8</ele>
        <time>2024-09-29T07:41:18.000Z</time>
      </trkpt>
      <trkpt lat="42.37682" lon="1.11208">
        <ele>689.95</ele>
        <time>2024-09-29T07:41:23.000Z</time>
      </trkpt>
      <trkpt lat="42.37669" lon="1.11206">
        <ele>690.1</ele>
        <time>2024-09-29T07:41:28.000Z</time>
      </trkpt>
      <trkpt lat="42.37656" lon="1.11202">
        <ele>690.25</ele>
        <time>2024-09-29T07:41:33.000Z</time>
      </trkpt>
      <trkpt lat="42.37642" lon="1.11195">
        <ele>690.41</ele>
        <time>2024-09-29T07:41:38.000Z</time>
      </trkpt>
      <trkpt lat="42.37629" lon="1.11188">
        <ele>690.57</ele>
        <time>2024-09-29T07:41:43.000Z</time>
      </trkpt>
      <trkpt lat="42.37617" lon="1.1118">
        <ele>690.74</ele>
        <time>2024-09-29T07:41:48.000Z</time>
      </trkpt>
      <trkpt lat="42.37605" lon="1.11171">
        <ele>690.92</ele>
        <time>2024-09-29T07:41:53.000Z</time>
      </trkpt>
      <trkpt lat="42.37593" lon="1.1116">
        <ele>691.1</ele>
        <time>2024-09-29T07:41:58.000Z</time>
      </trkpt>
      <trkpt lat="42.37583" lon="1.11149">
        <ele>691.28</ele>
        <time>2024-09-29T07:42:03.000Z</time>
      </trkpt>
      <trkpt lat="42.37572" lon="1.11137">
        <ele>691.45</ele>
        <time>2024-09-29T07:42:08.000Z</time>
      </trkpt>
      <trkpt lat="42.37562" lon="1.11123">
        <ele>691.63</ele>
        <time>2024-09-29T07:42:13.000Z</time>
      </trkpt>
      <trkpt lat="42.37551" lon="1.11107">
        <ele>691.81</ele>
        <time>2024-09-29T07:42:18.000Z</time>
      </trkpt>
      <trkpt lat="42.3754" lon="1.11091">
        <ele>692</ele>
        <time>2024-09-29T07:42:23.000Z</time>
      </trkpt>
      <trkpt lat="42.37527" lon="1.11075">
        <ele>692.2</ele>
        <time>2024-09-29T07:42:28.000Z</time>
      </trkpt>
      <trkpt lat="42.37513" lon="1.11058">
        <ele>692.4</ele>
        <time>2024-09-29T07:42:33.000Z</time>
      </trkpt>
      <trkpt lat="42.37499" lon="1.11044">
        <ele>693.78</ele>
        <time>2024-09-29T07:42:38.000Z</time>
      </trkpt>
      <trkpt lat="42.37481" lon="1.11029">
        <ele>694.39</ele>
        <time>2024-09-29T07:42:43.000Z</time>
      </trkpt>
      <trkpt lat="42.37462" lon="1.11011">
        <ele>694.69</ele>
        <time>2024-09-29T07:42:48.000Z</time>
      </trkpt>
      <trkpt lat="42.37441" lon="1.10994">
        <ele>694.93</ele>
        <time>2024-09-29T07:42:53.000Z</time>
      </trkpt>
      <trkpt lat="42.37419" lon="1.10976">
        <ele>695.12</ele>
        <time>2024-09-29T07:42:58.000Z</time>
      </trkpt>
      <trkpt lat="42.37399" lon="1.10959">
        <ele>695.26</ele>
        <time>2024-09-29T07:43:03.000Z</time>
      </trkpt>
      <trkpt lat="42.37376" lon="1.10943">
        <ele>695.36</ele>
        <time>2024-09-29T07:43:08.000Z</time>
      </trkpt>
      <trkpt lat="42.3735" lon="1.1093">
        <ele>695.39</ele>
        <time>2024-09-29T07:43:13.000Z</time>
      </trkpt>
      <trkpt lat="42.37316" lon="1.10918">
        <ele>695.35</ele>
        <time>2024-09-29T07:43:18.000Z</time>
      </trkpt>
      <trkpt lat="42.37277" lon="1.109">
        <ele>695.12</ele>
        <time>2024-09-29T07:43:23.000Z</time>
      </trkpt>
      <trkpt lat="42.37238" lon="1.10875">
        <ele>694.9</ele>
        <time>2024-09-29T07:43:28.000Z</time>
      </trkpt>
      <trkpt lat="42.37197" lon="1.10843">
        <ele>694.85</ele>
        <time>2024-09-29T07:43:33.000Z</time>
      </trkpt>
      <trkpt lat="42.37159" lon="1.10804">
        <ele>694.68</ele>
        <time>2024-09-29T07:43:38.000Z</time>
      </trkpt>
      <trkpt lat="42.37121" lon="1.10761">
        <ele>694.34</ele>
        <time>2024-09-29T07:43:43.000Z</time>
      </trkpt>
      <trkpt lat="42.37084" lon="1.10714">
        <ele>694.14</ele>
        <time>2024-09-29T07:43:48.000Z</time>
      </trkpt>
      <trkpt lat="42.37048" lon="1.10667">
        <ele>693.69</ele>
        <time>2024-09-29T07:43:53.000Z</time>
      </trkpt>
      <trkpt lat="42.37011" lon="1.10619">
        <ele>693</ele>
        <time>2024-09-29T07:43:58.000Z</time>
      </trkpt>
      <trkpt lat="42.36973" lon="1.10571">
        <ele>692.6</ele>
        <time>2024-09-29T07:44:03.000Z</time>
      </trkpt>
      <trkpt lat="42.36929" lon="1.10532">
        <ele>692.14</ele>
        <time>2024-09-29T07:44:08.000Z</time>
      </trkpt>
      <trkpt lat="42.36882" lon="1.10501">
        <ele>691.5</ele>
        <time>2024-09-29T07:44:13.000Z</time>
      </trkpt>
      <trkpt lat="42.36835" lon="1.10469">
        <ele>690.36</ele>
        <time>2024-09-29T07:44:18.000Z</time>
      </trkpt>
      <trkpt lat="42.36798" lon="1.10423">
        <ele>689.01</ele>
        <time>2024-09-29T07:44:23.000Z</time>
      </trkpt>
      <trkpt lat="42.36772" lon="1.1037">
        <ele>688.19</ele>
        <time>2024-09-29T07:44:28.000Z</time>
      </trkpt>
      <trkpt lat="42.36755" lon="1.10316">
        <ele>687.58</ele>
        <time>2024-09-29T07:44:33.000Z</time>
      </trkpt>
      <trkpt lat="42.36742" lon="1.10268">
        <ele>687.01</ele>
        <time>2024-09-29T07:44:38.000Z</time>
      </trkpt>
      <trkpt lat="42.36726" lon="1.10225">
        <ele>686.26</ele>
        <time>2024-09-29T07:44:43.000Z</time>
      </trkpt>
      <trkpt lat="42.36705" lon="1.10186">
        <ele>685.62</ele>
        <time>2024-09-29T07:44:48.000Z</time>
      </trkpt>
      <trkpt lat="42.36683" lon="1.10146">
        <ele>685.08</ele>
        <time>2024-09-29T07:44:53.000Z</time>
      </trkpt>
      <trkpt lat="42.36662" lon="1.10104">
        <ele>684.36</ele>
        <time>2024-09-29T07:44:58.000Z</time>
      </trkpt>
      <trkpt lat="42.36647" lon="1.10059">
        <ele>683.77</ele>
        <time>2024-09-29T07:45:03.000Z</time>
      </trkpt>
      <trkpt lat="42.36639" lon="1.10013">
        <ele>683.05</ele>
        <time>2024-09-29T07:45:08.000Z</time>
      </trkpt>
      <trkpt lat="42.36636" lon="1.09968">
        <ele>682.3</ele>
        <time>2024-09-29T07:45:13.000Z</time>
      </trkpt>
      <trkpt lat="42.3663" lon="1.09924">
        <ele>681.52</ele>
        <time>2024-09-29T07:45:18.000Z</time>
      </trkpt>
      <trkpt lat="42.3662" lon="1.09881">
        <ele>680.35</ele>
        <time>2024-09-29T07:45:23.000Z</time>
      </trkpt>
      <trkpt lat="42.36607" lon="1.0984">
        <ele>678.92</ele>
        <time>2024-09-29T07:45:28.000Z</time>
      </trkpt>
      <trkpt lat="42.3659" lon="1.09801">
        <ele>677.34</ele>
        <time>2024-09-29T07:45:33.000Z</time>
      </trkpt>
      <trkpt lat="42.36569" lon="1.09764">
        <ele>676.29</ele>
        <time>2024-09-29T07:45:38.000Z</time>
      </trkpt>
      <trkpt lat="42.36546" lon="1.09731">
        <ele>675.97</ele>
        <time>2024-09-29T07:45:43.000Z</time>
      </trkpt>
      <trkpt lat="42.36523" lon="1.09701">
        <ele>675.83</ele>
        <time>2024-09-29T07:45:48.000Z</time>
      </trkpt>
      <trkpt lat="42.36499" lon="1.0967">
        <ele>675.61</ele>
        <time>2024-09-29T07:45:53.000Z</time>
      </trkpt>
      <trkpt lat="42.36475" lon="1.09638">
        <ele>675.77</ele>
        <time>2024-09-29T07:45:58.000Z</time>
      </trkpt>
      <trkpt lat="42.36452" lon="1.09606">
        <ele>675.72</ele>
        <time>2024-09-29T07:46:03.000Z</time>
      </trkpt>
      <trkpt lat="42.36429" lon="1.09572">
        <ele>675.74</ele>
        <time>2024-09-29T07:46:08.000Z</time>
      </trkpt>
      <trkpt lat="42.36402" lon="1.09531">
        <ele>675.8</ele>
        <time>2024-09-29T07:46:14.000Z</time>
      </trkpt>
      <trkpt lat="42.3638" lon="1.09497">
        <ele>675.86</ele>
        <time>2024-09-29T07:46:19.000Z</time>
      </trkpt>
      <trkpt lat="42.3636" lon="1.09463">
        <ele>675.88</ele>
        <time>2024-09-29T07:46:24.000Z</time>
      </trkpt>
      <trkpt lat="42.3634" lon="1.09429">
        <ele>675.66</ele>
        <time>2024-09-29T07:46:29.000Z</time>
      </trkpt>
      <trkpt lat="42.36321" lon="1.09395">
        <ele>675.52</ele>
        <time>2024-09-29T07:46:34.000Z</time>
      </trkpt>
      <trkpt lat="42.36303" lon="1.0936">
        <ele>675.09</ele>
        <time>2024-09-29T07:46:39.000Z</time>
      </trkpt>
      <trkpt lat="42.36284" lon="1.09326">
        <ele>674.81</ele>
        <time>2024-09-29T07:46:44.000Z</time>
      </trkpt>
      <trkpt lat="42.36266" lon="1.09291">
        <ele>674.61</ele>
        <time>2024-09-29T07:46:49.000Z</time>
      </trkpt>
      <trkpt lat="42.36248" lon="1.09254">
        <ele>674.41</ele>
        <time>2024-09-29T07:46:54.000Z</time>
      </trkpt>
      <trkpt lat="42.36228" lon="1.09218">
        <ele>674.23</ele>
        <time>2024-09-29T07:46:59.000Z</time>
      </trkpt>
      <trkpt lat="42.36209" lon="1.0918">
        <ele>674.05</ele>
        <time>2024-09-29T07:47:04.000Z</time>
      </trkpt>
      <trkpt lat="42.36191" lon="1.09141">
        <ele>673.74</ele>
        <time>2024-09-29T07:47:09.000Z</time>
      </trkpt>
      <trkpt lat="42.36172" lon="1.09102">
        <ele>673.41</ele>
        <time>2024-09-29T07:47:14.000Z</time>
      </trkpt>
      <trkpt lat="42.36154" lon="1.09061">
        <ele>673.11</ele>
        <time>2024-09-29T07:47:19.000Z</time>
      </trkpt>
      <trkpt lat="42.36139" lon="1.09019">
        <ele>672.77</ele>
        <time>2024-09-29T07:47:24.000Z</time>
      </trkpt>
      <trkpt lat="42.36127" lon="1.08975">
        <ele>672.8</ele>
        <time>2024-09-29T07:47:29.000Z</time>
      </trkpt>
      <trkpt lat="42.36121" lon="1.0893">
        <ele>672.77</ele>
        <time>2024-09-29T07:47:34.000Z</time>
      </trkpt>
      <trkpt lat="42.36117" lon="1.08884">
        <ele>672.77</ele>
        <time>2024-09-29T07:47:39.000Z</time>
      </trkpt>
      <trkpt lat="42.3611" lon="1.08838">
        <ele>672.43</ele>
        <time>2024-09-29T07:47:44.000Z</time>
      </trkpt>
      <trkpt lat="42.36097" lon="1.08796">
        <ele>671.8</ele>
        <time>2024-09-29T07:47:49.000Z</time>
      </trkpt>
      <trkpt lat="42.36084" lon="1.08753">
        <ele>671.08</ele>
        <time>2024-09-29T07:47:54.000Z</time>
      </trkpt>
      <trkpt lat="42.36071" lon="1.08709">
        <ele>670.55</ele>
        <time>2024-09-29T07:47:59.000Z</time>
      </trkpt>
      <trkpt lat="42.36059" lon="1.08662">
        <ele>670.13</ele>
        <time>2024-09-29T07:48:04.000Z</time>
      </trkpt>
      <trkpt lat="42.3605" lon="1.08611">
        <ele>669.72</ele>
        <time>2024-09-29T07:48:09.000Z</time>
      </trkpt>
      <trkpt lat="42.36044" lon="1.0856">
        <ele>669.34</ele>
        <time>2024-09-29T07:48:14.000Z</time>
      </trkpt>
      <trkpt lat="42.36037" lon="1.08513">
        <ele>668.54</ele>
        <time>2024-09-29T07:48:19.000Z</time>
      </trkpt>
      <trkpt lat="42.36025" lon="1.08469">
        <ele>667.73</ele>
        <time>2024-09-29T07:48:24.000Z</time>
      </trkpt>
      <trkpt lat="42.36011" lon="1.08425">
        <ele>667.01</ele>
        <time>2024-09-29T07:48:29.000Z</time>
      </trkpt>
      <trkpt lat="42.35991" lon="1.08385">
        <ele>666.5</ele>
        <time>2024-09-29T07:48:34.000Z</time>
      </trkpt>
      <trkpt lat="42.3597" lon="1.08347">
        <ele>666.29</ele>
        <time>2024-09-29T07:48:39.000Z</time>
      </trkpt>
      <trkpt lat="42.35953" lon="1.08308">
        <ele>666.05</ele>
        <time>2024-09-29T07:48:44.000Z</time>
      </trkpt>
      <trkpt lat="42.35941" lon="1.0827">
        <ele>665.65</ele>
        <time>2024-09-29T07:48:49.000Z</time>
      </trkpt>
      <trkpt lat="42.35936" lon="1.08232">
        <ele>665.28</ele>
        <time>2024-09-29T07:48:54.000Z</time>
      </trkpt>
      <trkpt lat="42.35937" lon="1.08195">
        <ele>665.12</ele>
        <time>2024-09-29T07:48:59.000Z</time>
      </trkpt>
      <trkpt lat="42.35941" lon="1.08162">
        <ele>665.01</ele>
        <time>2024-09-29T07:49:04.000Z</time>
      </trkpt>
      <trkpt lat="42.35945" lon="1.08136">
        <ele>665.06</ele>
        <time>2024-09-29T07:49:09.000Z</time>
      </trkpt>
      <trkpt lat="42.35952" lon="1.08115">
        <ele>664.73</ele>
        <time>2024-09-29T07:49:14.000Z</time>
      </trkpt>
      <trkpt lat="42.35958" lon="1.0809">
        <ele>663.73</ele>
        <time>2024-09-29T07:49:19.000Z</time>
      </trkpt>
      <trkpt lat="42.35955" lon="1.08067">
        <ele>662.97</ele>
        <time>2024-09-29T07:49:24.000Z</time>
      </trkpt>
      <trkpt lat="42.3596" lon="1.0804">
        <ele>662.39</ele>
        <time>2024-09-29T07:49:29.000Z</time>
      </trkpt>
      <trkpt lat="42.35962" lon="1.08012">
        <ele>662.56</ele>
        <time>2024-09-29T07:49:34.000Z</time>
      </trkpt>
      <trkpt lat="42.35962" lon="1.07988">
        <ele>662.53</ele>
        <time>2024-09-29T07:49:39.000Z</time>
      </trkpt>
      <trkpt lat="42.35962" lon="1.07966">
        <ele>662.5</ele>
        <time>2024-09-29T07:49:44.999Z</time>
      </trkpt>
      <trkpt lat="42.35965" lon="1.07951">
        <ele>662.48</ele>
        <time>2024-09-29T07:49:49.999Z</time>
      </trkpt>
      <trkpt lat="42.35969" lon="1.07937">
        <ele>662.52</ele>
        <time>2024-09-29T07:49:54.999Z</time>
      </trkpt>
      <trkpt lat="42.35971" lon="1.07923">
        <ele>662.59</ele>
        <time>2024-09-29T07:50:00.999Z</time>
      </trkpt>
      <trkpt lat="42.35974" lon="1.0791">
        <ele>662.69</ele>
        <time>2024-09-29T07:50:06.999Z</time>
      </trkpt>
      <trkpt lat="42.35981" lon="1.07902">
        <ele>662.8</ele>
        <time>2024-09-29T07:50:26.999Z</time>
      </trkpt>
      <trkpt lat="42.35995" lon="1.07905">
        <ele>660.97</ele>
        <time>2024-09-29T07:56:18.999Z</time>
      </trkpt>
      <trkpt lat="42.36005" lon="1.07903">
        <ele>660.78</ele>
        <time>2024-09-29T07:56:23.999Z</time>
      </trkpt>
      <trkpt lat="42.35995" lon="1.07902">
        <ele>660.34</ele>
        <time>2024-09-29T07:56:39.999Z</time>
      </trkpt>
      <trkpt lat="42.35986" lon="1.07904">
        <ele>659.9</ele>
        <time>2024-09-29T07:57:23.999Z</time>
      </trkpt>
      <trkpt lat="42.35977" lon="1.07905">
        <ele>659.53</ele>
        <time>2024-09-29T07:59:45.999Z</time>
      </trkpt>
      <trkpt lat="42.35985" lon="1.07908">
        <ele>661.23</ele>
        <time>2024-09-29T08:06:05.000Z</time>
      </trkpt>
      <trkpt lat="42.35975" lon="1.07911">
        <ele>660.07</ele>
        <time>2024-09-29T08:10:58.000Z</time>
      </trkpt>
      <trkpt lat="42.35957" lon="1.07896">
        <ele>659.4</ele>
        <time>2024-09-29T08:11:03.000Z</time>
      </trkpt>
      <trkpt lat="42.35948" lon="1.07865">
        <ele>659.01</ele>
        <time>2024-09-29T08:11:08.000Z</time>
      </trkpt>
      <trkpt lat="42.35939" lon="1.07836">
        <ele>658.93</ele>
        <time>2024-09-29T08:11:13.000Z</time>
      </trkpt>
      <trkpt lat="42.35927" lon="1.07803">
        <ele>658.88</ele>
        <time>2024-09-29T08:11:18.000Z</time>
      </trkpt>
      <trkpt lat="42.35915" lon="1.07766">
        <ele>658.77</ele>
        <time>2024-09-29T08:11:23.000Z</time>
      </trkpt>
      <trkpt lat="42.359" lon="1.07726">
        <ele>658.67</ele>
        <time>2024-09-29T08:11:28.000Z</time>
      </trkpt>
      <trkpt lat="42.35883" lon="1.07686">
        <ele>658.52</ele>
        <time>2024-09-29T08:11:33.000Z</time>
      </trkpt>
      <trkpt lat="42.35863" lon="1.07645">
        <ele>658.06</ele>
        <time>2024-09-29T08:11:38.000Z</time>
      </trkpt>
      <trkpt lat="42.35834" lon="1.07605">
        <ele>658.01</ele>
        <time>2024-09-29T08:11:43.000Z</time>
      </trkpt>
      <trkpt lat="42.35801" lon="1.07573">
        <ele>657.64</ele>
        <time>2024-09-29T08:11:48.000Z</time>
      </trkpt>
      <trkpt lat="42.35766" lon="1.07548">
        <ele>657.21</ele>
        <time>2024-09-29T08:11:53.000Z</time>
      </trkpt>
      <trkpt lat="42.35726" lon="1.07526">
        <ele>656.39</ele>
        <time>2024-09-29T08:11:58.000Z</time>
      </trkpt>
      <trkpt lat="42.35687" lon="1.07509">
        <ele>655.5</ele>
        <time>2024-09-29T08:12:03.000Z</time>
      </trkpt>
      <trkpt lat="42.35648" lon="1.07491">
        <ele>653.63</ele>
        <time>2024-09-29T08:12:08.000Z</time>
      </trkpt>
      <trkpt lat="42.3561" lon="1.07474">
        <ele>651.46</ele>
        <time>2024-09-29T08:12:13.000Z</time>
      </trkpt>
      <trkpt lat="42.3557" lon="1.07461">
        <ele>649.83</ele>
        <time>2024-09-29T08:12:18.000Z</time>
      </trkpt>
      <trkpt lat="42.35531" lon="1.07451">
        <ele>649.26</ele>
        <time>2024-09-29T08:12:23.000Z</time>
      </trkpt>
      <trkpt lat="42.35494" lon="1.07446">
        <ele>647.81</ele>
        <time>2024-09-29T08:12:28.000Z</time>
      </trkpt>
      <trkpt lat="42.35458" lon="1.07441">
        <ele>646.7</ele>
        <time>2024-09-29T08:12:33.000Z</time>
      </trkpt>
      <trkpt lat="42.35426" lon="1.07434">
        <ele>646.03</ele>
        <time>2024-09-29T08:12:38.000Z</time>
      </trkpt>
      <trkpt lat="42.35397" lon="1.07425">
        <ele>645.87</ele>
        <time>2024-09-29T08:12:43.000Z</time>
      </trkpt>
      <trkpt lat="42.3537" lon="1.07415">
        <ele>645.93</ele>
        <time>2024-09-29T08:12:48.000Z</time>
      </trkpt>
      <trkpt lat="42.35345" lon="1.07405">
        <ele>645.73</ele>
        <time>2024-09-29T08:12:53.000Z</time>
      </trkpt>
      <trkpt lat="42.35324" lon="1.07393">
        <ele>645.74</ele>
        <time>2024-09-29T08:12:58.000Z</time>
      </trkpt>
      <trkpt lat="42.35303" lon="1.0738">
        <ele>645.68</ele>
        <time>2024-09-29T08:13:03.000Z</time>
      </trkpt>
      <trkpt lat="42.35281" lon="1.07366">
        <ele>645.54</ele>
        <time>2024-09-29T08:13:08.000Z</time>
      </trkpt>
      <trkpt lat="42.35262" lon="1.07349">
        <ele>645.66</ele>
        <time>2024-09-29T08:13:13.000Z</time>
      </trkpt>
      <trkpt lat="42.35243" lon="1.0733">
        <ele>645.82</ele>
        <time>2024-09-29T08:13:18.000Z</time>
      </trkpt>
      <trkpt lat="42.35226" lon="1.07312">
        <ele>645.78</ele>
        <time>2024-09-29T08:13:23.000Z</time>
      </trkpt>
      <trkpt lat="42.3521" lon="1.07291">
        <ele>645.68</ele>
        <time>2024-09-29T08:13:28.000Z</time>
      </trkpt>
      <trkpt lat="42.35195" lon="1.07269">
        <ele>645.49</ele>
        <time>2024-09-29T08:13:33.000Z</time>
      </trkpt>
      <trkpt lat="42.3518" lon="1.07244">
        <ele>645.36</ele>
        <time>2024-09-29T08:13:38.000Z</time>
      </trkpt>
      <trkpt lat="42.35164" lon="1.07218">
        <ele>645.27</ele>
        <time>2024-09-29T08:13:43.000Z</time>
      </trkpt>
      <trkpt lat="42.3515" lon="1.07192">
        <ele>645.14</ele>
        <time>2024-09-29T08:13:48.000Z</time>
      </trkpt>
      <trkpt lat="42.35134" lon="1.07167">
        <ele>645</ele>
        <time>2024-09-29T08:13:53.000Z</time>
      </trkpt>
      <trkpt lat="42.35126" lon="1.07154">
        <ele>644.98</ele>
        <time>2024-09-29T08:13:58.000Z</time>
      </trkpt>
      <trkpt lat="42.35119" lon="1.07142">
        <ele>645.13</ele>
        <time>2024-09-29T08:14:25.999Z</time>
      </trkpt>
      <trkpt lat="42.35101" lon="1.07118">
        <ele>645.62</ele>
        <time>2024-09-29T08:14:30.999Z</time>
      </trkpt>
      <trkpt lat="42.35079" lon="1.07091">
        <ele>645.72</ele>
        <time>2024-09-29T08:14:35.999Z</time>
      </trkpt>
      <trkpt lat="42.35051" lon="1.07061">
        <ele>645.64</ele>
        <time>2024-09-29T08:14:40.999Z</time>
      </trkpt>
      <trkpt lat="42.3502" lon="1.07034">
        <ele>645.56</ele>
        <time>2024-09-29T08:14:45.999Z</time>
      </trkpt>
      <trkpt lat="42.34649" lon="1.06797">
        <ele>645.85</ele>
        <time>2024-09-29T08:15:36.999Z</time>
      </trkpt>
      <trkpt lat="42.34613" lon="1.06784">
        <ele>641.47</ele>
        <time>2024-09-29T08:15:41.999Z</time>
      </trkpt>
      <trkpt lat="42.34572" lon="1.06777">
        <ele>638.25</ele>
        <time>2024-09-29T08:15:46.999Z</time>
      </trkpt>
      <trkpt lat="42.3453" lon="1.06767">
        <ele>636</ele>
        <time>2024-09-29T08:15:51.999Z</time>
      </trkpt>
      <trkpt lat="42.34488" lon="1.06763">
        <ele>634.45</ele>
        <time>2024-09-29T08:15:56.999Z</time>
      </trkpt>
      <trkpt lat="42.34452" lon="1.06772">
        <ele>633.26</ele>
        <time>2024-09-29T08:16:01.999Z</time>
      </trkpt>
      <trkpt lat="42.34419" lon="1.0679">
        <ele>632.41</ele>
        <time>2024-09-29T08:16:06.999Z</time>
      </trkpt>
      <trkpt lat="42.34389" lon="1.06818">
        <ele>631.84</ele>
        <time>2024-09-29T08:16:11.999Z</time>
      </trkpt>
      <trkpt lat="42.34362" lon="1.06852">
        <ele>631.74</ele>
        <time>2024-09-29T08:16:16.999Z</time>
      </trkpt>
      <trkpt lat="42.34335" lon="1.06889">
        <ele>631.49</ele>
        <time>2024-09-29T08:16:21.999Z</time>
      </trkpt>
      <trkpt lat="42.34306" lon="1.06924">
        <ele>631.23</ele>
        <time>2024-09-29T08:16:26.999Z</time>
      </trkpt>
      <trkpt lat="42.34272" lon="1.06952">
        <ele>630.99</ele>
        <time>2024-09-29T08:16:31.999Z</time>
      </trkpt>
      <trkpt lat="42.34237" lon="1.06971">
        <ele>631.22</ele>
        <time>2024-09-29T08:16:36.999Z</time>
      </trkpt>
      <trkpt lat="42.34202" lon="1.06979">
        <ele>631.54</ele>
        <time>2024-09-29T08:16:41.999Z</time>
      </trkpt>
      <trkpt lat="42.3417" lon="1.06978">
        <ele>631.85</ele>
        <time>2024-09-29T08:16:46.999Z</time>
      </trkpt>
      <trkpt lat="42.34139" lon="1.06968">
        <ele>631.87</ele>
        <time>2024-09-29T08:16:51.999Z</time>
      </trkpt>
      <trkpt lat="42.34112" lon="1.06951">
        <ele>630.99</ele>
        <time>2024-09-29T08:16:56.999Z</time>
      </trkpt>
      <trkpt lat="42.34085" lon="1.06933">
        <ele>630.22</ele>
        <time>2024-09-29T08:17:01.999Z</time>
      </trkpt>
      <trkpt lat="42.34059" lon="1.06913">
        <ele>629.69</ele>
        <time>2024-09-29T08:17:06.999Z</time>
      </trkpt>
      <trkpt lat="42.34032" lon="1.06895">
        <ele>628.67</ele>
        <time>2024-09-29T08:17:11.999Z</time>
      </trkpt>
      <trkpt lat="42.34007" lon="1.06876">
        <ele>627.7</ele>
        <time>2024-09-29T08:17:16.999Z</time>
      </trkpt>
      <trkpt lat="42.33981" lon="1.06857">
        <ele>626.66</ele>
        <time>2024-09-29T08:17:21.999Z</time>
      </trkpt>
      <trkpt lat="42.33384" lon="1.06557">
        <ele>628.66</ele>
        <time>2024-09-29T08:19:05.999Z</time>
      </trkpt>
      <trkpt lat="42.33362" lon="1.06571">
        <ele>628.92</ele>
        <time>2024-09-29T08:19:10.999Z</time>
      </trkpt>
      <trkpt lat="42.33354" lon="1.06578">
        <ele>628.71</ele>
        <time>2024-09-29T08:19:47.999Z</time>
      </trkpt>
      <trkpt lat="42.33336" lon="1.06592">
        <ele>627.55</ele>
        <time>2024-09-29T08:19:52.999Z</time>
      </trkpt>
      <trkpt lat="42.33313" lon="1.06611">
        <ele>627.12</ele>
        <time>2024-09-29T08:19:57.999Z</time>
      </trkpt>
      <trkpt lat="42.33287" lon="1.06633">
        <ele>626.77</ele>
        <time>2024-09-29T08:20:02.999Z</time>
      </trkpt>
      <trkpt lat="42.33262" lon="1.06655">
        <ele>626.21</ele>
        <time>2024-09-29T08:20:07.999Z</time>
      </trkpt>
      <trkpt lat="42.33237" lon="1.06674">
        <ele>625.57</ele>
        <time>2024-09-29T08:20:12.999Z</time>
      </trkpt>
      <trkpt lat="42.3321" lon="1.06695">
        <ele>625.23</ele>
        <time>2024-09-29T08:20:17.999Z</time>
      </trkpt>
      <trkpt lat="42.33184" lon="1.06717">
        <ele>624.85</ele>
        <time>2024-09-29T08:20:22.999Z</time>
      </trkpt>
      <trkpt lat="42.33159" lon="1.06736">
        <ele>624.44</ele>
        <time>2024-09-29T08:20:27.999Z</time>
      </trkpt>
      <trkpt lat="42.33135" lon="1.06755">
        <ele>623.96</ele>
        <time>2024-09-29T08:20:32.999Z</time>
      </trkpt>
      <trkpt lat="42.3311" lon="1.06772">
        <ele>623.7</ele>
        <time>2024-09-29T08:20:37.999Z</time>
      </trkpt>
      <trkpt lat="42.33087" lon="1.06788">
        <ele>623.17</ele>
        <time>2024-09-29T08:20:42.999Z</time>
      </trkpt>
      <trkpt lat="42.33063" lon="1.06802">
        <ele>623.03</ele>
        <time>2024-09-29T08:20:47.999Z</time>
      </trkpt>
      <trkpt lat="42.33035" lon="1.06812">
        <ele>622.87</ele>
        <time>2024-09-29T08:20:52.999Z</time>
      </trkpt>
      <trkpt lat="42.33006" lon="1.06818">
        <ele>622.34</ele>
        <time>2024-09-29T08:20:57.999Z</time>
      </trkpt>
      <trkpt lat="42.32974" lon="1.06817">
        <ele>621.66</ele>
        <time>2024-09-29T08:21:02.999Z</time>
      </trkpt>
      <trkpt lat="42.32941" lon="1.0681">
        <ele>620.95</ele>
        <time>2024-09-29T08:21:07.999Z</time>
      </trkpt>
      <trkpt lat="42.32906" lon="1.06796">
        <ele>620.54</ele>
        <time>2024-09-29T08:21:12.999Z</time>
      </trkpt>
      <trkpt lat="42.32873" lon="1.06777">
        <ele>620.63</ele>
        <time>2024-09-29T08:21:17.999Z</time>
      </trkpt>
      <trkpt lat="42.32842" lon="1.06762">
        <ele>620.8</ele>
        <time>2024-09-29T08:21:22.999Z</time>
      </trkpt>
      <trkpt lat="42.32815" lon="1.06748">
        <ele>620.9</ele>
        <time>2024-09-29T08:21:27.999Z</time>
      </trkpt>
      <trkpt lat="42.32788" lon="1.06739">
        <ele>620.05</ele>
        <time>2024-09-29T08:21:32.999Z</time>
      </trkpt>
      <trkpt lat="42.32758" lon="1.06746">
        <ele>619</ele>
        <time>2024-09-29T08:21:37.999Z</time>
      </trkpt>
      <trkpt lat="42.32727" lon="1.06737">
        <ele>617.86</ele>
        <time>2024-09-29T08:21:42.999Z</time>
      </trkpt>
      <trkpt lat="42.32699" lon="1.06723">
        <ele>617.22</ele>
        <time>2024-09-29T08:21:47.999Z</time>
      </trkpt>
      <trkpt lat="42.32681" lon="1.06715">
        <ele>617.2</ele>
        <time>2024-09-29T08:21:52.999Z</time>
      </trkpt>
      <trkpt lat="42.32671" lon="1.06706">
        <ele>617.23</ele>
        <time>2024-09-29T08:21:57.999Z</time>
      </trkpt>
      <trkpt lat="42.3268" lon="1.06711">
        <ele>615.59</ele>
        <time>2024-09-29T08:28:55.000Z</time>
      </trkpt>
      <trkpt lat="42.3269" lon="1.06713">
        <ele>615.51</ele>
        <time>2024-09-29T08:29:00.000Z</time>
      </trkpt>
      <trkpt lat="42.32699" lon="1.06716">
        <ele>615.44</ele>
        <time>2024-09-29T08:29:06.000Z</time>
      </trkpt>
      <trkpt lat="42.32708" lon="1.06715">
        <ele>615.37</ele>
        <time>2024-09-29T08:29:13.000Z</time>
      </trkpt>
      <trkpt lat="42.32717" lon="1.0671">
        <ele>615.32</ele>
        <time>2024-09-29T08:29:20.000Z</time>
      </trkpt>
      <trkpt lat="42.32725" lon="1.06701">
        <ele>615.26</ele>
        <time>2024-09-29T08:29:27.000Z</time>
      </trkpt>
      <trkpt lat="42.32734" lon="1.06696">
        <ele>615.18</ele>
        <time>2024-09-29T08:29:34.000Z</time>
      </trkpt>
      <trkpt lat="42.32742" lon="1.06691">
        <ele>615.12</ele>
        <time>2024-09-29T08:29:40.000Z</time>
      </trkpt>
      <trkpt lat="42.32751" lon="1.06688">
        <ele>615.04</ele>
        <time>2024-09-29T08:29:48.000Z</time>
      </trkpt>
      <trkpt lat="42.32762" lon="1.06688">
        <ele>615.01</ele>
        <time>2024-09-29T08:29:55.000Z</time>
      </trkpt>
      <trkpt lat="42.3277" lon="1.06685">
        <ele>615.01</ele>
        <time>2024-09-29T08:30:01.000Z</time>
      </trkpt>
      <trkpt lat="42.3278" lon="1.06682">
        <ele>615.05</ele>
        <time>2024-09-29T08:30:08.000Z</time>
      </trkpt>
      <trkpt lat="42.3279" lon="1.06679">
        <ele>615.12</ele>
        <time>2024-09-29T08:30:16.000Z</time>
      </trkpt>
      <trkpt lat="42.328" lon="1.06678">
        <ele>615.21</ele>
        <time>2024-09-29T08:30:22.000Z</time>
      </trkpt>
      <trkpt lat="42.3281" lon="1.06678">
        <ele>615.35</ele>
        <time>2024-09-29T08:30:29.000Z</time>
      </trkpt>
      <trkpt lat="42.3282" lon="1.06677">
        <ele>615.52</ele>
        <time>2024-09-29T08:30:36.000Z</time>
      </trkpt>
      <trkpt lat="42.32829" lon="1.06676">
        <ele>615.73</ele>
        <time>2024-09-29T08:30:43.000Z</time>
      </trkpt>
      <trkpt lat="42.32839" lon="1.06677">
        <ele>615.97</ele>
        <time>2024-09-29T08:30:50.000Z</time>
      </trkpt>
      <trkpt lat="42.32849" lon="1.06678">
        <ele>616.23</ele>
        <time>2024-09-29T08:30:57.000Z</time>
      </trkpt>
      <trkpt lat="42.32859" lon="1.06681">
        <ele>616.51</ele>
        <time>2024-09-29T08:31:04.000Z</time>
      </trkpt>
      <trkpt lat="42.32868" lon="1.06682">
        <ele>616.78</ele>
        <time>2024-09-29T08:31:10.000Z</time>
      </trkpt>
      <trkpt lat="42.32878" lon="1.06684">
        <ele>617.06</ele>
        <time>2024-09-29T08:31:16.000Z</time>
      </trkpt>
      <trkpt lat="42.32888" lon="1.06684">
        <ele>617.38</ele>
        <time>2024-09-29T08:31:23.000Z</time>
      </trkpt>
      <trkpt lat="42.32898" lon="1.06686">
        <ele>617.72</ele>
        <time>2024-09-29T08:31:30.000Z</time>
      </trkpt>
      <trkpt lat="42.32908" lon="1.06688">
        <ele>618.05</ele>
        <time>2024-09-29T08:31:37.000Z</time>
      </trkpt>
      <trkpt lat="42.32917" lon="1.06693">
        <ele>618.4</ele>
        <time>2024-09-29T08:31:44.000Z</time>
      </trkpt>
      <trkpt lat="42.32927" lon="1.06695">
        <ele>618.77</ele>
        <time>2024-09-29T08:31:51.000Z</time>
      </trkpt>
      <trkpt lat="42.32936" lon="1.06695">
        <ele>619.14</ele>
        <time>2024-09-29T08:31:58.000Z</time>
      </trkpt>
      <trkpt lat="42.32946" lon="1.06696">
        <ele>619.46</ele>
        <time>2024-09-29T08:32:04.000Z</time>
      </trkpt>
      <trkpt lat="42.32956" lon="1.06696">
        <ele>619.84</ele>
        <time>2024-09-29T08:32:11.000Z</time>
      </trkpt>
      <trkpt lat="42.32965" lon="1.06697">
        <ele>620.21</ele>
        <time>2024-09-29T08:32:18.000Z</time>
      </trkpt>
      <trkpt lat="42.32974" lon="1.06697">
        <ele>620.63</ele>
        <time>2024-09-29T08:32:26.000Z</time>
      </trkpt>
      <trkpt lat="42.32984" lon="1.06694">
        <ele>621.02</ele>
        <time>2024-09-29T08:32:34.000Z</time>
      </trkpt>
      <trkpt lat="42.32994" lon="1.06696">
        <ele>621.39</ele>
        <time>2024-09-29T08:32:42.000Z</time>
      </trkpt>
      <trkpt lat="42.33003" lon="1.06697">
        <ele>621.68</ele>
        <time>2024-09-29T08:32:49.000Z</time>
      </trkpt>
      <trkpt lat="42.33014" lon="1.06698">
        <ele>621.92</ele>
        <time>2024-09-29T08:32:55.000Z</time>
      </trkpt>
      <trkpt lat="42.33023" lon="1.06697">
        <ele>622.12</ele>
        <time>2024-09-29T08:33:00.000Z</time>
      </trkpt>
      <trkpt lat="42.33033" lon="1.06699">
        <ele>622.38</ele>
        <time>2024-09-29T08:33:06.000Z</time>
      </trkpt>
      <trkpt lat="42.33043" lon="1.067">
        <ele>622.69</ele>
        <time>2024-09-29T08:33:13.000Z</time>
      </trkpt>
      <trkpt lat="42.33053" lon="1.06702">
        <ele>622.96</ele>
        <time>2024-09-29T08:33:19.000Z</time>
      </trkpt>
      <trkpt lat="42.33062" lon="1.06702">
        <ele>623.18</ele>
        <time>2024-09-29T08:33:24.000Z</time>
      </trkpt>
      <trkpt lat="42.33071" lon="1.067">
        <ele>623.45</ele>
        <time>2024-09-29T08:33:30.000Z</time>
      </trkpt>
      <trkpt lat="42.33078" lon="1.06691">
        <ele>623.71</ele>
        <time>2024-09-29T08:33:36.000Z</time>
      </trkpt>
      <trkpt lat="42.33077" lon="1.06678">
        <ele>623.95</ele>
        <time>2024-09-29T08:33:42.000Z</time>
      </trkpt>
      <trkpt lat="42.33069" lon="1.06672">
        <ele>624.25</ele>
        <time>2024-09-29T08:33:49.000Z</time>
      </trkpt>
      <trkpt lat="42.3306" lon="1.06668">
        <ele>624.56</ele>
        <time>2024-09-29T08:33:56.000Z</time>
      </trkpt>
      <trkpt lat="42.3305" lon="1.06669">
        <ele>624.88</ele>
        <time>2024-09-29T08:34:03.000Z</time>
      </trkpt>
      <trkpt lat="42.3304" lon="1.06668">
        <ele>625.16</ele>
        <time>2024-09-29T08:34:09.000Z</time>
      </trkpt>
      <trkpt lat="42.33029" lon="1.06666">
        <ele>625.46</ele>
        <time>2024-09-29T08:34:15.000Z</time>
      </trkpt>
      <trkpt lat="42.33021" lon="1.0666">
        <ele>625.89</ele>
        <time>2024-09-29T08:34:24.000Z</time>
      </trkpt>
      <trkpt lat="42.33012" lon="1.06656">
        <ele>626.24</ele>
        <time>2024-09-29T08:34:31.000Z</time>
      </trkpt>
      <trkpt lat="42.33003" lon="1.0665">
        <ele>626.54</ele>
        <time>2024-09-29T08:34:37.000Z</time>
      </trkpt>
      <trkpt lat="42.32993" lon="1.06646">
        <ele>626.9</ele>
        <time>2024-09-29T08:34:44.000Z</time>
      </trkpt>
      <trkpt lat="42.32983" lon="1.06647">
        <ele>627.15</ele>
        <time>2024-09-29T08:34:49.000Z</time>
      </trkpt>
      <trkpt lat="42.32973" lon="1.06646">
        <ele>627.61</ele>
        <time>2024-09-29T08:34:58.000Z</time>
      </trkpt>
      <trkpt lat="42.32964" lon="1.06648">
        <ele>627.97</ele>
        <time>2024-09-29T08:35:05.000Z</time>
      </trkpt>
      <trkpt lat="42.32954" lon="1.06651">
        <ele>628.24</ele>
        <time>2024-09-29T08:35:10.000Z</time>
      </trkpt>
      <trkpt lat="42.32945" lon="1.06653">
        <ele>628.51</ele>
        <time>2024-09-29T08:35:15.000Z</time>
      </trkpt>
      <trkpt lat="42.32934" lon="1.06653">
        <ele>628.81</ele>
        <time>2024-09-29T08:35:21.000Z</time>
      </trkpt>
      <trkpt lat="42.32926" lon="1.06645">
        <ele>629.21</ele>
        <time>2024-09-29T08:35:29.000Z</time>
      </trkpt>
      <trkpt lat="42.32918" lon="1.06641">
        <ele>629.51</ele>
        <time>2024-09-29T08:35:35.000Z</time>
      </trkpt>
      <trkpt lat="42.32915" lon="1.06628">
        <ele>629.87</ele>
        <time>2024-09-29T08:35:42.000Z</time>
      </trkpt>
      <trkpt lat="42.32907" lon="1.06622">
        <ele>630.34</ele>
        <time>2024-09-29T08:35:50.000Z</time>
      </trkpt>
      <trkpt lat="42.32897" lon="1.06617">
        <ele>630.77</ele>
        <time>2024-09-29T08:35:57.000Z</time>
      </trkpt>
      <trkpt lat="42.32889" lon="1.0661">
        <ele>631.23</ele>
        <time>2024-09-29T08:36:04.000Z</time>
      </trkpt>
      <trkpt lat="42.32882" lon="1.06601">
        <ele>631.72</ele>
        <time>2024-09-29T08:36:11.000Z</time>
      </trkpt>
      <trkpt lat="42.32873" lon="1.06593">
        <ele>632.23</ele>
        <time>2024-09-29T08:36:18.000Z</time>
      </trkpt>
      <trkpt lat="42.32864" lon="1.06587">
        <ele>632.77</ele>
        <time>2024-09-29T08:36:25.000Z</time>
      </trkpt>
      <trkpt lat="42.32855" lon="1.06583">
        <ele>633.35</ele>
        <time>2024-09-29T08:36:32.000Z</time>
      </trkpt>
      <trkpt lat="42.32845" lon="1.0658">
        <ele>633.95</ele>
        <time>2024-09-29T08:36:39.000Z</time>
      </trkpt>
      <trkpt lat="42.32837" lon="1.06571">
        <ele>634.58</ele>
        <time>2024-09-29T08:36:46.000Z</time>
      </trkpt>
      <trkpt lat="42.32829" lon="1.06563">
        <ele>635.22</ele>
        <time>2024-09-29T08:36:53.000Z</time>
      </trkpt>
      <trkpt lat="42.32822" lon="1.06555">
        <ele>635.88</ele>
        <time>2024-09-29T08:37:00.000Z</time>
      </trkpt>
      <trkpt lat="42.32817" lon="1.06542">
        <ele>636.56</ele>
        <time>2024-09-29T08:37:07.000Z</time>
      </trkpt>
      <trkpt lat="42.32815" lon="1.0653">
        <ele>637.24</ele>
        <time>2024-09-29T08:37:14.000Z</time>
      </trkpt>
      <trkpt lat="42.3281" lon="1.06519">
        <ele>638</ele>
        <time>2024-09-29T08:37:22.000Z</time>
      </trkpt>
      <trkpt lat="42.32805" lon="1.06508">
        <ele>638.57</ele>
        <time>2024-09-29T08:37:28.000Z</time>
      </trkpt>
      <trkpt lat="42.32797" lon="1.06502">
        <ele>639.44</ele>
        <time>2024-09-29T08:37:36.000Z</time>
      </trkpt>
      <trkpt lat="42.32787" lon="1.06504">
        <ele>640.41</ele>
        <time>2024-09-29T08:37:44.000Z</time>
      </trkpt>
      <trkpt lat="42.32777" lon="1.06511">
        <ele>641.36</ele>
        <time>2024-09-29T08:37:51.000Z</time>
      </trkpt>
      <trkpt lat="42.32768" lon="1.06513">
        <ele>642.26</ele>
        <time>2024-09-29T08:37:57.000Z</time>
      </trkpt>
      <trkpt lat="42.32759" lon="1.06515">
        <ele>643.03</ele>
        <time>2024-09-29T08:38:02.000Z</time>
      </trkpt>
      <trkpt lat="42.3275" lon="1.0652">
        <ele>643.82</ele>
        <time>2024-09-29T08:38:07.000Z</time>
      </trkpt>
      <trkpt lat="42.32741" lon="1.06517">
        <ele>644.94</ele>
        <time>2024-09-29T08:38:14.000Z</time>
      </trkpt>
      <trkpt lat="42.32732" lon="1.06513">
        <ele>645.89</ele>
        <time>2024-09-29T08:38:20.000Z</time>
      </trkpt>
      <trkpt lat="42.32731" lon="1.06501">
        <ele>647.05</ele>
        <time>2024-09-29T08:38:28.000Z</time>
      </trkpt>
      <trkpt lat="42.3274" lon="1.065">
        <ele>647.97</ele>
        <time>2024-09-29T08:38:35.000Z</time>
      </trkpt>
      <trkpt lat="42.32749" lon="1.06507">
        <ele>648.82</ele>
        <time>2024-09-29T08:38:42.000Z</time>
      </trkpt>
      <trkpt lat="42.32758" lon="1.06511">
        <ele>649.73</ele>
        <time>2024-09-29T08:38:50.000Z</time>
      </trkpt>
      <trkpt lat="42.32768" lon="1.0651">
        <ele>650.48</ele>
        <time>2024-09-29T08:38:57.000Z</time>
      </trkpt>
      <trkpt lat="42.32776" lon="1.06504">
        <ele>651.19</ele>
        <time>2024-09-29T08:39:03.999Z</time>
      </trkpt>
      <trkpt lat="42.32782" lon="1.06494">
        <ele>651.85</ele>
        <time>2024-09-29T08:39:10.999Z</time>
      </trkpt>
      <trkpt lat="42.32786" lon="1.06483">
        <ele>652.44</ele>
        <time>2024-09-29T08:39:17.999Z</time>
      </trkpt>
      <trkpt lat="42.32795" lon="1.06477">
        <ele>653.01</ele>
        <time>2024-09-29T08:39:24.999Z</time>
      </trkpt>
      <trkpt lat="42.32805" lon="1.06479">
        <ele>653.78</ele>
        <time>2024-09-29T08:39:33.999Z</time>
      </trkpt>
      <trkpt lat="42.32813" lon="1.06487">
        <ele>654.46</ele>
        <time>2024-09-29T08:39:40.999Z</time>
      </trkpt>
      <trkpt lat="42.32818" lon="1.06497">
        <ele>655.21</ele>
        <time>2024-09-29T08:39:47.999Z</time>
      </trkpt>
      <trkpt lat="42.32824" lon="1.06508">
        <ele>656.08</ele>
        <time>2024-09-29T08:39:55.999Z</time>
      </trkpt>
      <trkpt lat="42.3283" lon="1.06518">
        <ele>656.82</ele>
        <time>2024-09-29T08:40:02.999Z</time>
      </trkpt>
      <trkpt lat="42.32835" lon="1.06529">
        <ele>657.57</ele>
        <time>2024-09-29T08:40:09.999Z</time>
      </trkpt>
      <trkpt lat="42.32842" lon="1.06539">
        <ele>658.42</ele>
        <time>2024-09-29T08:40:17.999Z</time>
      </trkpt>
      <trkpt lat="42.32851" lon="1.06543">
        <ele>659.18</ele>
        <time>2024-09-29T08:40:24.999Z</time>
      </trkpt>
      <trkpt lat="42.3286" lon="1.06543">
        <ele>659.99</ele>
        <time>2024-09-29T08:40:31.999Z</time>
      </trkpt>
      <trkpt lat="42.3287" lon="1.06544">
        <ele>660.94</ele>
        <time>2024-09-29T08:40:39.999Z</time>
      </trkpt>
      <trkpt lat="42.32878" lon="1.06551">
        <ele>661.79</ele>
        <time>2024-09-29T08:40:46.999Z</time>
      </trkpt>
      <trkpt lat="42.32888" lon="1.06547">
        <ele>662.41</ele>
        <time>2024-09-29T08:40:52.999Z</time>
      </trkpt>
      <trkpt lat="42.32897" lon="1.06555">
        <ele>668.34</ele>
        <time>2024-09-29T08:42:07.999Z</time>
      </trkpt>
      <trkpt lat="42.32906" lon="1.06558">
        <ele>670.25</ele>
        <time>2024-09-29T08:42:13.999Z</time>
      </trkpt>
      <trkpt lat="42.32916" lon="1.06559">
        <ele>672.25</ele>
        <time>2024-09-29T08:42:20.999Z</time>
      </trkpt>
      <trkpt lat="42.32926" lon="1.06559">
        <ele>674.03</ele>
        <time>2024-09-29T08:42:27.999Z</time>
      </trkpt>
      <trkpt lat="42.32936" lon="1.06557">
        <ele>675.63</ele>
        <time>2024-09-29T08:42:34.999Z</time>
      </trkpt>
      <trkpt lat="42.32945" lon="1.06554">
        <ele>676.86</ele>
        <time>2024-09-29T08:42:40.999Z</time>
      </trkpt>
      <trkpt lat="42.32954" lon="1.06548">
        <ele>678.14</ele>
        <time>2024-09-29T08:42:47.999Z</time>
      </trkpt>
      <trkpt lat="42.32962" lon="1.06541">
        <ele>679.11</ele>
        <time>2024-09-29T08:42:53.999Z</time>
      </trkpt>
      <trkpt lat="42.32969" lon="1.06531">
        <ele>680.14</ele>
        <time>2024-09-29T08:43:00.999Z</time>
      </trkpt>
      <trkpt lat="42.32976" lon="1.06521">
        <ele>680.95</ele>
        <time>2024-09-29T08:43:06.999Z</time>
      </trkpt>
      <trkpt lat="42.32985" lon="1.06514">
        <ele>681.98</ele>
        <time>2024-09-29T08:43:14.999Z</time>
      </trkpt>
      <trkpt lat="42.32994" lon="1.06511">
        <ele>682.79</ele>
        <time>2024-09-29T08:43:21.999Z</time>
      </trkpt>
      <trkpt lat="42.33004" lon="1.06509">
        <ele>683.52</ele>
        <time>2024-09-29T08:43:28.999Z</time>
      </trkpt>
      <trkpt lat="42.33012" lon="1.06502">
        <ele>684.09</ele>
        <time>2024-09-29T08:43:34.999Z</time>
      </trkpt>
      <trkpt lat="42.33018" lon="1.06491">
        <ele>684.54</ele>
        <time>2024-09-29T08:43:39.999Z</time>
      </trkpt>
      <trkpt lat="42.33022" lon="1.06477">
        <ele>685.19</ele>
        <time>2024-09-29T08:43:46.999Z</time>
      </trkpt>
      <trkpt lat="42.33021" lon="1.06464">
        <ele>685.81</ele>
        <time>2024-09-29T08:43:53.999Z</time>
      </trkpt>
      <trkpt lat="42.3302" lon="1.06451">
        <ele>686.39</ele>
        <time>2024-09-29T08:44:00.999Z</time>
      </trkpt>
      <trkpt lat="42.33019" lon="1.06439">
        <ele>686.85</ele>
        <time>2024-09-29T08:44:06.999Z</time>
      </trkpt>
      <trkpt lat="42.33017" lon="1.06427">
        <ele>687.28</ele>
        <time>2024-09-29T08:44:12.999Z</time>
      </trkpt>
      <trkpt lat="42.33015" lon="1.06415">
        <ele>687.68</ele>
        <time>2024-09-29T08:44:18.999Z</time>
      </trkpt>
      <trkpt lat="42.33014" lon="1.06401">
        <ele>688.12</ele>
        <time>2024-09-29T08:44:25.999Z</time>
      </trkpt>
      <trkpt lat="42.33014" lon="1.06387">
        <ele>688.54</ele>
        <time>2024-09-29T08:44:32.999Z</time>
      </trkpt>
      <trkpt lat="42.33016" lon="1.06376">
        <ele>688.89</ele>
        <time>2024-09-29T08:44:38.999Z</time>
      </trkpt>
      <trkpt lat="42.33017" lon="1.06363">
        <ele>689.24</ele>
        <time>2024-09-29T08:44:44.999Z</time>
      </trkpt>
      <trkpt lat="42.33017" lon="1.06349">
        <ele>689.63</ele>
        <time>2024-09-29T08:44:51.999Z</time>
      </trkpt>
      <trkpt lat="42.33016" lon="1.06336">
        <ele>690.01</ele>
        <time>2024-09-29T08:44:58.999Z</time>
      </trkpt>
      <trkpt lat="42.33017" lon="1.06322">
        <ele>690.38</ele>
        <time>2024-09-29T08:45:05.999Z</time>
      </trkpt>
      <trkpt lat="42.33015" lon="1.06309">
        <ele>690.68</ele>
        <time>2024-09-29T08:45:11.999Z</time>
      </trkpt>
      <trkpt lat="42.33011" lon="1.06297">
        <ele>691.03</ele>
        <time>2024-09-29T08:45:18.999Z</time>
      </trkpt>
      <trkpt lat="42.33005" lon="1.06287">
        <ele>691.4</ele>
        <time>2024-09-29T08:45:25.999Z</time>
      </trkpt>
      <trkpt lat="42.33001" lon="1.06276">
        <ele>691.76</ele>
        <time>2024-09-29T08:45:31.999Z</time>
      </trkpt>
      <trkpt lat="42.32999" lon="1.06262">
        <ele>692.23</ele>
        <time>2024-09-29T08:45:38.999Z</time>
      </trkpt>
      <trkpt lat="42.33003" lon="1.06251">
        <ele>692.61</ele>
        <time>2024-09-29T08:45:43.999Z</time>
      </trkpt>
      <trkpt lat="42.3301" lon="1.06241">
        <ele>693.18</ele>
        <time>2024-09-29T08:45:50.999Z</time>
      </trkpt>
      <trkpt lat="42.33017" lon="1.06234">
        <ele>693.71</ele>
        <time>2024-09-29T08:45:56.999Z</time>
      </trkpt>
      <trkpt lat="42.33024" lon="1.06223">
        <ele>694.39</ele>
        <time>2024-09-29T08:46:03.999Z</time>
      </trkpt>
      <trkpt lat="42.33029" lon="1.06212">
        <ele>695.05</ele>
        <time>2024-09-29T08:46:09.999Z</time>
      </trkpt>
      <trkpt lat="42.33031" lon="1.06201">
        <ele>695.77</ele>
        <time>2024-09-29T08:46:15.999Z</time>
      </trkpt>
      <trkpt lat="42.33034" lon="1.06187">
        <ele>696.66</ele>
        <time>2024-09-29T08:46:22.999Z</time>
      </trkpt>
      <trkpt lat="42.33038" lon="1.06175">
        <ele>697.62</ele>
        <time>2024-09-29T08:46:29.999Z</time>
      </trkpt>
      <trkpt lat="42.33042" lon="1.06164">
        <ele>698.48</ele>
        <time>2024-09-29T08:46:35.999Z</time>
      </trkpt>
      <trkpt lat="42.33046" lon="1.06151">
        <ele>699.49</ele>
        <time>2024-09-29T08:46:42.999Z</time>
      </trkpt>
      <trkpt lat="42.3305" lon="1.06139">
        <ele>700.35</ele>
        <time>2024-09-29T08:46:48.999Z</time>
      </trkpt>
      <trkpt lat="42.33054" lon="1.06128">
        <ele>701.23</ele>
        <time>2024-09-29T08:46:54.999Z</time>
      </trkpt>
      <trkpt lat="42.33056" lon="1.06114">
        <ele>702.27</ele>
        <time>2024-09-29T08:47:01.999Z</time>
      </trkpt>
      <trkpt lat="42.33059" lon="1.06102">
        <ele>703.3</ele>
        <time>2024-09-29T08:47:08.999Z</time>
      </trkpt>
      <trkpt lat="42.3306" lon="1.06088">
        <ele>704.31</ele>
        <time>2024-09-29T08:47:15.999Z</time>
      </trkpt>
      <trkpt lat="42.33059" lon="1.06075">
        <ele>705.32</ele>
        <time>2024-09-29T08:47:22.999Z</time>
      </trkpt>
      <trkpt lat="42.33058" lon="1.06062">
        <ele>706.14</ele>
        <time>2024-09-29T08:47:28.999Z</time>
      </trkpt>
      <trkpt lat="42.33057" lon="1.06048">
        <ele>707.06</ele>
        <time>2024-09-29T08:47:35.999Z</time>
      </trkpt>
      <trkpt lat="42.33058" lon="1.06035">
        <ele>707.82</ele>
        <time>2024-09-29T08:47:41.999Z</time>
      </trkpt>
      <trkpt lat="42.33059" lon="1.06023">
        <ele>708.57</ele>
        <time>2024-09-29T08:47:47.999Z</time>
      </trkpt>
      <trkpt lat="42.33061" lon="1.06011">
        <ele>709.3</ele>
        <time>2024-09-29T08:47:53.999Z</time>
      </trkpt>
      <trkpt lat="42.33063" lon="1.05998">
        <ele>710.15</ele>
        <time>2024-09-29T08:48:00.999Z</time>
      </trkpt>
      <trkpt lat="42.33065" lon="1.05984">
        <ele>710.99</ele>
        <time>2024-09-29T08:48:07.999Z</time>
      </trkpt>
      <trkpt lat="42.33065" lon="1.05971">
        <ele>711.8</ele>
        <time>2024-09-29T08:48:14.999Z</time>
      </trkpt>
      <trkpt lat="42.33065" lon="1.05958">
        <ele>712.56</ele>
        <time>2024-09-29T08:48:21.999Z</time>
      </trkpt>
      <trkpt lat="42.33066" lon="1.05944">
        <ele>713.28</ele>
        <time>2024-09-29T08:48:28.999Z</time>
      </trkpt>
      <trkpt lat="42.33068" lon="1.05932">
        <ele>713.97</ele>
        <time>2024-09-29T08:48:35.999Z</time>
      </trkpt>
      <trkpt lat="42.33068" lon="1.05918">
        <ele>714.62</ele>
        <time>2024-09-29T08:48:42.999Z</time>
      </trkpt>
      <trkpt lat="42.3307" lon="1.05904">
        <ele>715.27</ele>
        <time>2024-09-29T08:48:49.999Z</time>
      </trkpt>
      <trkpt lat="42.33071" lon="1.0589">
        <ele>715.9</ele>
        <time>2024-09-29T08:48:56.999Z</time>
      </trkpt>
      <trkpt lat="42.33072" lon="1.05876">
        <ele>716.53</ele>
        <time>2024-09-29T08:49:03.999Z</time>
      </trkpt>
      <trkpt lat="42.33079" lon="1.05867">
        <ele>717.15</ele>
        <time>2024-09-29T08:49:10.999Z</time>
      </trkpt>
      <trkpt lat="42.33088" lon="1.0586">
        <ele>717.8</ele>
        <time>2024-09-29T08:49:17.999Z</time>
      </trkpt>
      <trkpt lat="42.33096" lon="1.05852">
        <ele>718.47</ele>
        <time>2024-09-29T08:49:24.999Z</time>
      </trkpt>
      <trkpt lat="42.331" lon="1.0584">
        <ele>719.07</ele>
        <time>2024-09-29T08:49:30.999Z</time>
      </trkpt>
      <trkpt lat="42.33098" lon="1.05827">
        <ele>719.81</ele>
        <time>2024-09-29T08:49:37.999Z</time>
      </trkpt>
      <trkpt lat="42.33092" lon="1.05818">
        <ele>720.7</ele>
        <time>2024-09-29T08:49:45.999Z</time>
      </trkpt>
      <trkpt lat="42.33084" lon="1.05809">
        <ele>721.38</ele>
        <time>2024-09-29T08:49:51.999Z</time>
      </trkpt>
      <trkpt lat="42.33078" lon="1.05799">
        <ele>722.31</ele>
        <time>2024-09-29T08:49:58.999Z</time>
      </trkpt>
      <trkpt lat="42.33072" lon="1.05789">
        <ele>723.26</ele>
        <time>2024-09-29T08:50:04.999Z</time>
      </trkpt>
      <trkpt lat="42.33068" lon="1.05779">
        <ele>724.53</ele>
        <time>2024-09-29T08:50:11.999Z</time>
      </trkpt>
      <trkpt lat="42.33063" lon="1.05768">
        <ele>725.82</ele>
        <time>2024-09-29T08:50:18.999Z</time>
      </trkpt>
      <trkpt lat="42.33062" lon="1.05754">
        <ele>726.94</ele>
        <time>2024-09-29T08:50:24.999Z</time>
      </trkpt>
      <trkpt lat="42.33058" lon="1.05743">
        <ele>728.28</ele>
        <time>2024-09-29T08:50:31.999Z</time>
      </trkpt>
      <trkpt lat="42.33051" lon="1.05733">
        <ele>729.79</ele>
        <time>2024-09-29T08:50:39.999Z</time>
      </trkpt>
      <trkpt lat="42.33048" lon="1.05718">
        <ele>731.05</ele>
        <time>2024-09-29T08:50:46.999Z</time>
      </trkpt>
      <trkpt lat="42.33052" lon="1.05706">
        <ele>732.14</ele>
        <time>2024-09-29T08:50:52.999Z</time>
      </trkpt>
      <trkpt lat="42.33059" lon="1.05697">
        <ele>733.23</ele>
        <time>2024-09-29T08:50:58.999Z</time>
      </trkpt>
      <trkpt lat="42.33068" lon="1.05692">
        <ele>734.49</ele>
        <time>2024-09-29T08:51:05.999Z</time>
      </trkpt>
      <trkpt lat="42.33076" lon="1.05684">
        <ele>735.74</ele>
        <time>2024-09-29T08:51:13.000Z</time>
      </trkpt>
      <trkpt lat="42.33085" lon="1.05677">
        <ele>737.08</ele>
        <time>2024-09-29T08:51:20.000Z</time>
      </trkpt>
      <trkpt lat="42.33095" lon="1.05677">
        <ele>738.52</ele>
        <time>2024-09-29T08:51:27.000Z</time>
      </trkpt>
      <trkpt lat="42.33104" lon="1.05678">
        <ele>740.05</ele>
        <time>2024-09-29T08:51:34.000Z</time>
      </trkpt>
      <trkpt lat="42.33114" lon="1.05675">
        <ele>741.4</ele>
        <time>2024-09-29T08:51:40.000Z</time>
      </trkpt>
      <trkpt lat="42.33123" lon="1.05673">
        <ele>742.94</ele>
        <time>2024-09-29T08:51:47.000Z</time>
      </trkpt>
      <trkpt lat="42.33133" lon="1.05668">
        <ele>744.4</ele>
        <time>2024-09-29T08:51:54.000Z</time>
      </trkpt>
      <trkpt lat="42.33139" lon="1.05659">
        <ele>745.59</ele>
        <time>2024-09-29T08:52:00.000Z</time>
      </trkpt>
      <trkpt lat="42.33144" lon="1.05649">
        <ele>746.7</ele>
        <time>2024-09-29T08:52:06.000Z</time>
      </trkpt>
      <trkpt lat="42.33149" lon="1.05636">
        <ele>747.94</ele>
        <time>2024-09-29T08:52:13.000Z</time>
      </trkpt>
      <trkpt lat="42.33152" lon="1.05623">
        <ele>749.15</ele>
        <time>2024-09-29T08:52:20.000Z</time>
      </trkpt>
      <trkpt lat="42.33154" lon="1.0561">
        <ele>750.35</ele>
        <time>2024-09-29T08:52:27.000Z</time>
      </trkpt>
      <trkpt lat="42.33155" lon="1.05597">
        <ele>751.37</ele>
        <time>2024-09-29T08:52:33.000Z</time>
      </trkpt>
      <trkpt lat="42.33157" lon="1.05584">
        <ele>752.57</ele>
        <time>2024-09-29T08:52:40.000Z</time>
      </trkpt>
      <trkpt lat="42.33155" lon="1.05572">
        <ele>753.63</ele>
        <time>2024-09-29T08:52:46.000Z</time>
      </trkpt>
      <trkpt lat="42.33149" lon="1.05562">
        <ele>754.88</ele>
        <time>2024-09-29T08:52:53.000Z</time>
      </trkpt>
      <trkpt lat="42.33144" lon="1.05551">
        <ele>756.05</ele>
        <time>2024-09-29T08:53:00.000Z</time>
      </trkpt>
      <trkpt lat="42.33143" lon="1.05538">
        <ele>757.14</ele>
        <time>2024-09-29T08:53:07.000Z</time>
      </trkpt>
      <trkpt lat="42.33148" lon="1.05529">
        <ele>758.04</ele>
        <time>2024-09-29T08:53:13.000Z</time>
      </trkpt>
      <trkpt lat="42.33153" lon="1.05516">
        <ele>759.07</ele>
        <time>2024-09-29T08:53:20.000Z</time>
      </trkpt>
      <trkpt lat="42.33157" lon="1.05504">
        <ele>760.09</ele>
        <time>2024-09-29T08:53:27.000Z</time>
      </trkpt>
      <trkpt lat="42.33159" lon="1.05491">
        <ele>761.09</ele>
        <time>2024-09-29T08:53:34.000Z</time>
      </trkpt>
      <trkpt lat="42.33161" lon="1.05479">
        <ele>761.93</ele>
        <time>2024-09-29T08:53:40.000Z</time>
      </trkpt>
      <trkpt lat="42.33155" lon="1.05468">
        <ele>762.97</ele>
        <time>2024-09-29T08:53:47.000Z</time>
      </trkpt>
      <trkpt lat="42.33146" lon="1.05468">
        <ele>763.87</ele>
        <time>2024-09-29T08:53:53.000Z</time>
      </trkpt>
      <trkpt lat="42.33137" lon="1.05474">
        <ele>764.61</ele>
        <time>2024-09-29T08:53:58.000Z</time>
      </trkpt>
      <trkpt lat="42.33132" lon="1.05485">
        <ele>765.56</ele>
        <time>2024-09-29T08:54:05.000Z</time>
      </trkpt>
      <trkpt lat="42.33129" lon="1.05497">
        <ele>766.3</ele>
        <time>2024-09-29T08:54:11.000Z</time>
      </trkpt>
      <trkpt lat="42.33126" lon="1.0551">
        <ele>767</ele>
        <time>2024-09-29T08:54:17.000Z</time>
      </trkpt>
      <trkpt lat="42.33124" lon="1.05523">
        <ele>767.77</ele>
        <time>2024-09-29T08:54:24.000Z</time>
      </trkpt>
      <trkpt lat="42.33122" lon="1.05536">
        <ele>768.6</ele>
        <time>2024-09-29T08:54:32.000Z</time>
      </trkpt>
      <trkpt lat="42.33122" lon="1.05549">
        <ele>769.26</ele>
        <time>2024-09-29T08:54:39.000Z</time>
      </trkpt>
      <trkpt lat="42.33121" lon="1.05562">
        <ele>769.79</ele>
        <time>2024-09-29T08:54:45.000Z</time>
      </trkpt>
      <trkpt lat="42.3312" lon="1.05575">
        <ele>770.3</ele>
        <time>2024-09-29T08:54:51.000Z</time>
      </trkpt>
      <trkpt lat="42.33118" lon="1.05587">
        <ele>770.89</ele>
        <time>2024-09-29T08:54:58.000Z</time>
      </trkpt>
      <trkpt lat="42.33112" lon="1.05596">
        <ele>771.46</ele>
        <time>2024-09-29T08:55:05.000Z</time>
      </trkpt>
      <trkpt lat="42.33105" lon="1.05606">
        <ele>771.99</ele>
        <time>2024-09-29T08:55:12.000Z</time>
      </trkpt>
      <trkpt lat="42.33099" lon="1.05616">
        <ele>772.37</ele>
        <time>2024-09-29T08:55:17.000Z</time>
      </trkpt>
      <trkpt lat="42.33091" lon="1.05623">
        <ele>772.84</ele>
        <time>2024-09-29T08:55:23.000Z</time>
      </trkpt>
      <trkpt lat="42.33082" lon="1.05623">
        <ele>773.39</ele>
        <time>2024-09-29T08:55:30.000Z</time>
      </trkpt>
      <trkpt lat="42.33072" lon="1.05621">
        <ele>773.93</ele>
        <time>2024-09-29T08:55:37.000Z</time>
      </trkpt>
      <trkpt lat="42.33063" lon="1.05625">
        <ele>774.46</ele>
        <time>2024-09-29T08:55:44.000Z</time>
      </trkpt>
      <trkpt lat="42.33055" lon="1.05633">
        <ele>774.91</ele>
        <time>2024-09-29T08:55:50.000Z</time>
      </trkpt>
      <trkpt lat="42.33047" lon="1.05641">
        <ele>775.41</ele>
        <time>2024-09-29T08:55:57.000Z</time>
      </trkpt>
      <trkpt lat="42.33038" lon="1.05645">
        <ele>775.84</ele>
        <time>2024-09-29T08:56:03.000Z</time>
      </trkpt>
      <trkpt lat="42.33029" lon="1.05648">
        <ele>776.26</ele>
        <time>2024-09-29T08:56:09.000Z</time>
      </trkpt>
      <trkpt lat="42.33019" lon="1.0565">
        <ele>776.74</ele>
        <time>2024-09-29T08:56:16.000Z</time>
      </trkpt>
      <trkpt lat="42.3301" lon="1.05654">
        <ele>777.2</ele>
        <time>2024-09-29T08:56:23.000Z</time>
      </trkpt>
      <trkpt lat="42.33003" lon="1.05663">
        <ele>777.66</ele>
        <time>2024-09-29T08:56:30.000Z</time>
      </trkpt>
      <trkpt lat="42.32996" lon="1.05673">
        <ele>778.3</ele>
        <time>2024-09-29T08:56:39.000Z</time>
      </trkpt>
      <trkpt lat="42.32989" lon="1.05682">
        <ele>778.81</ele>
        <time>2024-09-29T08:56:46.000Z</time>
      </trkpt>
      <trkpt lat="42.32982" lon="1.05692">
        <ele>779.27</ele>
        <time>2024-09-29T08:56:52.000Z</time>
      </trkpt>
      <trkpt lat="42.32975" lon="1.057">
        <ele>779.77</ele>
        <time>2024-09-29T08:56:58.000Z</time>
      </trkpt>
      <trkpt lat="42.32967" lon="1.0571">
        <ele>780.3</ele>
        <time>2024-09-29T08:57:04.000Z</time>
      </trkpt>
      <trkpt lat="42.32961" lon="1.05721">
        <ele>780.96</ele>
        <time>2024-09-29T08:57:11.000Z</time>
      </trkpt>
      <trkpt lat="42.32956" lon="1.05733">
        <ele>781.67</ele>
        <time>2024-09-29T08:57:18.000Z</time>
      </trkpt>
      <trkpt lat="42.32958" lon="1.05747">
        <ele>782.75</ele>
        <time>2024-09-29T08:57:28.000Z</time>
      </trkpt>
      <trkpt lat="42.32959" lon="1.0576">
        <ele>783.56</ele>
        <time>2024-09-29T08:57:35.000Z</time>
      </trkpt>
      <trkpt lat="42.32962" lon="1.05773">
        <ele>784.41</ele>
        <time>2024-09-29T08:57:42.000Z</time>
      </trkpt>
      <trkpt lat="42.32963" lon="1.05786">
        <ele>785.29</ele>
        <time>2024-09-29T08:57:49.000Z</time>
      </trkpt>
      <trkpt lat="42.32964" lon="1.058">
        <ele>786.07</ele>
        <time>2024-09-29T08:57:55.000Z</time>
      </trkpt>
      <trkpt lat="42.32966" lon="1.05812">
        <ele>786.88</ele>
        <time>2024-09-29T08:58:01.000Z</time>
      </trkpt>
      <trkpt lat="42.32968" lon="1.05826">
        <ele>787.89</ele>
        <time>2024-09-29T08:58:08.000Z</time>
      </trkpt>
      <trkpt lat="42.32971" lon="1.05838">
        <ele>788.83</ele>
        <time>2024-09-29T08:58:14.000Z</time>
      </trkpt>
      <trkpt lat="42.32973" lon="1.0585">
        <ele>789.85</ele>
        <time>2024-09-29T08:58:20.000Z</time>
      </trkpt>
      <trkpt lat="42.32975" lon="1.05863">
        <ele>791.29</ele>
        <time>2024-09-29T08:58:28.000Z</time>
      </trkpt>
      <trkpt lat="42.32976" lon="1.05877">
        <ele>792.56</ele>
        <time>2024-09-29T08:58:35.000Z</time>
      </trkpt>
      <trkpt lat="42.32973" lon="1.0589">
        <ele>793.85</ele>
        <time>2024-09-29T08:58:42.000Z</time>
      </trkpt>
      <trkpt lat="42.32968" lon="1.05901">
        <ele>794.94</ele>
        <time>2024-09-29T08:58:48.000Z</time>
      </trkpt>
      <trkpt lat="42.32962" lon="1.05913">
        <ele>796.14</ele>
        <time>2024-09-29T08:58:55.000Z</time>
      </trkpt>
      <trkpt lat="42.32954" lon="1.0592">
        <ele>797.27</ele>
        <time>2024-09-29T08:59:02.000Z</time>
      </trkpt>
      <trkpt lat="42.32946" lon="1.05925">
        <ele>798.2</ele>
        <time>2024-09-29T08:59:08.000Z</time>
      </trkpt>
      <trkpt lat="42.32937" lon="1.05932">
        <ele>799.23</ele>
        <time>2024-09-29T08:59:15.000Z</time>
      </trkpt>
      <trkpt lat="42.32931" lon="1.05941">
        <ele>800.08</ele>
        <time>2024-09-29T08:59:21.000Z</time>
      </trkpt>
      <trkpt lat="42.32925" lon="1.05952">
        <ele>801.02</ele>
        <time>2024-09-29T08:59:28.000Z</time>
      </trkpt>
      <trkpt lat="42.3292" lon="1.05963">
        <ele>801.79</ele>
        <time>2024-09-29T08:59:34.000Z</time>
      </trkpt>
      <trkpt lat="42.32916" lon="1.05974">
        <ele>802.53</ele>
        <time>2024-09-29T08:59:40.000Z</time>
      </trkpt>
      <trkpt lat="42.32913" lon="1.05987">
        <ele>803.23</ele>
        <time>2024-09-29T08:59:46.000Z</time>
      </trkpt>
      <trkpt lat="42.3291" lon="1.05998">
        <ele>804.03</ele>
        <time>2024-09-29T08:59:53.000Z</time>
      </trkpt>
      <trkpt lat="42.32904" lon="1.06008">
        <ele>804.71</ele>
        <time>2024-09-29T08:59:59.000Z</time>
      </trkpt>
      <trkpt lat="42.32896" lon="1.06016">
        <ele>805.52</ele>
        <time>2024-09-29T09:00:06.000Z</time>
      </trkpt>
      <trkpt lat="42.32888" lon="1.06025">
        <ele>806.33</ele>
        <time>2024-09-29T09:00:13.000Z</time>
      </trkpt>
      <trkpt lat="42.32879" lon="1.06032">
        <ele>807.15</ele>
        <time>2024-09-29T09:00:20.000Z</time>
      </trkpt>
      <trkpt lat="42.32871" lon="1.0604">
        <ele>807.96</ele>
        <time>2024-09-29T09:00:27.000Z</time>
      </trkpt>
      <trkpt lat="42.32863" lon="1.06047">
        <ele>808.76</ele>
        <time>2024-09-29T09:00:34.000Z</time>
      </trkpt>
      <trkpt lat="42.32856" lon="1.06054">
        <ele>809.46</ele>
        <time>2024-09-29T09:00:40.000Z</time>
      </trkpt>
      <trkpt lat="42.32847" lon="1.06061">
        <ele>810.18</ele>
        <time>2024-09-29T09:00:46.000Z</time>
      </trkpt>
      <trkpt lat="42.32838" lon="1.06065">
        <ele>811.04</ele>
        <time>2024-09-29T09:00:53.000Z</time>
      </trkpt>
      <trkpt lat="42.32832" lon="1.06054">
        <ele>811.94</ele>
        <time>2024-09-29T09:01:00.000Z</time>
      </trkpt>
      <trkpt lat="42.32832" lon="1.06042">
        <ele>812.74</ele>
        <time>2024-09-29T09:01:06.000Z</time>
      </trkpt>
      <trkpt lat="42.32839" lon="1.06033">
        <ele>813.56</ele>
        <time>2024-09-29T09:01:12.000Z</time>
      </trkpt>
      <trkpt lat="42.32848" lon="1.06029">
        <ele>814.4</ele>
        <time>2024-09-29T09:01:18.000Z</time>
      </trkpt>
      <trkpt lat="42.32858" lon="1.06024">
        <ele>815.38</ele>
        <time>2024-09-29T09:01:25.000Z</time>
      </trkpt>
      <trkpt lat="42.32866" lon="1.06016">
        <ele>816.36</ele>
        <time>2024-09-29T09:01:32.000Z</time>
      </trkpt>
      <trkpt lat="42.32873" lon="1.06008">
        <ele>817.18</ele>
        <time>2024-09-29T09:01:38.000Z</time>
      </trkpt>
      <trkpt lat="42.32879" lon="1.05999">
        <ele>817.98</ele>
        <time>2024-09-29T09:01:44.000Z</time>
      </trkpt>
      <trkpt lat="42.32886" lon="1.0599">
        <ele>818.76</ele>
        <time>2024-09-29T09:01:50.000Z</time>
      </trkpt>
      <trkpt lat="42.32892" lon="1.05981">
        <ele>819.53</ele>
        <time>2024-09-29T09:01:56.000Z</time>
      </trkpt>
      <trkpt lat="42.32897" lon="1.0597">
        <ele>820.29</ele>
        <time>2024-09-29T09:02:02.000Z</time>
      </trkpt>
      <trkpt lat="42.32902" lon="1.05958">
        <ele>821.15</ele>
        <time>2024-09-29T09:02:09.000Z</time>
      </trkpt>
      <trkpt lat="42.32906" lon="1.05947">
        <ele>821.99</ele>
        <time>2024-09-29T09:02:16.000Z</time>
      </trkpt>
      <trkpt lat="42.32908" lon="1.05935">
        <ele>822.71</ele>
        <time>2024-09-29T09:02:22.000Z</time>
      </trkpt>
      <trkpt lat="42.32912" lon="1.05922">
        <ele>823.54</ele>
        <time>2024-09-29T09:02:29.000Z</time>
      </trkpt>
      <trkpt lat="42.32916" lon="1.05909">
        <ele>824.38</ele>
        <time>2024-09-29T09:02:36.000Z</time>
      </trkpt>
      <trkpt lat="42.3292" lon="1.05897">
        <ele>825.27</ele>
        <time>2024-09-29T09:02:43.000Z</time>
      </trkpt>
      <trkpt lat="42.32923" lon="1.05884">
        <ele>826.2</ele>
        <time>2024-09-29T09:02:50.000Z</time>
      </trkpt>
      <trkpt lat="42.32922" lon="1.05871">
        <ele>827.17</ele>
        <time>2024-09-29T09:02:57.000Z</time>
      </trkpt>
      <trkpt lat="42.32918" lon="1.0586">
        <ele>828.07</ele>
        <time>2024-09-29T09:03:03.000Z</time>
      </trkpt>
      <trkpt lat="42.32912" lon="1.0585">
        <ele>829.04</ele>
        <time>2024-09-29T09:03:09.000Z</time>
      </trkpt>
      <trkpt lat="42.32903" lon="1.05847">
        <ele>830.07</ele>
        <time>2024-09-29T09:03:14.999Z</time>
      </trkpt>
      <trkpt lat="42.32894" lon="1.05844">
        <ele>831.34</ele>
        <time>2024-09-29T09:03:21.999Z</time>
      </trkpt>
      <trkpt lat="42.32889" lon="1.05831">
        <ele>832.54</ele>
        <time>2024-09-29T09:03:27.999Z</time>
      </trkpt>
      <trkpt lat="42.32886" lon="1.05818">
        <ele>833.84</ele>
        <time>2024-09-29T09:03:33.999Z</time>
      </trkpt>
      <trkpt lat="42.32883" lon="1.05806">
        <ele>835.24</ele>
        <time>2024-09-29T09:03:39.999Z</time>
      </trkpt>
      <trkpt lat="42.32878" lon="1.05793">
        <ele>837.15</ele>
        <time>2024-09-29T09:03:47.999Z</time>
      </trkpt>
      <trkpt lat="42.32874" lon="1.05782">
        <ele>838.53</ele>
        <time>2024-09-29T09:03:53.999Z</time>
      </trkpt>
      <trkpt lat="42.32874" lon="1.05769">
        <ele>839.88</ele>
        <time>2024-09-29T09:03:59.999Z</time>
      </trkpt>
      <trkpt lat="42.32875" lon="1.05756">
        <ele>841.19</ele>
        <time>2024-09-29T09:04:05.999Z</time>
      </trkpt>
      <trkpt lat="42.32874" lon="1.05743">
        <ele>842.66</ele>
        <time>2024-09-29T09:04:12.999Z</time>
      </trkpt>
      <trkpt lat="42.32874" lon="1.05729">
        <ele>844.07</ele>
        <time>2024-09-29T09:04:19.999Z</time>
      </trkpt>
      <trkpt lat="42.32869" lon="1.05716">
        <ele>845.5</ele>
        <time>2024-09-29T09:04:26.999Z</time>
      </trkpt>
      <trkpt lat="42.32863" lon="1.05707">
        <ele>846.73</ele>
        <time>2024-09-29T09:04:32.999Z</time>
      </trkpt>
      <trkpt lat="42.32858" lon="1.05696">
        <ele>847.94</ele>
        <time>2024-09-29T09:04:38.999Z</time>
      </trkpt>
      <trkpt lat="42.32856" lon="1.05683">
        <ele>849.33</ele>
        <time>2024-09-29T09:04:45.999Z</time>
      </trkpt>
      <trkpt lat="42.32854" lon="1.05671">
        <ele>850.48</ele>
        <time>2024-09-29T09:04:51.999Z</time>
      </trkpt>
      <trkpt lat="42.3286" lon="1.0566">
        <ele>851.77</ele>
        <time>2024-09-29T09:04:58.999Z</time>
      </trkpt>
      <trkpt lat="42.32868" lon="1.05651">
        <ele>852.98</ele>
        <time>2024-09-29T09:05:05.999Z</time>
      </trkpt>
      <trkpt lat="42.32874" lon="1.05642">
        <ele>853.96</ele>
        <time>2024-09-29T09:05:11.999Z</time>
      </trkpt>
      <trkpt lat="42.32879" lon="1.05629">
        <ele>855.03</ele>
        <time>2024-09-29T09:05:18.999Z</time>
      </trkpt>
      <trkpt lat="42.32878" lon="1.05616">
        <ele>856.05</ele>
        <time>2024-09-29T09:05:25.999Z</time>
      </trkpt>
      <trkpt lat="42.32876" lon="1.05604">
        <ele>856.9</ele>
        <time>2024-09-29T09:05:31.999Z</time>
      </trkpt>
      <trkpt lat="42.32871" lon="1.05593">
        <ele>857.73</ele>
        <time>2024-09-29T09:05:37.999Z</time>
      </trkpt>
      <trkpt lat="42.32863" lon="1.05584">
        <ele>858.54</ele>
        <time>2024-09-29T09:05:43.999Z</time>
      </trkpt>
      <trkpt lat="42.32853" lon="1.05578">
        <ele>859.32</ele>
        <time>2024-09-29T09:05:49.999Z</time>
      </trkpt>
      <trkpt lat="42.32844" lon="1.05577">
        <ele>859.94</ele>
        <time>2024-09-29T09:05:54.999Z</time>
      </trkpt>
      <trkpt lat="42.32834" lon="1.05569">
        <ele>860.54</ele>
        <time>2024-09-29T09:05:59.999Z</time>
      </trkpt>
      <trkpt lat="42.32831" lon="1.05551">
        <ele>861.12</ele>
        <time>2024-09-29T09:06:04.999Z</time>
      </trkpt>
      <trkpt lat="42.32831" lon="1.05529">
        <ele>861.67</ele>
        <time>2024-09-29T09:06:09.999Z</time>
      </trkpt>
      <trkpt lat="42.32835" lon="1.05506">
        <ele>862.2</ele>
        <time>2024-09-29T09:06:14.999Z</time>
      </trkpt>
      <trkpt lat="42.32838" lon="1.05482">
        <ele>862.74</ele>
        <time>2024-09-29T09:06:19.999Z</time>
      </trkpt>
      <trkpt lat="42.32841" lon="1.05455">
        <ele>865.96</ele>
        <time>2024-09-29T09:06:24.999Z</time>
      </trkpt>
      <trkpt lat="42.32844" lon="1.05432">
        <ele>866.45</ele>
        <time>2024-09-29T09:06:29.999Z</time>
      </trkpt>
      <trkpt lat="42.32846" lon="1.05414">
        <ele>866.76</ele>
        <time>2024-09-29T09:06:34.999Z</time>
      </trkpt>
      <trkpt lat="42.32849" lon="1.05394">
        <ele>867.07</ele>
        <time>2024-09-29T09:06:39.999Z</time>
      </trkpt>
      <trkpt lat="42.3285" lon="1.05374">
        <ele>867.39</ele>
        <time>2024-09-29T09:06:44.999Z</time>
      </trkpt>
      <trkpt lat="42.32854" lon="1.05353">
        <ele>867.74</ele>
        <time>2024-09-29T09:06:49.999Z</time>
      </trkpt>
      <trkpt lat="42.32855" lon="1.05334">
        <ele>868.11</ele>
        <time>2024-09-29T09:06:54.999Z</time>
      </trkpt>
      <trkpt lat="42.32857" lon="1.05314">
        <ele>868.5</ele>
        <time>2024-09-29T09:06:59.999Z</time>
      </trkpt>
      <trkpt lat="42.32858" lon="1.05296">
        <ele>868.92</ele>
        <time>2024-09-29T09:07:04.999Z</time>
      </trkpt>
      <trkpt lat="42.32859" lon="1.05284">
        <ele>869.35</ele>
        <time>2024-09-29T09:07:09.999Z</time>
      </trkpt>
      <trkpt lat="42.32861" lon="1.05271">
        <ele>869.8</ele>
        <time>2024-09-29T09:07:14.999Z</time>
      </trkpt>
      <trkpt lat="42.32861" lon="1.05258">
        <ele>870.33</ele>
        <time>2024-09-29T09:07:20.999Z</time>
      </trkpt>
      <trkpt lat="42.32861" lon="1.05244">
        <ele>870.93</ele>
        <time>2024-09-29T09:07:27.999Z</time>
      </trkpt>
      <trkpt lat="42.32861" lon="1.05231">
        <ele>871.51</ele>
        <time>2024-09-29T09:07:34.999Z</time>
      </trkpt>
      <trkpt lat="42.32857" lon="1.05218">
        <ele>872.09</ele>
        <time>2024-09-29T09:07:41.999Z</time>
      </trkpt>
      <trkpt lat="42.32851" lon="1.05206">
        <ele>872.67</ele>
        <time>2024-09-29T09:07:48.999Z</time>
      </trkpt>
      <trkpt lat="42.32847" lon="1.05194">
        <ele>873.17</ele>
        <time>2024-09-29T09:07:54.999Z</time>
      </trkpt>
      <trkpt lat="42.32843" lon="1.05181">
        <ele>873.67</ele>
        <time>2024-09-29T09:08:00.999Z</time>
      </trkpt>
      <trkpt lat="42.32839" lon="1.05168">
        <ele>874.2</ele>
        <time>2024-09-29T09:08:06.999Z</time>
      </trkpt>
      <trkpt lat="42.32835" lon="1.05155">
        <ele>874.73</ele>
        <time>2024-09-29T09:08:12.999Z</time>
      </trkpt>
      <trkpt lat="42.3283" lon="1.05142">
        <ele>875.27</ele>
        <time>2024-09-29T09:08:18.999Z</time>
      </trkpt>
      <trkpt lat="42.32825" lon="1.0513">
        <ele>875.82</ele>
        <time>2024-09-29T09:08:24.999Z</time>
      </trkpt>
      <trkpt lat="42.32822" lon="1.05118">
        <ele>876.28</ele>
        <time>2024-09-29T09:08:29.999Z</time>
      </trkpt>
      <trkpt lat="42.32828" lon="1.05106">
        <ele>876.82</ele>
        <time>2024-09-29T09:08:35.999Z</time>
      </trkpt>
      <trkpt lat="42.32837" lon="1.05101">
        <ele>877.46</ele>
        <time>2024-09-29T09:08:42.999Z</time>
      </trkpt>
      <trkpt lat="42.32847" lon="1.05098">
        <ele>877.99</ele>
        <time>2024-09-29T09:08:48.999Z</time>
      </trkpt>
      <trkpt lat="42.32855" lon="1.05092">
        <ele>878.51</ele>
        <time>2024-09-29T09:08:54.999Z</time>
      </trkpt>
      <trkpt lat="42.32862" lon="1.05083">
        <ele>879.04</ele>
        <time>2024-09-29T09:09:00.999Z</time>
      </trkpt>
      <trkpt lat="42.32865" lon="1.05069">
        <ele>879.68</ele>
        <time>2024-09-29T09:09:07.999Z</time>
      </trkpt>
      <trkpt lat="42.32864" lon="1.05057">
        <ele>880.27</ele>
        <time>2024-09-29T09:09:13.999Z</time>
      </trkpt>
      <trkpt lat="42.32863" lon="1.05043">
        <ele>880.98</ele>
        <time>2024-09-29T09:09:20.999Z</time>
      </trkpt>
      <trkpt lat="42.3286" lon="1.0503">
        <ele>881.71</ele>
        <time>2024-09-29T09:09:27.999Z</time>
      </trkpt>
      <trkpt lat="42.32856" lon="1.05018">
        <ele>882.46</ele>
        <time>2024-09-29T09:09:34.999Z</time>
      </trkpt>
      <trkpt lat="42.32855" lon="1.05006">
        <ele>883.2</ele>
        <time>2024-09-29T09:09:41.999Z</time>
      </trkpt>
      <trkpt lat="42.32851" lon="1.04994">
        <ele>883.83</ele>
        <time>2024-09-29T09:09:47.999Z</time>
      </trkpt>
      <trkpt lat="42.32848" lon="1.04982">
        <ele>884.56</ele>
        <time>2024-09-29T09:09:54.999Z</time>
      </trkpt>
      <trkpt lat="42.32846" lon="1.0497">
        <ele>885.17</ele>
        <time>2024-09-29T09:10:00.999Z</time>
      </trkpt>
      <trkpt lat="42.32843" lon="1.04958">
        <ele>885.78</ele>
        <time>2024-09-29T09:10:06.999Z</time>
      </trkpt>
      <trkpt lat="42.3284" lon="1.04945">
        <ele>886.5</ele>
        <time>2024-09-29T09:10:13.999Z</time>
      </trkpt>
      <trkpt lat="42.3284" lon="1.04931">
        <ele>887.22</ele>
        <time>2024-09-29T09:10:20.999Z</time>
      </trkpt>
      <trkpt lat="42.32841" lon="1.04919">
        <ele>887.95</ele>
        <time>2024-09-29T09:10:27.999Z</time>
      </trkpt>
      <trkpt lat="42.3284" lon="1.04905">
        <ele>888.57</ele>
        <time>2024-09-29T09:10:33.999Z</time>
      </trkpt>
      <trkpt lat="42.3284" lon="1.04892">
        <ele>889.28</ele>
        <time>2024-09-29T09:10:40.999Z</time>
      </trkpt>
      <trkpt lat="42.32841" lon="1.04879">
        <ele>889.87</ele>
        <time>2024-09-29T09:10:46.999Z</time>
      </trkpt>
      <trkpt lat="42.32843" lon="1.04867">
        <ele>890.44</ele>
        <time>2024-09-29T09:10:52.999Z</time>
      </trkpt>
      <trkpt lat="42.32849" lon="1.04856">
        <ele>891.01</ele>
        <time>2024-09-29T09:10:58.999Z</time>
      </trkpt>
      <trkpt lat="42.32854" lon="1.04845">
        <ele>891.59</ele>
        <time>2024-09-29T09:11:04.999Z</time>
      </trkpt>
      <trkpt lat="42.32859" lon="1.04834">
        <ele>892.15</ele>
        <time>2024-09-29T09:11:10.999Z</time>
      </trkpt>
      <trkpt lat="42.32865" lon="1.0482">
        <ele>892.63</ele>
        <time>2024-09-29T09:11:15.999Z</time>
      </trkpt>
      <trkpt lat="42.3287" lon="1.04807">
        <ele>893.1</ele>
        <time>2024-09-29T09:11:20.999Z</time>
      </trkpt>
      <trkpt lat="42.32876" lon="1.04798">
        <ele>910.79</ele>
        <time>2024-09-29T09:21:52.000Z</time>
      </trkpt>
      <trkpt lat="42.32867" lon="1.048">
        <ele>913.21</ele>
        <time>2024-09-29T09:22:44.000Z</time>
      </trkpt>
      <trkpt lat="42.32868" lon="1.04784">
        <ele>913.71</ele>
        <time>2024-09-29T09:22:54.000Z</time>
      </trkpt>
      <trkpt lat="42.32863" lon="1.04766">
        <ele>914.4</ele>
        <time>2024-09-29T09:22:59.000Z</time>
      </trkpt>
      <trkpt lat="42.32847" lon="1.04743">
        <ele>915.98</ele>
        <time>2024-09-29T09:23:04.000Z</time>
      </trkpt>
      <trkpt lat="42.3283" lon="1.04715">
        <ele>916.48</ele>
        <time>2024-09-29T09:23:09.000Z</time>
      </trkpt>
      <trkpt lat="42.32803" lon="1.04683">
        <ele>916.59</ele>
        <time>2024-09-29T09:23:14.000Z</time>
      </trkpt>
      <trkpt lat="42.3278" lon="1.04644">
        <ele>916.5</ele>
        <time>2024-09-29T09:23:19.000Z</time>
      </trkpt>
      <trkpt lat="42.32758" lon="1.04599">
        <ele>916.03</ele>
        <time>2024-09-29T09:23:24.000Z</time>
      </trkpt>
      <trkpt lat="42.32733" lon="1.0455">
        <ele>914.94</ele>
        <time>2024-09-29T09:23:29.000Z</time>
      </trkpt>
      <trkpt lat="42.32707" lon="1.04493">
        <ele>913.3</ele>
        <time>2024-09-29T09:23:34.000Z</time>
      </trkpt>
      <trkpt lat="42.32678" lon="1.0444">
        <ele>912.47</ele>
        <time>2024-09-29T09:23:39.000Z</time>
      </trkpt>
      <trkpt lat="42.32639" lon="1.04398">
        <ele>911.22</ele>
        <time>2024-09-29T09:23:44.000Z</time>
      </trkpt>
      <trkpt lat="42.3259" lon="1.04379">
        <ele>909.63</ele>
        <time>2024-09-29T09:23:49.000Z</time>
      </trkpt>
      <trkpt lat="42.32538" lon="1.04361">
        <ele>907.88</ele>
        <time>2024-09-29T09:23:54.000Z</time>
      </trkpt>
      <trkpt lat="42.32495" lon="1.04318">
        <ele>905.05</ele>
        <time>2024-09-29T09:23:59.000Z</time>
      </trkpt>
      <trkpt lat="42.32444" lon="1.04298">
        <ele>902.2</ele>
        <time>2024-09-29T09:24:04.000Z</time>
      </trkpt>
      <trkpt lat="42.32413" lon="1.04245">
        <ele>901.25</ele>
        <time>2024-09-29T09:24:09.000Z</time>
      </trkpt>
      <trkpt lat="42.32388" lon="1.04196">
        <ele>900.2</ele>
        <time>2024-09-29T09:24:14.000Z</time>
      </trkpt>
      <trkpt lat="42.32381" lon="1.04144">
        <ele>898.17</ele>
        <time>2024-09-29T09:24:19.000Z</time>
      </trkpt>
      <trkpt lat="42.3239" lon="1.04089">
        <ele>895.13</ele>
        <time>2024-09-29T09:24:24.000Z</time>
      </trkpt>
      <trkpt lat="42.32403" lon="1.04038">
        <ele>893.48</ele>
        <time>2024-09-29T09:24:29.000Z</time>
      </trkpt>
      <trkpt lat="42.3242" lon="1.03991">
        <ele>891.79</ele>
        <time>2024-09-29T09:24:34.000Z</time>
      </trkpt>
      <trkpt lat="42.32436" lon="1.03946">
        <ele>890.74</ele>
        <time>2024-09-29T09:24:39.000Z</time>
      </trkpt>
      <trkpt lat="42.32444" lon="1.03899">
        <ele>889.24</ele>
        <time>2024-09-29T09:24:44.000Z</time>
      </trkpt>
      <trkpt lat="42.32446" lon="1.03852">
        <ele>887.46</ele>
        <time>2024-09-29T09:24:49.000Z</time>
      </trkpt>
      <trkpt lat="42.32448" lon="1.03812">
        <ele>885.58</ele>
        <time>2024-09-29T09:24:54.000Z</time>
      </trkpt>
      <trkpt lat="42.32449" lon="1.03775">
        <ele>883.93</ele>
        <time>2024-09-29T09:24:59.000Z</time>
      </trkpt>
      <trkpt lat="42.32449" lon="1.03741">
        <ele>882.47</ele>
        <time>2024-09-29T09:25:04.000Z</time>
      </trkpt>
      <trkpt lat="42.3245" lon="1.03706">
        <ele>881.56</ele>
        <time>2024-09-29T09:25:09.000Z</time>
      </trkpt>
      <trkpt lat="42.3245" lon="1.0367">
        <ele>881.1</ele>
        <time>2024-09-29T09:25:14.000Z</time>
      </trkpt>
      <trkpt lat="42.32444" lon="1.03633">
        <ele>880.56</ele>
        <time>2024-09-29T09:25:19.000Z</time>
      </trkpt>
      <trkpt lat="42.3244" lon="1.03614">
        <ele>880.32</ele>
        <time>2024-09-29T09:25:24.000Z</time>
      </trkpt>
      <trkpt lat="42.32442" lon="1.036">
        <ele>880.14</ele>
        <time>2024-09-29T09:25:34.000Z</time>
      </trkpt>
      <trkpt lat="42.32444" lon="1.03585">
        <ele>879.97</ele>
        <time>2024-09-29T09:25:39.000Z</time>
      </trkpt>
      <trkpt lat="42.3245" lon="1.03567">
        <ele>879.79</ele>
        <time>2024-09-29T09:25:44.000Z</time>
      </trkpt>
      <trkpt lat="42.32455" lon="1.03549">
        <ele>879.63</ele>
        <time>2024-09-29T09:25:49.000Z</time>
      </trkpt>
      <trkpt lat="42.32461" lon="1.03531">
        <ele>879.49</ele>
        <time>2024-09-29T09:25:54.000Z</time>
      </trkpt>
      <trkpt lat="42.32467" lon="1.03515">
        <ele>879.36</ele>
        <time>2024-09-29T09:25:59.000Z</time>
      </trkpt>
      <trkpt lat="42.32471" lon="1.03502">
        <ele>879.25</ele>
        <time>2024-09-29T09:26:04.000Z</time>
      </trkpt>
      <trkpt lat="42.32474" lon="1.03486">
        <ele>879.18</ele>
        <time>2024-09-29T09:26:09.000Z</time>
      </trkpt>
      <trkpt lat="42.32474" lon="1.0347">
        <ele>879.12</ele>
        <time>2024-09-29T09:26:14.000Z</time>
      </trkpt>
      <trkpt lat="42.32471" lon="1.03456">
        <ele>879.07</ele>
        <time>2024-09-29T09:26:19.000Z</time>
      </trkpt>
      <trkpt lat="42.32465" lon="1.03441">
        <ele>879.02</ele>
        <time>2024-09-29T09:26:24.000Z</time>
      </trkpt>
      <trkpt lat="42.32462" lon="1.03424">
        <ele>878.97</ele>
        <time>2024-09-29T09:26:29.000Z</time>
      </trkpt>
      <trkpt lat="42.32459" lon="1.03406">
        <ele>878.94</ele>
        <time>2024-09-29T09:26:34.000Z</time>
      </trkpt>
      <trkpt lat="42.32457" lon="1.03388">
        <ele>878.93</ele>
        <time>2024-09-29T09:26:39.000Z</time>
      </trkpt>
      <trkpt lat="42.32454" lon="1.03368">
        <ele>878.95</ele>
        <time>2024-09-29T09:26:44.000Z</time>
      </trkpt>
      <trkpt lat="42.32451" lon="1.03344">
        <ele>879.05</ele>
        <time>2024-09-29T09:26:49.000Z</time>
      </trkpt>
      <trkpt lat="42.32447" lon="1.03315">
        <ele>879.43</ele>
        <time>2024-09-29T09:26:54.000Z</time>
      </trkpt>
      <trkpt lat="42.32444" lon="1.03283">
        <ele>879.62</ele>
        <time>2024-09-29T09:26:59.000Z</time>
      </trkpt>
      <trkpt lat="42.32443" lon="1.03255">
        <ele>879.68</ele>
        <time>2024-09-29T09:27:04.000Z</time>
      </trkpt>
      <trkpt lat="42.32447" lon="1.03228">
        <ele>879.79</ele>
        <time>2024-09-29T09:27:09.000Z</time>
      </trkpt>
      <trkpt lat="42.3245" lon="1.03204">
        <ele>879.82</ele>
        <time>2024-09-29T09:27:14.000Z</time>
      </trkpt>
      <trkpt lat="42.32457" lon="1.03187">
        <ele>879.87</ele>
        <time>2024-09-29T09:27:19.000Z</time>
      </trkpt>
      <trkpt lat="42.32465" lon="1.03176">
        <ele>879.95</ele>
        <time>2024-09-29T09:27:24.000Z</time>
      </trkpt>
      <trkpt lat="42.3248" lon="1.03171">
        <ele>880.06</ele>
        <time>2024-09-29T09:27:29.999Z</time>
      </trkpt>
      <trkpt lat="42.3249" lon="1.03168">
        <ele>880.19</ele>
        <time>2024-09-29T09:27:35.999Z</time>
      </trkpt>
      <trkpt lat="42.325" lon="1.03166">
        <ele>880.33</ele>
        <time>2024-09-29T09:27:40.999Z</time>
      </trkpt>
      <trkpt lat="42.32509" lon="1.03162">
        <ele>880.6</ele>
        <time>2024-09-29T09:27:51.999Z</time>
      </trkpt>
      <trkpt lat="42.32519" lon="1.03159">
        <ele>880.78</ele>
        <time>2024-09-29T09:27:57.999Z</time>
      </trkpt>
      <trkpt lat="42.32529" lon="1.03157">
        <ele>880.97</ele>
        <time>2024-09-29T09:28:03.999Z</time>
      </trkpt>
      <trkpt lat="42.32539" lon="1.03155">
        <ele>881.18</ele>
        <time>2024-09-29T09:28:10.999Z</time>
      </trkpt>
      <trkpt lat="42.32548" lon="1.03159">
        <ele>881.42</ele>
        <time>2024-09-29T09:28:17.999Z</time>
      </trkpt>
      <trkpt lat="42.32556" lon="1.03166">
        <ele>881.66</ele>
        <time>2024-09-29T09:28:24.999Z</time>
      </trkpt>
      <trkpt lat="42.32563" lon="1.03175">
        <ele>881.93</ele>
        <time>2024-09-29T09:28:31.999Z</time>
      </trkpt>
      <trkpt lat="42.32571" lon="1.03184">
        <ele>882.23</ele>
        <time>2024-09-29T09:28:38.999Z</time>
      </trkpt>
      <trkpt lat="42.32579" lon="1.03192">
        <ele>882.55</ele>
        <time>2024-09-29T09:28:45.999Z</time>
      </trkpt>
      <trkpt lat="42.32587" lon="1.032">
        <ele>882.85</ele>
        <time>2024-09-29T09:28:51.999Z</time>
      </trkpt>
      <trkpt lat="42.32595" lon="1.03207">
        <ele>883.22</ele>
        <time>2024-09-29T09:28:58.999Z</time>
      </trkpt>
      <trkpt lat="42.32603" lon="1.03214">
        <ele>883.55</ele>
        <time>2024-09-29T09:29:04.999Z</time>
      </trkpt>
      <trkpt lat="42.32612" lon="1.03221">
        <ele>883.9</ele>
        <time>2024-09-29T09:29:10.999Z</time>
      </trkpt>
      <trkpt lat="42.3262" lon="1.03228">
        <ele>884.25</ele>
        <time>2024-09-29T09:29:16.999Z</time>
      </trkpt>
      <trkpt lat="42.32629" lon="1.03235">
        <ele>884.62</ele>
        <time>2024-09-29T09:29:22.999Z</time>
      </trkpt>
      <trkpt lat="42.32637" lon="1.0324">
        <ele>885</ele>
        <time>2024-09-29T09:29:28.999Z</time>
      </trkpt>
      <trkpt lat="42.32646" lon="1.03246">
        <ele>885.38</ele>
        <time>2024-09-29T09:29:34.999Z</time>
      </trkpt>
      <trkpt lat="42.32655" lon="1.03249">
        <ele>885.75</ele>
        <time>2024-09-29T09:29:40.999Z</time>
      </trkpt>
      <trkpt lat="42.32664" lon="1.03255">
        <ele>886.12</ele>
        <time>2024-09-29T09:29:46.999Z</time>
      </trkpt>
      <trkpt lat="42.32675" lon="1.03258">
        <ele>886.43</ele>
        <time>2024-09-29T09:29:51.999Z</time>
      </trkpt>
      <trkpt lat="42.32684" lon="1.03263">
        <ele>886.75</ele>
        <time>2024-09-29T09:29:56.999Z</time>
      </trkpt>
      <trkpt lat="42.32694" lon="1.03264">
        <ele>887.07</ele>
        <time>2024-09-29T09:30:01.999Z</time>
      </trkpt>
      <trkpt lat="42.32703" lon="1.03267">
        <ele>887.38</ele>
        <time>2024-09-29T09:30:06.999Z</time>
      </trkpt>
      <trkpt lat="42.32713" lon="1.03269">
        <ele>887.69</ele>
        <time>2024-09-29T09:30:11.999Z</time>
      </trkpt>
      <trkpt lat="42.32724" lon="1.03268">
        <ele>888.03</ele>
        <time>2024-09-29T09:30:17.999Z</time>
      </trkpt>
      <trkpt lat="42.32736" lon="1.03269">
        <ele>888.3</ele>
        <time>2024-09-29T09:30:22.999Z</time>
      </trkpt>
      <trkpt lat="42.32747" lon="1.03269">
        <ele>888.57</ele>
        <time>2024-09-29T09:30:27.999Z</time>
      </trkpt>
      <trkpt lat="42.32757" lon="1.03264">
        <ele>888.84</ele>
        <time>2024-09-29T09:30:32.999Z</time>
      </trkpt>
      <trkpt lat="42.32766" lon="1.03255">
        <ele>889.11</ele>
        <time>2024-09-29T09:30:37.999Z</time>
      </trkpt>
      <trkpt lat="42.32773" lon="1.03242">
        <ele>889.38</ele>
        <time>2024-09-29T09:30:42.999Z</time>
      </trkpt>
      <trkpt lat="42.32777" lon="1.03225">
        <ele>889.64</ele>
        <time>2024-09-29T09:30:47.999Z</time>
      </trkpt>
      <trkpt lat="42.32782" lon="1.03212">
        <ele>889.91</ele>
        <time>2024-09-29T09:30:52.999Z</time>
      </trkpt>
      <trkpt lat="42.32791" lon="1.032">
        <ele>890.19</ele>
        <time>2024-09-29T09:30:57.999Z</time>
      </trkpt>
      <trkpt lat="42.32802" lon="1.03193">
        <ele>890.48</ele>
        <time>2024-09-29T09:31:02.999Z</time>
      </trkpt>
      <trkpt lat="42.32813" lon="1.03191">
        <ele>890.79</ele>
        <time>2024-09-29T09:31:07.999Z</time>
      </trkpt>
      <trkpt lat="42.32825" lon="1.03193">
        <ele>891.11</ele>
        <time>2024-09-29T09:31:12.999Z</time>
      </trkpt>
      <trkpt lat="42.32835" lon="1.03193">
        <ele>891.43</ele>
        <time>2024-09-29T09:31:17.999Z</time>
      </trkpt>
      <trkpt lat="42.32844" lon="1.03193">
        <ele>891.76</ele>
        <time>2024-09-29T09:31:22.999Z</time>
      </trkpt>
      <trkpt lat="42.32855" lon="1.03193">
        <ele>892.08</ele>
        <time>2024-09-29T09:31:27.999Z</time>
      </trkpt>
      <trkpt lat="42.32865" lon="1.03195">
        <ele>892.48</ele>
        <time>2024-09-29T09:31:33.999Z</time>
      </trkpt>
      <trkpt lat="42.32875" lon="1.03195">
        <ele>892.81</ele>
        <time>2024-09-29T09:31:38.999Z</time>
      </trkpt>
      <trkpt lat="42.32885" lon="1.03194">
        <ele>893.15</ele>
        <time>2024-09-29T09:31:43.999Z</time>
      </trkpt>
      <trkpt lat="42.32894" lon="1.03192">
        <ele>893.57</ele>
        <time>2024-09-29T09:31:49.999Z</time>
      </trkpt>
      <trkpt lat="42.32904" lon="1.03188">
        <ele>893.99</ele>
        <time>2024-09-29T09:31:55.999Z</time>
      </trkpt>
      <trkpt lat="42.32909" lon="1.03177">
        <ele>894.5</ele>
        <time>2024-09-29T09:32:02.999Z</time>
      </trkpt>
      <trkpt lat="42.32904" lon="1.03167">
        <ele>895.02</ele>
        <time>2024-09-29T09:32:09.999Z</time>
      </trkpt>
      <trkpt lat="42.32893" lon="1.03163">
        <ele>895.55</ele>
        <time>2024-09-29T09:32:16.999Z</time>
      </trkpt>
      <trkpt lat="42.32884" lon="1.03163">
        <ele>895.92</ele>
        <time>2024-09-29T09:32:21.999Z</time>
      </trkpt>
      <trkpt lat="42.32874" lon="1.03162">
        <ele>896.29</ele>
        <time>2024-09-29T09:32:26.999Z</time>
      </trkpt>
      <trkpt lat="42.32864" lon="1.03162">
        <ele>896.66</ele>
        <time>2024-09-29T09:32:31.999Z</time>
      </trkpt>
      <trkpt lat="42.32854" lon="1.03159">
        <ele>897.04</ele>
        <time>2024-09-29T09:32:36.999Z</time>
      </trkpt>
      <trkpt lat="42.32845" lon="1.03156">
        <ele>897.42</ele>
        <time>2024-09-29T09:32:41.999Z</time>
      </trkpt>
      <trkpt lat="42.32836" lon="1.03149">
        <ele>897.8</ele>
        <time>2024-09-29T09:32:46.999Z</time>
      </trkpt>
      <trkpt lat="42.32829" lon="1.03141">
        <ele>898.18</ele>
        <time>2024-09-29T09:32:51.999Z</time>
      </trkpt>
      <trkpt lat="42.32821" lon="1.03135">
        <ele>898.55</ele>
        <time>2024-09-29T09:32:56.999Z</time>
      </trkpt>
      <trkpt lat="42.32812" lon="1.0313">
        <ele>899</ele>
        <time>2024-09-29T09:33:02.999Z</time>
      </trkpt>
      <trkpt lat="42.32802" lon="1.03127">
        <ele>899.37</ele>
        <time>2024-09-29T09:33:07.999Z</time>
      </trkpt>
      <trkpt lat="42.32792" lon="1.03122">
        <ele>899.74</ele>
        <time>2024-09-29T09:33:12.999Z</time>
      </trkpt>
      <trkpt lat="42.32782" lon="1.03121">
        <ele>900.1</ele>
        <time>2024-09-29T09:33:17.999Z</time>
      </trkpt>
      <trkpt lat="42.32773" lon="1.03121">
        <ele>900.69</ele>
        <time>2024-09-29T09:33:25.999Z</time>
      </trkpt>
      <trkpt lat="42.32762" lon="1.03118">
        <ele>901.2</ele>
        <time>2024-09-29T09:33:32.999Z</time>
      </trkpt>
      <trkpt lat="42.32751" lon="1.03113">
        <ele>901.56</ele>
        <time>2024-09-29T09:33:37.999Z</time>
      </trkpt>
      <trkpt lat="42.32743" lon="1.03105">
        <ele>902.07</ele>
        <time>2024-09-29T09:33:44.999Z</time>
      </trkpt>
      <trkpt lat="42.32734" lon="1.03096">
        <ele>902.43</ele>
        <time>2024-09-29T09:33:49.999Z</time>
      </trkpt>
      <trkpt lat="42.32728" lon="1.03087">
        <ele>902.87</ele>
        <time>2024-09-29T09:33:55.999Z</time>
      </trkpt>
      <trkpt lat="42.32721" lon="1.03078">
        <ele>903.31</ele>
        <time>2024-09-29T09:34:01.999Z</time>
      </trkpt>
      <trkpt lat="42.32713" lon="1.0307">
        <ele>903.76</ele>
        <time>2024-09-29T09:34:07.999Z</time>
      </trkpt>
      <trkpt lat="42.32706" lon="1.03061">
        <ele>904.15</ele>
        <time>2024-09-29T09:34:12.999Z</time>
      </trkpt>
      <trkpt lat="42.32699" lon="1.03053">
        <ele>904.66</ele>
        <time>2024-09-29T09:34:18.999Z</time>
      </trkpt>
      <trkpt lat="42.32692" lon="1.03045">
        <ele>905.13</ele>
        <time>2024-09-29T09:34:23.999Z</time>
      </trkpt>
      <trkpt lat="42.32685" lon="1.03037">
        <ele>905.92</ele>
        <time>2024-09-29T09:34:31.999Z</time>
      </trkpt>
      <trkpt lat="42.32677" lon="1.0303">
        <ele>906.55</ele>
        <time>2024-09-29T09:34:37.999Z</time>
      </trkpt>
      <trkpt lat="42.3267" lon="1.03021">
        <ele>907.33</ele>
        <time>2024-09-29T09:34:44.999Z</time>
      </trkpt>
      <trkpt lat="42.32663" lon="1.03012">
        <ele>907.91</ele>
        <time>2024-09-29T09:34:49.999Z</time>
      </trkpt>
      <trkpt lat="42.32656" lon="1.03003">
        <ele>908.65</ele>
        <time>2024-09-29T09:34:55.999Z</time>
      </trkpt>
      <trkpt lat="42.32649" lon="1.02992">
        <ele>909.43</ele>
        <time>2024-09-29T09:35:01.999Z</time>
      </trkpt>
      <trkpt lat="42.32645" lon="1.02981">
        <ele>910.24</ele>
        <time>2024-09-29T09:35:07.999Z</time>
      </trkpt>
      <trkpt lat="42.32642" lon="1.02969">
        <ele>911.06</ele>
        <time>2024-09-29T09:35:13.999Z</time>
      </trkpt>
      <trkpt lat="42.32639" lon="1.02956">
        <ele>911.91</ele>
        <time>2024-09-29T09:35:19.999Z</time>
      </trkpt>
      <trkpt lat="42.32637" lon="1.02944">
        <ele>912.75</ele>
        <time>2024-09-29T09:35:25.999Z</time>
      </trkpt>
      <trkpt lat="42.32634" lon="1.02932">
        <ele>913.57</ele>
        <time>2024-09-29T09:35:31.999Z</time>
      </trkpt>
      <trkpt lat="42.32631" lon="1.0292">
        <ele>914.36</ele>
        <time>2024-09-29T09:35:37.999Z</time>
      </trkpt>
      <trkpt lat="42.32628" lon="1.02907">
        <ele>915.25</ele>
        <time>2024-09-29T09:35:44.999Z</time>
      </trkpt>
      <trkpt lat="42.32625" lon="1.02895">
        <ele>915.88</ele>
        <time>2024-09-29T09:35:49.999Z</time>
      </trkpt>
      <trkpt lat="42.32622" lon="1.02883">
        <ele>916.62</ele>
        <time>2024-09-29T09:35:55.999Z</time>
      </trkpt>
      <trkpt lat="42.32619" lon="1.02871">
        <ele>917.23</ele>
        <time>2024-09-29T09:36:00.999Z</time>
      </trkpt>
      <trkpt lat="42.32616" lon="1.02859">
        <ele>917.96</ele>
        <time>2024-09-29T09:36:06.999Z</time>
      </trkpt>
      <trkpt lat="42.32613" lon="1.02846">
        <ele>918.66</ele>
        <time>2024-09-29T09:36:12.999Z</time>
      </trkpt>
      <trkpt lat="42.32611" lon="1.02832">
        <ele>919.48</ele>
        <time>2024-09-29T09:36:19.999Z</time>
      </trkpt>
      <trkpt lat="42.3261" lon="1.02818">
        <ele>920.15</ele>
        <time>2024-09-29T09:36:25.999Z</time>
      </trkpt>
      <trkpt lat="42.32608" lon="1.02806">
        <ele>920.71</ele>
        <time>2024-09-29T09:36:30.999Z</time>
      </trkpt>
      <trkpt lat="42.32608" lon="1.02791">
        <ele>921.36</ele>
        <time>2024-09-29T09:36:36.999Z</time>
      </trkpt>
      <trkpt lat="42.32607" lon="1.02777">
        <ele>922.04</ele>
        <time>2024-09-29T09:36:42.999Z</time>
      </trkpt>
      <trkpt lat="42.32606" lon="1.02763">
        <ele>922.73</ele>
        <time>2024-09-29T09:36:48.999Z</time>
      </trkpt>
      <trkpt lat="42.32605" lon="1.0275">
        <ele>923.45</ele>
        <time>2024-09-29T09:36:54.999Z</time>
      </trkpt>
      <trkpt lat="42.326" lon="1.02738">
        <ele>924.04</ele>
        <time>2024-09-29T09:36:59.999Z</time>
      </trkpt>
      <trkpt lat="42.32596" lon="1.02725">
        <ele>924.87</ele>
        <time>2024-09-29T09:37:06.999Z</time>
      </trkpt>
      <trkpt lat="42.32592" lon="1.02712">
        <ele>925.69</ele>
        <time>2024-09-29T09:37:13.999Z</time>
      </trkpt>
      <trkpt lat="42.32589" lon="1.027">
        <ele>926.39</ele>
        <time>2024-09-29T09:37:19.999Z</time>
      </trkpt>
      <trkpt lat="42.32587" lon="1.02687">
        <ele>927.28</ele>
        <time>2024-09-29T09:37:27.999Z</time>
      </trkpt>
      <trkpt lat="42.32587" lon="1.02673">
        <ele>927.94</ele>
        <time>2024-09-29T09:37:33.999Z</time>
      </trkpt>
      <trkpt lat="42.32587" lon="1.02659">
        <ele>928.6</ele>
        <time>2024-09-29T09:37:39.999Z</time>
      </trkpt>
      <trkpt lat="42.32589" lon="1.02646">
        <ele>929.28</ele>
        <time>2024-09-29T09:37:45.999Z</time>
      </trkpt>
      <trkpt lat="42.3259" lon="1.02634">
        <ele>929.84</ele>
        <time>2024-09-29T09:37:50.999Z</time>
      </trkpt>
      <trkpt lat="42.32592" lon="1.0262">
        <ele>930.62</ele>
        <time>2024-09-29T09:37:57.999Z</time>
      </trkpt>
      <trkpt lat="42.32597" lon="1.02608">
        <ele>931.42</ele>
        <time>2024-09-29T09:38:04.999Z</time>
      </trkpt>
      <trkpt lat="42.32601" lon="1.02596">
        <ele>932.12</ele>
        <time>2024-09-29T09:38:10.999Z</time>
      </trkpt>
      <trkpt lat="42.32603" lon="1.02584">
        <ele>932.85</ele>
        <time>2024-09-29T09:38:16.999Z</time>
      </trkpt>
      <trkpt lat="42.32604" lon="1.02572">
        <ele>933.58</ele>
        <time>2024-09-29T09:38:22.999Z</time>
      </trkpt>
      <trkpt lat="42.32604" lon="1.02559">
        <ele>934.44</ele>
        <time>2024-09-29T09:38:29.999Z</time>
      </trkpt>
      <trkpt lat="42.32604" lon="1.02545">
        <ele>935.38</ele>
        <time>2024-09-29T09:38:37.999Z</time>
      </trkpt>
      <trkpt lat="42.32601" lon="1.02532">
        <ele>936.04</ele>
        <time>2024-09-29T09:38:43.999Z</time>
      </trkpt>
      <trkpt lat="42.32598" lon="1.02521">
        <ele>936.68</ele>
        <time>2024-09-29T09:38:49.999Z</time>
      </trkpt>
      <trkpt lat="42.32595" lon="1.02509">
        <ele>937.3</ele>
        <time>2024-09-29T09:38:55.999Z</time>
      </trkpt>
      <trkpt lat="42.32591" lon="1.02496">
        <ele>937.94</ele>
        <time>2024-09-29T09:39:01.999Z</time>
      </trkpt>
      <trkpt lat="42.3259" lon="1.02483">
        <ele>938.48</ele>
        <time>2024-09-29T09:39:06.999Z</time>
      </trkpt>
      <trkpt lat="42.32589" lon="1.02469">
        <ele>939.01</ele>
        <time>2024-09-29T09:39:11.999Z</time>
      </trkpt>
      <trkpt lat="42.32589" lon="1.02455">
        <ele>939.54</ele>
        <time>2024-09-29T09:39:16.999Z</time>
      </trkpt>
      <trkpt lat="42.32588" lon="1.02442">
        <ele>940.21</ele>
        <time>2024-09-29T09:39:22.999Z</time>
      </trkpt>
      <trkpt lat="42.32588" lon="1.02429">
        <ele>940.79</ele>
        <time>2024-09-29T09:39:27.999Z</time>
      </trkpt>
      <trkpt lat="42.32586" lon="1.02417">
        <ele>941.37</ele>
        <time>2024-09-29T09:39:33.000Z</time>
      </trkpt>
      <trkpt lat="42.32585" lon="1.02403">
        <ele>942.08</ele>
        <time>2024-09-29T09:39:39.000Z</time>
      </trkpt>
      <trkpt lat="42.32583" lon="1.0239">
        <ele>942.91</ele>
        <time>2024-09-29T09:39:46.000Z</time>
      </trkpt>
      <trkpt lat="42.32581" lon="1.02376">
        <ele>943.62</ele>
        <time>2024-09-29T09:39:52.000Z</time>
      </trkpt>
      <trkpt lat="42.32579" lon="1.02363">
        <ele>944.34</ele>
        <time>2024-09-29T09:39:58.000Z</time>
      </trkpt>
      <trkpt lat="42.32578" lon="1.0235">
        <ele>945.07</ele>
        <time>2024-09-29T09:40:04.000Z</time>
      </trkpt>
      <trkpt lat="42.32579" lon="1.02335">
        <ele>945.97</ele>
        <time>2024-09-29T09:40:11.000Z</time>
      </trkpt>
      <trkpt lat="42.3258" lon="1.02323">
        <ele>946.62</ele>
        <time>2024-09-29T09:40:16.000Z</time>
      </trkpt>
      <trkpt lat="42.32585" lon="1.02311">
        <ele>947.54</ele>
        <time>2024-09-29T09:40:23.000Z</time>
      </trkpt>
      <trkpt lat="42.32596" lon="1.02309">
        <ele>948.34</ele>
        <time>2024-09-29T09:40:29.000Z</time>
      </trkpt>
      <trkpt lat="42.32599" lon="1.02321">
        <ele>949.15</ele>
        <time>2024-09-29T09:40:35.000Z</time>
      </trkpt>
      <trkpt lat="42.32597" lon="1.02334">
        <ele>949.94</ele>
        <time>2024-09-29T09:40:41.000Z</time>
      </trkpt>
      <trkpt lat="42.32597" lon="1.02348">
        <ele>950.71</ele>
        <time>2024-09-29T09:40:47.000Z</time>
      </trkpt>
      <trkpt lat="42.32598" lon="1.02362">
        <ele>951.46</ele>
        <time>2024-09-29T09:40:53.000Z</time>
      </trkpt>
      <trkpt lat="42.32599" lon="1.02377">
        <ele>952.17</ele>
        <time>2024-09-29T09:40:59.000Z</time>
      </trkpt>
      <trkpt lat="42.32605" lon="1.02388">
        <ele>952.73</ele>
        <time>2024-09-29T09:41:04.000Z</time>
      </trkpt>
      <trkpt lat="42.32611" lon="1.02397">
        <ele>953.28</ele>
        <time>2024-09-29T09:41:09.000Z</time>
      </trkpt>
      <trkpt lat="42.32617" lon="1.02408">
        <ele>953.93</ele>
        <time>2024-09-29T09:41:15.000Z</time>
      </trkpt>
      <trkpt lat="42.32623" lon="1.0242">
        <ele>954.56</ele>
        <time>2024-09-29T09:41:21.000Z</time>
      </trkpt>
      <trkpt lat="42.32632" lon="1.02427">
        <ele>955.09</ele>
        <time>2024-09-29T09:41:26.000Z</time>
      </trkpt>
      <trkpt lat="42.3264" lon="1.02435">
        <ele>955.64</ele>
        <time>2024-09-29T09:41:31.000Z</time>
      </trkpt>
      <trkpt lat="42.32649" lon="1.02443">
        <ele>956.22</ele>
        <time>2024-09-29T09:41:36.000Z</time>
      </trkpt>
      <trkpt lat="42.32658" lon="1.0245">
        <ele>956.82</ele>
        <time>2024-09-29T09:41:41.000Z</time>
      </trkpt>
      <trkpt lat="42.32666" lon="1.02457">
        <ele>957.56</ele>
        <time>2024-09-29T09:41:47.000Z</time>
      </trkpt>
      <trkpt lat="42.3267" lon="1.02469">
        <ele>958.77</ele>
        <time>2024-09-29T09:42:08.000Z</time>
      </trkpt>
      <trkpt lat="42.32672" lon="1.02484">
        <ele>959.47</ele>
        <time>2024-09-29T09:42:13.000Z</time>
      </trkpt>
      <trkpt lat="42.32673" lon="1.025">
        <ele>960.14</ele>
        <time>2024-09-29T09:42:18.000Z</time>
      </trkpt>
      <trkpt lat="42.32674" lon="1.02513">
        <ele>960.78</ele>
        <time>2024-09-29T09:42:23.000Z</time>
      </trkpt>
      <trkpt lat="42.32675" lon="1.02528">
        <ele>961.51</ele>
        <time>2024-09-29T09:42:29.000Z</time>
      </trkpt>
      <trkpt lat="42.32677" lon="1.02541">
        <ele>962.1</ele>
        <time>2024-09-29T09:42:34.000Z</time>
      </trkpt>
      <trkpt lat="42.32677" lon="1.02554">
        <ele>962.89</ele>
        <time>2024-09-29T09:42:41.000Z</time>
      </trkpt>
      <trkpt lat="42.3268" lon="1.02566">
        <ele>963.53</ele>
        <time>2024-09-29T09:42:47.000Z</time>
      </trkpt>
      <trkpt lat="42.32684" lon="1.02577">
        <ele>964.11</ele>
        <time>2024-09-29T09:42:53.000Z</time>
      </trkpt>
      <trkpt lat="42.32692" lon="1.02584">
        <ele>964.57</ele>
        <time>2024-09-29T09:42:58.000Z</time>
      </trkpt>
      <trkpt lat="42.32703" lon="1.02594">
        <ele>965.03</ele>
        <time>2024-09-29T09:43:03.000Z</time>
      </trkpt>
      <trkpt lat="42.32711" lon="1.026">
        <ele>965.49</ele>
        <time>2024-09-29T09:43:08.000Z</time>
      </trkpt>
      <trkpt lat="42.3272" lon="1.02606">
        <ele>965.96</ele>
        <time>2024-09-29T09:43:13.000Z</time>
      </trkpt>
      <trkpt lat="42.32729" lon="1.02612">
        <ele>966.44</ele>
        <time>2024-09-29T09:43:18.000Z</time>
      </trkpt>
      <trkpt lat="42.32737" lon="1.0262">
        <ele>966.94</ele>
        <time>2024-09-29T09:43:23.000Z</time>
      </trkpt>
      <trkpt lat="42.32748" lon="1.0263">
        <ele>967.44</ele>
        <time>2024-09-29T09:43:28.000Z</time>
      </trkpt>
      <trkpt lat="42.32759" lon="1.0264">
        <ele>967.94</ele>
        <time>2024-09-29T09:43:33.000Z</time>
      </trkpt>
      <trkpt lat="42.32772" lon="1.02651">
        <ele>968.46</ele>
        <time>2024-09-29T09:43:38.000Z</time>
      </trkpt>
      <trkpt lat="42.32786" lon="1.02663">
        <ele>968.98</ele>
        <time>2024-09-29T09:43:43.000Z</time>
      </trkpt>
      <trkpt lat="42.32796" lon="1.02672">
        <ele>969.5</ele>
        <time>2024-09-29T09:43:48.000Z</time>
      </trkpt>
      <trkpt lat="42.32803" lon="1.02682">
        <ele>970.14</ele>
        <time>2024-09-29T09:43:54.000Z</time>
      </trkpt>
      <trkpt lat="42.32807" lon="1.02693">
        <ele>970.91</ele>
        <time>2024-09-29T09:44:01.000Z</time>
      </trkpt>
      <trkpt lat="42.32808" lon="1.02705">
        <ele>971.57</ele>
        <time>2024-09-29T09:44:07.000Z</time>
      </trkpt>
      <trkpt lat="42.32811" lon="1.02717">
        <ele>972.31</ele>
        <time>2024-09-29T09:44:14.000Z</time>
      </trkpt>
      <trkpt lat="42.32816" lon="1.0273">
        <ele>973.01</ele>
        <time>2024-09-29T09:44:21.000Z</time>
      </trkpt>
      <trkpt lat="42.32824" lon="1.02738">
        <ele>973.59</ele>
        <time>2024-09-29T09:44:27.000Z</time>
      </trkpt>
      <trkpt lat="42.32833" lon="1.02744">
        <ele>974.08</ele>
        <time>2024-09-29T09:44:32.000Z</time>
      </trkpt>
      <trkpt lat="42.32842" lon="1.02748">
        <ele>974.69</ele>
        <time>2024-09-29T09:44:38.000Z</time>
      </trkpt>
      <trkpt lat="42.32851" lon="1.02747">
        <ele>975.32</ele>
        <time>2024-09-29T09:44:44.000Z</time>
      </trkpt>
      <trkpt lat="42.3286" lon="1.02744">
        <ele>975.95</ele>
        <time>2024-09-29T09:44:50.000Z</time>
      </trkpt>
      <trkpt lat="42.32868" lon="1.02738">
        <ele>976.48</ele>
        <time>2024-09-29T09:44:55.000Z</time>
      </trkpt>
      <trkpt lat="42.32876" lon="1.02733">
        <ele>977</ele>
        <time>2024-09-29T09:45:00.000Z</time>
      </trkpt>
      <trkpt lat="42.32885" lon="1.0273">
        <ele>977.52</ele>
        <time>2024-09-29T09:45:05.000Z</time>
      </trkpt>
      <trkpt lat="42.32895" lon="1.02723">
        <ele>978.12</ele>
        <time>2024-09-29T09:45:11.000Z</time>
      </trkpt>
      <trkpt lat="42.32903" lon="1.02716">
        <ele>978.63</ele>
        <time>2024-09-29T09:45:16.000Z</time>
      </trkpt>
      <trkpt lat="42.32911" lon="1.02705">
        <ele>979.12</ele>
        <time>2024-09-29T09:45:21.000Z</time>
      </trkpt>
      <trkpt lat="42.32918" lon="1.02694">
        <ele>979.6</ele>
        <time>2024-09-29T09:45:26.000Z</time>
      </trkpt>
      <trkpt lat="42.32922" lon="1.02681">
        <ele>980.15</ele>
        <time>2024-09-29T09:45:32.000Z</time>
      </trkpt>
      <trkpt lat="42.32925" lon="1.02665">
        <ele>980.6</ele>
        <time>2024-09-29T09:45:37.000Z</time>
      </trkpt>
      <trkpt lat="42.32927" lon="1.02648">
        <ele>981.03</ele>
        <time>2024-09-29T09:45:42.000Z</time>
      </trkpt>
      <trkpt lat="42.32931" lon="1.02633">
        <ele>981.44</ele>
        <time>2024-09-29T09:45:47.000Z</time>
      </trkpt>
      <trkpt lat="42.32943" lon="1.02627">
        <ele>981.85</ele>
        <time>2024-09-29T09:45:52.000Z</time>
      </trkpt>
      <trkpt lat="42.32953" lon="1.02626">
        <ele>982.34</ele>
        <time>2024-09-29T09:45:58.000Z</time>
      </trkpt>
      <trkpt lat="42.32964" lon="1.02623">
        <ele>982.74</ele>
        <time>2024-09-29T09:46:03.000Z</time>
      </trkpt>
      <trkpt lat="42.32974" lon="1.02611">
        <ele>983.15</ele>
        <time>2024-09-29T09:46:08.000Z</time>
      </trkpt>
      <trkpt lat="42.32982" lon="1.02597">
        <ele>983.57</ele>
        <time>2024-09-29T09:46:13.000Z</time>
      </trkpt>
      <trkpt lat="42.32987" lon="1.02586">
        <ele>983.97</ele>
        <time>2024-09-29T09:46:18.000Z</time>
      </trkpt>
      <trkpt lat="42.32991" lon="1.02572">
        <ele>984.45</ele>
        <time>2024-09-29T09:46:24.000Z</time>
      </trkpt>
      <trkpt lat="42.32995" lon="1.02559">
        <ele>984.84</ele>
        <time>2024-09-29T09:46:29.000Z</time>
      </trkpt>
      <trkpt lat="42.32996" lon="1.02544">
        <ele>985.3</ele>
        <time>2024-09-29T09:46:35.000Z</time>
      </trkpt>
      <trkpt lat="42.32999" lon="1.02529">
        <ele>985.67</ele>
        <time>2024-09-29T09:46:40.000Z</time>
      </trkpt>
      <trkpt lat="42.33001" lon="1.02515">
        <ele>986.05</ele>
        <time>2024-09-29T09:46:45.000Z</time>
      </trkpt>
      <trkpt lat="42.33002" lon="1.02501">
        <ele>986.45</ele>
        <time>2024-09-29T09:46:50.000Z</time>
      </trkpt>
      <trkpt lat="42.33002" lon="1.02483">
        <ele>986.84</ele>
        <time>2024-09-29T09:46:55.000Z</time>
      </trkpt>
      <trkpt lat="42.33005" lon="1.02466">
        <ele>987.22</ele>
        <time>2024-09-29T09:47:00.000Z</time>
      </trkpt>
      <trkpt lat="42.33008" lon="1.0245">
        <ele>987.59</ele>
        <time>2024-09-29T09:47:05.000Z</time>
      </trkpt>
      <trkpt lat="42.33013" lon="1.02429">
        <ele>987.97</ele>
        <time>2024-09-29T09:47:10.000Z</time>
      </trkpt>
      <trkpt lat="42.33017" lon="1.02408">
        <ele>988.33</ele>
        <time>2024-09-29T09:47:15.000Z</time>
      </trkpt>
      <trkpt lat="42.33022" lon="1.0239">
        <ele>988.7</ele>
        <time>2024-09-29T09:47:20.000Z</time>
      </trkpt>
      <trkpt lat="42.33031" lon="1.02376">
        <ele>989.07</ele>
        <time>2024-09-29T09:47:25.000Z</time>
      </trkpt>
      <trkpt lat="42.33044" lon="1.02379">
        <ele>989.45</ele>
        <time>2024-09-29T09:47:30.000Z</time>
      </trkpt>
      <trkpt lat="42.33054" lon="1.02389">
        <ele>989.84</ele>
        <time>2024-09-29T09:47:35.000Z</time>
      </trkpt>
      <trkpt lat="42.33059" lon="1.02401">
        <ele>990.23</ele>
        <time>2024-09-29T09:47:40.000Z</time>
      </trkpt>
      <trkpt lat="42.33063" lon="1.02415">
        <ele>990.62</ele>
        <time>2024-09-29T09:47:45.000Z</time>
      </trkpt>
      <trkpt lat="42.33068" lon="1.02429">
        <ele>991.01</ele>
        <time>2024-09-29T09:47:50.000Z</time>
      </trkpt>
      <trkpt lat="42.33072" lon="1.02443">
        <ele>991.39</ele>
        <time>2024-09-29T09:47:55.000Z</time>
      </trkpt>
      <trkpt lat="42.33077" lon="1.02456">
        <ele>991.79</ele>
        <time>2024-09-29T09:48:00.000Z</time>
      </trkpt>
      <trkpt lat="42.33081" lon="1.0247">
        <ele>992.19</ele>
        <time>2024-09-29T09:48:05.000Z</time>
      </trkpt>
      <trkpt lat="42.33084" lon="1.02484">
        <ele>992.64</ele>
        <time>2024-09-29T09:48:10.000Z</time>
      </trkpt>
      <trkpt lat="42.33088" lon="1.02498">
        <ele>993.11</ele>
        <time>2024-09-29T09:48:15.000Z</time>
      </trkpt>
      <trkpt lat="42.3309" lon="1.02512">
        <ele>993.62</ele>
        <time>2024-09-29T09:48:20.000Z</time>
      </trkpt>
      <trkpt lat="42.33093" lon="1.02526">
        <ele>994.14</ele>
        <time>2024-09-29T09:48:25.000Z</time>
      </trkpt>
      <trkpt lat="42.33099" lon="1.0254">
        <ele>994.67</ele>
        <time>2024-09-29T09:48:30.000Z</time>
      </trkpt>
      <trkpt lat="42.33107" lon="1.02553">
        <ele>995.22</ele>
        <time>2024-09-29T09:48:35.000Z</time>
      </trkpt>
      <trkpt lat="42.33114" lon="1.02567">
        <ele>995.78</ele>
        <time>2024-09-29T09:48:40.000Z</time>
      </trkpt>
      <trkpt lat="42.33122" lon="1.02581">
        <ele>996.34</ele>
        <time>2024-09-29T09:48:45.000Z</time>
      </trkpt>
      <trkpt lat="42.33131" lon="1.02595">
        <ele>996.91</ele>
        <time>2024-09-29T09:48:50.000Z</time>
      </trkpt>
      <trkpt lat="42.33143" lon="1.02607">
        <ele>997.49</ele>
        <time>2024-09-29T09:48:55.000Z</time>
      </trkpt>
      <trkpt lat="42.33159" lon="1.02619">
        <ele>998.09</ele>
        <time>2024-09-29T09:49:00.000Z</time>
      </trkpt>
      <trkpt lat="42.33172" lon="1.02632">
        <ele>1000.62</ele>
        <time>2024-09-29T09:49:05.000Z</time>
      </trkpt>
      <trkpt lat="42.33177" lon="1.02648">
        <ele>1001.07</ele>
        <time>2024-09-29T09:49:10.000Z</time>
      </trkpt>
      <trkpt lat="42.33183" lon="1.02664">
        <ele>1001.53</ele>
        <time>2024-09-29T09:49:15.000Z</time>
      </trkpt>
      <trkpt lat="42.33189" lon="1.02679">
        <ele>1002.02</ele>
        <time>2024-09-29T09:49:20.000Z</time>
      </trkpt>
      <trkpt lat="42.33194" lon="1.02693">
        <ele>1002.53</ele>
        <time>2024-09-29T09:49:25.000Z</time>
      </trkpt>
      <trkpt lat="42.332" lon="1.02707">
        <ele>1003.05</ele>
        <time>2024-09-29T09:49:30.000Z</time>
      </trkpt>
      <trkpt lat="42.33208" lon="1.02722">
        <ele>1003.58</ele>
        <time>2024-09-29T09:49:35.000Z</time>
      </trkpt>
      <trkpt lat="42.33215" lon="1.02737">
        <ele>1004.12</ele>
        <time>2024-09-29T09:49:40.000Z</time>
      </trkpt>
      <trkpt lat="42.33224" lon="1.02757">
        <ele>1005.4</ele>
        <time>2024-09-29T09:49:45.000Z</time>
      </trkpt>
      <trkpt lat="42.33231" lon="1.0278">
        <ele>1006.09</ele>
        <time>2024-09-29T09:49:50.000Z</time>
      </trkpt>
      <trkpt lat="42.33236" lon="1.028">
        <ele>1006.54</ele>
        <time>2024-09-29T09:49:55.000Z</time>
      </trkpt>
      <trkpt lat="42.33243" lon="1.02814">
        <ele>1007</ele>
        <time>2024-09-29T09:50:00.000Z</time>
      </trkpt>
      <trkpt lat="42.33254" lon="1.02817">
        <ele>1007.47</ele>
        <time>2024-09-29T09:50:05.000Z</time>
      </trkpt>
      <trkpt lat="42.33261" lon="1.02807">
        <ele>1008.18</ele>
        <time>2024-09-29T09:50:12.000Z</time>
      </trkpt>
      <trkpt lat="42.33261" lon="1.02792">
        <ele>1008.85</ele>
        <time>2024-09-29T09:50:19.000Z</time>
      </trkpt>
      <trkpt lat="42.33257" lon="1.0278">
        <ele>1009.31</ele>
        <time>2024-09-29T09:50:24.000Z</time>
      </trkpt>
      <trkpt lat="42.33252" lon="1.02768">
        <ele>1009.86</ele>
        <time>2024-09-29T09:50:30.000Z</time>
      </trkpt>
      <trkpt lat="42.33248" lon="1.02756">
        <ele>1010.41</ele>
        <time>2024-09-29T09:50:36.000Z</time>
      </trkpt>
      <trkpt lat="42.33247" lon="1.02743">
        <ele>1010.96</ele>
        <time>2024-09-29T09:50:42.000Z</time>
      </trkpt>
      <trkpt lat="42.33246" lon="1.02729">
        <ele>1011.42</ele>
        <time>2024-09-29T09:50:47.000Z</time>
      </trkpt>
      <trkpt lat="42.33246" lon="1.02712">
        <ele>1011.87</ele>
        <time>2024-09-29T09:50:52.000Z</time>
      </trkpt>
      <trkpt lat="42.33247" lon="1.02695">
        <ele>1012.32</ele>
        <time>2024-09-29T09:50:57.000Z</time>
      </trkpt>
      <trkpt lat="42.33248" lon="1.02679">
        <ele>1012.77</ele>
        <time>2024-09-29T09:51:02.000Z</time>
      </trkpt>
      <trkpt lat="42.3325" lon="1.02665">
        <ele>1013.21</ele>
        <time>2024-09-29T09:51:07.000Z</time>
      </trkpt>
      <trkpt lat="42.33251" lon="1.02652">
        <ele>1013.72</ele>
        <time>2024-09-29T09:51:13.000Z</time>
      </trkpt>
      <trkpt lat="42.33255" lon="1.02641">
        <ele>1014.37</ele>
        <time>2024-09-29T09:51:21.000Z</time>
      </trkpt>
      <trkpt lat="42.33257" lon="1.02628">
        <ele>1014.84</ele>
        <time>2024-09-29T09:51:27.000Z</time>
      </trkpt>
      <trkpt lat="42.33262" lon="1.02616">
        <ele>1015.47</ele>
        <time>2024-09-29T09:51:34.999Z</time>
      </trkpt>
      <trkpt lat="42.33263" lon="1.02604">
        <ele>1016.11</ele>
        <time>2024-09-29T09:51:42.999Z</time>
      </trkpt>
      <trkpt lat="42.33259" lon="1.02589">
        <ele>1016.52</ele>
        <time>2024-09-29T09:51:47.999Z</time>
      </trkpt>
      <trkpt lat="42.33257" lon="1.02574">
        <ele>1016.97</ele>
        <time>2024-09-29T09:51:52.999Z</time>
      </trkpt>
      <trkpt lat="42.3325" lon="1.0256">
        <ele>1017.51</ele>
        <time>2024-09-29T09:51:57.999Z</time>
      </trkpt>
      <trkpt lat="42.33244" lon="1.02549">
        <ele>1018.13</ele>
        <time>2024-09-29T09:52:02.999Z</time>
      </trkpt>
      <trkpt lat="42.33235" lon="1.02537">
        <ele>1018.79</ele>
        <time>2024-09-29T09:52:07.999Z</time>
      </trkpt>
      <trkpt lat="42.33228" lon="1.02528">
        <ele>1019.62</ele>
        <time>2024-09-29T09:52:13.999Z</time>
      </trkpt>
      <trkpt lat="42.3322" lon="1.0252">
        <ele>1020.53</ele>
        <time>2024-09-29T09:52:19.999Z</time>
      </trkpt>
      <trkpt lat="42.33212" lon="1.02514">
        <ele>1021.69</ele>
        <time>2024-09-29T09:52:26.999Z</time>
      </trkpt>
      <trkpt lat="42.33204" lon="1.02509">
        <ele>1022.73</ele>
        <time>2024-09-29T09:52:32.999Z</time>
      </trkpt>
      <trkpt lat="42.33193" lon="1.02502">
        <ele>1023.61</ele>
        <time>2024-09-29T09:52:37.999Z</time>
      </trkpt>
      <trkpt lat="42.33183" lon="1.02498">
        <ele>1024.67</ele>
        <time>2024-09-29T09:52:43.999Z</time>
      </trkpt>
      <trkpt lat="42.33178" lon="1.02486">
        <ele>1026.23</ele>
        <time>2024-09-29T09:52:52.999Z</time>
      </trkpt>
      <trkpt lat="42.33176" lon="1.02473">
        <ele>1027.24</ele>
        <time>2024-09-29T09:52:58.999Z</time>
      </trkpt>
      <trkpt lat="42.33175" lon="1.02459">
        <ele>1028.06</ele>
        <time>2024-09-29T09:53:03.999Z</time>
      </trkpt>
      <trkpt lat="42.33176" lon="1.02444">
        <ele>1028.87</ele>
        <time>2024-09-29T09:53:08.999Z</time>
      </trkpt>
      <trkpt lat="42.3318" lon="1.02432">
        <ele>1029.68</ele>
        <time>2024-09-29T09:53:13.999Z</time>
      </trkpt>
      <trkpt lat="42.33185" lon="1.02419">
        <ele>1030.47</ele>
        <time>2024-09-29T09:53:18.999Z</time>
      </trkpt>
      <trkpt lat="42.33191" lon="1.02406">
        <ele>1031.26</ele>
        <time>2024-09-29T09:53:23.999Z</time>
      </trkpt>
      <trkpt lat="42.33201" lon="1.02393">
        <ele>1032.05</ele>
        <time>2024-09-29T09:53:28.999Z</time>
      </trkpt>
      <trkpt lat="42.3321" lon="1.02381">
        <ele>1032.83</ele>
        <time>2024-09-29T09:53:33.999Z</time>
      </trkpt>
      <trkpt lat="42.33217" lon="1.02372">
        <ele>1033.73</ele>
        <time>2024-09-29T09:53:39.999Z</time>
      </trkpt>
      <trkpt lat="42.33223" lon="1.02362">
        <ele>1034.62</ele>
        <time>2024-09-29T09:53:45.999Z</time>
      </trkpt>
      <trkpt lat="42.33228" lon="1.02351">
        <ele>1035.5</ele>
        <time>2024-09-29T09:53:51.999Z</time>
      </trkpt>
      <trkpt lat="42.33234" lon="1.02342">
        <ele>1036.23</ele>
        <time>2024-09-29T09:53:56.999Z</time>
      </trkpt>
      <trkpt lat="42.33241" lon="1.02334">
        <ele>1036.97</ele>
        <time>2024-09-29T09:54:01.999Z</time>
      </trkpt>
      <trkpt lat="42.33248" lon="1.02326">
        <ele>1037.86</ele>
        <time>2024-09-29T09:54:07.999Z</time>
      </trkpt>
      <trkpt lat="42.33253" lon="1.02315">
        <ele>1038.6</ele>
        <time>2024-09-29T09:54:12.999Z</time>
      </trkpt>
      <trkpt lat="42.33257" lon="1.02302">
        <ele>1039.33</ele>
        <time>2024-09-29T09:54:17.999Z</time>
      </trkpt>
      <trkpt lat="42.33258" lon="1.02288">
        <ele>1040.04</ele>
        <time>2024-09-29T09:54:22.999Z</time>
      </trkpt>
      <trkpt lat="42.33259" lon="1.02274">
        <ele>1040.88</ele>
        <time>2024-09-29T09:54:28.999Z</time>
      </trkpt>
      <trkpt lat="42.33259" lon="1.02261">
        <ele>1041.68</ele>
        <time>2024-09-29T09:54:34.999Z</time>
      </trkpt>
      <trkpt lat="42.33258" lon="1.02248">
        <ele>1042.32</ele>
        <time>2024-09-29T09:54:39.999Z</time>
      </trkpt>
      <trkpt lat="42.33258" lon="1.02235">
        <ele>1042.96</ele>
        <time>2024-09-29T09:54:44.999Z</time>
      </trkpt>
      <trkpt lat="42.33257" lon="1.02223">
        <ele>1043.58</ele>
        <time>2024-09-29T09:54:49.999Z</time>
      </trkpt>
      <trkpt lat="42.33257" lon="1.0221">
        <ele>1044.18</ele>
        <time>2024-09-29T09:54:54.999Z</time>
      </trkpt>
      <trkpt lat="42.33255" lon="1.02196">
        <ele>1044.87</ele>
        <time>2024-09-29T09:55:00.999Z</time>
      </trkpt>
      <trkpt lat="42.33252" lon="1.02184">
        <ele>1045.53</ele>
        <time>2024-09-29T09:55:06.999Z</time>
      </trkpt>
      <trkpt lat="42.33248" lon="1.02171">
        <ele>1046.06</ele>
        <time>2024-09-29T09:55:11.999Z</time>
      </trkpt>
      <trkpt lat="42.33242" lon="1.02156">
        <ele>1046.55</ele>
        <time>2024-09-29T09:55:16.999Z</time>
      </trkpt>
      <trkpt lat="42.33235" lon="1.02141">
        <ele>1047.03</ele>
        <time>2024-09-29T09:55:21.999Z</time>
      </trkpt>
      <trkpt lat="42.3323" lon="1.02123">
        <ele>1047.49</ele>
        <time>2024-09-29T09:55:26.999Z</time>
      </trkpt>
      <trkpt lat="42.33226" lon="1.02104">
        <ele>1047.93</ele>
        <time>2024-09-29T09:55:31.999Z</time>
      </trkpt>
      <trkpt lat="42.33222" lon="1.02085">
        <ele>1048.35</ele>
        <time>2024-09-29T09:55:36.999Z</time>
      </trkpt>
      <trkpt lat="42.33222" lon="1.02064">
        <ele>1048.75</ele>
        <time>2024-09-29T09:55:41.999Z</time>
      </trkpt>
      <trkpt lat="42.33226" lon="1.02045">
        <ele>1049.15</ele>
        <time>2024-09-29T09:55:46.999Z</time>
      </trkpt>
      <trkpt lat="42.33232" lon="1.02026">
        <ele>1049.56</ele>
        <time>2024-09-29T09:55:51.999Z</time>
      </trkpt>
      <trkpt lat="42.33241" lon="1.02008">
        <ele>1049.95</ele>
        <time>2024-09-29T09:55:56.999Z</time>
      </trkpt>
      <trkpt lat="42.33251" lon="1.01994">
        <ele>1050.34</ele>
        <time>2024-09-29T09:56:01.999Z</time>
      </trkpt>
      <trkpt lat="42.3326" lon="1.01989">
        <ele>1050.73</ele>
        <time>2024-09-29T09:56:06.999Z</time>
      </trkpt>
      <trkpt lat="42.33269" lon="1.01984">
        <ele>1051.21</ele>
        <time>2024-09-29T09:56:12.999Z</time>
      </trkpt>
      <trkpt lat="42.33277" lon="1.01979">
        <ele>1051.69</ele>
        <time>2024-09-29T09:56:18.999Z</time>
      </trkpt>
      <trkpt lat="42.33286" lon="1.01975">
        <ele>1052.19</ele>
        <time>2024-09-29T09:56:24.999Z</time>
      </trkpt>
      <trkpt lat="42.33296" lon="1.01968">
        <ele>1052.71</ele>
        <time>2024-09-29T09:56:30.999Z</time>
      </trkpt>
      <trkpt lat="42.33304" lon="1.01961">
        <ele>1053.35</ele>
        <time>2024-09-29T09:56:37.999Z</time>
      </trkpt>
      <trkpt lat="42.33312" lon="1.01954">
        <ele>1053.83</ele>
        <time>2024-09-29T09:56:42.999Z</time>
      </trkpt>
      <trkpt lat="42.3332" lon="1.01946">
        <ele>1054.33</ele>
        <time>2024-09-29T09:56:47.999Z</time>
      </trkpt>
      <trkpt lat="42.33328" lon="1.01938">
        <ele>1054.95</ele>
        <time>2024-09-29T09:56:53.999Z</time>
      </trkpt>
      <trkpt lat="42.33335" lon="1.0193">
        <ele>1055.47</ele>
        <time>2024-09-29T09:56:58.999Z</time>
      </trkpt>
      <trkpt lat="42.33343" lon="1.01922">
        <ele>1055.99</ele>
        <time>2024-09-29T09:57:03.999Z</time>
      </trkpt>
      <trkpt lat="42.33351" lon="1.01914">
        <ele>1056.52</ele>
        <time>2024-09-29T09:57:08.999Z</time>
      </trkpt>
      <trkpt lat="42.33359" lon="1.01906">
        <ele>1057.04</ele>
        <time>2024-09-29T09:57:13.999Z</time>
      </trkpt>
      <trkpt lat="42.33368" lon="1.019">
        <ele>1057.69</ele>
        <time>2024-09-29T09:57:19.999Z</time>
      </trkpt>
      <trkpt lat="42.33377" lon="1.01894">
        <ele>1058.23</ele>
        <time>2024-09-29T09:57:24.999Z</time>
      </trkpt>
      <trkpt lat="42.33385" lon="1.01886">
        <ele>1058.75</ele>
        <time>2024-09-29T09:57:29.999Z</time>
      </trkpt>
      <trkpt lat="42.33393" lon="1.01875">
        <ele>1059.27</ele>
        <time>2024-09-29T09:57:34.999Z</time>
      </trkpt>
      <trkpt lat="42.33402" lon="1.01854">
        <ele>1059.76</ele>
        <time>2024-09-29T09:57:39.999Z</time>
      </trkpt>
      <trkpt lat="42.33412" lon="1.0183">
        <ele>1062.9</ele>
        <time>2024-09-29T09:57:44.999Z</time>
      </trkpt>
      <trkpt lat="42.33423" lon="1.01808">
        <ele>1064.24</ele>
        <time>2024-09-29T09:57:49.999Z</time>
      </trkpt>
      <trkpt lat="42.3343" lon="1.01786">
        <ele>1064.52</ele>
        <time>2024-09-29T09:57:54.999Z</time>
      </trkpt>
      <trkpt lat="42.33439" lon="1.01764">
        <ele>1064.72</ele>
        <time>2024-09-29T09:57:59.999Z</time>
      </trkpt>
      <trkpt lat="42.33451" lon="1.01739">
        <ele>1065.3</ele>
        <time>2024-09-29T09:58:04.999Z</time>
      </trkpt>
      <trkpt lat="42.33461" lon="1.0171">
        <ele>1065.62</ele>
        <time>2024-09-29T09:58:09.999Z</time>
      </trkpt>
      <trkpt lat="42.33462" lon="1.0168">
        <ele>1065.82</ele>
        <time>2024-09-29T09:58:14.999Z</time>
      </trkpt>
      <trkpt lat="42.33453" lon="1.01651">
        <ele>1066.02</ele>
        <time>2024-09-29T09:58:19.999Z</time>
      </trkpt>
      <trkpt lat="42.33431" lon="1.01638">
        <ele>1066.18</ele>
        <time>2024-09-29T09:58:24.999Z</time>
      </trkpt>
      <trkpt lat="42.33406" lon="1.0163">
        <ele>1066.4</ele>
        <time>2024-09-29T09:58:29.999Z</time>
      </trkpt>
      <trkpt lat="42.33383" lon="1.01623">
        <ele>1066.62</ele>
        <time>2024-09-29T09:58:34.999Z</time>
      </trkpt>
      <trkpt lat="42.33363" lon="1.01617">
        <ele>1066.78</ele>
        <time>2024-09-29T09:58:39.999Z</time>
      </trkpt>
      <trkpt lat="42.33343" lon="1.01613">
        <ele>1066.98</ele>
        <time>2024-09-29T09:58:44.999Z</time>
      </trkpt>
      <trkpt lat="42.33326" lon="1.01609">
        <ele>1067.2</ele>
        <time>2024-09-29T09:58:49.999Z</time>
      </trkpt>
      <trkpt lat="42.3331" lon="1.01605">
        <ele>1067.25</ele>
        <time>2024-09-29T09:58:54.999Z</time>
      </trkpt>
      <trkpt lat="42.33297" lon="1.01599">
        <ele>1067.3</ele>
        <time>2024-09-29T09:58:59.999Z</time>
      </trkpt>
      <trkpt lat="42.33289" lon="1.01589">
        <ele>1067.36</ele>
        <time>2024-09-29T09:59:04.999Z</time>
      </trkpt>
      <trkpt lat="42.33285" lon="1.01578">
        <ele>1067.94</ele>
        <time>2024-09-29T10:00:25.999Z</time>
      </trkpt>
      <trkpt lat="42.33282" lon="1.01566">
        <ele>1074.3</ele>
        <time>2024-09-29T10:07:26.000Z</time>
      </trkpt>
      <trkpt lat="42.33281" lon="1.01545">
        <ele>1075.09</ele>
        <time>2024-09-29T10:07:31.000Z</time>
      </trkpt>
      <trkpt lat="42.33284" lon="1.01514">
        <ele>1076.94</ele>
        <time>2024-09-29T10:07:36.000Z</time>
      </trkpt>
      <trkpt lat="42.33304" lon="1.01483">
        <ele>1077.55</ele>
        <time>2024-09-29T10:07:41.000Z</time>
      </trkpt>
      <trkpt lat="42.33314" lon="1.01443">
        <ele>1077.76</ele>
        <time>2024-09-29T10:07:46.000Z</time>
      </trkpt>
      <trkpt lat="42.33309" lon="1.01406">
        <ele>1077.84</ele>
        <time>2024-09-29T10:07:51.000Z</time>
      </trkpt>
      <trkpt lat="42.33305" lon="1.0137">
        <ele>1077.99</ele>
        <time>2024-09-29T10:07:56.000Z</time>
      </trkpt>
      <trkpt lat="42.33306" lon="1.01335">
        <ele>1078.19</ele>
        <time>2024-09-29T10:08:01.000Z</time>
      </trkpt>
      <trkpt lat="42.33307" lon="1.01301">
        <ele>1078.66</ele>
        <time>2024-09-29T10:08:06.000Z</time>
      </trkpt>
      <trkpt lat="42.3331" lon="1.01265">
        <ele>1078.97</ele>
        <time>2024-09-29T10:08:11.000Z</time>
      </trkpt>
      <trkpt lat="42.33308" lon="1.01233">
        <ele>1079.27</ele>
        <time>2024-09-29T10:08:16.000Z</time>
      </trkpt>
      <trkpt lat="42.33298" lon="1.01198">
        <ele>1079.24</ele>
        <time>2024-09-29T10:08:21.000Z</time>
      </trkpt>
      <trkpt lat="42.33289" lon="1.01164">
        <ele>1079.38</ele>
        <time>2024-09-29T10:08:26.000Z</time>
      </trkpt>
      <trkpt lat="42.33281" lon="1.01131">
        <ele>1079.53</ele>
        <time>2024-09-29T10:08:31.000Z</time>
      </trkpt>
      <trkpt lat="42.33274" lon="1.01103">
        <ele>1079.65</ele>
        <time>2024-09-29T10:08:36.000Z</time>
      </trkpt>
      <trkpt lat="42.33269" lon="1.0108">
        <ele>1079.68</ele>
        <time>2024-09-29T10:08:41.000Z</time>
      </trkpt>
      <trkpt lat="42.33265" lon="1.0106">
        <ele>1079.72</ele>
        <time>2024-09-29T10:08:46.000Z</time>
      </trkpt>
      <trkpt lat="42.33264" lon="1.01047">
        <ele>1079.75</ele>
        <time>2024-09-29T10:08:51.000Z</time>
      </trkpt>
      <trkpt lat="42.33262" lon="1.0103">
        <ele>1079.79</ele>
        <time>2024-09-29T10:08:56.000Z</time>
      </trkpt>
      <trkpt lat="42.33258" lon="1.01011">
        <ele>1079.83</ele>
        <time>2024-09-29T10:09:01.000Z</time>
      </trkpt>
      <trkpt lat="42.33254" lon="1.00991">
        <ele>1079.87</ele>
        <time>2024-09-29T10:09:06.000Z</time>
      </trkpt>
      <trkpt lat="42.3325" lon="1.0097">
        <ele>1079.92</ele>
        <time>2024-09-29T10:09:11.000Z</time>
      </trkpt>
      <trkpt lat="42.33247" lon="1.00953">
        <ele>1079.99</ele>
        <time>2024-09-29T10:09:16.000Z</time>
      </trkpt>
      <trkpt lat="42.33244" lon="1.00936">
        <ele>1080.05</ele>
        <time>2024-09-29T10:09:21.000Z</time>
      </trkpt>
      <trkpt lat="42.33243" lon="1.0092">
        <ele>1080.12</ele>
        <time>2024-09-29T10:09:26.000Z</time>
      </trkpt>
      <trkpt lat="42.33241" lon="1.00899">
        <ele>1080.2</ele>
        <time>2024-09-29T10:09:31.000Z</time>
      </trkpt>
      <trkpt lat="42.3324" lon="1.00871">
        <ele>1080.52</ele>
        <time>2024-09-29T10:09:36.000Z</time>
      </trkpt>
      <trkpt lat="42.33238" lon="1.00841">
        <ele>1080.91</ele>
        <time>2024-09-29T10:09:41.000Z</time>
      </trkpt>
      <trkpt lat="42.33232" lon="1.00804">
        <ele>1081.28</ele>
        <time>2024-09-29T10:09:46.000Z</time>
      </trkpt>
      <trkpt lat="42.33226" lon="1.0077">
        <ele>1081.55</ele>
        <time>2024-09-29T10:09:51.000Z</time>
      </trkpt>
      <trkpt lat="42.33221" lon="1.00732">
        <ele>1081.74</ele>
        <time>2024-09-29T10:09:56.000Z</time>
      </trkpt>
      <trkpt lat="42.33208" lon="1.00697">
        <ele>1081.88</ele>
        <time>2024-09-29T10:10:01.000Z</time>
      </trkpt>
      <trkpt lat="42.33186" lon="1.00669">
        <ele>1082.07</ele>
        <time>2024-09-29T10:10:06.000Z</time>
      </trkpt>
      <trkpt lat="42.33161" lon="1.00647">
        <ele>1082.29</ele>
        <time>2024-09-29T10:10:11.000Z</time>
      </trkpt>
      <trkpt lat="42.33135" lon="1.00626">
        <ele>1082.47</ele>
        <time>2024-09-29T10:10:16.000Z</time>
      </trkpt>
      <trkpt lat="42.33111" lon="1.00607">
        <ele>1082.59</ele>
        <time>2024-09-29T10:10:21.000Z</time>
      </trkpt>
      <trkpt lat="42.33087" lon="1.00587">
        <ele>1082.65</ele>
        <time>2024-09-29T10:10:26.000Z</time>
      </trkpt>
      <trkpt lat="42.33064" lon="1.00568">
        <ele>1082.71</ele>
        <time>2024-09-29T10:10:31.000Z</time>
      </trkpt>
      <trkpt lat="42.33042" lon="1.00549">
        <ele>1082.76</ele>
        <time>2024-09-29T10:10:36.000Z</time>
      </trkpt>
      <trkpt lat="42.33017" lon="1.00529">
        <ele>1082.82</ele>
        <time>2024-09-29T10:10:41.000Z</time>
      </trkpt>
      <trkpt lat="42.32992" lon="1.00509">
        <ele>1082.88</ele>
        <time>2024-09-29T10:10:46.000Z</time>
      </trkpt>
      <trkpt lat="42.3297" lon="1.00493">
        <ele>1082.98</ele>
        <time>2024-09-29T10:10:51.000Z</time>
      </trkpt>
      <trkpt lat="42.32953" lon="1.00478">
        <ele>1083.12</ele>
        <time>2024-09-29T10:10:56.000Z</time>
      </trkpt>
      <trkpt lat="42.32948" lon="1.00447">
        <ele>1083.21</ele>
        <time>2024-09-29T10:11:01.000Z</time>
      </trkpt>
      <trkpt lat="42.32945" lon="1.00406">
        <ele>1083.24</ele>
        <time>2024-09-29T10:11:06.000Z</time>
      </trkpt>
      <trkpt lat="42.32941" lon="1.0036">
        <ele>1083.29</ele>
        <time>2024-09-29T10:11:11.000Z</time>
      </trkpt>
      <trkpt lat="42.32946" lon="1.00306">
        <ele>1082.98</ele>
        <time>2024-09-29T10:11:16.000Z</time>
      </trkpt>
      <trkpt lat="42.32946" lon="1.00248">
        <ele>1082.61</ele>
        <time>2024-09-29T10:11:21.000Z</time>
      </trkpt>
      <trkpt lat="42.32943" lon="1.00185">
        <ele>1082.07</ele>
        <time>2024-09-29T10:11:26.000Z</time>
      </trkpt>
      <trkpt lat="42.32951" lon="1.00119">
        <ele>1081.65</ele>
        <time>2024-09-29T10:11:31.000Z</time>
      </trkpt>
      <trkpt lat="42.3295" lon="1.00059">
        <ele>1081.77</ele>
        <time>2024-09-29T10:11:36.000Z</time>
      </trkpt>
      <trkpt lat="42.32952" lon="1.00015">
        <ele>1081.9</ele>
        <time>2024-09-29T10:11:41.000Z</time>
      </trkpt>
      <trkpt lat="42.3296" lon="0.99992">
        <ele>1081.69</ele>
        <time>2024-09-29T10:11:46.000Z</time>
      </trkpt>
      <trkpt lat="42.32967" lon="0.99983">
        <ele>1080.83</ele>
        <time>2024-09-29T10:12:25.000Z</time>
      </trkpt>
      <trkpt lat="42.32977" lon="0.99979">
        <ele>1080.33</ele>
        <time>2024-09-29T10:12:44.000Z</time>
      </trkpt>
      <trkpt lat="42.32991" lon="0.99972">
        <ele>1080.05</ele>
        <time>2024-09-29T10:12:49.000Z</time>
      </trkpt>
      <trkpt lat="42.33011" lon="0.9996">
        <ele>1078.18</ele>
        <time>2024-09-29T10:12:54.000Z</time>
      </trkpt>
      <trkpt lat="42.33028" lon="0.9994">
        <ele>1077.4</ele>
        <time>2024-09-29T10:12:59.000Z</time>
      </trkpt>
      <trkpt lat="42.33044" lon="0.99914">
        <ele>1076.97</ele>
        <time>2024-09-29T10:13:04.000Z</time>
      </trkpt>
      <trkpt lat="42.33055" lon="0.99875">
        <ele>1076.52</ele>
        <time>2024-09-29T10:13:09.000Z</time>
      </trkpt>
      <trkpt lat="42.33062" lon="0.99829">
        <ele>1076.04</ele>
        <time>2024-09-29T10:13:14.000Z</time>
      </trkpt>
      <trkpt lat="42.3308" lon="0.99789">
        <ele>1075.72</ele>
        <time>2024-09-29T10:13:19.000Z</time>
      </trkpt>
      <trkpt lat="42.33109" lon="0.99783">
        <ele>1075.16</ele>
        <time>2024-09-29T10:13:24.000Z</time>
      </trkpt>
      <trkpt lat="42.3314" lon="0.99782">
        <ele>1074.27</ele>
        <time>2024-09-29T10:13:29.000Z</time>
      </trkpt>
      <trkpt lat="42.3317" lon="0.9977">
        <ele>1073.63</ele>
        <time>2024-09-29T10:13:34.000Z</time>
      </trkpt>
      <trkpt lat="42.33198" lon="0.9975">
        <ele>1073.02</ele>
        <time>2024-09-29T10:13:39.000Z</time>
      </trkpt>
      <trkpt lat="42.33218" lon="0.99718">
        <ele>1072.66</ele>
        <time>2024-09-29T10:13:44.000Z</time>
      </trkpt>
      <trkpt lat="42.33237" lon="0.99687">
        <ele>1072.21</ele>
        <time>2024-09-29T10:13:49.000Z</time>
      </trkpt>
      <trkpt lat="42.33254" lon="0.99658">
        <ele>1071.78</ele>
        <time>2024-09-29T10:13:54.000Z</time>
      </trkpt>
      <trkpt lat="42.33272" lon="0.99628">
        <ele>1071.18</ele>
        <time>2024-09-29T10:13:59.000Z</time>
      </trkpt>
      <trkpt lat="42.33297" lon="0.996">
        <ele>1070.16</ele>
        <time>2024-09-29T10:14:04.000Z</time>
      </trkpt>
      <trkpt lat="42.33327" lon="0.99569">
        <ele>1068.78</ele>
        <time>2024-09-29T10:14:09.000Z</time>
      </trkpt>
      <trkpt lat="42.3336" lon="0.99539">
        <ele>1067.29</ele>
        <time>2024-09-29T10:14:14.000Z</time>
      </trkpt>
      <trkpt lat="42.33399" lon="0.99529">
        <ele>1065.49</ele>
        <time>2024-09-29T10:14:19.000Z</time>
      </trkpt>
      <trkpt lat="42.3345" lon="0.99526">
        <ele>1062.45</ele>
        <time>2024-09-29T10:14:24.000Z</time>
      </trkpt>
      <trkpt lat="42.33503" lon="0.99527">
        <ele>1060.03</ele>
        <time>2024-09-29T10:14:29.000Z</time>
      </trkpt>
      <trkpt lat="42.33559" lon="0.99511">
        <ele>1056.93</ele>
        <time>2024-09-29T10:14:34.000Z</time>
      </trkpt>
      <trkpt lat="42.33619" lon="0.99497">
        <ele>1053.69</ele>
        <time>2024-09-29T10:14:39.000Z</time>
      </trkpt>
      <trkpt lat="42.3368" lon="0.99478">
        <ele>1051.05</ele>
        <time>2024-09-29T10:14:44.000Z</time>
      </trkpt>
      <trkpt lat="42.33732" lon="0.99455">
        <ele>1047.98</ele>
        <time>2024-09-29T10:14:49.000Z</time>
      </trkpt>
      <trkpt lat="42.33753" lon="0.99442">
        <ele>1045.15</ele>
        <time>2024-09-29T10:14:54.000Z</time>
      </trkpt>
      <trkpt lat="42.33713" lon="0.99445">
        <ele>1042.77</ele>
        <time>2024-09-29T10:14:59.000Z</time>
      </trkpt>
      <trkpt lat="42.33678" lon="0.99433">
        <ele>1040.07</ele>
        <time>2024-09-29T10:15:04.000Z</time>
      </trkpt>
      <trkpt lat="42.33702" lon="0.99413">
        <ele>1037.34</ele>
        <time>2024-09-29T10:15:09.000Z</time>
      </trkpt>
      <trkpt lat="42.3375" lon="0.99413">
        <ele>1035.12</ele>
        <time>2024-09-29T10:15:14.000Z</time>
      </trkpt>
      <trkpt lat="42.33793" lon="0.99453">
        <ele>1032.6</ele>
        <time>2024-09-29T10:15:19.000Z</time>
      </trkpt>
      <trkpt lat="42.33814" lon="0.99432">
        <ele>1030.55</ele>
        <time>2024-09-29T10:15:24.000Z</time>
      </trkpt>
      <trkpt lat="42.33814" lon="0.99392">
        <ele>1028.76</ele>
        <time>2024-09-29T10:15:29.000Z</time>
      </trkpt>
      <trkpt lat="42.33825" lon="0.99353">
        <ele>1027.45</ele>
        <time>2024-09-29T10:15:34.000Z</time>
      </trkpt>
      <trkpt lat="42.3383" lon="0.99314">
        <ele>1025.92</ele>
        <time>2024-09-29T10:15:39.999Z</time>
      </trkpt>
      <trkpt lat="42.33832" lon="0.99288">
        <ele>1024.97</ele>
        <time>2024-09-29T10:15:44.999Z</time>
      </trkpt>
      <trkpt lat="42.33834" lon="0.99266">
        <ele>1024.85</ele>
        <time>2024-09-29T10:15:49.999Z</time>
      </trkpt>
      <trkpt lat="42.33839" lon="0.99244">
        <ele>1024.66</ele>
        <time>2024-09-29T10:15:54.999Z</time>
      </trkpt>
      <trkpt lat="42.33846" lon="0.99223">
        <ele>1023.57</ele>
        <time>2024-09-29T10:15:59.999Z</time>
      </trkpt>
      <trkpt lat="42.33864" lon="0.99203">
        <ele>1021.38</ele>
        <time>2024-09-29T10:16:04.999Z</time>
      </trkpt>
      <trkpt lat="42.33898" lon="0.99196">
        <ele>1019.64</ele>
        <time>2024-09-29T10:16:09.999Z</time>
      </trkpt>
      <trkpt lat="42.33911" lon="0.99167">
        <ele>1018.22</ele>
        <time>2024-09-29T10:16:14.999Z</time>
      </trkpt>
      <trkpt lat="42.3389" lon="0.9915">
        <ele>1017.3</ele>
        <time>2024-09-29T10:16:19.999Z</time>
      </trkpt>
      <trkpt lat="42.33872" lon="0.99122">
        <ele>1016.28</ele>
        <time>2024-09-29T10:16:24.999Z</time>
      </trkpt>
      <trkpt lat="42.33875" lon="0.99076">
        <ele>1014.69</ele>
        <time>2024-09-29T10:16:29.999Z</time>
      </trkpt>
      <trkpt lat="42.33891" lon="0.99021">
        <ele>1012.92</ele>
        <time>2024-09-29T10:16:34.999Z</time>
      </trkpt>
      <trkpt lat="42.33909" lon="0.98964">
        <ele>1011.18</ele>
        <time>2024-09-29T10:16:39.999Z</time>
      </trkpt>
      <trkpt lat="42.33927" lon="0.98928">
        <ele>1009.61</ele>
        <time>2024-09-29T10:16:44.999Z</time>
      </trkpt>
      <trkpt lat="42.33925" lon="0.98872">
        <ele>1008.04</ele>
        <time>2024-09-29T10:16:49.999Z</time>
      </trkpt>
      <trkpt lat="42.33945" lon="0.98811">
        <ele>1006.31</ele>
        <time>2024-09-29T10:16:54.999Z</time>
      </trkpt>
      <trkpt lat="42.33943" lon="0.98743">
        <ele>1004.87</ele>
        <time>2024-09-29T10:16:59.999Z</time>
      </trkpt>
      <trkpt lat="42.3395" lon="0.98681">
        <ele>1003.53</ele>
        <time>2024-09-29T10:17:04.999Z</time>
      </trkpt>
      <trkpt lat="42.33965" lon="0.98641">
        <ele>1001.01</ele>
        <time>2024-09-29T10:17:09.999Z</time>
      </trkpt>
      <trkpt lat="42.33931" lon="0.98619">
        <ele>999.01</ele>
        <time>2024-09-29T10:17:14.999Z</time>
      </trkpt>
      <trkpt lat="42.33928" lon="0.98573">
        <ele>997.7</ele>
        <time>2024-09-29T10:17:19.999Z</time>
      </trkpt>
      <trkpt lat="42.3393" lon="0.98518">
        <ele>995.32</ele>
        <time>2024-09-29T10:17:24.999Z</time>
      </trkpt>
      <trkpt lat="42.33922" lon="0.98459">
        <ele>992.52</ele>
        <time>2024-09-29T10:17:29.999Z</time>
      </trkpt>
      <trkpt lat="42.3391" lon="0.984">
        <ele>989.42</ele>
        <time>2024-09-29T10:17:34.999Z</time>
      </trkpt>
      <trkpt lat="42.33916" lon="0.98337">
        <ele>986.64</ele>
        <time>2024-09-29T10:17:39.999Z</time>
      </trkpt>
      <trkpt lat="42.33928" lon="0.98277">
        <ele>984.3</ele>
        <time>2024-09-29T10:17:44.999Z</time>
      </trkpt>
      <trkpt lat="42.33964" lon="0.98243">
        <ele>981.67</ele>
        <time>2024-09-29T10:17:49.999Z</time>
      </trkpt>
      <trkpt lat="42.33978" lon="0.9821">
        <ele>978.94</ele>
        <time>2024-09-29T10:17:54.999Z</time>
      </trkpt>
      <trkpt lat="42.33946" lon="0.98179">
        <ele>976.17</ele>
        <time>2024-09-29T10:17:59.999Z</time>
      </trkpt>
      <trkpt lat="42.3393" lon="0.98118">
        <ele>973.94</ele>
        <time>2024-09-29T10:18:04.999Z</time>
      </trkpt>
      <trkpt lat="42.33941" lon="0.98048">
        <ele>971.51</ele>
        <time>2024-09-29T10:18:09.999Z</time>
      </trkpt>
      <trkpt lat="42.33965" lon="0.9798">
        <ele>968.79</ele>
        <time>2024-09-29T10:18:14.999Z</time>
      </trkpt>
      <trkpt lat="42.33997" lon="0.97927">
        <ele>965.77</ele>
        <time>2024-09-29T10:18:19.999Z</time>
      </trkpt>
      <trkpt lat="42.33987" lon="0.97862">
        <ele>962.99</ele>
        <time>2024-09-29T10:18:24.999Z</time>
      </trkpt>
      <trkpt lat="42.3398" lon="0.97798">
        <ele>960.98</ele>
        <time>2024-09-29T10:18:29.999Z</time>
      </trkpt>
      <trkpt lat="42.33979" lon="0.9773">
        <ele>959.27</ele>
        <time>2024-09-29T10:18:34.999Z</time>
      </trkpt>
      <trkpt lat="42.33965" lon="0.97662">
        <ele>956.01</ele>
        <time>2024-09-29T10:18:39.999Z</time>
      </trkpt>
      <trkpt lat="42.33985" lon="0.97604">
        <ele>952.55</ele>
        <time>2024-09-29T10:18:44.999Z</time>
      </trkpt>
      <trkpt lat="42.34034" lon="0.97602">
        <ele>949.44</ele>
        <time>2024-09-29T10:18:49.999Z</time>
      </trkpt>
      <trkpt lat="42.34076" lon="0.9762">
        <ele>946.51</ele>
        <time>2024-09-29T10:18:54.999Z</time>
      </trkpt>
      <trkpt lat="42.34088" lon="0.97588">
        <ele>943.26</ele>
        <time>2024-09-29T10:18:59.999Z</time>
      </trkpt>
      <trkpt lat="42.34058" lon="0.97549">
        <ele>940.17</ele>
        <time>2024-09-29T10:19:04.999Z</time>
      </trkpt>
      <trkpt lat="42.34019" lon="0.9751">
        <ele>937.04</ele>
        <time>2024-09-29T10:19:09.999Z</time>
      </trkpt>
      <trkpt lat="42.33985" lon="0.97471">
        <ele>934.1</ele>
        <time>2024-09-29T10:19:14.999Z</time>
      </trkpt>
      <trkpt lat="42.34006" lon="0.97428">
        <ele>931.18</ele>
        <time>2024-09-29T10:19:19.999Z</time>
      </trkpt>
      <trkpt lat="42.34017" lon="0.97366">
        <ele>928.22</ele>
        <time>2024-09-29T10:19:24.999Z</time>
      </trkpt>
      <trkpt lat="42.34053" lon="0.97332">
        <ele>924.81</ele>
        <time>2024-09-29T10:19:29.999Z</time>
      </trkpt>
      <trkpt lat="42.34092" lon="0.97298">
        <ele>921.01</ele>
        <time>2024-09-29T10:19:34.999Z</time>
      </trkpt>
      <trkpt lat="42.34097" lon="0.97251">
        <ele>917.67</ele>
        <time>2024-09-29T10:19:39.999Z</time>
      </trkpt>
      <trkpt lat="42.34054" lon="0.97234">
        <ele>914.36</ele>
        <time>2024-09-29T10:19:44.999Z</time>
      </trkpt>
      <trkpt lat="42.34018" lon="0.97202">
        <ele>910.93</ele>
        <time>2024-09-29T10:19:49.999Z</time>
      </trkpt>
      <trkpt lat="42.34017" lon="0.97137">
        <ele>908.92</ele>
        <time>2024-09-29T10:19:54.999Z</time>
      </trkpt>
      <trkpt lat="42.34035" lon="0.97072">
        <ele>906.2</ele>
        <time>2024-09-29T10:19:59.999Z</time>
      </trkpt>
      <trkpt lat="42.34035" lon="0.97001">
        <ele>902.24</ele>
        <time>2024-09-29T10:20:04.999Z</time>
      </trkpt>
      <trkpt lat="42.34065" lon="0.96959">
        <ele>898.27</ele>
        <time>2024-09-29T10:20:09.999Z</time>
      </trkpt>
      <trkpt lat="42.34076" lon="0.96927">
        <ele>894.63</ele>
        <time>2024-09-29T10:20:14.999Z</time>
      </trkpt>
      <trkpt lat="42.34038" lon="0.96901">
        <ele>891.38</ele>
        <time>2024-09-29T10:20:19.999Z</time>
      </trkpt>
      <trkpt lat="42.34033" lon="0.96853">
        <ele>889.15</ele>
        <time>2024-09-29T10:20:24.999Z</time>
      </trkpt>
      <trkpt lat="42.34049" lon="0.96796">
        <ele>887.42</ele>
        <time>2024-09-29T10:20:29.999Z</time>
      </trkpt>
      <trkpt lat="42.34053" lon="0.96731">
        <ele>884.45</ele>
        <time>2024-09-29T10:20:34.999Z</time>
      </trkpt>
      <trkpt lat="42.34074" lon="0.967">
        <ele>880.41</ele>
        <time>2024-09-29T10:20:39.999Z</time>
      </trkpt>
      <trkpt lat="42.34041" lon="0.96664">
        <ele>876.73</ele>
        <time>2024-09-29T10:20:44.999Z</time>
      </trkpt>
      <trkpt lat="42.34028" lon="0.96606">
        <ele>873.53</ele>
        <time>2024-09-29T10:20:49.999Z</time>
      </trkpt>
      <trkpt lat="42.34019" lon="0.96542">
        <ele>870.41</ele>
        <time>2024-09-29T10:20:54.999Z</time>
      </trkpt>
      <trkpt lat="42.34013" lon="0.96476">
        <ele>866.97</ele>
        <time>2024-09-29T10:20:59.999Z</time>
      </trkpt>
      <trkpt lat="42.34032" lon="0.96409">
        <ele>862.7</ele>
        <time>2024-09-29T10:21:04.999Z</time>
      </trkpt>
      <trkpt lat="42.34043" lon="0.96339">
        <ele>858.11</ele>
        <time>2024-09-29T10:21:09.999Z</time>
      </trkpt>
      <trkpt lat="42.34047" lon="0.96271">
        <ele>854.44</ele>
        <time>2024-09-29T10:21:14.999Z</time>
      </trkpt>
      <trkpt lat="42.34048" lon="0.96213">
        <ele>852.56</ele>
        <time>2024-09-29T10:21:19.999Z</time>
      </trkpt>
      <trkpt lat="42.34055" lon="0.96169">
        <ele>851.21</ele>
        <time>2024-09-29T10:21:24.999Z</time>
      </trkpt>
      <trkpt lat="42.34087" lon="0.96176">
        <ele>849.2</ele>
        <time>2024-09-29T10:21:29.999Z</time>
      </trkpt>
      <trkpt lat="42.34124" lon="0.96186">
        <ele>847.28</ele>
        <time>2024-09-29T10:21:34.999Z</time>
      </trkpt>
      <trkpt lat="42.34154" lon="0.96195">
        <ele>845.46</ele>
        <time>2024-09-29T10:21:39.999Z</time>
      </trkpt>
      <trkpt lat="42.34183" lon="0.96203">
        <ele>844.62</ele>
        <time>2024-09-29T10:21:44.999Z</time>
      </trkpt>
      <trkpt lat="42.34211" lon="0.96205">
        <ele>843.32</ele>
        <time>2024-09-29T10:21:49.999Z</time>
      </trkpt>
      <trkpt lat="42.34239" lon="0.96206">
        <ele>842.63</ele>
        <time>2024-09-29T10:21:54.999Z</time>
      </trkpt>
      <trkpt lat="42.34261" lon="0.96212">
        <ele>842.29</ele>
        <time>2024-09-29T10:21:59.999Z</time>
      </trkpt>
      <trkpt lat="42.34284" lon="0.96214">
        <ele>842.01</ele>
        <time>2024-09-29T10:22:04.999Z</time>
      </trkpt>
      <trkpt lat="42.34309" lon="0.96209">
        <ele>841.55</ele>
        <time>2024-09-29T10:22:09.999Z</time>
      </trkpt>
      <trkpt lat="42.34333" lon="0.96201">
        <ele>841.1</ele>
        <time>2024-09-29T10:22:14.999Z</time>
      </trkpt>
      <trkpt lat="42.34348" lon="0.96187">
        <ele>840.85</ele>
        <time>2024-09-29T10:22:19.999Z</time>
      </trkpt>
      <trkpt lat="42.34354" lon="0.96177">
        <ele>840.6</ele>
        <time>2024-09-29T10:22:47.999Z</time>
      </trkpt>
      <trkpt lat="42.3435" lon="0.96165">
        <ele>840.42</ele>
        <time>2024-09-29T10:22:52.999Z</time>
      </trkpt>
      <trkpt lat="42.3434" lon="0.96154">
        <ele>840.23</ele>
        <time>2024-09-29T10:22:57.999Z</time>
      </trkpt>
      <trkpt lat="42.34327" lon="0.96141">
        <ele>840.04</ele>
        <time>2024-09-29T10:23:02.999Z</time>
      </trkpt>
      <trkpt lat="42.34317" lon="0.9613">
        <ele>839.87</ele>
        <time>2024-09-29T10:23:07.999Z</time>
      </trkpt>
      <trkpt lat="42.34304" lon="0.96116">
        <ele>839.7</ele>
        <time>2024-09-29T10:23:12.999Z</time>
      </trkpt>
      <trkpt lat="42.34291" lon="0.96101">
        <ele>839.5</ele>
        <time>2024-09-29T10:23:17.999Z</time>
      </trkpt>
      <trkpt lat="42.34283" lon="0.96092">
        <ele>839.28</ele>
        <time>2024-09-29T10:23:22.999Z</time>
      </trkpt>
      <trkpt lat="42.34276" lon="0.96081">
        <ele>836.41</ele>
        <time>2024-09-29T10:26:20.999Z</time>
      </trkpt>
      <trkpt lat="42.34258" lon="0.96062">
        <ele>833.9</ele>
        <time>2024-09-29T10:26:25.999Z</time>
      </trkpt>
      <trkpt lat="42.34233" lon="0.96031">
        <ele>832.21</ele>
        <time>2024-09-29T10:26:30.999Z</time>
      </trkpt>
      <trkpt lat="42.34203" lon="0.95992">
        <ele>831.06</ele>
        <time>2024-09-29T10:26:35.999Z</time>
      </trkpt>
      <trkpt lat="42.34169" lon="0.95953">
        <ele>830.01</ele>
        <time>2024-09-29T10:26:40.999Z</time>
      </trkpt>
      <trkpt lat="42.34134" lon="0.95912">
        <ele>828.98</ele>
        <time>2024-09-29T10:26:45.999Z</time>
      </trkpt>
      <trkpt lat="42.34098" lon="0.9587">
        <ele>828.07</ele>
        <time>2024-09-29T10:26:50.999Z</time>
      </trkpt>
      <trkpt lat="42.3406" lon="0.95825">
        <ele>827.18</ele>
        <time>2024-09-29T10:26:55.999Z</time>
      </trkpt>
      <trkpt lat="42.34023" lon="0.95781">
        <ele>826.22</ele>
        <time>2024-09-29T10:27:00.999Z</time>
      </trkpt>
      <trkpt lat="42.3402" lon="0.9572">
        <ele>823.47</ele>
        <time>2024-09-29T10:27:05.999Z</time>
      </trkpt>
      <trkpt lat="42.34047" lon="0.95662">
        <ele>820.88</ele>
        <time>2024-09-29T10:27:10.999Z</time>
      </trkpt>
      <trkpt lat="42.34071" lon="0.95605">
        <ele>819.02</ele>
        <time>2024-09-29T10:27:15.999Z</time>
      </trkpt>
      <trkpt lat="42.34094" lon="0.95557">
        <ele>818.2</ele>
        <time>2024-09-29T10:27:20.999Z</time>
      </trkpt>
      <trkpt lat="42.34109" lon="0.95512">
        <ele>817.29</ele>
        <time>2024-09-29T10:27:25.999Z</time>
      </trkpt>
      <trkpt lat="42.34103" lon="0.9547">
        <ele>816.13</ele>
        <time>2024-09-29T10:27:30.999Z</time>
      </trkpt>
      <trkpt lat="42.3409" lon="0.95432">
        <ele>814.4</ele>
        <time>2024-09-29T10:27:35.999Z</time>
      </trkpt>
      <trkpt lat="42.34057" lon="0.95422">
        <ele>811.72</ele>
        <time>2024-09-29T10:27:40.999Z</time>
      </trkpt>
      <trkpt lat="42.34025" lon="0.95411">
        <ele>808.78</ele>
        <time>2024-09-29T10:27:46.000Z</time>
      </trkpt>
      <trkpt lat="42.33997" lon="0.95388">
        <ele>806.87</ele>
        <time>2024-09-29T10:27:51.000Z</time>
      </trkpt>
      <trkpt lat="42.3398" lon="0.95356">
        <ele>805.65</ele>
        <time>2024-09-29T10:27:56.000Z</time>
      </trkpt>
      <trkpt lat="42.33966" lon="0.9532">
        <ele>805.05</ele>
        <time>2024-09-29T10:28:01.000Z</time>
      </trkpt>
      <trkpt lat="42.33945" lon="0.9529">
        <ele>804.8</ele>
        <time>2024-09-29T10:28:06.000Z</time>
      </trkpt>
      <trkpt lat="42.33921" lon="0.95261">
        <ele>803.91</ele>
        <time>2024-09-29T10:28:11.000Z</time>
      </trkpt>
      <trkpt lat="42.33895" lon="0.95228">
        <ele>802.1</ele>
        <time>2024-09-29T10:28:16.000Z</time>
      </trkpt>
      <trkpt lat="42.33866" lon="0.95193">
        <ele>799.85</ele>
        <time>2024-09-29T10:28:21.000Z</time>
      </trkpt>
      <trkpt lat="42.33832" lon="0.95165">
        <ele>797.71</ele>
        <time>2024-09-29T10:28:26.000Z</time>
      </trkpt>
      <trkpt lat="42.338" lon="0.95137">
        <ele>795.5</ele>
        <time>2024-09-29T10:28:31.000Z</time>
      </trkpt>
      <trkpt lat="42.3378" lon="0.95096">
        <ele>794.76</ele>
        <time>2024-09-29T10:28:36.000Z</time>
      </trkpt>
      <trkpt lat="42.33763" lon="0.95056">
        <ele>797.18</ele>
        <time>2024-09-29T10:28:41.000Z</time>
      </trkpt>
      <trkpt lat="42.3374" lon="0.95028">
        <ele>798.18</ele>
        <time>2024-09-29T10:28:46.000Z</time>
      </trkpt>
      <trkpt lat="42.33721" lon="0.95002">
        <ele>797.04</ele>
        <time>2024-09-29T10:28:51.000Z</time>
      </trkpt>
      <trkpt lat="42.33701" lon="0.94983">
        <ele>795.4</ele>
        <time>2024-09-29T10:28:56.000Z</time>
      </trkpt>
      <trkpt lat="42.33683" lon="0.94971">
        <ele>794.85</ele>
        <time>2024-09-29T10:29:01.000Z</time>
      </trkpt>
      <trkpt lat="42.33668" lon="0.94959">
        <ele>794.68</ele>
        <time>2024-09-29T10:29:06.000Z</time>
      </trkpt>
      <trkpt lat="42.33652" lon="0.94945">
        <ele>794.54</ele>
        <time>2024-09-29T10:29:11.000Z</time>
      </trkpt>
      <trkpt lat="42.33639" lon="0.94922">
        <ele>794.11</ele>
        <time>2024-09-29T10:29:16.000Z</time>
      </trkpt>
      <trkpt lat="42.33623" lon="0.94894">
        <ele>793.71</ele>
        <time>2024-09-29T10:29:21.000Z</time>
      </trkpt>
      <trkpt lat="42.33604" lon="0.94864">
        <ele>793.88</ele>
        <time>2024-09-29T10:29:26.000Z</time>
      </trkpt>
      <trkpt lat="42.33578" lon="0.9484">
        <ele>793.65</ele>
        <time>2024-09-29T10:29:31.000Z</time>
      </trkpt>
      <trkpt lat="42.33552" lon="0.9482">
        <ele>793.78</ele>
        <time>2024-09-29T10:29:36.000Z</time>
      </trkpt>
      <trkpt lat="42.33523" lon="0.94799">
        <ele>794.15</ele>
        <time>2024-09-29T10:29:41.000Z</time>
      </trkpt>
      <trkpt lat="42.33496" lon="0.94773">
        <ele>793.82</ele>
        <time>2024-09-29T10:29:46.000Z</time>
      </trkpt>
      <trkpt lat="42.3348" lon="0.94726">
        <ele>792.71</ele>
        <time>2024-09-29T10:29:51.000Z</time>
      </trkpt>
      <trkpt lat="42.33472" lon="0.94675">
        <ele>791.03</ele>
        <time>2024-09-29T10:29:56.000Z</time>
      </trkpt>
      <trkpt lat="42.33469" lon="0.94626">
        <ele>789</ele>
        <time>2024-09-29T10:30:01.000Z</time>
      </trkpt>
      <trkpt lat="42.33471" lon="0.94567">
        <ele>787.76</ele>
        <time>2024-09-29T10:30:06.000Z</time>
      </trkpt>
      <trkpt lat="42.33469" lon="0.94512">
        <ele>786.08</ele>
        <time>2024-09-29T10:30:11.000Z</time>
      </trkpt>
      <trkpt lat="42.33459" lon="0.9446">
        <ele>784.76</ele>
        <time>2024-09-29T10:30:16.000Z</time>
      </trkpt>
      <trkpt lat="42.33443" lon="0.94412">
        <ele>783.3</ele>
        <time>2024-09-29T10:30:21.000Z</time>
      </trkpt>
      <trkpt lat="42.33425" lon="0.94367">
        <ele>781.67</ele>
        <time>2024-09-29T10:30:26.000Z</time>
      </trkpt>
      <trkpt lat="42.33408" lon="0.94324">
        <ele>780.55</ele>
        <time>2024-09-29T10:30:31.000Z</time>
      </trkpt>
      <trkpt lat="42.33385" lon="0.94286">
        <ele>779.24</ele>
        <time>2024-09-29T10:30:36.000Z</time>
      </trkpt>
      <trkpt lat="42.33346" lon="0.94272">
        <ele>777.55</ele>
        <time>2024-09-29T10:30:41.000Z</time>
      </trkpt>
      <trkpt lat="42.33307" lon="0.94268">
        <ele>776.9</ele>
        <time>2024-09-29T10:30:46.000Z</time>
      </trkpt>
      <trkpt lat="42.33273" lon="0.9427">
        <ele>775.87</ele>
        <time>2024-09-29T10:30:51.000Z</time>
      </trkpt>
      <trkpt lat="42.33243" lon="0.94275">
        <ele>774.45</ele>
        <time>2024-09-29T10:30:56.000Z</time>
      </trkpt>
      <trkpt lat="42.33216" lon="0.94257">
        <ele>773.73</ele>
        <time>2024-09-29T10:31:01.000Z</time>
      </trkpt>
      <trkpt lat="42.33193" lon="0.94232">
        <ele>775</ele>
        <time>2024-09-29T10:31:06.000Z</time>
      </trkpt>
      <trkpt lat="42.33171" lon="0.94206">
        <ele>776.48</ele>
        <time>2024-09-29T10:31:11.000Z</time>
      </trkpt>
      <trkpt lat="42.33147" lon="0.94182">
        <ele>776.72</ele>
        <time>2024-09-29T10:31:16.000Z</time>
      </trkpt>
      <trkpt lat="42.33125" lon="0.9416">
        <ele>776.34</ele>
        <time>2024-09-29T10:31:21.000Z</time>
      </trkpt>
      <trkpt lat="42.33104" lon="0.94137">
        <ele>775.46</ele>
        <time>2024-09-29T10:31:26.000Z</time>
      </trkpt>
      <trkpt lat="42.33085" lon="0.94114">
        <ele>774.67</ele>
        <time>2024-09-29T10:31:31.000Z</time>
      </trkpt>
      <trkpt lat="42.33068" lon="0.94087">
        <ele>773.97</ele>
        <time>2024-09-29T10:31:36.000Z</time>
      </trkpt>
      <trkpt lat="42.33052" lon="0.94057">
        <ele>773.48</ele>
        <time>2024-09-29T10:31:41.000Z</time>
      </trkpt>
      <trkpt lat="42.33037" lon="0.94027">
        <ele>772.98</ele>
        <time>2024-09-29T10:31:46.000Z</time>
      </trkpt>
      <trkpt lat="42.33018" lon="0.94002">
        <ele>772.96</ele>
        <time>2024-09-29T10:31:51.000Z</time>
      </trkpt>
      <trkpt lat="42.32994" lon="0.93981">
        <ele>772.83</ele>
        <time>2024-09-29T10:31:56.000Z</time>
      </trkpt>
      <trkpt lat="42.32966" lon="0.93958">
        <ele>772.64</ele>
        <time>2024-09-29T10:32:01.000Z</time>
      </trkpt>
      <trkpt lat="42.32937" lon="0.93934">
        <ele>772.2</ele>
        <time>2024-09-29T10:32:06.000Z</time>
      </trkpt>
      <trkpt lat="42.32906" lon="0.93913">
        <ele>771.55</ele>
        <time>2024-09-29T10:32:11.000Z</time>
      </trkpt>
      <trkpt lat="42.32871" lon="0.93905">
        <ele>770.85</ele>
        <time>2024-09-29T10:32:16.000Z</time>
      </trkpt>
      <trkpt lat="42.32838" lon="0.93904">
        <ele>770.25</ele>
        <time>2024-09-29T10:32:21.000Z</time>
      </trkpt>
      <trkpt lat="42.32803" lon="0.93922">
        <ele>769.07</ele>
        <time>2024-09-29T10:32:26.000Z</time>
      </trkpt>
      <trkpt lat="42.32769" lon="0.9394">
        <ele>768.21</ele>
        <time>2024-09-29T10:32:31.000Z</time>
      </trkpt>
      <trkpt lat="42.32741" lon="0.93962">
        <ele>768.02</ele>
        <time>2024-09-29T10:32:36.000Z</time>
      </trkpt>
      <trkpt lat="42.32715" lon="0.93982">
        <ele>768.79</ele>
        <time>2024-09-29T10:32:41.000Z</time>
      </trkpt>
      <trkpt lat="42.32689" lon="0.93983">
        <ele>768.66</ele>
        <time>2024-09-29T10:32:46.000Z</time>
      </trkpt>
      <trkpt lat="42.32663" lon="0.93973">
        <ele>767.64</ele>
        <time>2024-09-29T10:32:51.000Z</time>
      </trkpt>
      <trkpt lat="42.32637" lon="0.93962">
        <ele>766.56</ele>
        <time>2024-09-29T10:32:56.000Z</time>
      </trkpt>
      <trkpt lat="42.32614" lon="0.93947">
        <ele>765.75</ele>
        <time>2024-09-29T10:33:01.000Z</time>
      </trkpt>
      <trkpt lat="42.32591" lon="0.93927">
        <ele>764.88</ele>
        <time>2024-09-29T10:33:06.000Z</time>
      </trkpt>
      <trkpt lat="42.32568" lon="0.93908">
        <ele>763.9</ele>
        <time>2024-09-29T10:33:11.000Z</time>
      </trkpt>
      <trkpt lat="42.32549" lon="0.93884">
        <ele>762.85</ele>
        <time>2024-09-29T10:33:16.000Z</time>
      </trkpt>
      <trkpt lat="42.32533" lon="0.93855">
        <ele>761.89</ele>
        <time>2024-09-29T10:33:21.000Z</time>
      </trkpt>
      <trkpt lat="42.32515" lon="0.93824">
        <ele>761.28</ele>
        <time>2024-09-29T10:33:26.000Z</time>
      </trkpt>
      <trkpt lat="42.32494" lon="0.93793">
        <ele>760.72</ele>
        <time>2024-09-29T10:33:31.000Z</time>
      </trkpt>
      <trkpt lat="42.32477" lon="0.93761">
        <ele>760.66</ele>
        <time>2024-09-29T10:33:36.000Z</time>
      </trkpt>
      <trkpt lat="42.32465" lon="0.93727">
        <ele>760.44</ele>
        <time>2024-09-29T10:33:41.000Z</time>
      </trkpt>
      <trkpt lat="42.32453" lon="0.93694">
        <ele>759.75</ele>
        <time>2024-09-29T10:33:46.000Z</time>
      </trkpt>
      <trkpt lat="42.32447" lon="0.93674">
        <ele>759.61</ele>
        <time>2024-09-29T10:33:51.000Z</time>
      </trkpt>
      <trkpt lat="42.32439" lon="0.93668">
        <ele>760.43</ele>
        <time>2024-09-29T10:39:55.999Z</time>
      </trkpt>
      <trkpt lat="42.32441" lon="0.93656">
        <ele>761.84</ele>
        <time>2024-09-29T10:41:55.999Z</time>
      </trkpt>
      <trkpt lat="42.32441" lon="0.9367">
        <ele>762.05</ele>
        <time>2024-09-29T10:42:15.999Z</time>
      </trkpt>
      <trkpt lat="42.32432" lon="0.93671">
        <ele>764.57</ele>
        <time>2024-09-29T10:45:06.999Z</time>
      </trkpt>
      <trkpt lat="42.32441" lon="0.93672">
        <ele>764.63</ele>
        <time>2024-09-29T10:45:59.999Z</time>
      </trkpt>
      <trkpt lat="42.32433" lon="0.93677">
        <ele>763.93</ele>
        <time>2024-09-29T10:47:58.999Z</time>
      </trkpt>
      <trkpt lat="42.32441" lon="0.93671">
        <ele>763.15</ele>
        <time>2024-09-29T10:49:11.999Z</time>
      </trkpt>
      <trkpt lat="42.32431" lon="0.93673">
        <ele>762.96</ele>
        <time>2024-09-29T10:49:46.999Z</time>
      </trkpt>
      <trkpt lat="42.3244" lon="0.93676">
        <ele>762.47</ele>
        <time>2024-09-29T10:52:20.000Z</time>
      </trkpt>
      <trkpt lat="42.32437" lon="0.93689">
        <ele>759.77</ele>
        <time>2024-09-29T10:57:29.000Z</time>
      </trkpt>
      <trkpt lat="42.32432" lon="0.937">
        <ele>759.64</ele>
        <time>2024-09-29T10:57:36.000Z</time>
      </trkpt>
      <trkpt lat="42.32425" lon="0.93707">
        <ele>759.36</ele>
        <time>2024-09-29T10:57:52.000Z</time>
      </trkpt>
      <trkpt lat="42.32421" lon="0.93696">
        <ele>760.61</ele>
        <time>2024-09-29T11:56:18.999Z</time>
      </trkpt>
      <trkpt lat="42.32431" lon="0.93693">
        <ele>759.93</ele>
        <time>2024-09-29T12:01:41.000Z</time>
      </trkpt>
      <trkpt lat="42.32436" lon="0.93682">
        <ele>759.77</ele>
        <time>2024-09-29T12:01:54.000Z</time>
      </trkpt>
      <trkpt lat="42.32445" lon="0.93684">
        <ele>759.15</ele>
        <time>2024-09-29T12:07:20.000Z</time>
      </trkpt>
      <trkpt lat="42.32442" lon="0.93671">
        <ele>758.75</ele>
        <time>2024-09-29T12:12:05.000Z</time>
      </trkpt>
      <trkpt lat="42.32441" lon="0.93659">
        <ele>758.74</ele>
        <time>2024-09-29T12:12:10.000Z</time>
      </trkpt>
      <trkpt lat="42.32453" lon="0.93654">
        <ele>758.73</ele>
        <time>2024-09-29T12:12:15.000Z</time>
      </trkpt>
      <trkpt lat="42.32471" lon="0.93647">
        <ele>758.72</ele>
        <time>2024-09-29T12:12:20.000Z</time>
      </trkpt>
      <trkpt lat="42.32484" lon="0.93645">
        <ele>758.7</ele>
        <time>2024-09-29T12:12:25.000Z</time>
      </trkpt>
      <trkpt lat="42.32501" lon="0.93646">
        <ele>758.69</ele>
        <time>2024-09-29T12:12:30.000Z</time>
      </trkpt>
      <trkpt lat="42.32515" lon="0.93657">
        <ele>758.68</ele>
        <time>2024-09-29T12:12:35.000Z</time>
      </trkpt>
      <trkpt lat="42.32529" lon="0.93673">
        <ele>758.66</ele>
        <time>2024-09-29T12:12:40.000Z</time>
      </trkpt>
      <trkpt lat="42.32547" lon="0.93692">
        <ele>758.66</ele>
        <time>2024-09-29T12:12:45.999Z</time>
      </trkpt>
      <trkpt lat="42.32562" lon="0.93706">
        <ele>758.64</ele>
        <time>2024-09-29T12:12:50.999Z</time>
      </trkpt>
      <trkpt lat="42.32579" lon="0.93716">
        <ele>758.56</ele>
        <time>2024-09-29T12:12:55.999Z</time>
      </trkpt>
      <trkpt lat="42.32597" lon="0.93712">
        <ele>758.6</ele>
        <time>2024-09-29T12:13:00.999Z</time>
      </trkpt>
      <trkpt lat="42.32614" lon="0.93701">
        <ele>758.71</ele>
        <time>2024-09-29T12:13:05.999Z</time>
      </trkpt>
      <trkpt lat="42.32631" lon="0.93687">
        <ele>758.76</ele>
        <time>2024-09-29T12:13:10.999Z</time>
      </trkpt>
      <trkpt lat="42.32647" lon="0.93672">
        <ele>758.85</ele>
        <time>2024-09-29T12:13:15.999Z</time>
      </trkpt>
      <trkpt lat="42.32661" lon="0.93654">
        <ele>758.89</ele>
        <time>2024-09-29T12:13:20.999Z</time>
      </trkpt>
      <trkpt lat="42.32673" lon="0.93632">
        <ele>759.38</ele>
        <time>2024-09-29T12:13:25.999Z</time>
      </trkpt>
      <trkpt lat="42.32684" lon="0.9361">
        <ele>759.83</ele>
        <time>2024-09-29T12:13:30.999Z</time>
      </trkpt>
      <trkpt lat="42.32695" lon="0.93587">
        <ele>760.05</ele>
        <time>2024-09-29T12:13:35.999Z</time>
      </trkpt>
      <trkpt lat="42.32704" lon="0.93565">
        <ele>760.1</ele>
        <time>2024-09-29T12:13:40.999Z</time>
      </trkpt>
      <trkpt lat="42.32713" lon="0.93545">
        <ele>760.15</ele>
        <time>2024-09-29T12:13:45.999Z</time>
      </trkpt>
      <trkpt lat="42.32721" lon="0.93525">
        <ele>760.25</ele>
        <time>2024-09-29T12:13:50.999Z</time>
      </trkpt>
      <trkpt lat="42.3273" lon="0.93506">
        <ele>760.38</ele>
        <time>2024-09-29T12:13:55.999Z</time>
      </trkpt>
      <trkpt lat="42.32738" lon="0.93489">
        <ele>760.51</ele>
        <time>2024-09-29T12:14:00.999Z</time>
      </trkpt>
      <trkpt lat="42.32746" lon="0.93472">
        <ele>760.65</ele>
        <time>2024-09-29T12:14:05.999Z</time>
      </trkpt>
      <trkpt lat="42.32755" lon="0.93456">
        <ele>760.79</ele>
        <time>2024-09-29T12:14:10.999Z</time>
      </trkpt>
      <trkpt lat="42.32765" lon="0.93439">
        <ele>760.92</ele>
        <time>2024-09-29T12:14:15.999Z</time>
      </trkpt>
      <trkpt lat="42.32775" lon="0.93423">
        <ele>761.04</ele>
        <time>2024-09-29T12:14:20.999Z</time>
      </trkpt>
      <trkpt lat="42.32786" lon="0.93408">
        <ele>761.16</ele>
        <time>2024-09-29T12:14:25.999Z</time>
      </trkpt>
      <trkpt lat="42.32797" lon="0.93395">
        <ele>761.27</ele>
        <time>2024-09-29T12:14:30.999Z</time>
      </trkpt>
      <trkpt lat="42.3281" lon="0.93383">
        <ele>761.38</ele>
        <time>2024-09-29T12:14:35.999Z</time>
      </trkpt>
      <trkpt lat="42.32823" lon="0.93371">
        <ele>761.49</ele>
        <time>2024-09-29T12:14:40.999Z</time>
      </trkpt>
      <trkpt lat="42.32836" lon="0.9336">
        <ele>761.61</ele>
        <time>2024-09-29T12:14:45.999Z</time>
      </trkpt>
      <trkpt lat="42.3285" lon="0.93351">
        <ele>761.72</ele>
        <time>2024-09-29T12:14:50.999Z</time>
      </trkpt>
      <trkpt lat="42.32863" lon="0.93342">
        <ele>761.85</ele>
        <time>2024-09-29T12:14:55.999Z</time>
      </trkpt>
      <trkpt lat="42.32877" lon="0.93334">
        <ele>761.99</ele>
        <time>2024-09-29T12:15:00.999Z</time>
      </trkpt>
      <trkpt lat="42.32891" lon="0.93327">
        <ele>762.16</ele>
        <time>2024-09-29T12:15:05.999Z</time>
      </trkpt>
      <trkpt lat="42.32906" lon="0.93321">
        <ele>762.34</ele>
        <time>2024-09-29T12:15:10.999Z</time>
      </trkpt>
      <trkpt lat="42.32921" lon="0.93317">
        <ele>762.55</ele>
        <time>2024-09-29T12:15:15.999Z</time>
      </trkpt>
      <trkpt lat="42.32936" lon="0.93314">
        <ele>762.77</ele>
        <time>2024-09-29T12:15:20.999Z</time>
      </trkpt>
      <trkpt lat="42.32952" lon="0.9331">
        <ele>763.02</ele>
        <time>2024-09-29T12:15:25.999Z</time>
      </trkpt>
      <trkpt lat="42.32968" lon="0.93307">
        <ele>763.29</ele>
        <time>2024-09-29T12:15:30.999Z</time>
      </trkpt>
      <trkpt lat="42.32983" lon="0.93305">
        <ele>763.58</ele>
        <time>2024-09-29T12:15:35.999Z</time>
      </trkpt>
      <trkpt lat="42.32998" lon="0.93303">
        <ele>763.89</ele>
        <time>2024-09-29T12:15:40.999Z</time>
      </trkpt>
      <trkpt lat="42.33014" lon="0.933">
        <ele>764.2</ele>
        <time>2024-09-29T12:15:45.999Z</time>
      </trkpt>
      <trkpt lat="42.3303" lon="0.93297">
        <ele>764.52</ele>
        <time>2024-09-29T12:15:50.999Z</time>
      </trkpt>
      <trkpt lat="42.33045" lon="0.93294">
        <ele>764.86</ele>
        <time>2024-09-29T12:15:55.999Z</time>
      </trkpt>
      <trkpt lat="42.3306" lon="0.93293">
        <ele>765.2</ele>
        <time>2024-09-29T12:16:00.999Z</time>
      </trkpt>
      <trkpt lat="42.33075" lon="0.93291">
        <ele>765.54</ele>
        <time>2024-09-29T12:16:05.999Z</time>
      </trkpt>
      <trkpt lat="42.33091" lon="0.93289">
        <ele>765.88</ele>
        <time>2024-09-29T12:16:10.999Z</time>
      </trkpt>
      <trkpt lat="42.33106" lon="0.93286">
        <ele>766.21</ele>
        <time>2024-09-29T12:16:15.999Z</time>
      </trkpt>
      <trkpt lat="42.33121" lon="0.93283">
        <ele>766.52</ele>
        <time>2024-09-29T12:16:20.999Z</time>
      </trkpt>
      <trkpt lat="42.33134" lon="0.93278">
        <ele>766.82</ele>
        <time>2024-09-29T12:16:25.999Z</time>
      </trkpt>
      <trkpt lat="42.33149" lon="0.9327">
        <ele>767.1</ele>
        <time>2024-09-29T12:16:30.999Z</time>
      </trkpt>
      <trkpt lat="42.33165" lon="0.93262">
        <ele>767.37</ele>
        <time>2024-09-29T12:16:35.999Z</time>
      </trkpt>
      <trkpt lat="42.33179" lon="0.93253">
        <ele>767.65</ele>
        <time>2024-09-29T12:16:40.999Z</time>
      </trkpt>
      <trkpt lat="42.33193" lon="0.93243">
        <ele>767.94</ele>
        <time>2024-09-29T12:16:45.999Z</time>
      </trkpt>
      <trkpt lat="42.33207" lon="0.93231">
        <ele>768.23</ele>
        <time>2024-09-29T12:16:50.999Z</time>
      </trkpt>
      <trkpt lat="42.33219" lon="0.93218">
        <ele>768.54</ele>
        <time>2024-09-29T12:16:55.999Z</time>
      </trkpt>
      <trkpt lat="42.33231" lon="0.93205">
        <ele>768.86</ele>
        <time>2024-09-29T12:17:00.999Z</time>
      </trkpt>
      <trkpt lat="42.33243" lon="0.9319">
        <ele>769.18</ele>
        <time>2024-09-29T12:17:05.999Z</time>
      </trkpt>
      <trkpt lat="42.33254" lon="0.93174">
        <ele>769.51</ele>
        <time>2024-09-29T12:17:10.999Z</time>
      </trkpt>
      <trkpt lat="42.33264" lon="0.93156">
        <ele>769.84</ele>
        <time>2024-09-29T12:17:15.999Z</time>
      </trkpt>
      <trkpt lat="42.33273" lon="0.93139">
        <ele>770.17</ele>
        <time>2024-09-29T12:17:20.999Z</time>
      </trkpt>
      <trkpt lat="42.33282" lon="0.93122">
        <ele>770.5</ele>
        <time>2024-09-29T12:17:25.999Z</time>
      </trkpt>
      <trkpt lat="42.33291" lon="0.93103">
        <ele>770.83</ele>
        <time>2024-09-29T12:17:30.999Z</time>
      </trkpt>
      <trkpt lat="42.33299" lon="0.93084">
        <ele>771.22</ele>
        <time>2024-09-29T12:17:35.999Z</time>
      </trkpt>
      <trkpt lat="42.33307" lon="0.93065">
        <ele>771.63</ele>
        <time>2024-09-29T12:17:40.999Z</time>
      </trkpt>
      <trkpt lat="42.33314" lon="0.93045">
        <ele>772.05</ele>
        <time>2024-09-29T12:17:45.999Z</time>
      </trkpt>
      <trkpt lat="42.33322" lon="0.93026">
        <ele>772.48</ele>
        <time>2024-09-29T12:17:50.999Z</time>
      </trkpt>
      <trkpt lat="42.33329" lon="0.93007">
        <ele>772.91</ele>
        <time>2024-09-29T12:17:55.999Z</time>
      </trkpt>
      <trkpt lat="42.33337" lon="0.92988">
        <ele>773.33</ele>
        <time>2024-09-29T12:18:00.999Z</time>
      </trkpt>
      <trkpt lat="42.33346" lon="0.92971">
        <ele>773.76</ele>
        <time>2024-09-29T12:18:05.999Z</time>
      </trkpt>
      <trkpt lat="42.33355" lon="0.92954">
        <ele>774.17</ele>
        <time>2024-09-29T12:18:10.999Z</time>
      </trkpt>
      <trkpt lat="42.33366" lon="0.92937">
        <ele>774.56</ele>
        <time>2024-09-29T12:18:15.999Z</time>
      </trkpt>
      <trkpt lat="42.33378" lon="0.92921">
        <ele>774.95</ele>
        <time>2024-09-29T12:18:20.999Z</time>
      </trkpt>
      <trkpt lat="42.33391" lon="0.92905">
        <ele>775.33</ele>
        <time>2024-09-29T12:18:25.999Z</time>
      </trkpt>
      <trkpt lat="42.33404" lon="0.92892">
        <ele>775.72</ele>
        <time>2024-09-29T12:18:30.999Z</time>
      </trkpt>
      <trkpt lat="42.33416" lon="0.92878">
        <ele>776.1</ele>
        <time>2024-09-29T12:18:35.999Z</time>
      </trkpt>
      <trkpt lat="42.33429" lon="0.92862">
        <ele>776.44</ele>
        <time>2024-09-29T12:18:40.999Z</time>
      </trkpt>
      <trkpt lat="42.3344" lon="0.92845">
        <ele>776.78</ele>
        <time>2024-09-29T12:18:45.999Z</time>
      </trkpt>
      <trkpt lat="42.33452" lon="0.92828">
        <ele>777.1</ele>
        <time>2024-09-29T12:18:50.999Z</time>
      </trkpt>
      <trkpt lat="42.33463" lon="0.92806">
        <ele>777.29</ele>
        <time>2024-09-29T12:18:55.999Z</time>
      </trkpt>
      <trkpt lat="42.33473" lon="0.92783">
        <ele>777.44</ele>
        <time>2024-09-29T12:19:00.999Z</time>
      </trkpt>
      <trkpt lat="42.33483" lon="0.92758">
        <ele>777.63</ele>
        <time>2024-09-29T12:19:05.999Z</time>
      </trkpt>
      <trkpt lat="42.33491" lon="0.92737">
        <ele>777.87</ele>
        <time>2024-09-29T12:19:10.999Z</time>
      </trkpt>
      <trkpt lat="42.33499" lon="0.92714">
        <ele>778.16</ele>
        <time>2024-09-29T12:19:15.999Z</time>
      </trkpt>
      <trkpt lat="42.33506" lon="0.92691">
        <ele>778.5</ele>
        <time>2024-09-29T12:19:20.999Z</time>
      </trkpt>
      <trkpt lat="42.33513" lon="0.92666">
        <ele>779.43</ele>
        <time>2024-09-29T12:19:25.999Z</time>
      </trkpt>
      <trkpt lat="42.33519" lon="0.92643">
        <ele>779.76</ele>
        <time>2024-09-29T12:19:30.999Z</time>
      </trkpt>
      <trkpt lat="42.33526" lon="0.92618">
        <ele>781.83</ele>
        <time>2024-09-29T12:19:35.999Z</time>
      </trkpt>
      <trkpt lat="42.33532" lon="0.92591">
        <ele>782.78</ele>
        <time>2024-09-29T12:19:40.999Z</time>
      </trkpt>
      <trkpt lat="42.33539" lon="0.92566">
        <ele>784.17</ele>
        <time>2024-09-29T12:19:45.999Z</time>
      </trkpt>
      <trkpt lat="42.33546" lon="0.92541">
        <ele>785.29</ele>
        <time>2024-09-29T12:19:50.999Z</time>
      </trkpt>
      <trkpt lat="42.33556" lon="0.92516">
        <ele>786.44</ele>
        <time>2024-09-29T12:19:55.999Z</time>
      </trkpt>
      <trkpt lat="42.33566" lon="0.92492">
        <ele>787.29</ele>
        <time>2024-09-29T12:20:00.999Z</time>
      </trkpt>
      <trkpt lat="42.33577" lon="0.92469">
        <ele>787.96</ele>
        <time>2024-09-29T12:20:05.999Z</time>
      </trkpt>
      <trkpt lat="42.3359" lon="0.92446">
        <ele>788.52</ele>
        <time>2024-09-29T12:20:10.999Z</time>
      </trkpt>
      <trkpt lat="42.33603" lon="0.92425">
        <ele>788.99</ele>
        <time>2024-09-29T12:20:15.999Z</time>
      </trkpt>
      <trkpt lat="42.33617" lon="0.92404">
        <ele>789.44</ele>
        <time>2024-09-29T12:20:20.999Z</time>
      </trkpt>
      <trkpt lat="42.33632" lon="0.92386">
        <ele>789.86</ele>
        <time>2024-09-29T12:20:25.999Z</time>
      </trkpt>
      <trkpt lat="42.33649" lon="0.92368">
        <ele>790.09</ele>
        <time>2024-09-29T12:20:30.999Z</time>
      </trkpt>
      <trkpt lat="42.33666" lon="0.92352">
        <ele>790.24</ele>
        <time>2024-09-29T12:20:35.999Z</time>
      </trkpt>
      <trkpt lat="42.33684" lon="0.92337">
        <ele>790.46</ele>
        <time>2024-09-29T12:20:40.999Z</time>
      </trkpt>
      <trkpt lat="42.33703" lon="0.92323">
        <ele>790.73</ele>
        <time>2024-09-29T12:20:45.999Z</time>
      </trkpt>
      <trkpt lat="42.33721" lon="0.9231">
        <ele>790.97</ele>
        <time>2024-09-29T12:20:50.999Z</time>
      </trkpt>
      <trkpt lat="42.33739" lon="0.92299">
        <ele>791.05</ele>
        <time>2024-09-29T12:20:55.999Z</time>
      </trkpt>
      <trkpt lat="42.33757" lon="0.9229">
        <ele>791.1</ele>
        <time>2024-09-29T12:21:00.999Z</time>
      </trkpt>
      <trkpt lat="42.33772" lon="0.92285">
        <ele>791.17</ele>
        <time>2024-09-29T12:21:05.999Z</time>
      </trkpt>
      <trkpt lat="42.33788" lon="0.9228">
        <ele>791.25</ele>
        <time>2024-09-29T12:21:10.999Z</time>
      </trkpt>
      <trkpt lat="42.33804" lon="0.92272">
        <ele>791.36</ele>
        <time>2024-09-29T12:21:15.999Z</time>
      </trkpt>
      <trkpt lat="42.33817" lon="0.92266">
        <ele>791.5</ele>
        <time>2024-09-29T12:21:20.999Z</time>
      </trkpt>
      <trkpt lat="42.33831" lon="0.9226">
        <ele>791.67</ele>
        <time>2024-09-29T12:21:25.999Z</time>
      </trkpt>
      <trkpt lat="42.33844" lon="0.92253">
        <ele>791.85</ele>
        <time>2024-09-29T12:21:30.999Z</time>
      </trkpt>
      <trkpt lat="42.33856" lon="0.92247">
        <ele>792.06</ele>
        <time>2024-09-29T12:21:35.999Z</time>
      </trkpt>
      <trkpt lat="42.33868" lon="0.9224">
        <ele>792.3</ele>
        <time>2024-09-29T12:21:40.999Z</time>
      </trkpt>
      <trkpt lat="42.33881" lon="0.92233">
        <ele>792.56</ele>
        <time>2024-09-29T12:21:45.999Z</time>
      </trkpt>
      <trkpt lat="42.33894" lon="0.92225">
        <ele>792.83</ele>
        <time>2024-09-29T12:21:50.999Z</time>
      </trkpt>
      <trkpt lat="42.33905" lon="0.92216">
        <ele>793.09</ele>
        <time>2024-09-29T12:21:55.999Z</time>
      </trkpt>
      <trkpt lat="42.33916" lon="0.92208">
        <ele>793.36</ele>
        <time>2024-09-29T12:22:00.999Z</time>
      </trkpt>
      <trkpt lat="42.33926" lon="0.92199">
        <ele>793.63</ele>
        <time>2024-09-29T12:22:05.999Z</time>
      </trkpt>
      <trkpt lat="42.33936" lon="0.92189">
        <ele>793.9</ele>
        <time>2024-09-29T12:22:10.999Z</time>
      </trkpt>
      <trkpt lat="42.33946" lon="0.92178">
        <ele>794.17</ele>
        <time>2024-09-29T12:22:15.999Z</time>
      </trkpt>
      <trkpt lat="42.33955" lon="0.92166">
        <ele>794.47</ele>
        <time>2024-09-29T12:22:20.999Z</time>
      </trkpt>
      <trkpt lat="42.33964" lon="0.92154">
        <ele>794.8</ele>
        <time>2024-09-29T12:22:25.999Z</time>
      </trkpt>
      <trkpt lat="42.33973" lon="0.92143">
        <ele>795.16</ele>
        <time>2024-09-29T12:22:30.999Z</time>
      </trkpt>
      <trkpt lat="42.33982" lon="0.92132">
        <ele>795.53</ele>
        <time>2024-09-29T12:22:35.999Z</time>
      </trkpt>
      <trkpt lat="42.3399" lon="0.92118">
        <ele>795.91</ele>
        <time>2024-09-29T12:22:40.999Z</time>
      </trkpt>
      <trkpt lat="42.33997" lon="0.92104">
        <ele>796.31</ele>
        <time>2024-09-29T12:22:45.999Z</time>
      </trkpt>
      <trkpt lat="42.34004" lon="0.92089">
        <ele>796.72</ele>
        <time>2024-09-29T12:22:50.999Z</time>
      </trkpt>
      <trkpt lat="42.34011" lon="0.92075">
        <ele>797.13</ele>
        <time>2024-09-29T12:22:55.999Z</time>
      </trkpt>
      <trkpt lat="42.34017" lon="0.9206">
        <ele>797.55</ele>
        <time>2024-09-29T12:23:00.999Z</time>
      </trkpt>
      <trkpt lat="42.34024" lon="0.92046">
        <ele>797.98</ele>
        <time>2024-09-29T12:23:05.999Z</time>
      </trkpt>
      <trkpt lat="42.3403" lon="0.92032">
        <ele>798.41</ele>
        <time>2024-09-29T12:23:10.999Z</time>
      </trkpt>
      <trkpt lat="42.34037" lon="0.92017">
        <ele>798.85</ele>
        <time>2024-09-29T12:23:15.999Z</time>
      </trkpt>
      <trkpt lat="42.34043" lon="0.92003">
        <ele>799.28</ele>
        <time>2024-09-29T12:23:20.999Z</time>
      </trkpt>
      <trkpt lat="42.34048" lon="0.91988">
        <ele>799.7</ele>
        <time>2024-09-29T12:23:25.999Z</time>
      </trkpt>
      <trkpt lat="42.34054" lon="0.91972">
        <ele>800.12</ele>
        <time>2024-09-29T12:23:30.999Z</time>
      </trkpt>
      <trkpt lat="42.34058" lon="0.91957">
        <ele>800.53</ele>
        <time>2024-09-29T12:23:35.999Z</time>
      </trkpt>
      <trkpt lat="42.34064" lon="0.91942">
        <ele>800.93</ele>
        <time>2024-09-29T12:23:40.999Z</time>
      </trkpt>
      <trkpt lat="42.3407" lon="0.91928">
        <ele>801.32</ele>
        <time>2024-09-29T12:23:45.999Z</time>
      </trkpt>
      <trkpt lat="42.34076" lon="0.91912">
        <ele>801.71</ele>
        <time>2024-09-29T12:23:50.999Z</time>
      </trkpt>
      <trkpt lat="42.34081" lon="0.91897">
        <ele>802.09</ele>
        <time>2024-09-29T12:23:55.999Z</time>
      </trkpt>
      <trkpt lat="42.34088" lon="0.9188">
        <ele>802.46</ele>
        <time>2024-09-29T12:24:00.999Z</time>
      </trkpt>
      <trkpt lat="42.34094" lon="0.91865">
        <ele>802.82</ele>
        <time>2024-09-29T12:24:05.999Z</time>
      </trkpt>
      <trkpt lat="42.34101" lon="0.9185">
        <ele>803.18</ele>
        <time>2024-09-29T12:24:10.999Z</time>
      </trkpt>
      <trkpt lat="42.34107" lon="0.91836">
        <ele>803.53</ele>
        <time>2024-09-29T12:24:15.999Z</time>
      </trkpt>
      <trkpt lat="42.34115" lon="0.9182">
        <ele>803.88</ele>
        <time>2024-09-29T12:24:20.999Z</time>
      </trkpt>
      <trkpt lat="42.34122" lon="0.91805">
        <ele>804.23</ele>
        <time>2024-09-29T12:24:25.999Z</time>
      </trkpt>
      <trkpt lat="42.3413" lon="0.91792">
        <ele>804.58</ele>
        <time>2024-09-29T12:24:30.999Z</time>
      </trkpt>
      <trkpt lat="42.34138" lon="0.91778">
        <ele>804.93</ele>
        <time>2024-09-29T12:24:36.000Z</time>
      </trkpt>
      <trkpt lat="42.34146" lon="0.91763">
        <ele>805.28</ele>
        <time>2024-09-29T12:24:41.000Z</time>
      </trkpt>
      <trkpt lat="42.34155" lon="0.91748">
        <ele>805.62</ele>
        <time>2024-09-29T12:24:46.000Z</time>
      </trkpt>
      <trkpt lat="42.34166" lon="0.91733">
        <ele>805.97</ele>
        <time>2024-09-29T12:24:51.000Z</time>
      </trkpt>
      <trkpt lat="42.34177" lon="0.91718">
        <ele>806.31</ele>
        <time>2024-09-29T12:24:56.000Z</time>
      </trkpt>
      <trkpt lat="42.3419" lon="0.91702">
        <ele>806.66</ele>
        <time>2024-09-29T12:25:01.000Z</time>
      </trkpt>
      <trkpt lat="42.34201" lon="0.91687">
        <ele>807</ele>
        <time>2024-09-29T12:25:06.000Z</time>
      </trkpt>
      <trkpt lat="42.34214" lon="0.91672">
        <ele>807.33</ele>
        <time>2024-09-29T12:25:11.000Z</time>
      </trkpt>
      <trkpt lat="42.34226" lon="0.91658">
        <ele>807.65</ele>
        <time>2024-09-29T12:25:16.000Z</time>
      </trkpt>
      <trkpt lat="42.34238" lon="0.91641">
        <ele>807.95</ele>
        <time>2024-09-29T12:25:21.000Z</time>
      </trkpt>
      <trkpt lat="42.34251" lon="0.91624">
        <ele>808.26</ele>
        <time>2024-09-29T12:25:26.000Z</time>
      </trkpt>
      <trkpt lat="42.34262" lon="0.91608">
        <ele>808.58</ele>
        <time>2024-09-29T12:25:31.000Z</time>
      </trkpt>
      <trkpt lat="42.34274" lon="0.91591">
        <ele>808.92</ele>
        <time>2024-09-29T12:25:36.000Z</time>
      </trkpt>
      <trkpt lat="42.34285" lon="0.91575">
        <ele>809.26</ele>
        <time>2024-09-29T12:25:41.000Z</time>
      </trkpt>
      <trkpt lat="42.34296" lon="0.91557">
        <ele>809.6</ele>
        <time>2024-09-29T12:25:46.000Z</time>
      </trkpt>
      <trkpt lat="42.34305" lon="0.91539">
        <ele>809.93</ele>
        <time>2024-09-29T12:25:51.000Z</time>
      </trkpt>
      <trkpt lat="42.34316" lon="0.9152">
        <ele>811.15</ele>
        <time>2024-09-29T12:25:56.000Z</time>
      </trkpt>
      <trkpt lat="42.34327" lon="0.915">
        <ele>812.19</ele>
        <time>2024-09-29T12:26:01.000Z</time>
      </trkpt>
      <trkpt lat="42.34338" lon="0.91477">
        <ele>812.98</ele>
        <time>2024-09-29T12:26:06.000Z</time>
      </trkpt>
      <trkpt lat="42.34347" lon="0.91455">
        <ele>813.66</ele>
        <time>2024-09-29T12:26:11.000Z</time>
      </trkpt>
      <trkpt lat="42.34357" lon="0.91432">
        <ele>813.98</ele>
        <time>2024-09-29T12:26:16.000Z</time>
      </trkpt>
      <trkpt lat="42.34367" lon="0.9141">
        <ele>814.29</ele>
        <time>2024-09-29T12:26:21.000Z</time>
      </trkpt>
      <trkpt lat="42.34376" lon="0.91389">
        <ele>814.55</ele>
        <time>2024-09-29T12:26:26.000Z</time>
      </trkpt>
      <trkpt lat="42.34385" lon="0.91367">
        <ele>814.75</ele>
        <time>2024-09-29T12:26:31.000Z</time>
      </trkpt>
      <trkpt lat="42.34393" lon="0.91343">
        <ele>814.87</ele>
        <time>2024-09-29T12:26:36.000Z</time>
      </trkpt>
      <trkpt lat="42.34401" lon="0.91321">
        <ele>815.09</ele>
        <time>2024-09-29T12:26:41.000Z</time>
      </trkpt>
      <trkpt lat="42.34408" lon="0.91299">
        <ele>815.24</ele>
        <time>2024-09-29T12:26:46.000Z</time>
      </trkpt>
      <trkpt lat="42.34416" lon="0.91276">
        <ele>815.34</ele>
        <time>2024-09-29T12:26:51.000Z</time>
      </trkpt>
      <trkpt lat="42.34424" lon="0.91252">
        <ele>815.43</ele>
        <time>2024-09-29T12:26:56.000Z</time>
      </trkpt>
      <trkpt lat="42.34431" lon="0.9123">
        <ele>816.01</ele>
        <time>2024-09-29T12:27:01.000Z</time>
      </trkpt>
      <trkpt lat="42.34437" lon="0.91205">
        <ele>816.44</ele>
        <time>2024-09-29T12:27:06.000Z</time>
      </trkpt>
      <trkpt lat="42.34444" lon="0.91182">
        <ele>816.51</ele>
        <time>2024-09-29T12:27:11.000Z</time>
      </trkpt>
      <trkpt lat="42.3445" lon="0.91157">
        <ele>816.99</ele>
        <time>2024-09-29T12:27:16.000Z</time>
      </trkpt>
      <trkpt lat="42.34456" lon="0.91134">
        <ele>817.1</ele>
        <time>2024-09-29T12:27:21.000Z</time>
      </trkpt>
      <trkpt lat="42.34461" lon="0.91109">
        <ele>817.45</ele>
        <time>2024-09-29T12:27:26.000Z</time>
      </trkpt>
      <trkpt lat="42.34466" lon="0.91083">
        <ele>817.97</ele>
        <time>2024-09-29T12:27:31.000Z</time>
      </trkpt>
      <trkpt lat="42.3447" lon="0.91057">
        <ele>818.39</ele>
        <time>2024-09-29T12:27:36.000Z</time>
      </trkpt>
      <trkpt lat="42.34474" lon="0.91033">
        <ele>818.82</ele>
        <time>2024-09-29T12:27:41.000Z</time>
      </trkpt>
      <trkpt lat="42.34478" lon="0.91008">
        <ele>819.11</ele>
        <time>2024-09-29T12:27:46.000Z</time>
      </trkpt>
      <trkpt lat="42.34483" lon="0.90982">
        <ele>819.39</ele>
        <time>2024-09-29T12:27:51.000Z</time>
      </trkpt>
      <trkpt lat="42.34487" lon="0.90957">
        <ele>819.77</ele>
        <time>2024-09-29T12:27:56.000Z</time>
      </trkpt>
      <trkpt lat="42.34491" lon="0.90932">
        <ele>820.18</ele>
        <time>2024-09-29T12:28:01.000Z</time>
      </trkpt>
      <trkpt lat="42.34496" lon="0.90907">
        <ele>820.69</ele>
        <time>2024-09-29T12:28:06.000Z</time>
      </trkpt>
      <trkpt lat="42.34502" lon="0.90882">
        <ele>821.19</ele>
        <time>2024-09-29T12:28:11.000Z</time>
      </trkpt>
      <trkpt lat="42.34506" lon="0.90857">
        <ele>821.38</ele>
        <time>2024-09-29T12:28:16.000Z</time>
      </trkpt>
      <trkpt lat="42.34513" lon="0.90833">
        <ele>821.57</ele>
        <time>2024-09-29T12:28:21.000Z</time>
      </trkpt>
      <trkpt lat="42.3452" lon="0.90809">
        <ele>821.62</ele>
        <time>2024-09-29T12:28:26.000Z</time>
      </trkpt>
      <trkpt lat="42.34528" lon="0.90784">
        <ele>821.75</ele>
        <time>2024-09-29T12:28:31.000Z</time>
      </trkpt>
      <trkpt lat="42.34536" lon="0.9076">
        <ele>821.9</ele>
        <time>2024-09-29T12:28:36.000Z</time>
      </trkpt>
      <trkpt lat="42.34542" lon="0.90738">
        <ele>821.96</ele>
        <time>2024-09-29T12:28:41.000Z</time>
      </trkpt>
      <trkpt lat="42.34551" lon="0.90716">
        <ele>822.33</ele>
        <time>2024-09-29T12:28:46.000Z</time>
      </trkpt>
      <trkpt lat="42.34561" lon="0.9069">
        <ele>822.7</ele>
        <time>2024-09-29T12:28:51.000Z</time>
      </trkpt>
      <trkpt lat="42.34571" lon="0.90669">
        <ele>822.88</ele>
        <time>2024-09-29T12:28:56.000Z</time>
      </trkpt>
      <trkpt lat="42.34581" lon="0.90648">
        <ele>823.09</ele>
        <time>2024-09-29T12:29:01.000Z</time>
      </trkpt>
      <trkpt lat="42.34593" lon="0.90627">
        <ele>823.44</ele>
        <time>2024-09-29T12:29:06.000Z</time>
      </trkpt>
      <trkpt lat="42.34605" lon="0.90607">
        <ele>823.58</ele>
        <time>2024-09-29T12:29:11.000Z</time>
      </trkpt>
      <trkpt lat="42.34619" lon="0.90588">
        <ele>823.65</ele>
        <time>2024-09-29T12:29:16.000Z</time>
      </trkpt>
      <trkpt lat="42.34631" lon="0.90568">
        <ele>823.87</ele>
        <time>2024-09-29T12:29:21.000Z</time>
      </trkpt>
      <trkpt lat="42.34644" lon="0.9055">
        <ele>823.98</ele>
        <time>2024-09-29T12:29:26.000Z</time>
      </trkpt>
      <trkpt lat="42.34657" lon="0.90532">
        <ele>824.51</ele>
        <time>2024-09-29T12:29:31.000Z</time>
      </trkpt>
      <trkpt lat="42.34671" lon="0.90516">
        <ele>824.63</ele>
        <time>2024-09-29T12:29:36.000Z</time>
      </trkpt>
      <trkpt lat="42.34683" lon="0.90502">
        <ele>824.77</ele>
        <time>2024-09-29T12:29:41.000Z</time>
      </trkpt>
      <trkpt lat="42.34695" lon="0.90488">
        <ele>824.93</ele>
        <time>2024-09-29T12:29:46.000Z</time>
      </trkpt>
      <trkpt lat="42.34707" lon="0.90474">
        <ele>825.11</ele>
        <time>2024-09-29T12:29:51.000Z</time>
      </trkpt>
      <trkpt lat="42.3472" lon="0.9046">
        <ele>825.3</ele>
        <time>2024-09-29T12:29:56.000Z</time>
      </trkpt>
      <trkpt lat="42.34733" lon="0.90446">
        <ele>825.51</ele>
        <time>2024-09-29T12:30:01.000Z</time>
      </trkpt>
      <trkpt lat="42.34745" lon="0.90433">
        <ele>825.73</ele>
        <time>2024-09-29T12:30:06.000Z</time>
      </trkpt>
      <trkpt lat="42.34757" lon="0.90419">
        <ele>825.97</ele>
        <time>2024-09-29T12:30:11.000Z</time>
      </trkpt>
      <trkpt lat="42.3477" lon="0.90407">
        <ele>826.22</ele>
        <time>2024-09-29T12:30:16.000Z</time>
      </trkpt>
      <trkpt lat="42.34782" lon="0.90395">
        <ele>826.47</ele>
        <time>2024-09-29T12:30:21.000Z</time>
      </trkpt>
      <trkpt lat="42.34794" lon="0.90382">
        <ele>826.73</ele>
        <time>2024-09-29T12:30:26.000Z</time>
      </trkpt>
      <trkpt lat="42.34805" lon="0.9037">
        <ele>827</ele>
        <time>2024-09-29T12:30:31.000Z</time>
      </trkpt>
      <trkpt lat="42.34817" lon="0.90358">
        <ele>827.28</ele>
        <time>2024-09-29T12:30:36.000Z</time>
      </trkpt>
      <trkpt lat="42.34828" lon="0.90345">
        <ele>827.57</ele>
        <time>2024-09-29T12:30:41.000Z</time>
      </trkpt>
      <trkpt lat="42.34838" lon="0.90333">
        <ele>827.86</ele>
        <time>2024-09-29T12:30:46.000Z</time>
      </trkpt>
      <trkpt lat="42.34848" lon="0.90322">
        <ele>828.16</ele>
        <time>2024-09-29T12:30:51.000Z</time>
      </trkpt>
      <trkpt lat="42.34858" lon="0.90312">
        <ele>828.47</ele>
        <time>2024-09-29T12:30:56.000Z</time>
      </trkpt>
      <trkpt lat="42.34867" lon="0.90301">
        <ele>828.78</ele>
        <time>2024-09-29T12:31:01.000Z</time>
      </trkpt>
      <trkpt lat="42.34877" lon="0.90291">
        <ele>829.12</ele>
        <time>2024-09-29T12:31:06.000Z</time>
      </trkpt>
      <trkpt lat="42.34887" lon="0.90281">
        <ele>829.49</ele>
        <time>2024-09-29T12:31:11.000Z</time>
      </trkpt>
      <trkpt lat="42.34897" lon="0.9027">
        <ele>829.89</ele>
        <time>2024-09-29T12:31:16.000Z</time>
      </trkpt>
      <trkpt lat="42.34907" lon="0.9026">
        <ele>830.3</ele>
        <time>2024-09-29T12:31:21.000Z</time>
      </trkpt>
      <trkpt lat="42.34917" lon="0.9025">
        <ele>830.74</ele>
        <time>2024-09-29T12:31:26.000Z</time>
      </trkpt>
      <trkpt lat="42.34927" lon="0.9024">
        <ele>831.21</ele>
        <time>2024-09-29T12:31:31.000Z</time>
      </trkpt>
      <trkpt lat="42.34936" lon="0.9023">
        <ele>831.72</ele>
        <time>2024-09-29T12:31:36.000Z</time>
      </trkpt>
      <trkpt lat="42.34946" lon="0.90219">
        <ele>832.23</ele>
        <time>2024-09-29T12:31:41.000Z</time>
      </trkpt>
      <trkpt lat="42.34956" lon="0.9021">
        <ele>832.77</ele>
        <time>2024-09-29T12:31:46.000Z</time>
      </trkpt>
      <trkpt lat="42.34966" lon="0.902">
        <ele>833.32</ele>
        <time>2024-09-29T12:31:51.000Z</time>
      </trkpt>
      <trkpt lat="42.34976" lon="0.90191">
        <ele>833.88</ele>
        <time>2024-09-29T12:31:56.000Z</time>
      </trkpt>
      <trkpt lat="42.34986" lon="0.90181">
        <ele>834.45</ele>
        <time>2024-09-29T12:32:01.000Z</time>
      </trkpt>
      <trkpt lat="42.34996" lon="0.90172">
        <ele>835.03</ele>
        <time>2024-09-29T12:32:06.000Z</time>
      </trkpt>
      <trkpt lat="42.35006" lon="0.90164">
        <ele>835.61</ele>
        <time>2024-09-29T12:32:11.000Z</time>
      </trkpt>
      <trkpt lat="42.35016" lon="0.90158">
        <ele>836.22</ele>
        <time>2024-09-29T12:32:16.000Z</time>
      </trkpt>
      <trkpt lat="42.35028" lon="0.9015">
        <ele>836.84</ele>
        <time>2024-09-29T12:32:21.000Z</time>
      </trkpt>
      <trkpt lat="42.3504" lon="0.90141">
        <ele>837.43</ele>
        <time>2024-09-29T12:32:26.000Z</time>
      </trkpt>
      <trkpt lat="42.35051" lon="0.90131">
        <ele>838.01</ele>
        <time>2024-09-29T12:32:31.000Z</time>
      </trkpt>
      <trkpt lat="42.35062" lon="0.90122">
        <ele>838.61</ele>
        <time>2024-09-29T12:32:36.000Z</time>
      </trkpt>
      <trkpt lat="42.35072" lon="0.90114">
        <ele>839.36</ele>
        <time>2024-09-29T12:32:41.000Z</time>
      </trkpt>
      <trkpt lat="42.35082" lon="0.90106">
        <ele>840.14</ele>
        <time>2024-09-29T12:32:46.000Z</time>
      </trkpt>
      <trkpt lat="42.35093" lon="0.90099">
        <ele>840.98</ele>
        <time>2024-09-29T12:32:51.000Z</time>
      </trkpt>
      <trkpt lat="42.35105" lon="0.9009">
        <ele>841.89</ele>
        <time>2024-09-29T12:32:56.000Z</time>
      </trkpt>
      <trkpt lat="42.35117" lon="0.90081">
        <ele>842.72</ele>
        <time>2024-09-29T12:33:01.000Z</time>
      </trkpt>
      <trkpt lat="42.35128" lon="0.90072">
        <ele>843.62</ele>
        <time>2024-09-29T12:33:06.000Z</time>
      </trkpt>
      <trkpt lat="42.35139" lon="0.90065">
        <ele>844.51</ele>
        <time>2024-09-29T12:33:11.000Z</time>
      </trkpt>
      <trkpt lat="42.35151" lon="0.90056">
        <ele>845.42</ele>
        <time>2024-09-29T12:33:16.000Z</time>
      </trkpt>
      <trkpt lat="42.35162" lon="0.90049">
        <ele>846.38</ele>
        <time>2024-09-29T12:33:21.000Z</time>
      </trkpt>
      <trkpt lat="42.35174" lon="0.90041">
        <ele>847.33</ele>
        <time>2024-09-29T12:33:26.000Z</time>
      </trkpt>
      <trkpt lat="42.35184" lon="0.90033">
        <ele>848.29</ele>
        <time>2024-09-29T12:33:31.000Z</time>
      </trkpt>
      <trkpt lat="42.35196" lon="0.90024">
        <ele>849.25</ele>
        <time>2024-09-29T12:33:36.000Z</time>
      </trkpt>
      <trkpt lat="42.35208" lon="0.90015">
        <ele>850.22</ele>
        <time>2024-09-29T12:33:41.000Z</time>
      </trkpt>
      <trkpt lat="42.35219" lon="0.90007">
        <ele>851.25</ele>
        <time>2024-09-29T12:33:46.000Z</time>
      </trkpt>
      <trkpt lat="42.35229" lon="0.89998">
        <ele>852.24</ele>
        <time>2024-09-29T12:33:51.000Z</time>
      </trkpt>
      <trkpt lat="42.35239" lon="0.8999">
        <ele>853.19</ele>
        <time>2024-09-29T12:33:56.000Z</time>
      </trkpt>
      <trkpt lat="42.35252" lon="0.89978">
        <ele>854.12</ele>
        <time>2024-09-29T12:34:01.000Z</time>
      </trkpt>
      <trkpt lat="42.35263" lon="0.89966">
        <ele>855.09</ele>
        <time>2024-09-29T12:34:06.000Z</time>
      </trkpt>
      <trkpt lat="42.35274" lon="0.89955">
        <ele>856.13</ele>
        <time>2024-09-29T12:34:11.000Z</time>
      </trkpt>
      <trkpt lat="42.35284" lon="0.89946">
        <ele>857.21</ele>
        <time>2024-09-29T12:34:16.000Z</time>
      </trkpt>
      <trkpt lat="42.35293" lon="0.89936">
        <ele>858.27</ele>
        <time>2024-09-29T12:34:21.000Z</time>
      </trkpt>
      <trkpt lat="42.35303" lon="0.89926">
        <ele>859.28</ele>
        <time>2024-09-29T12:34:26.000Z</time>
      </trkpt>
      <trkpt lat="42.35312" lon="0.89914">
        <ele>860.25</ele>
        <time>2024-09-29T12:34:31.000Z</time>
      </trkpt>
      <trkpt lat="42.35322" lon="0.89902">
        <ele>861.19</ele>
        <time>2024-09-29T12:34:36.000Z</time>
      </trkpt>
      <trkpt lat="42.35331" lon="0.89891">
        <ele>862.11</ele>
        <time>2024-09-29T12:34:41.000Z</time>
      </trkpt>
      <trkpt lat="42.35341" lon="0.89879">
        <ele>862.99</ele>
        <time>2024-09-29T12:34:46.000Z</time>
      </trkpt>
      <trkpt lat="42.35351" lon="0.89867">
        <ele>863.83</ele>
        <time>2024-09-29T12:34:51.000Z</time>
      </trkpt>
      <trkpt lat="42.35361" lon="0.89855">
        <ele>864.64</ele>
        <time>2024-09-29T12:34:56.000Z</time>
      </trkpt>
      <trkpt lat="42.3537" lon="0.89844">
        <ele>865.43</ele>
        <time>2024-09-29T12:35:01.000Z</time>
      </trkpt>
      <trkpt lat="42.3538" lon="0.89832">
        <ele>866.18</ele>
        <time>2024-09-29T12:35:06.000Z</time>
      </trkpt>
      <trkpt lat="42.35389" lon="0.89822">
        <ele>866.89</ele>
        <time>2024-09-29T12:35:11.000Z</time>
      </trkpt>
      <trkpt lat="42.354" lon="0.8981">
        <ele>867.58</ele>
        <time>2024-09-29T12:35:16.000Z</time>
      </trkpt>
      <trkpt lat="42.35409" lon="0.89798">
        <ele>868.26</ele>
        <time>2024-09-29T12:35:21.000Z</time>
      </trkpt>
      <trkpt lat="42.35419" lon="0.89784">
        <ele>869.01</ele>
        <time>2024-09-29T12:35:26.000Z</time>
      </trkpt>
      <trkpt lat="42.35429" lon="0.89772">
        <ele>869.79</ele>
        <time>2024-09-29T12:35:31.000Z</time>
      </trkpt>
      <trkpt lat="42.35437" lon="0.89761">
        <ele>870.6</ele>
        <time>2024-09-29T12:35:36.000Z</time>
      </trkpt>
      <trkpt lat="42.35446" lon="0.8975">
        <ele>871.41</ele>
        <time>2024-09-29T12:35:41.000Z</time>
      </trkpt>
      <trkpt lat="42.35456" lon="0.89738">
        <ele>872.22</ele>
        <time>2024-09-29T12:35:46.000Z</time>
      </trkpt>
      <trkpt lat="42.35466" lon="0.89725">
        <ele>873.02</ele>
        <time>2024-09-29T12:35:51.000Z</time>
      </trkpt>
      <trkpt lat="42.35476" lon="0.89716">
        <ele>873.92</ele>
        <time>2024-09-29T12:35:56.000Z</time>
      </trkpt>
      <trkpt lat="42.35486" lon="0.89704">
        <ele>874.79</ele>
        <time>2024-09-29T12:36:01.000Z</time>
      </trkpt>
      <trkpt lat="42.35495" lon="0.89693">
        <ele>875.65</ele>
        <time>2024-09-29T12:36:06.000Z</time>
      </trkpt>
      <trkpt lat="42.35505" lon="0.89681">
        <ele>876.53</ele>
        <time>2024-09-29T12:36:11.000Z</time>
      </trkpt>
      <trkpt lat="42.35515" lon="0.89669">
        <ele>877.42</ele>
        <time>2024-09-29T12:36:16.000Z</time>
      </trkpt>
      <trkpt lat="42.35526" lon="0.89655">
        <ele>878.44</ele>
        <time>2024-09-29T12:36:21.999Z</time>
      </trkpt>
      <trkpt lat="42.35535" lon="0.89643">
        <ele>879.28</ele>
        <time>2024-09-29T12:36:26.999Z</time>
      </trkpt>
      <trkpt lat="42.35545" lon="0.89632">
        <ele>880.07</ele>
        <time>2024-09-29T12:36:31.999Z</time>
      </trkpt>
      <trkpt lat="42.35554" lon="0.89619">
        <ele>880.85</ele>
        <time>2024-09-29T12:36:36.999Z</time>
      </trkpt>
      <trkpt lat="42.35562" lon="0.89607">
        <ele>881.59</ele>
        <time>2024-09-29T12:36:41.999Z</time>
      </trkpt>
      <trkpt lat="42.3557" lon="0.89595">
        <ele>882.29</ele>
        <time>2024-09-29T12:36:46.999Z</time>
      </trkpt>
      <trkpt lat="42.35577" lon="0.89583">
        <ele>882.94</ele>
        <time>2024-09-29T12:36:51.999Z</time>
      </trkpt>
      <trkpt lat="42.35584" lon="0.89573">
        <ele>883.56</ele>
        <time>2024-09-29T12:36:56.999Z</time>
      </trkpt>
      <trkpt lat="42.35589" lon="0.89561">
        <ele>886.45</ele>
        <time>2024-09-29T12:38:40.999Z</time>
      </trkpt>
      <trkpt lat="42.35596" lon="0.89548">
        <ele>886.76</ele>
        <time>2024-09-29T12:38:45.999Z</time>
      </trkpt>
      <trkpt lat="42.35602" lon="0.89535">
        <ele>887.04</ele>
        <time>2024-09-29T12:38:50.999Z</time>
      </trkpt>
      <trkpt lat="42.35609" lon="0.8952">
        <ele>887.3</ele>
        <time>2024-09-29T12:38:55.999Z</time>
      </trkpt>
      <trkpt lat="42.35615" lon="0.89505">
        <ele>887.55</ele>
        <time>2024-09-29T12:39:00.999Z</time>
      </trkpt>
      <trkpt lat="42.35621" lon="0.8949">
        <ele>887.78</ele>
        <time>2024-09-29T12:39:05.999Z</time>
      </trkpt>
      <trkpt lat="42.35626" lon="0.89476">
        <ele>888</ele>
        <time>2024-09-29T12:39:10.999Z</time>
      </trkpt>
      <trkpt lat="42.3563" lon="0.89461">
        <ele>888.2</ele>
        <time>2024-09-29T12:39:15.999Z</time>
      </trkpt>
      <trkpt lat="42.35634" lon="0.89446">
        <ele>888.39</ele>
        <time>2024-09-29T12:39:20.999Z</time>
      </trkpt>
      <trkpt lat="42.35638" lon="0.89432">
        <ele>888.57</ele>
        <time>2024-09-29T12:39:25.999Z</time>
      </trkpt>
      <trkpt lat="42.35643" lon="0.89419">
        <ele>888.74</ele>
        <time>2024-09-29T12:39:30.999Z</time>
      </trkpt>
      <trkpt lat="42.35646" lon="0.89405">
        <ele>888.91</ele>
        <time>2024-09-29T12:39:35.999Z</time>
      </trkpt>
      <trkpt lat="42.3565" lon="0.89391">
        <ele>889.07</ele>
        <time>2024-09-29T12:39:40.999Z</time>
      </trkpt>
      <trkpt lat="42.35655" lon="0.89378">
        <ele>889.24</ele>
        <time>2024-09-29T12:39:45.999Z</time>
      </trkpt>
      <trkpt lat="42.3566" lon="0.89364">
        <ele>889.4</ele>
        <time>2024-09-29T12:39:50.999Z</time>
      </trkpt>
      <trkpt lat="42.35665" lon="0.89352">
        <ele>889.56</ele>
        <time>2024-09-29T12:39:55.999Z</time>
      </trkpt>
      <trkpt lat="42.35671" lon="0.89339">
        <ele>889.72</ele>
        <time>2024-09-29T12:40:00.999Z</time>
      </trkpt>
      <trkpt lat="42.35677" lon="0.89326">
        <ele>889.88</ele>
        <time>2024-09-29T12:40:05.999Z</time>
      </trkpt>
      <trkpt lat="42.35683" lon="0.89314">
        <ele>890.04</ele>
        <time>2024-09-29T12:40:10.999Z</time>
      </trkpt>
      <trkpt lat="42.3569" lon="0.89301">
        <ele>890.2</ele>
        <time>2024-09-29T12:40:15.999Z</time>
      </trkpt>
      <trkpt lat="42.35697" lon="0.8929">
        <ele>890.36</ele>
        <time>2024-09-29T12:40:20.999Z</time>
      </trkpt>
      <trkpt lat="42.35704" lon="0.89279">
        <ele>890.54</ele>
        <time>2024-09-29T12:40:25.999Z</time>
      </trkpt>
      <trkpt lat="42.35712" lon="0.89269">
        <ele>890.76</ele>
        <time>2024-09-29T12:40:30.999Z</time>
      </trkpt>
      <trkpt lat="42.3572" lon="0.89258">
        <ele>891.01</ele>
        <time>2024-09-29T12:40:35.999Z</time>
      </trkpt>
      <trkpt lat="42.35729" lon="0.89249">
        <ele>891.28</ele>
        <time>2024-09-29T12:40:40.999Z</time>
      </trkpt>
      <trkpt lat="42.35737" lon="0.8924">
        <ele>891.58</ele>
        <time>2024-09-29T12:40:45.999Z</time>
      </trkpt>
      <trkpt lat="42.35746" lon="0.89231">
        <ele>891.9</ele>
        <time>2024-09-29T12:40:50.999Z</time>
      </trkpt>
      <trkpt lat="42.35754" lon="0.89222">
        <ele>892.23</ele>
        <time>2024-09-29T12:40:55.999Z</time>
      </trkpt>
      <trkpt lat="42.35763" lon="0.89213">
        <ele>892.58</ele>
        <time>2024-09-29T12:41:00.999Z</time>
      </trkpt>
      <trkpt lat="42.35772" lon="0.89205">
        <ele>893.01</ele>
        <time>2024-09-29T12:41:06.999Z</time>
      </trkpt>
      <trkpt lat="42.3578" lon="0.89197">
        <ele>893.38</ele>
        <time>2024-09-29T12:41:11.999Z</time>
      </trkpt>
      <trkpt lat="42.35788" lon="0.89189">
        <ele>893.78</ele>
        <time>2024-09-29T12:41:16.999Z</time>
      </trkpt>
      <trkpt lat="42.35796" lon="0.89181">
        <ele>894.18</ele>
        <time>2024-09-29T12:41:21.999Z</time>
      </trkpt>
      <trkpt lat="42.35804" lon="0.89174">
        <ele>894.59</ele>
        <time>2024-09-29T12:41:26.999Z</time>
      </trkpt>
      <trkpt lat="42.35812" lon="0.89166">
        <ele>895.06</ele>
        <time>2024-09-29T12:41:32.999Z</time>
      </trkpt>
      <trkpt lat="42.3582" lon="0.89155">
        <ele>895.42</ele>
        <time>2024-09-29T12:41:37.999Z</time>
      </trkpt>
      <trkpt lat="42.35828" lon="0.89145">
        <ele>895.76</ele>
        <time>2024-09-29T12:41:42.999Z</time>
      </trkpt>
      <trkpt lat="42.35835" lon="0.89135">
        <ele>896.09</ele>
        <time>2024-09-29T12:41:47.999Z</time>
      </trkpt>
      <trkpt lat="42.35843" lon="0.89126">
        <ele>896.41</ele>
        <time>2024-09-29T12:41:52.999Z</time>
      </trkpt>
      <trkpt lat="42.3585" lon="0.89118">
        <ele>896.7</ele>
        <time>2024-09-29T12:41:57.999Z</time>
      </trkpt>
      <trkpt lat="42.35856" lon="0.89109">
        <ele>896.98</ele>
        <time>2024-09-29T12:42:02.999Z</time>
      </trkpt>
      <trkpt lat="42.35863" lon="0.89099">
        <ele>897.24</ele>
        <time>2024-09-29T12:42:07.999Z</time>
      </trkpt>
      <trkpt lat="42.3587" lon="0.89088">
        <ele>897.48</ele>
        <time>2024-09-29T12:42:12.999Z</time>
      </trkpt>
      <trkpt lat="42.35877" lon="0.89078">
        <ele>897.71</ele>
        <time>2024-09-29T12:42:17.999Z</time>
      </trkpt>
      <trkpt lat="42.35884" lon="0.89066">
        <ele>897.95</ele>
        <time>2024-09-29T12:42:22.999Z</time>
      </trkpt>
      <trkpt lat="42.35891" lon="0.89054">
        <ele>898.2</ele>
        <time>2024-09-29T12:42:27.999Z</time>
      </trkpt>
      <trkpt lat="42.35897" lon="0.89041">
        <ele>898.49</ele>
        <time>2024-09-29T12:42:32.999Z</time>
      </trkpt>
      <trkpt lat="42.35903" lon="0.89026">
        <ele>898.79</ele>
        <time>2024-09-29T12:42:37.999Z</time>
      </trkpt>
      <trkpt lat="42.35908" lon="0.89011">
        <ele>899.11</ele>
        <time>2024-09-29T12:42:42.999Z</time>
      </trkpt>
      <trkpt lat="42.35914" lon="0.88997">
        <ele>899.46</ele>
        <time>2024-09-29T12:42:47.999Z</time>
      </trkpt>
      <trkpt lat="42.35919" lon="0.88981">
        <ele>899.82</ele>
        <time>2024-09-29T12:42:52.999Z</time>
      </trkpt>
      <trkpt lat="42.35925" lon="0.88964">
        <ele>900.2</ele>
        <time>2024-09-29T12:42:57.999Z</time>
      </trkpt>
      <trkpt lat="42.3593" lon="0.88947">
        <ele>900.59</ele>
        <time>2024-09-29T12:43:02.999Z</time>
      </trkpt>
      <trkpt lat="42.35934" lon="0.88932">
        <ele>901</ele>
        <time>2024-09-29T12:43:07.999Z</time>
      </trkpt>
      <trkpt lat="42.35939" lon="0.88914">
        <ele>901.41</ele>
        <time>2024-09-29T12:43:12.999Z</time>
      </trkpt>
      <trkpt lat="42.35943" lon="0.88895">
        <ele>901.84</ele>
        <time>2024-09-29T12:43:17.999Z</time>
      </trkpt>
      <trkpt lat="42.35947" lon="0.88876">
        <ele>902.27</ele>
        <time>2024-09-29T12:43:22.999Z</time>
      </trkpt>
      <trkpt lat="42.35949" lon="0.88856">
        <ele>902.71</ele>
        <time>2024-09-29T12:43:27.999Z</time>
      </trkpt>
      <trkpt lat="42.35952" lon="0.88834">
        <ele>903.17</ele>
        <time>2024-09-29T12:43:32.999Z</time>
      </trkpt>
      <trkpt lat="42.35955" lon="0.88802">
        <ele>903.87</ele>
        <time>2024-09-29T12:43:38.999Z</time>
      </trkpt>
      <trkpt lat="42.35955" lon="0.88778">
        <ele>904.77</ele>
        <time>2024-09-29T12:43:43.999Z</time>
      </trkpt>
      <trkpt lat="42.35954" lon="0.88755">
        <ele>905.79</ele>
        <time>2024-09-29T12:43:48.999Z</time>
      </trkpt>
      <trkpt lat="42.35952" lon="0.88733">
        <ele>906.89</ele>
        <time>2024-09-29T12:43:53.999Z</time>
      </trkpt>
      <trkpt lat="42.3595" lon="0.8871">
        <ele>908.04</ele>
        <time>2024-09-29T12:43:58.999Z</time>
      </trkpt>
      <trkpt lat="42.35947" lon="0.88688">
        <ele>909.21</ele>
        <time>2024-09-29T12:44:03.999Z</time>
      </trkpt>
      <trkpt lat="42.35944" lon="0.88665">
        <ele>910.39</ele>
        <time>2024-09-29T12:44:08.999Z</time>
      </trkpt>
      <trkpt lat="42.3594" lon="0.88643">
        <ele>911.57</ele>
        <time>2024-09-29T12:44:13.999Z</time>
      </trkpt>
      <trkpt lat="42.35934" lon="0.88622">
        <ele>912.73</ele>
        <time>2024-09-29T12:44:18.999Z</time>
      </trkpt>
      <trkpt lat="42.35929" lon="0.886">
        <ele>913.85</ele>
        <time>2024-09-29T12:44:23.999Z</time>
      </trkpt>
      <trkpt lat="42.35923" lon="0.88579">
        <ele>914.93</ele>
        <time>2024-09-29T12:44:28.999Z</time>
      </trkpt>
      <trkpt lat="42.35915" lon="0.88557">
        <ele>915.99</ele>
        <time>2024-09-29T12:44:33.999Z</time>
      </trkpt>
      <trkpt lat="42.35908" lon="0.88536">
        <ele>917.03</ele>
        <time>2024-09-29T12:44:38.999Z</time>
      </trkpt>
      <trkpt lat="42.35901" lon="0.88514">
        <ele>918.06</ele>
        <time>2024-09-29T12:44:43.999Z</time>
      </trkpt>
      <trkpt lat="42.35895" lon="0.88492">
        <ele>919.07</ele>
        <time>2024-09-29T12:44:48.999Z</time>
      </trkpt>
      <trkpt lat="42.35889" lon="0.88471">
        <ele>920.06</ele>
        <time>2024-09-29T12:44:53.999Z</time>
      </trkpt>
      <trkpt lat="42.35883" lon="0.8845">
        <ele>921.03</ele>
        <time>2024-09-29T12:44:58.999Z</time>
      </trkpt>
      <trkpt lat="42.35877" lon="0.88427">
        <ele>921.97</ele>
        <time>2024-09-29T12:45:03.999Z</time>
      </trkpt>
      <trkpt lat="42.35871" lon="0.88406">
        <ele>922.88</ele>
        <time>2024-09-29T12:45:08.999Z</time>
      </trkpt>
      <trkpt lat="42.35865" lon="0.88386">
        <ele>923.78</ele>
        <time>2024-09-29T12:45:13.999Z</time>
      </trkpt>
      <trkpt lat="42.35858" lon="0.88364">
        <ele>924.65</ele>
        <time>2024-09-29T12:45:18.999Z</time>
      </trkpt>
      <trkpt lat="42.35852" lon="0.88344">
        <ele>925.51</ele>
        <time>2024-09-29T12:45:23.999Z</time>
      </trkpt>
      <trkpt lat="42.3585" lon="0.88332">
        <ele>926.34</ele>
        <time>2024-09-29T12:45:28.999Z</time>
      </trkpt>
      <trkpt lat="42.35823" lon="0.88247">
        <ele>932.76</ele>
        <time>2024-09-29T12:45:54.999Z</time>
      </trkpt>
      <trkpt lat="42.35821" lon="0.88223">
        <ele>934.09</ele>
        <time>2024-09-29T12:45:59.999Z</time>
      </trkpt>
      <trkpt lat="42.35816" lon="0.88207">
        <ele>934.27</ele>
        <time>2024-09-29T12:46:04.999Z</time>
      </trkpt>
      <trkpt lat="42.35816" lon="0.88192">
        <ele>934.67</ele>
        <time>2024-09-29T12:46:09.999Z</time>
      </trkpt>
      <trkpt lat="42.35816" lon="0.88178">
        <ele>935.18</ele>
        <time>2024-09-29T12:46:14.999Z</time>
      </trkpt>
      <trkpt lat="42.35816" lon="0.88164">
        <ele>935.76</ele>
        <time>2024-09-29T12:46:19.999Z</time>
      </trkpt>
      <trkpt lat="42.35815" lon="0.8815">
        <ele>936.37</ele>
        <time>2024-09-29T12:46:24.999Z</time>
      </trkpt>
      <trkpt lat="42.35814" lon="0.88136">
        <ele>937.03</ele>
        <time>2024-09-29T12:46:29.999Z</time>
      </trkpt>
      <trkpt lat="42.35815" lon="0.88121">
        <ele>937.67</ele>
        <time>2024-09-29T12:46:34.999Z</time>
      </trkpt>
      <trkpt lat="42.35816" lon="0.88107">
        <ele>938.28</ele>
        <time>2024-09-29T12:46:39.999Z</time>
      </trkpt>
      <trkpt lat="42.35816" lon="0.88093">
        <ele>938.83</ele>
        <time>2024-09-29T12:46:44.999Z</time>
      </trkpt>
      <trkpt lat="42.35818" lon="0.88078">
        <ele>939.35</ele>
        <time>2024-09-29T12:46:49.999Z</time>
      </trkpt>
      <trkpt lat="42.35818" lon="0.88063">
        <ele>939.86</ele>
        <time>2024-09-29T12:46:54.999Z</time>
      </trkpt>
      <trkpt lat="42.35821" lon="0.88048">
        <ele>940.36</ele>
        <time>2024-09-29T12:46:59.999Z</time>
      </trkpt>
      <trkpt lat="42.35823" lon="0.88034">
        <ele>940.84</ele>
        <time>2024-09-29T12:47:04.999Z</time>
      </trkpt>
      <trkpt lat="42.35826" lon="0.88019">
        <ele>941.33</ele>
        <time>2024-09-29T12:47:09.999Z</time>
      </trkpt>
      <trkpt lat="42.3583" lon="0.88004">
        <ele>941.83</ele>
        <time>2024-09-29T12:47:14.999Z</time>
      </trkpt>
      <trkpt lat="42.35834" lon="0.8799">
        <ele>942.34</ele>
        <time>2024-09-29T12:47:19.999Z</time>
      </trkpt>
      <trkpt lat="42.35837" lon="0.87976">
        <ele>942.84</ele>
        <time>2024-09-29T12:47:24.999Z</time>
      </trkpt>
      <trkpt lat="42.35842" lon="0.87962">
        <ele>943.36</ele>
        <time>2024-09-29T12:47:29.999Z</time>
      </trkpt>
      <trkpt lat="42.35846" lon="0.87947">
        <ele>943.87</ele>
        <time>2024-09-29T12:47:34.999Z</time>
      </trkpt>
      <trkpt lat="42.35849" lon="0.87932">
        <ele>944.38</ele>
        <time>2024-09-29T12:47:39.999Z</time>
      </trkpt>
      <trkpt lat="42.35853" lon="0.87918">
        <ele>944.89</ele>
        <time>2024-09-29T12:47:44.999Z</time>
      </trkpt>
      <trkpt lat="42.35858" lon="0.87905">
        <ele>945.38</ele>
        <time>2024-09-29T12:47:49.999Z</time>
      </trkpt>
      <trkpt lat="42.35864" lon="0.87892">
        <ele>945.88</ele>
        <time>2024-09-29T12:47:54.999Z</time>
      </trkpt>
      <trkpt lat="42.35868" lon="0.87879">
        <ele>946.38</ele>
        <time>2024-09-29T12:47:59.999Z</time>
      </trkpt>
      <trkpt lat="42.35873" lon="0.87868">
        <ele>946.88</ele>
        <time>2024-09-29T12:48:04.999Z</time>
      </trkpt>
      <trkpt lat="42.35878" lon="0.87856">
        <ele>947.39</ele>
        <time>2024-09-29T12:48:10.000Z</time>
      </trkpt>
      <trkpt lat="42.35883" lon="0.87845">
        <ele>947.92</ele>
        <time>2024-09-29T12:48:15.000Z</time>
      </trkpt>
      <trkpt lat="42.35888" lon="0.87833">
        <ele>948.46</ele>
        <time>2024-09-29T12:48:20.000Z</time>
      </trkpt>
      <trkpt lat="42.35892" lon="0.87821">
        <ele>949.01</ele>
        <time>2024-09-29T12:48:25.000Z</time>
      </trkpt>
      <trkpt lat="42.35898" lon="0.87811">
        <ele>949.56</ele>
        <time>2024-09-29T12:48:30.000Z</time>
      </trkpt>
      <trkpt lat="42.35903" lon="0.878">
        <ele>950.15</ele>
        <time>2024-09-29T12:48:35.000Z</time>
      </trkpt>
      <trkpt lat="42.35908" lon="0.87788">
        <ele>950.76</ele>
        <time>2024-09-29T12:48:40.000Z</time>
      </trkpt>
      <trkpt lat="42.35914" lon="0.87777">
        <ele>951.37</ele>
        <time>2024-09-29T12:48:45.000Z</time>
      </trkpt>
      <trkpt lat="42.35919" lon="0.87765">
        <ele>951.95</ele>
        <time>2024-09-29T12:48:50.000Z</time>
      </trkpt>
      <trkpt lat="42.35923" lon="0.87752">
        <ele>952.53</ele>
        <time>2024-09-29T12:48:55.000Z</time>
      </trkpt>
      <trkpt lat="42.35927" lon="0.8774">
        <ele>953.13</ele>
        <time>2024-09-29T12:49:00.000Z</time>
      </trkpt>
      <trkpt lat="42.35932" lon="0.87728">
        <ele>953.72</ele>
        <time>2024-09-29T12:49:05.000Z</time>
      </trkpt>
      <trkpt lat="42.35937" lon="0.87716">
        <ele>954.3</ele>
        <time>2024-09-29T12:49:10.000Z</time>
      </trkpt>
      <trkpt lat="42.35941" lon="0.87704">
        <ele>954.88</ele>
        <time>2024-09-29T12:49:15.000Z</time>
      </trkpt>
      <trkpt lat="42.35945" lon="0.8769">
        <ele>955.44</ele>
        <time>2024-09-29T12:49:20.000Z</time>
      </trkpt>
      <trkpt lat="42.35948" lon="0.87677">
        <ele>956</ele>
        <time>2024-09-29T12:49:25.000Z</time>
      </trkpt>
      <trkpt lat="42.35952" lon="0.87664">
        <ele>956.52</ele>
        <time>2024-09-29T12:49:30.000Z</time>
      </trkpt>
      <trkpt lat="42.35956" lon="0.87651">
        <ele>957.04</ele>
        <time>2024-09-29T12:49:35.000Z</time>
      </trkpt>
      <trkpt lat="42.35959" lon="0.87638">
        <ele>957.54</ele>
        <time>2024-09-29T12:49:40.000Z</time>
      </trkpt>
      <trkpt lat="42.35962" lon="0.87624">
        <ele>958.02</ele>
        <time>2024-09-29T12:49:45.000Z</time>
      </trkpt>
      <trkpt lat="42.35965" lon="0.87612">
        <ele>958.49</ele>
        <time>2024-09-29T12:49:50.000Z</time>
      </trkpt>
      <trkpt lat="42.35968" lon="0.87599">
        <ele>958.95</ele>
        <time>2024-09-29T12:49:55.000Z</time>
      </trkpt>
      <trkpt lat="42.35971" lon="0.87586">
        <ele>959.4</ele>
        <time>2024-09-29T12:50:00.000Z</time>
      </trkpt>
      <trkpt lat="42.35974" lon="0.87573">
        <ele>959.84</ele>
        <time>2024-09-29T12:50:05.000Z</time>
      </trkpt>
      <trkpt lat="42.35977" lon="0.8756">
        <ele>960.27</ele>
        <time>2024-09-29T12:50:10.000Z</time>
      </trkpt>
      <trkpt lat="42.35981" lon="0.87547">
        <ele>960.69</ele>
        <time>2024-09-29T12:50:15.000Z</time>
      </trkpt>
      <trkpt lat="42.35985" lon="0.87531">
        <ele>961.09</ele>
        <time>2024-09-29T12:50:20.000Z</time>
      </trkpt>
      <trkpt lat="42.36029" lon="0.87429">
        <ele>963.47</ele>
        <time>2024-09-29T12:51:05.000Z</time>
      </trkpt>
      <trkpt lat="42.36032" lon="0.87417">
        <ele>964.19</ele>
        <time>2024-09-29T12:51:11.000Z</time>
      </trkpt>
      <trkpt lat="42.36038" lon="0.87405">
        <ele>964.45</ele>
        <time>2024-09-29T12:51:16.000Z</time>
      </trkpt>
      <trkpt lat="42.36044" lon="0.87394">
        <ele>964.84</ele>
        <time>2024-09-29T12:51:22.000Z</time>
      </trkpt>
      <trkpt lat="42.36053" lon="0.87377">
        <ele>965.22</ele>
        <time>2024-09-29T12:51:27.000Z</time>
      </trkpt>
      <trkpt lat="42.36059" lon="0.87366">
        <ele>965.63</ele>
        <time>2024-09-29T12:51:32.000Z</time>
      </trkpt>
      <trkpt lat="42.36065" lon="0.87355">
        <ele>966.04</ele>
        <time>2024-09-29T12:51:37.000Z</time>
      </trkpt>
      <trkpt lat="42.36071" lon="0.87345">
        <ele>966.43</ele>
        <time>2024-09-29T12:51:42.000Z</time>
      </trkpt>
      <trkpt lat="42.36077" lon="0.87335">
        <ele>966.81</ele>
        <time>2024-09-29T12:51:47.000Z</time>
      </trkpt>
      <trkpt lat="42.36082" lon="0.87323">
        <ele>967.16</ele>
        <time>2024-09-29T12:51:52.000Z</time>
      </trkpt>
      <trkpt lat="42.36089" lon="0.87314">
        <ele>967.49</ele>
        <time>2024-09-29T12:51:57.000Z</time>
      </trkpt>
      <trkpt lat="42.36096" lon="0.87305">
        <ele>967.81</ele>
        <time>2024-09-29T12:52:02.000Z</time>
      </trkpt>
      <trkpt lat="42.36104" lon="0.87295">
        <ele>968.12</ele>
        <time>2024-09-29T12:52:07.000Z</time>
      </trkpt>
      <trkpt lat="42.36111" lon="0.87286">
        <ele>968.45</ele>
        <time>2024-09-29T12:52:12.000Z</time>
      </trkpt>
      <trkpt lat="42.36118" lon="0.87277">
        <ele>968.81</ele>
        <time>2024-09-29T12:52:17.000Z</time>
      </trkpt>
      <trkpt lat="42.36125" lon="0.87268">
        <ele>969.2</ele>
        <time>2024-09-29T12:52:22.000Z</time>
      </trkpt>
      <trkpt lat="42.36133" lon="0.87259">
        <ele>969.62</ele>
        <time>2024-09-29T12:52:27.000Z</time>
      </trkpt>
      <trkpt lat="42.36141" lon="0.8725">
        <ele>970.04</ele>
        <time>2024-09-29T12:52:32.000Z</time>
      </trkpt>
      <trkpt lat="42.36149" lon="0.87241">
        <ele>970.46</ele>
        <time>2024-09-29T12:52:37.000Z</time>
      </trkpt>
      <trkpt lat="42.36157" lon="0.87231">
        <ele>970.87</ele>
        <time>2024-09-29T12:52:42.000Z</time>
      </trkpt>
      <trkpt lat="42.36167" lon="0.87222">
        <ele>971.27</ele>
        <time>2024-09-29T12:52:47.000Z</time>
      </trkpt>
      <trkpt lat="42.36176" lon="0.87212">
        <ele>971.66</ele>
        <time>2024-09-29T12:52:52.000Z</time>
      </trkpt>
      <trkpt lat="42.36186" lon="0.87202">
        <ele>972.04</ele>
        <time>2024-09-29T12:52:57.000Z</time>
      </trkpt>
      <trkpt lat="42.36196" lon="0.87193">
        <ele>972.42</ele>
        <time>2024-09-29T12:53:02.000Z</time>
      </trkpt>
      <trkpt lat="42.36206" lon="0.87183">
        <ele>972.8</ele>
        <time>2024-09-29T12:53:07.000Z</time>
      </trkpt>
      <trkpt lat="42.36215" lon="0.87174">
        <ele>973.17</ele>
        <time>2024-09-29T12:53:12.000Z</time>
      </trkpt>
      <trkpt lat="42.36225" lon="0.87165">
        <ele>973.54</ele>
        <time>2024-09-29T12:53:17.000Z</time>
      </trkpt>
      <trkpt lat="42.36236" lon="0.87156">
        <ele>973.91</ele>
        <time>2024-09-29T12:53:22.000Z</time>
      </trkpt>
      <trkpt lat="42.36246" lon="0.87146">
        <ele>974.26</ele>
        <time>2024-09-29T12:53:27.000Z</time>
      </trkpt>
      <trkpt lat="42.36256" lon="0.87135">
        <ele>974.6</ele>
        <time>2024-09-29T12:53:32.000Z</time>
      </trkpt>
      <trkpt lat="42.36266" lon="0.87124">
        <ele>974.93</ele>
        <time>2024-09-29T12:53:37.000Z</time>
      </trkpt>
      <trkpt lat="42.36276" lon="0.87113">
        <ele>975.24</ele>
        <time>2024-09-29T12:53:42.000Z</time>
      </trkpt>
      <trkpt lat="42.36284" lon="0.87101">
        <ele>975.54</ele>
        <time>2024-09-29T12:53:47.000Z</time>
      </trkpt>
      <trkpt lat="42.36293" lon="0.87088">
        <ele>975.82</ele>
        <time>2024-09-29T12:53:52.000Z</time>
      </trkpt>
      <trkpt lat="42.36301" lon="0.87075">
        <ele>976.1</ele>
        <time>2024-09-29T12:53:57.000Z</time>
      </trkpt>
      <trkpt lat="42.36308" lon="0.8706">
        <ele>976.37</ele>
        <time>2024-09-29T12:54:02.000Z</time>
      </trkpt>
      <trkpt lat="42.36315" lon="0.87045">
        <ele>976.64</ele>
        <time>2024-09-29T12:54:07.000Z</time>
      </trkpt>
      <trkpt lat="42.36318" lon="0.87028">
        <ele>976.9</ele>
        <time>2024-09-29T12:54:12.000Z</time>
      </trkpt>
      <trkpt lat="42.36324" lon="0.87013">
        <ele>977.18</ele>
        <time>2024-09-29T12:54:17.000Z</time>
      </trkpt>
      <trkpt lat="42.36332" lon="0.86995">
        <ele>977.45</ele>
        <time>2024-09-29T12:54:22.000Z</time>
      </trkpt>
      <trkpt lat="42.36338" lon="0.86978">
        <ele>977.72</ele>
        <time>2024-09-29T12:54:27.000Z</time>
      </trkpt>
      <trkpt lat="42.36344" lon="0.86959">
        <ele>977.99</ele>
        <time>2024-09-29T12:54:32.000Z</time>
      </trkpt>
      <trkpt lat="42.36349" lon="0.86943">
        <ele>978.24</ele>
        <time>2024-09-29T12:54:37.000Z</time>
      </trkpt>
      <trkpt lat="42.36354" lon="0.86925">
        <ele>978.49</ele>
        <time>2024-09-29T12:54:42.000Z</time>
      </trkpt>
      <trkpt lat="42.36358" lon="0.86905">
        <ele>978.72</ele>
        <time>2024-09-29T12:54:47.000Z</time>
      </trkpt>
      <trkpt lat="42.36365" lon="0.86888">
        <ele>978.96</ele>
        <time>2024-09-29T12:54:52.000Z</time>
      </trkpt>
      <trkpt lat="42.36369" lon="0.86872">
        <ele>979.21</ele>
        <time>2024-09-29T12:54:57.000Z</time>
      </trkpt>
      <trkpt lat="42.36375" lon="0.86858">
        <ele>979.47</ele>
        <time>2024-09-29T12:55:02.000Z</time>
      </trkpt>
      <trkpt lat="42.36381" lon="0.86846">
        <ele>979.74</ele>
        <time>2024-09-29T12:55:07.000Z</time>
      </trkpt>
      <trkpt lat="42.36388" lon="0.86836">
        <ele>980.02</ele>
        <time>2024-09-29T12:55:12.000Z</time>
      </trkpt>
      <trkpt lat="42.36397" lon="0.86828">
        <ele>980.31</ele>
        <time>2024-09-29T12:55:17.000Z</time>
      </trkpt>
      <trkpt lat="42.36405" lon="0.86822">
        <ele>980.6</ele>
        <time>2024-09-29T12:55:22.000Z</time>
      </trkpt>
      <trkpt lat="42.36414" lon="0.86815">
        <ele>981.56</ele>
        <time>2024-09-29T12:56:12.000Z</time>
      </trkpt>
      <trkpt lat="42.36423" lon="0.86808">
        <ele>982</ele>
        <time>2024-09-29T12:56:17.000Z</time>
      </trkpt>
      <trkpt lat="42.36426" lon="0.86794">
        <ele>982.42</ele>
        <time>2024-09-29T12:56:22.000Z</time>
      </trkpt>
      <trkpt lat="42.3642" lon="0.86782">
        <ele>982.82</ele>
        <time>2024-09-29T12:56:27.000Z</time>
      </trkpt>
      <trkpt lat="42.3641" lon="0.86784">
        <ele>983.28</ele>
        <time>2024-09-29T12:56:33.000Z</time>
      </trkpt>
      <trkpt lat="42.36403" lon="0.86791">
        <ele>983.72</ele>
        <time>2024-09-29T12:56:39.000Z</time>
      </trkpt>
      <trkpt lat="42.36396" lon="0.86799">
        <ele>984.16</ele>
        <time>2024-09-29T12:56:45.000Z</time>
      </trkpt>
      <trkpt lat="42.36388" lon="0.86808">
        <ele>984.59</ele>
        <time>2024-09-29T12:56:51.000Z</time>
      </trkpt>
      <trkpt lat="42.3638" lon="0.86813">
        <ele>984.93</ele>
        <time>2024-09-29T12:56:56.000Z</time>
      </trkpt>
      <trkpt lat="42.36371" lon="0.86811">
        <ele>985.25</ele>
        <time>2024-09-29T12:57:01.000Z</time>
      </trkpt>
      <trkpt lat="42.36369" lon="0.86798">
        <ele>985.67</ele>
        <time>2024-09-29T12:57:08.000Z</time>
      </trkpt>
      <trkpt lat="42.36377" lon="0.86791">
        <ele>986.02</ele>
        <time>2024-09-29T12:57:14.000Z</time>
      </trkpt>
      <trkpt lat="42.36386" lon="0.86786">
        <ele>986.32</ele>
        <time>2024-09-29T12:57:19.000Z</time>
      </trkpt>
      <trkpt lat="42.36394" lon="0.8678">
        <ele>986.63</ele>
        <time>2024-09-29T12:57:24.000Z</time>
      </trkpt>
      <trkpt lat="42.36403" lon="0.86775">
        <ele>986.96</ele>
        <time>2024-09-29T12:57:29.000Z</time>
      </trkpt>
      <trkpt lat="42.36411" lon="0.86767">
        <ele>987.37</ele>
        <time>2024-09-29T12:57:35.000Z</time>
      </trkpt>
      <trkpt lat="42.36418" lon="0.86759">
        <ele>987.78</ele>
        <time>2024-09-29T12:57:41.000Z</time>
      </trkpt>
      <trkpt lat="42.36425" lon="0.8675">
        <ele>988.18</ele>
        <time>2024-09-29T12:57:47.000Z</time>
      </trkpt>
      <trkpt lat="42.3643" lon="0.86738">
        <ele>988.58</ele>
        <time>2024-09-29T12:57:53.000Z</time>
      </trkpt>
      <trkpt lat="42.36434" lon="0.86726">
        <ele>988.97</ele>
        <time>2024-09-29T12:57:59.000Z</time>
      </trkpt>
      <trkpt lat="42.36437" lon="0.86713">
        <ele>989.38</ele>
        <time>2024-09-29T12:58:05.000Z</time>
      </trkpt>
      <trkpt lat="42.36438" lon="0.86701">
        <ele>989.79</ele>
        <time>2024-09-29T12:58:11.000Z</time>
      </trkpt>
      <trkpt lat="42.3644" lon="0.86689">
        <ele>990.28</ele>
        <time>2024-09-29T12:58:18.000Z</time>
      </trkpt>
      <trkpt lat="42.36442" lon="0.86675">
        <ele>990.75</ele>
        <time>2024-09-29T12:58:25.000Z</time>
      </trkpt>
      <trkpt lat="42.36446" lon="0.86663">
        <ele>991.2</ele>
        <time>2024-09-29T12:58:32.000Z</time>
      </trkpt>
      <trkpt lat="42.36449" lon="0.8665">
        <ele>991.6</ele>
        <time>2024-09-29T12:58:38.000Z</time>
      </trkpt>
      <trkpt lat="42.36454" lon="0.86637">
        <ele>992.11</ele>
        <time>2024-09-29T12:58:46.000Z</time>
      </trkpt>
      <trkpt lat="42.36459" lon="0.86627">
        <ele>992.56</ele>
        <time>2024-09-29T12:58:53.000Z</time>
      </trkpt>
      <trkpt lat="42.36465" lon="0.86616">
        <ele>992.96</ele>
        <time>2024-09-29T12:58:59.000Z</time>
      </trkpt>
      <trkpt lat="42.36471" lon="0.86606">
        <ele>993.45</ele>
        <time>2024-09-29T12:59:06.000Z</time>
      </trkpt>
      <trkpt lat="42.36474" lon="0.86594">
        <ele>993.98</ele>
        <time>2024-09-29T12:59:13.000Z</time>
      </trkpt>
      <trkpt lat="42.36477" lon="0.86581">
        <ele>994.55</ele>
        <time>2024-09-29T12:59:20.000Z</time>
      </trkpt>
      <trkpt lat="42.36482" lon="0.86569">
        <ele>995.06</ele>
        <time>2024-09-29T12:59:26.000Z</time>
      </trkpt>
      <trkpt lat="42.36485" lon="0.86557">
        <ele>995.7</ele>
        <time>2024-09-29T12:59:33.000Z</time>
      </trkpt>
      <trkpt lat="42.36491" lon="0.86547">
        <ele>996.18</ele>
        <time>2024-09-29T12:59:38.000Z</time>
      </trkpt>
      <trkpt lat="42.36497" lon="0.86537">
        <ele>996.68</ele>
        <time>2024-09-29T12:59:43.000Z</time>
      </trkpt>
      <trkpt lat="42.36503" lon="0.86527">
        <ele>997.21</ele>
        <time>2024-09-29T12:59:48.000Z</time>
      </trkpt>
      <trkpt lat="42.36508" lon="0.86517">
        <ele>997.88</ele>
        <time>2024-09-29T12:59:54.000Z</time>
      </trkpt>
      <trkpt lat="42.36516" lon="0.86508">
        <ele>998.71</ele>
        <time>2024-09-29T13:00:00.999Z</time>
      </trkpt>
      <trkpt lat="42.36523" lon="0.865">
        <ele>999.44</ele>
        <time>2024-09-29T13:00:06.999Z</time>
      </trkpt>
      <trkpt lat="42.36531" lon="0.86493">
        <ele>1000.29</ele>
        <time>2024-09-29T13:00:13.999Z</time>
      </trkpt>
      <trkpt lat="42.36542" lon="0.86491">
        <ele>1001.15</ele>
        <time>2024-09-29T13:00:20.999Z</time>
      </trkpt>
      <trkpt lat="42.36553" lon="0.86491">
        <ele>1002.15</ele>
        <time>2024-09-29T13:00:28.999Z</time>
      </trkpt>
      <trkpt lat="42.36562" lon="0.8649">
        <ele>1002.78</ele>
        <time>2024-09-29T13:00:33.999Z</time>
      </trkpt>
      <trkpt lat="42.3657" lon="0.86484">
        <ele>1003.43</ele>
        <time>2024-09-29T13:00:38.999Z</time>
      </trkpt>
      <trkpt lat="42.36578" lon="0.86474">
        <ele>1004.24</ele>
        <time>2024-09-29T13:00:44.999Z</time>
      </trkpt>
      <trkpt lat="42.36584" lon="0.86464">
        <ele>1005.07</ele>
        <time>2024-09-29T13:00:50.999Z</time>
      </trkpt>
      <trkpt lat="42.36592" lon="0.86454">
        <ele>1005.93</ele>
        <time>2024-09-29T13:00:56.999Z</time>
      </trkpt>
      <trkpt lat="42.36598" lon="0.86443">
        <ele>1006.97</ele>
        <time>2024-09-29T13:01:03.999Z</time>
      </trkpt>
      <trkpt lat="42.36603" lon="0.86433">
        <ele>1007.84</ele>
        <time>2024-09-29T13:01:09.999Z</time>
      </trkpt>
      <trkpt lat="42.36609" lon="0.86421">
        <ele>1008.69</ele>
        <time>2024-09-29T13:01:15.999Z</time>
      </trkpt>
      <trkpt lat="42.36614" lon="0.86411">
        <ele>1009.55</ele>
        <time>2024-09-29T13:01:21.999Z</time>
      </trkpt>
      <trkpt lat="42.3662" lon="0.86402">
        <ele>1010.38</ele>
        <time>2024-09-29T13:01:27.999Z</time>
      </trkpt>
      <trkpt lat="42.36626" lon="0.8639">
        <ele>1011.21</ele>
        <time>2024-09-29T13:01:33.999Z</time>
      </trkpt>
      <trkpt lat="42.36632" lon="0.8638">
        <ele>1012.19</ele>
        <time>2024-09-29T13:01:40.999Z</time>
      </trkpt>
      <trkpt lat="42.36639" lon="0.8637">
        <ele>1013.02</ele>
        <time>2024-09-29T13:01:46.999Z</time>
      </trkpt>
      <trkpt lat="42.36645" lon="0.86361">
        <ele>1013.85</ele>
        <time>2024-09-29T13:01:52.999Z</time>
      </trkpt>
      <trkpt lat="42.36652" lon="0.8635">
        <ele>1014.79</ele>
        <time>2024-09-29T13:01:59.999Z</time>
      </trkpt>
      <trkpt lat="42.36657" lon="0.86337">
        <ele>1015.73</ele>
        <time>2024-09-29T13:02:06.999Z</time>
      </trkpt>
      <trkpt lat="42.36661" lon="0.86325">
        <ele>1016.7</ele>
        <time>2024-09-29T13:02:13.999Z</time>
      </trkpt>
      <trkpt lat="42.36663" lon="0.86313">
        <ele>1017.58</ele>
        <time>2024-09-29T13:02:19.999Z</time>
      </trkpt>
      <trkpt lat="42.36665" lon="0.86299">
        <ele>1018.65</ele>
        <time>2024-09-29T13:02:26.999Z</time>
      </trkpt>
      <trkpt lat="42.36664" lon="0.86285">
        <ele>1019.71</ele>
        <time>2024-09-29T13:02:33.999Z</time>
      </trkpt>
      <trkpt lat="42.36663" lon="0.86272">
        <ele>1020.75</ele>
        <time>2024-09-29T13:02:40.999Z</time>
      </trkpt>
      <trkpt lat="42.36662" lon="0.86258">
        <ele>1021.79</ele>
        <time>2024-09-29T13:02:47.999Z</time>
      </trkpt>
      <trkpt lat="42.36661" lon="0.86244">
        <ele>1022.84</ele>
        <time>2024-09-29T13:02:54.999Z</time>
      </trkpt>
      <trkpt lat="42.3666" lon="0.86231">
        <ele>1023.74</ele>
        <time>2024-09-29T13:03:00.999Z</time>
      </trkpt>
      <trkpt lat="42.36659" lon="0.86218">
        <ele>1024.65</ele>
        <time>2024-09-29T13:03:06.999Z</time>
      </trkpt>
      <trkpt lat="42.36656" lon="0.86204">
        <ele>1025.72</ele>
        <time>2024-09-29T13:03:13.999Z</time>
      </trkpt>
      <trkpt lat="42.36653" lon="0.86192">
        <ele>1026.65</ele>
        <time>2024-09-29T13:03:19.999Z</time>
      </trkpt>
      <trkpt lat="42.36649" lon="0.86181">
        <ele>1027.63</ele>
        <time>2024-09-29T13:03:25.999Z</time>
      </trkpt>
      <trkpt lat="42.36645" lon="0.86169">
        <ele>1028.64</ele>
        <time>2024-09-29T13:03:31.999Z</time>
      </trkpt>
      <trkpt lat="42.36641" lon="0.86158">
        <ele>1029.67</ele>
        <time>2024-09-29T13:03:37.999Z</time>
      </trkpt>
      <trkpt lat="42.36637" lon="0.86146">
        <ele>1030.87</ele>
        <time>2024-09-29T13:03:44.999Z</time>
      </trkpt>
      <trkpt lat="42.36634" lon="0.86133">
        <ele>1032.03</ele>
        <time>2024-09-29T13:03:51.999Z</time>
      </trkpt>
      <trkpt lat="42.36631" lon="0.86121">
        <ele>1033.15</ele>
        <time>2024-09-29T13:03:58.999Z</time>
      </trkpt>
      <trkpt lat="42.36629" lon="0.86106">
        <ele>1034.38</ele>
        <time>2024-09-29T13:04:05.999Z</time>
      </trkpt>
      <trkpt lat="42.36625" lon="0.86094">
        <ele>1035.8</ele>
        <time>2024-09-29T13:04:12.999Z</time>
      </trkpt>
      <trkpt lat="42.3662" lon="0.86084">
        <ele>1037.11</ele>
        <time>2024-09-29T13:04:18.999Z</time>
      </trkpt>
      <trkpt lat="42.36615" lon="0.86073">
        <ele>1038.46</ele>
        <time>2024-09-29T13:04:24.999Z</time>
      </trkpt>
      <trkpt lat="42.36609" lon="0.86062">
        <ele>1039.79</ele>
        <time>2024-09-29T13:04:30.999Z</time>
      </trkpt>
      <trkpt lat="42.36602" lon="0.86051">
        <ele>1041.28</ele>
        <time>2024-09-29T13:04:37.999Z</time>
      </trkpt>
      <trkpt lat="42.36596" lon="0.8604">
        <ele>1042.7</ele>
        <time>2024-09-29T13:04:44.999Z</time>
      </trkpt>
      <trkpt lat="42.36591" lon="0.8603">
        <ele>1043.86</ele>
        <time>2024-09-29T13:04:50.999Z</time>
      </trkpt>
      <trkpt lat="42.36592" lon="0.86017">
        <ele>1044.97</ele>
        <time>2024-09-29T13:04:56.999Z</time>
      </trkpt>
      <trkpt lat="42.36601" lon="0.86018">
        <ele>1045.86</ele>
        <time>2024-09-29T13:05:01.999Z</time>
      </trkpt>
      <trkpt lat="42.36608" lon="0.86027">
        <ele>1047.05</ele>
        <time>2024-09-29T13:05:08.999Z</time>
      </trkpt>
      <trkpt lat="42.36613" lon="0.86038">
        <ele>1048.01</ele>
        <time>2024-09-29T13:05:14.999Z</time>
      </trkpt>
      <trkpt lat="42.36617" lon="0.8605">
        <ele>1049.06</ele>
        <time>2024-09-29T13:05:21.999Z</time>
      </trkpt>
      <trkpt lat="42.36623" lon="0.8606">
        <ele>1049.89</ele>
        <time>2024-09-29T13:05:27.999Z</time>
      </trkpt>
      <trkpt lat="42.36629" lon="0.8607">
        <ele>1050.69</ele>
        <time>2024-09-29T13:05:33.999Z</time>
      </trkpt>
      <trkpt lat="42.36635" lon="0.86079">
        <ele>1051.44</ele>
        <time>2024-09-29T13:05:39.999Z</time>
      </trkpt>
      <trkpt lat="42.3664" lon="0.8609">
        <ele>1052.19</ele>
        <time>2024-09-29T13:05:45.999Z</time>
      </trkpt>
      <trkpt lat="42.36646" lon="0.86101">
        <ele>1053.06</ele>
        <time>2024-09-29T13:05:52.999Z</time>
      </trkpt>
      <trkpt lat="42.36651" lon="0.86111">
        <ele>1053.78</ele>
        <time>2024-09-29T13:05:58.999Z</time>
      </trkpt>
      <trkpt lat="42.36657" lon="0.86122">
        <ele>1054.53</ele>
        <time>2024-09-29T13:06:05.999Z</time>
      </trkpt>
      <trkpt lat="42.36661" lon="0.86133">
        <ele>1055.13</ele>
        <time>2024-09-29T13:06:11.999Z</time>
      </trkpt>
      <trkpt lat="42.36666" lon="0.86145">
        <ele>1055.77</ele>
        <time>2024-09-29T13:06:18.999Z</time>
      </trkpt>
      <trkpt lat="42.36672" lon="0.86157">
        <ele>1056.39</ele>
        <time>2024-09-29T13:06:25.999Z</time>
      </trkpt>
      <trkpt lat="42.36677" lon="0.86167">
        <ele>1056.92</ele>
        <time>2024-09-29T13:06:31.999Z</time>
      </trkpt>
      <trkpt lat="42.36682" lon="0.86178">
        <ele>1057.45</ele>
        <time>2024-09-29T13:06:37.999Z</time>
      </trkpt>
      <trkpt lat="42.36687" lon="0.86189">
        <ele>1058.05</ele>
        <time>2024-09-29T13:06:44.999Z</time>
      </trkpt>
      <trkpt lat="42.36693" lon="0.862">
        <ele>1058.71</ele>
        <time>2024-09-29T13:06:52.999Z</time>
      </trkpt>
      <trkpt lat="42.36698" lon="0.86212">
        <ele>1059.26</ele>
        <time>2024-09-29T13:06:59.999Z</time>
      </trkpt>
      <trkpt lat="42.36705" lon="0.86221">
        <ele>1059.72</ele>
        <time>2024-09-29T13:07:05.999Z</time>
      </trkpt>
      <trkpt lat="42.36712" lon="0.86232">
        <ele>1060.26</ele>
        <time>2024-09-29T13:07:12.999Z</time>
      </trkpt>
      <trkpt lat="42.36719" lon="0.86239">
        <ele>1060.8</ele>
        <time>2024-09-29T13:07:19.999Z</time>
      </trkpt>
      <trkpt lat="42.3673" lon="0.86238">
        <ele>1061.34</ele>
        <time>2024-09-29T13:07:26.999Z</time>
      </trkpt>
      <trkpt lat="42.36737" lon="0.8623">
        <ele>1061.94</ele>
        <time>2024-09-29T13:07:32.999Z</time>
      </trkpt>
      <trkpt lat="42.36743" lon="0.8622">
        <ele>1062.65</ele>
        <time>2024-09-29T13:07:38.999Z</time>
      </trkpt>
      <trkpt lat="42.36746" lon="0.86207">
        <ele>1063.59</ele>
        <time>2024-09-29T13:07:45.999Z</time>
      </trkpt>
      <trkpt lat="42.3675" lon="0.86195">
        <ele>1064.57</ele>
        <time>2024-09-29T13:07:52.999Z</time>
      </trkpt>
      <trkpt lat="42.36753" lon="0.86183">
        <ele>1065.56</ele>
        <time>2024-09-29T13:07:59.999Z</time>
      </trkpt>
      <trkpt lat="42.36751" lon="0.86169">
        <ele>1066.55</ele>
        <time>2024-09-29T13:08:06.999Z</time>
      </trkpt>
      <trkpt lat="42.36752" lon="0.86156">
        <ele>1067.38</ele>
        <time>2024-09-29T13:08:12.999Z</time>
      </trkpt>
      <trkpt lat="42.36751" lon="0.86142">
        <ele>1068.32</ele>
        <time>2024-09-29T13:08:19.999Z</time>
      </trkpt>
      <trkpt lat="42.36752" lon="0.8613">
        <ele>1069.1</ele>
        <time>2024-09-29T13:08:25.999Z</time>
      </trkpt>
      <trkpt lat="42.36754" lon="0.86117">
        <ele>1070</ele>
        <time>2024-09-29T13:08:32.999Z</time>
      </trkpt>
      <trkpt lat="42.3676" lon="0.86105">
        <ele>1070.9</ele>
        <time>2024-09-29T13:08:39.999Z</time>
      </trkpt>
      <trkpt lat="42.36767" lon="0.86096">
        <ele>1071.79</ele>
        <time>2024-09-29T13:08:46.999Z</time>
      </trkpt>
      <trkpt lat="42.36772" lon="0.86086">
        <ele>1072.54</ele>
        <time>2024-09-29T13:08:52.999Z</time>
      </trkpt>
      <trkpt lat="42.36776" lon="0.86074">
        <ele>1073.77</ele>
        <time>2024-09-29T13:09:07.999Z</time>
      </trkpt>
      <trkpt lat="42.36776" lon="0.86061">
        <ele>1078.56</ele>
        <time>2024-09-29T13:11:50.999Z</time>
      </trkpt>
      <trkpt lat="42.36768" lon="0.86052">
        <ele>1079.23</ele>
        <time>2024-09-29T13:11:56.999Z</time>
      </trkpt>
      <trkpt lat="42.36757" lon="0.86049">
        <ele>1079.84</ele>
        <time>2024-09-29T13:12:03.000Z</time>
      </trkpt>
      <trkpt lat="42.36749" lon="0.86056">
        <ele>1080.4</ele>
        <time>2024-09-29T13:12:09.000Z</time>
      </trkpt>
      <trkpt lat="42.36743" lon="0.86067">
        <ele>1080.84</ele>
        <time>2024-09-29T13:12:14.000Z</time>
      </trkpt>
      <trkpt lat="42.36738" lon="0.86081">
        <ele>1081.25</ele>
        <time>2024-09-29T13:12:19.000Z</time>
      </trkpt>
      <trkpt lat="42.36737" lon="0.86094">
        <ele>1081.63</ele>
        <time>2024-09-29T13:12:24.000Z</time>
      </trkpt>
      <trkpt lat="42.36735" lon="0.86106">
        <ele>1082.09</ele>
        <time>2024-09-29T13:12:30.000Z</time>
      </trkpt>
      <trkpt lat="42.36731" lon="0.86119">
        <ele>1082.52</ele>
        <time>2024-09-29T13:12:36.000Z</time>
      </trkpt>
      <trkpt lat="42.36727" lon="0.8613">
        <ele>1082.93</ele>
        <time>2024-09-29T13:12:42.000Z</time>
      </trkpt>
      <trkpt lat="42.36718" lon="0.86126">
        <ele>1083.46</ele>
        <time>2024-09-29T13:12:50.000Z</time>
      </trkpt>
      <trkpt lat="42.36717" lon="0.86113">
        <ele>1083.85</ele>
        <time>2024-09-29T13:12:56.000Z</time>
      </trkpt>
      <trkpt lat="42.36712" lon="0.86101">
        <ele>1084.3</ele>
        <time>2024-09-29T13:13:03.000Z</time>
      </trkpt>
      <trkpt lat="42.36714" lon="0.86089">
        <ele>1084.93</ele>
        <time>2024-09-29T13:13:13.000Z</time>
      </trkpt>
      <trkpt lat="42.36714" lon="0.86075">
        <ele>1085.36</ele>
        <time>2024-09-29T13:13:20.000Z</time>
      </trkpt>
      <trkpt lat="42.36715" lon="0.86061">
        <ele>1085.78</ele>
        <time>2024-09-29T13:13:27.000Z</time>
      </trkpt>
      <trkpt lat="42.36716" lon="0.86049">
        <ele>1086.14</ele>
        <time>2024-09-29T13:13:33.000Z</time>
      </trkpt>
      <trkpt lat="42.36717" lon="0.86036">
        <ele>1086.5</ele>
        <time>2024-09-29T13:13:39.000Z</time>
      </trkpt>
      <trkpt lat="42.36721" lon="0.86023">
        <ele>1086.93</ele>
        <time>2024-09-29T13:13:46.000Z</time>
      </trkpt>
      <trkpt lat="42.36729" lon="0.86016">
        <ele>1087.42</ele>
        <time>2024-09-29T13:13:54.000Z</time>
      </trkpt>
      <trkpt lat="42.36738" lon="0.86013">
        <ele>1087.87</ele>
        <time>2024-09-29T13:14:02.000Z</time>
      </trkpt>
      <trkpt lat="42.36747" lon="0.86009">
        <ele>1088.19</ele>
        <time>2024-09-29T13:14:08.000Z</time>
      </trkpt>
      <trkpt lat="42.36757" lon="0.86003">
        <ele>1088.49</ele>
        <time>2024-09-29T13:14:14.000Z</time>
      </trkpt>
      <trkpt lat="42.36765" lon="0.85997">
        <ele>1088.85</ele>
        <time>2024-09-29T13:14:21.000Z</time>
      </trkpt>
      <trkpt lat="42.36769" lon="0.85986">
        <ele>1089.12</ele>
        <time>2024-09-29T13:14:26.000Z</time>
      </trkpt>
      <trkpt lat="42.36769" lon="0.85973">
        <ele>1089.5</ele>
        <time>2024-09-29T13:14:33.000Z</time>
      </trkpt>
      <trkpt lat="42.36762" lon="0.85963">
        <ele>1089.9</ele>
        <time>2024-09-29T13:14:40.000Z</time>
      </trkpt>
      <trkpt lat="42.36754" lon="0.85958">
        <ele>1090.19</ele>
        <time>2024-09-29T13:14:45.000Z</time>
      </trkpt>
      <trkpt lat="42.36743" lon="0.85956">
        <ele>1090.48</ele>
        <time>2024-09-29T13:14:50.000Z</time>
      </trkpt>
      <trkpt lat="42.36733" lon="0.85952">
        <ele>1090.81</ele>
        <time>2024-09-29T13:14:56.000Z</time>
      </trkpt>
      <trkpt lat="42.36724" lon="0.85947">
        <ele>1091.18</ele>
        <time>2024-09-29T13:15:03.000Z</time>
      </trkpt>
      <trkpt lat="42.36715" lon="0.85942">
        <ele>1091.56</ele>
        <time>2024-09-29T13:15:10.000Z</time>
      </trkpt>
      <trkpt lat="42.36705" lon="0.85937">
        <ele>1091.94</ele>
        <time>2024-09-29T13:15:17.000Z</time>
      </trkpt>
      <trkpt lat="42.36696" lon="0.85931">
        <ele>1092.33</ele>
        <time>2024-09-29T13:15:24.000Z</time>
      </trkpt>
      <trkpt lat="42.36688" lon="0.85924">
        <ele>1092.76</ele>
        <time>2024-09-29T13:15:31.000Z</time>
      </trkpt>
      <trkpt lat="42.3668" lon="0.85917">
        <ele>1093.31</ele>
        <time>2024-09-29T13:15:39.000Z</time>
      </trkpt>
      <trkpt lat="42.36674" lon="0.85907">
        <ele>1093.77</ele>
        <time>2024-09-29T13:15:46.000Z</time>
      </trkpt>
      <trkpt lat="42.36669" lon="0.85897">
        <ele>1094.16</ele>
        <time>2024-09-29T13:15:52.000Z</time>
      </trkpt>
      <trkpt lat="42.36664" lon="0.85886">
        <ele>1094.6</ele>
        <time>2024-09-29T13:15:59.000Z</time>
      </trkpt>
      <trkpt lat="42.36662" lon="0.85874">
        <ele>1095</ele>
        <time>2024-09-29T13:16:05.000Z</time>
      </trkpt>
      <trkpt lat="42.36658" lon="0.85861">
        <ele>1095.62</ele>
        <time>2024-09-29T13:16:12.000Z</time>
      </trkpt>
      <trkpt lat="42.36654" lon="0.85849">
        <ele>1096.37</ele>
        <time>2024-09-29T13:16:19.000Z</time>
      </trkpt>
      <trkpt lat="42.3665" lon="0.85837">
        <ele>1097.2</ele>
        <time>2024-09-29T13:16:26.000Z</time>
      </trkpt>
      <trkpt lat="42.36646" lon="0.85826">
        <ele>1098.1</ele>
        <time>2024-09-29T13:16:33.000Z</time>
      </trkpt>
      <trkpt lat="42.36643" lon="0.85813">
        <ele>1099.06</ele>
        <time>2024-09-29T13:16:40.000Z</time>
      </trkpt>
      <trkpt lat="42.36638" lon="0.85801">
        <ele>1100.21</ele>
        <time>2024-09-29T13:16:48.000Z</time>
      </trkpt>
      <trkpt lat="42.36634" lon="0.85789">
        <ele>1101.25</ele>
        <time>2024-09-29T13:16:55.000Z</time>
      </trkpt>
      <trkpt lat="42.36629" lon="0.85777">
        <ele>1102.31</ele>
        <time>2024-09-29T13:17:02.000Z</time>
      </trkpt>
      <trkpt lat="42.36626" lon="0.85766">
        <ele>1103.23</ele>
        <time>2024-09-29T13:17:08.000Z</time>
      </trkpt>
      <trkpt lat="42.36621" lon="0.85755">
        <ele>1104.15</ele>
        <time>2024-09-29T13:17:14.000Z</time>
      </trkpt>
      <trkpt lat="42.36616" lon="0.85745">
        <ele>1105.07</ele>
        <time>2024-09-29T13:17:20.000Z</time>
      </trkpt>
      <trkpt lat="42.36611" lon="0.85735">
        <ele>1105.98</ele>
        <time>2024-09-29T13:17:26.000Z</time>
      </trkpt>
      <trkpt lat="42.36605" lon="0.85723">
        <ele>1107.03</ele>
        <time>2024-09-29T13:17:33.000Z</time>
      </trkpt>
      <trkpt lat="42.36605" lon="0.8571">
        <ele>1107.92</ele>
        <time>2024-09-29T13:17:39.000Z</time>
      </trkpt>
      <trkpt lat="42.36612" lon="0.85702">
        <ele>1108.93</ele>
        <time>2024-09-29T13:17:46.000Z</time>
      </trkpt>
      <trkpt lat="42.36621" lon="0.85708">
        <ele>1109.79</ele>
        <time>2024-09-29T13:17:52.000Z</time>
      </trkpt>
      <trkpt lat="42.36627" lon="0.85719">
        <ele>1110.77</ele>
        <time>2024-09-29T13:17:59.000Z</time>
      </trkpt>
      <trkpt lat="42.36631" lon="0.85731">
        <ele>1111.59</ele>
        <time>2024-09-29T13:18:05.000Z</time>
      </trkpt>
      <trkpt lat="42.36634" lon="0.85742">
        <ele>1112.41</ele>
        <time>2024-09-29T13:18:11.000Z</time>
      </trkpt>
      <trkpt lat="42.36637" lon="0.85754">
        <ele>1113.21</ele>
        <time>2024-09-29T13:18:17.000Z</time>
      </trkpt>
      <trkpt lat="42.36643" lon="0.85765">
        <ele>1113.98</ele>
        <time>2024-09-29T13:18:23.000Z</time>
      </trkpt>
      <trkpt lat="42.36649" lon="0.85777">
        <ele>1114.74</ele>
        <time>2024-09-29T13:18:29.000Z</time>
      </trkpt>
      <trkpt lat="42.36655" lon="0.85787">
        <ele>1115.36</ele>
        <time>2024-09-29T13:18:34.000Z</time>
      </trkpt>
      <trkpt lat="42.36661" lon="0.85798">
        <ele>1116.09</ele>
        <time>2024-09-29T13:18:40.000Z</time>
      </trkpt>
      <trkpt lat="42.36668" lon="0.85808">
        <ele>1116.82</ele>
        <time>2024-09-29T13:18:46.000Z</time>
      </trkpt>
      <trkpt lat="42.36673" lon="0.85818">
        <ele>1117.54</ele>
        <time>2024-09-29T13:18:52.000Z</time>
      </trkpt>
      <trkpt lat="42.36681" lon="0.85825">
        <ele>1118.24</ele>
        <time>2024-09-29T13:18:58.000Z</time>
      </trkpt>
      <trkpt lat="42.3669" lon="0.85829">
        <ele>1118.93</ele>
        <time>2024-09-29T13:19:04.000Z</time>
      </trkpt>
      <trkpt lat="42.367" lon="0.8583">
        <ele>1119.62</ele>
        <time>2024-09-29T13:19:10.000Z</time>
      </trkpt>
      <trkpt lat="42.3671" lon="0.85829">
        <ele>1120.4</ele>
        <time>2024-09-29T13:19:17.000Z</time>
      </trkpt>
      <trkpt lat="42.3672" lon="0.85825">
        <ele>1121.26</ele>
        <time>2024-09-29T13:19:25.000Z</time>
      </trkpt>
      <trkpt lat="42.36726" lon="0.85816">
        <ele>1121.87</ele>
        <time>2024-09-29T13:19:31.000Z</time>
      </trkpt>
      <trkpt lat="42.36727" lon="0.85803">
        <ele>1122.48</ele>
        <time>2024-09-29T13:19:37.000Z</time>
      </trkpt>
      <trkpt lat="42.36719" lon="0.85793">
        <ele>1123.19</ele>
        <time>2024-09-29T13:19:44.000Z</time>
      </trkpt>
      <trkpt lat="42.36709" lon="0.8579">
        <ele>1123.79</ele>
        <time>2024-09-29T13:19:50.000Z</time>
      </trkpt>
      <trkpt lat="42.367" lon="0.85792">
        <ele>1124.45</ele>
        <time>2024-09-29T13:19:57.000Z</time>
      </trkpt>
      <trkpt lat="42.3669" lon="0.8579">
        <ele>1125.09</ele>
        <time>2024-09-29T13:20:04.000Z</time>
      </trkpt>
      <trkpt lat="42.36682" lon="0.85781">
        <ele>1125.71</ele>
        <time>2024-09-29T13:20:11.000Z</time>
      </trkpt>
      <trkpt lat="42.36677" lon="0.85769">
        <ele>1126.32</ele>
        <time>2024-09-29T13:20:18.000Z</time>
      </trkpt>
      <trkpt lat="42.36673" lon="0.85758">
        <ele>1126.84</ele>
        <time>2024-09-29T13:20:24.000Z</time>
      </trkpt>
      <trkpt lat="42.36669" lon="0.85747">
        <ele>1127.35</ele>
        <time>2024-09-29T13:20:30.000Z</time>
      </trkpt>
      <trkpt lat="42.36665" lon="0.85736">
        <ele>1127.86</ele>
        <time>2024-09-29T13:20:36.000Z</time>
      </trkpt>
      <trkpt lat="42.36662" lon="0.85724">
        <ele>1128.36</ele>
        <time>2024-09-29T13:20:42.000Z</time>
      </trkpt>
      <trkpt lat="42.36659" lon="0.85711">
        <ele>1128.87</ele>
        <time>2024-09-29T13:20:48.000Z</time>
      </trkpt>
      <trkpt lat="42.36655" lon="0.85698">
        <ele>1129.47</ele>
        <time>2024-09-29T13:20:55.000Z</time>
      </trkpt>
      <trkpt lat="42.36651" lon="0.85687">
        <ele>1129.97</ele>
        <time>2024-09-29T13:21:01.000Z</time>
      </trkpt>
      <trkpt lat="42.36645" lon="0.85677">
        <ele>1130.47</ele>
        <time>2024-09-29T13:21:07.000Z</time>
      </trkpt>
      <trkpt lat="42.36639" lon="0.85668">
        <ele>1130.97</ele>
        <time>2024-09-29T13:21:13.000Z</time>
      </trkpt>
      <trkpt lat="42.36632" lon="0.85659">
        <ele>1131.47</ele>
        <time>2024-09-29T13:21:19.000Z</time>
      </trkpt>
      <trkpt lat="42.36625" lon="0.85651">
        <ele>1131.96</ele>
        <time>2024-09-29T13:21:25.000Z</time>
      </trkpt>
      <trkpt lat="42.36618" lon="0.85643">
        <ele>1132.54</ele>
        <time>2024-09-29T13:21:32.000Z</time>
      </trkpt>
      <trkpt lat="42.3661" lon="0.85635">
        <ele>1133.03</ele>
        <time>2024-09-29T13:21:38.000Z</time>
      </trkpt>
      <trkpt lat="42.36603" lon="0.85626">
        <ele>1133.61</ele>
        <time>2024-09-29T13:21:45.000Z</time>
      </trkpt>
      <trkpt lat="42.36596" lon="0.85618">
        <ele>1134.1</ele>
        <time>2024-09-29T13:21:51.000Z</time>
      </trkpt>
      <trkpt lat="42.36592" lon="0.85606">
        <ele>1134.6</ele>
        <time>2024-09-29T13:21:57.000Z</time>
      </trkpt>
      <trkpt lat="42.36588" lon="0.85593">
        <ele>1135.22</ele>
        <time>2024-09-29T13:22:04.000Z</time>
      </trkpt>
      <trkpt lat="42.36585" lon="0.85581">
        <ele>1135.86</ele>
        <time>2024-09-29T13:22:11.000Z</time>
      </trkpt>
      <trkpt lat="42.36582" lon="0.85567">
        <ele>1136.56</ele>
        <time>2024-09-29T13:22:18.000Z</time>
      </trkpt>
      <trkpt lat="42.3658" lon="0.85555">
        <ele>1137.19</ele>
        <time>2024-09-29T13:22:24.000Z</time>
      </trkpt>
      <trkpt lat="42.36577" lon="0.85543">
        <ele>1137.84</ele>
        <time>2024-09-29T13:22:30.000Z</time>
      </trkpt>
      <trkpt lat="42.36574" lon="0.8553">
        <ele>1138.61</ele>
        <time>2024-09-29T13:22:37.000Z</time>
      </trkpt>
      <trkpt lat="42.3657" lon="0.85517">
        <ele>1139.38</ele>
        <time>2024-09-29T13:22:44.000Z</time>
      </trkpt>
      <trkpt lat="42.36567" lon="0.85506">
        <ele>1140.04</ele>
        <time>2024-09-29T13:22:50.000Z</time>
      </trkpt>
      <trkpt lat="42.36561" lon="0.85494">
        <ele>1140.84</ele>
        <time>2024-09-29T13:22:57.000Z</time>
      </trkpt>
      <trkpt lat="42.36554" lon="0.85484">
        <ele>1141.65</ele>
        <time>2024-09-29T13:23:04.000Z</time>
      </trkpt>
      <trkpt lat="42.36545" lon="0.85476">
        <ele>1142.35</ele>
        <time>2024-09-29T13:23:10.000Z</time>
      </trkpt>
      <trkpt lat="42.36535" lon="0.85471">
        <ele>1143.04</ele>
        <time>2024-09-29T13:23:16.000Z</time>
      </trkpt>
      <trkpt lat="42.36526" lon="0.85465">
        <ele>1143.7</ele>
        <time>2024-09-29T13:23:22.000Z</time>
      </trkpt>
      <trkpt lat="42.36517" lon="0.85457">
        <ele>1144.45</ele>
        <time>2024-09-29T13:23:29.000Z</time>
      </trkpt>
      <trkpt lat="42.36511" lon="0.85447">
        <ele>1145.21</ele>
        <time>2024-09-29T13:23:36.000Z</time>
      </trkpt>
      <trkpt lat="42.36506" lon="0.85435">
        <ele>1145.98</ele>
        <time>2024-09-29T13:23:43.000Z</time>
      </trkpt>
      <trkpt lat="42.365" lon="0.85425">
        <ele>1146.63</ele>
        <time>2024-09-29T13:23:49.000Z</time>
      </trkpt>
      <trkpt lat="42.36493" lon="0.85417">
        <ele>1147.27</ele>
        <time>2024-09-29T13:23:55.000Z</time>
      </trkpt>
      <trkpt lat="42.36484" lon="0.85409">
        <ele>1147.91</ele>
        <time>2024-09-29T13:24:01.000Z</time>
      </trkpt>
      <trkpt lat="42.36477" lon="0.85401">
        <ele>1148.56</ele>
        <time>2024-09-29T13:24:06.999Z</time>
      </trkpt>
      <trkpt lat="42.3647" lon="0.85391">
        <ele>1149.31</ele>
        <time>2024-09-29T13:24:13.999Z</time>
      </trkpt>
      <trkpt lat="42.36465" lon="0.8538">
        <ele>1150.05</ele>
        <time>2024-09-29T13:24:20.999Z</time>
      </trkpt>
      <trkpt lat="42.36459" lon="0.85368">
        <ele>1150.78</ele>
        <time>2024-09-29T13:24:27.999Z</time>
      </trkpt>
      <trkpt lat="42.36454" lon="0.85356">
        <ele>1151.5</ele>
        <time>2024-09-29T13:24:34.999Z</time>
      </trkpt>
      <trkpt lat="42.3645" lon="0.85345">
        <ele>1152.12</ele>
        <time>2024-09-29T13:24:40.999Z</time>
      </trkpt>
      <trkpt lat="42.36445" lon="0.85333">
        <ele>1152.85</ele>
        <time>2024-09-29T13:24:47.999Z</time>
      </trkpt>
      <trkpt lat="42.36441" lon="0.85322">
        <ele>1153.46</ele>
        <time>2024-09-29T13:24:53.999Z</time>
      </trkpt>
      <trkpt lat="42.36436" lon="0.85311">
        <ele>1154.08</ele>
        <time>2024-09-29T13:24:59.999Z</time>
      </trkpt>
      <trkpt lat="42.36431" lon="0.853">
        <ele>1154.69</ele>
        <time>2024-09-29T13:25:05.999Z</time>
      </trkpt>
      <trkpt lat="42.36425" lon="0.85288">
        <ele>1155.41</ele>
        <time>2024-09-29T13:25:12.999Z</time>
      </trkpt>
      <trkpt lat="42.36421" lon="0.85278">
        <ele>1156.02</ele>
        <time>2024-09-29T13:25:18.999Z</time>
      </trkpt>
      <trkpt lat="42.36416" lon="0.85266">
        <ele>1156.64</ele>
        <time>2024-09-29T13:25:24.999Z</time>
      </trkpt>
      <trkpt lat="42.36412" lon="0.85254">
        <ele>1157.36</ele>
        <time>2024-09-29T13:25:31.999Z</time>
      </trkpt>
      <trkpt lat="42.36408" lon="0.85241">
        <ele>1158.08</ele>
        <time>2024-09-29T13:25:38.999Z</time>
      </trkpt>
      <trkpt lat="42.36404" lon="0.85229">
        <ele>1158.72</ele>
        <time>2024-09-29T13:25:44.999Z</time>
      </trkpt>
      <trkpt lat="42.364" lon="0.85217">
        <ele>1159.48</ele>
        <time>2024-09-29T13:25:51.999Z</time>
      </trkpt>
      <trkpt lat="42.36396" lon="0.85204">
        <ele>1160.26</ele>
        <time>2024-09-29T13:25:58.999Z</time>
      </trkpt>
      <trkpt lat="42.36393" lon="0.85192">
        <ele>1161.05</ele>
        <time>2024-09-29T13:26:05.999Z</time>
      </trkpt>
      <trkpt lat="42.3639" lon="0.85178">
        <ele>1161.84</ele>
        <time>2024-09-29T13:26:12.999Z</time>
      </trkpt>
      <trkpt lat="42.36387" lon="0.85166">
        <ele>1162.65</ele>
        <time>2024-09-29T13:26:19.999Z</time>
      </trkpt>
      <trkpt lat="42.36384" lon="0.85154">
        <ele>1163.44</ele>
        <time>2024-09-29T13:26:26.999Z</time>
      </trkpt>
      <trkpt lat="42.36382" lon="0.85141">
        <ele>1164.24</ele>
        <time>2024-09-29T13:26:33.999Z</time>
      </trkpt>
      <trkpt lat="42.3638" lon="0.85128">
        <ele>1165.05</ele>
        <time>2024-09-29T13:26:40.999Z</time>
      </trkpt>
      <trkpt lat="42.36378" lon="0.85115">
        <ele>1165.87</ele>
        <time>2024-09-29T13:26:47.999Z</time>
      </trkpt>
      <trkpt lat="42.36376" lon="0.85103">
        <ele>1166.69</ele>
        <time>2024-09-29T13:26:54.999Z</time>
      </trkpt>
      <trkpt lat="42.36372" lon="0.85091">
        <ele>1167.51</ele>
        <time>2024-09-29T13:27:01.999Z</time>
      </trkpt>
      <trkpt lat="42.36365" lon="0.85082">
        <ele>1168.23</ele>
        <time>2024-09-29T13:27:07.999Z</time>
      </trkpt>
      <trkpt lat="42.36358" lon="0.85073">
        <ele>1169.08</ele>
        <time>2024-09-29T13:27:14.999Z</time>
      </trkpt>
      <trkpt lat="42.36351" lon="0.85064">
        <ele>1169.95</ele>
        <time>2024-09-29T13:27:21.999Z</time>
      </trkpt>
      <trkpt lat="42.36344" lon="0.85054">
        <ele>1170.83</ele>
        <time>2024-09-29T13:27:28.999Z</time>
      </trkpt>
      <trkpt lat="42.36336" lon="0.85045">
        <ele>1171.73</ele>
        <time>2024-09-29T13:27:35.999Z</time>
      </trkpt>
      <trkpt lat="42.36328" lon="0.85037">
        <ele>1172.63</ele>
        <time>2024-09-29T13:27:42.999Z</time>
      </trkpt>
      <trkpt lat="42.3632" lon="0.85028">
        <ele>1173.41</ele>
        <time>2024-09-29T13:27:48.999Z</time>
      </trkpt>
      <trkpt lat="42.36313" lon="0.8502">
        <ele>1174.18</ele>
        <time>2024-09-29T13:27:54.999Z</time>
      </trkpt>
      <trkpt lat="42.36304" lon="0.85014">
        <ele>1174.95</ele>
        <time>2024-09-29T13:28:00.999Z</time>
      </trkpt>
      <trkpt lat="42.36294" lon="0.85011">
        <ele>1175.83</ele>
        <time>2024-09-29T13:28:07.999Z</time>
      </trkpt>
      <trkpt lat="42.36285" lon="0.85014">
        <ele>1176.75</ele>
        <time>2024-09-29T13:28:14.999Z</time>
      </trkpt>
      <trkpt lat="42.36277" lon="0.85022">
        <ele>1177.78</ele>
        <time>2024-09-29T13:28:21.999Z</time>
      </trkpt>
      <trkpt lat="42.36272" lon="0.85035">
        <ele>1178.58</ele>
        <time>2024-09-29T13:28:26.999Z</time>
      </trkpt>
      <trkpt lat="42.36269" lon="0.85046">
        <ele>1179.59</ele>
        <time>2024-09-29T13:28:32.999Z</time>
      </trkpt>
      <trkpt lat="42.36267" lon="0.85059">
        <ele>1180.71</ele>
        <time>2024-09-29T13:28:38.999Z</time>
      </trkpt>
      <trkpt lat="42.36266" lon="0.85072">
        <ele>1181.8</ele>
        <time>2024-09-29T13:28:44.999Z</time>
      </trkpt>
      <trkpt lat="42.36264" lon="0.85085">
        <ele>1182.83</ele>
        <time>2024-09-29T13:28:50.999Z</time>
      </trkpt>
      <trkpt lat="42.36262" lon="0.85099">
        <ele>1183.99</ele>
        <time>2024-09-29T13:28:57.999Z</time>
      </trkpt>
      <trkpt lat="42.36261" lon="0.85112">
        <ele>1184.98</ele>
        <time>2024-09-29T13:29:03.999Z</time>
      </trkpt>
      <trkpt lat="42.36259" lon="0.85124">
        <ele>1186.18</ele>
        <time>2024-09-29T13:29:10.999Z</time>
      </trkpt>
      <trkpt lat="42.36254" lon="0.85137">
        <ele>1187.62</ele>
        <time>2024-09-29T13:29:17.999Z</time>
      </trkpt>
      <trkpt lat="42.36246" lon="0.85142">
        <ele>1188.94</ele>
        <time>2024-09-29T13:29:23.999Z</time>
      </trkpt>
      <trkpt lat="42.36237" lon="0.8514">
        <ele>1190.31</ele>
        <time>2024-09-29T13:29:29.999Z</time>
      </trkpt>
      <trkpt lat="42.3623" lon="0.85131">
        <ele>1191.64</ele>
        <time>2024-09-29T13:29:35.999Z</time>
      </trkpt>
      <trkpt lat="42.36228" lon="0.85118">
        <ele>1192.9</ele>
        <time>2024-09-29T13:29:41.999Z</time>
      </trkpt>
      <trkpt lat="42.36232" lon="0.85107">
        <ele>1194.1</ele>
        <time>2024-09-29T13:29:47.999Z</time>
      </trkpt>
      <trkpt lat="42.36237" lon="0.85096">
        <ele>1195.23</ele>
        <time>2024-09-29T13:29:53.999Z</time>
      </trkpt>
      <trkpt lat="42.36242" lon="0.85084">
        <ele>1196.29</ele>
        <time>2024-09-29T13:29:59.999Z</time>
      </trkpt>
      <trkpt lat="42.36245" lon="0.85071">
        <ele>1197.29</ele>
        <time>2024-09-29T13:30:05.999Z</time>
      </trkpt>
      <trkpt lat="42.36246" lon="0.85058">
        <ele>1198.35</ele>
        <time>2024-09-29T13:30:12.999Z</time>
      </trkpt>
      <trkpt lat="42.36246" lon="0.85046">
        <ele>1199.58</ele>
        <time>2024-09-29T13:30:23.999Z</time>
      </trkpt>
      <trkpt lat="42.36245" lon="0.85033">
        <ele>1201</ele>
        <time>2024-09-29T13:30:48.999Z</time>
      </trkpt>
      <trkpt lat="42.36244" lon="0.8502">
        <ele>1201.87</ele>
        <time>2024-09-29T13:30:55.999Z</time>
      </trkpt>
      <trkpt lat="42.36242" lon="0.85007">
        <ele>1202.56</ele>
        <time>2024-09-29T13:31:01.999Z</time>
      </trkpt>
      <trkpt lat="42.36242" lon="0.84995">
        <ele>1203.21</ele>
        <time>2024-09-29T13:31:07.999Z</time>
      </trkpt>
      <trkpt lat="42.36242" lon="0.84982">
        <ele>1203.83</ele>
        <time>2024-09-29T13:31:13.999Z</time>
      </trkpt>
      <trkpt lat="42.36244" lon="0.8497">
        <ele>1204.41</ele>
        <time>2024-09-29T13:31:19.999Z</time>
      </trkpt>
      <trkpt lat="42.36247" lon="0.84958">
        <ele>1204.94</ele>
        <time>2024-09-29T13:31:25.999Z</time>
      </trkpt>
      <trkpt lat="42.3625" lon="0.84944">
        <ele>1205.52</ele>
        <time>2024-09-29T13:31:32.999Z</time>
      </trkpt>
      <trkpt lat="42.36254" lon="0.84931">
        <ele>1206.05</ele>
        <time>2024-09-29T13:31:39.999Z</time>
      </trkpt>
      <trkpt lat="42.36256" lon="0.8492">
        <ele>1206.47</ele>
        <time>2024-09-29T13:31:45.999Z</time>
      </trkpt>
      <trkpt lat="42.36261" lon="0.84907">
        <ele>1206.86</ele>
        <time>2024-09-29T13:31:51.999Z</time>
      </trkpt>
      <trkpt lat="42.36268" lon="0.84897">
        <ele>1207.18</ele>
        <time>2024-09-29T13:31:56.999Z</time>
      </trkpt>
      <trkpt lat="42.36281" lon="0.84895">
        <ele>1207.54</ele>
        <time>2024-09-29T13:32:01.999Z</time>
      </trkpt>
      <trkpt lat="42.36294" lon="0.84901">
        <ele>1207.94</ele>
        <time>2024-09-29T13:32:06.999Z</time>
      </trkpt>
      <trkpt lat="42.36305" lon="0.84912">
        <ele>1208.38</ele>
        <time>2024-09-29T13:32:11.999Z</time>
      </trkpt>
      <trkpt lat="42.36315" lon="0.84923">
        <ele>1208.86</ele>
        <time>2024-09-29T13:32:16.999Z</time>
      </trkpt>
      <trkpt lat="42.36326" lon="0.84934">
        <ele>1209.37</ele>
        <time>2024-09-29T13:32:21.999Z</time>
      </trkpt>
      <trkpt lat="42.36336" lon="0.84945">
        <ele>1209.9</ele>
        <time>2024-09-29T13:32:26.999Z</time>
      </trkpt>
      <trkpt lat="42.36348" lon="0.84956">
        <ele>1210.44</ele>
        <time>2024-09-29T13:32:31.999Z</time>
      </trkpt>
      <trkpt lat="42.3636" lon="0.84967">
        <ele>1211.03</ele>
        <time>2024-09-29T13:32:36.999Z</time>
      </trkpt>
      <trkpt lat="42.36373" lon="0.84978">
        <ele>1211.67</ele>
        <time>2024-09-29T13:32:41.999Z</time>
      </trkpt>
      <trkpt lat="42.36385" lon="0.84992">
        <ele>1212.33</ele>
        <time>2024-09-29T13:32:46.999Z</time>
      </trkpt>
      <trkpt lat="42.36397" lon="0.85005">
        <ele>1213</ele>
        <time>2024-09-29T13:32:51.999Z</time>
      </trkpt>
      <trkpt lat="42.3641" lon="0.85021">
        <ele>1213.66</ele>
        <time>2024-09-29T13:32:56.999Z</time>
      </trkpt>
      <trkpt lat="42.36421" lon="0.85038">
        <ele>1214.33</ele>
        <time>2024-09-29T13:33:01.999Z</time>
      </trkpt>
      <trkpt lat="42.36431" lon="0.85056">
        <ele>1214.99</ele>
        <time>2024-09-29T13:33:06.999Z</time>
      </trkpt>
      <trkpt lat="42.36441" lon="0.85072">
        <ele>1215.64</ele>
        <time>2024-09-29T13:33:11.999Z</time>
      </trkpt>
      <trkpt lat="42.3645" lon="0.85086">
        <ele>1216.29</ele>
        <time>2024-09-29T13:33:16.999Z</time>
      </trkpt>
      <trkpt lat="42.36457" lon="0.85096">
        <ele>1216.94</ele>
        <time>2024-09-29T13:33:21.999Z</time>
      </trkpt>
      <trkpt lat="42.36463" lon="0.85107">
        <ele>1217.57</ele>
        <time>2024-09-29T13:33:26.999Z</time>
      </trkpt>
      <trkpt lat="42.3647" lon="0.85118">
        <ele>1218.19</ele>
        <time>2024-09-29T13:33:31.999Z</time>
      </trkpt>
      <trkpt lat="42.36477" lon="0.8513">
        <ele>1218.77</ele>
        <time>2024-09-29T13:33:36.999Z</time>
      </trkpt>
      <trkpt lat="42.36484" lon="0.85142">
        <ele>1219.31</ele>
        <time>2024-09-29T13:33:41.999Z</time>
      </trkpt>
      <trkpt lat="42.36491" lon="0.85153">
        <ele>1219.83</ele>
        <time>2024-09-29T13:33:46.999Z</time>
      </trkpt>
      <trkpt lat="42.36499" lon="0.85166">
        <ele>1220.33</ele>
        <time>2024-09-29T13:33:51.999Z</time>
      </trkpt>
      <trkpt lat="42.36507" lon="0.85179">
        <ele>1220.79</ele>
        <time>2024-09-29T13:33:56.999Z</time>
      </trkpt>
      <trkpt lat="42.36515" lon="0.85193">
        <ele>1221.24</ele>
        <time>2024-09-29T13:34:01.999Z</time>
      </trkpt>
      <trkpt lat="42.36523" lon="0.85207">
        <ele>1221.67</ele>
        <time>2024-09-29T13:34:06.999Z</time>
      </trkpt>
      <trkpt lat="42.36531" lon="0.85223">
        <ele>1222.08</ele>
        <time>2024-09-29T13:34:11.999Z</time>
      </trkpt>
      <trkpt lat="42.3654" lon="0.85237">
        <ele>1222.47</ele>
        <time>2024-09-29T13:34:16.999Z</time>
      </trkpt>
      <trkpt lat="42.3655" lon="0.85254">
        <ele>1222.84</ele>
        <time>2024-09-29T13:34:21.999Z</time>
      </trkpt>
      <trkpt lat="42.36558" lon="0.8527">
        <ele>1223.19</ele>
        <time>2024-09-29T13:34:26.999Z</time>
      </trkpt>
      <trkpt lat="42.36567" lon="0.85284">
        <ele>1223.53</ele>
        <time>2024-09-29T13:34:31.999Z</time>
      </trkpt>
      <trkpt lat="42.36575" lon="0.85294">
        <ele>1223.85</ele>
        <time>2024-09-29T13:34:36.999Z</time>
      </trkpt>
      <trkpt lat="42.36583" lon="0.85301">
        <ele>1224.16</ele>
        <time>2024-09-29T13:34:41.999Z</time>
      </trkpt>
      <trkpt lat="42.36592" lon="0.85297">
        <ele>1225.25</ele>
        <time>2024-09-29T13:35:43.999Z</time>
      </trkpt>
      <trkpt lat="42.36598" lon="0.85288">
        <ele>1225.61</ele>
        <time>2024-09-29T13:35:48.999Z</time>
      </trkpt>
      <trkpt lat="42.36602" lon="0.85275">
        <ele>1225.96</ele>
        <time>2024-09-29T13:35:53.999Z</time>
      </trkpt>
      <trkpt lat="42.36605" lon="0.85263">
        <ele>1226.29</ele>
        <time>2024-09-29T13:35:58.999Z</time>
      </trkpt>
      <trkpt lat="42.36606" lon="0.8525">
        <ele>1226.6</ele>
        <time>2024-09-29T13:36:03.999Z</time>
      </trkpt>
      <trkpt lat="42.36606" lon="0.85237">
        <ele>1226.89</ele>
        <time>2024-09-29T13:36:08.999Z</time>
      </trkpt>
      <trkpt lat="42.36605" lon="0.85223">
        <ele>1227.17</ele>
        <time>2024-09-29T13:36:13.999Z</time>
      </trkpt>
      <trkpt lat="42.36604" lon="0.85209">
        <ele>1227.43</ele>
        <time>2024-09-29T13:36:19.000Z</time>
      </trkpt>
      <trkpt lat="42.36601" lon="0.85196">
        <ele>1227.69</ele>
        <time>2024-09-29T13:36:24.000Z</time>
      </trkpt>
      <trkpt lat="42.36597" lon="0.85183">
        <ele>1227.93</ele>
        <time>2024-09-29T13:36:29.000Z</time>
      </trkpt>
      <trkpt lat="42.36593" lon="0.85172">
        <ele>1228.17</ele>
        <time>2024-09-29T13:36:34.000Z</time>
      </trkpt>
      <trkpt lat="42.36588" lon="0.85161">
        <ele>1228.4</ele>
        <time>2024-09-29T13:36:39.000Z</time>
      </trkpt>
      <trkpt lat="42.36581" lon="0.8515">
        <ele>1228.64</ele>
        <time>2024-09-29T13:36:44.000Z</time>
      </trkpt>
      <trkpt lat="42.36572" lon="0.85141">
        <ele>1228.86</ele>
        <time>2024-09-29T13:36:49.000Z</time>
      </trkpt>
      <trkpt lat="42.36564" lon="0.85133">
        <ele>1229.08</ele>
        <time>2024-09-29T13:36:54.000Z</time>
      </trkpt>
      <trkpt lat="42.36556" lon="0.85125">
        <ele>1229.3</ele>
        <time>2024-09-29T13:36:59.000Z</time>
      </trkpt>
      <trkpt lat="42.36549" lon="0.85115">
        <ele>1229.51</ele>
        <time>2024-09-29T13:37:04.000Z</time>
      </trkpt>
      <trkpt lat="42.36542" lon="0.85104">
        <ele>1229.75</ele>
        <time>2024-09-29T13:37:10.000Z</time>
      </trkpt>
      <trkpt lat="42.36536" lon="0.85094">
        <ele>1229.95</ele>
        <time>2024-09-29T13:37:15.000Z</time>
      </trkpt>
      <trkpt lat="42.3653" lon="0.85084">
        <ele>1230.19</ele>
        <time>2024-09-29T13:37:21.000Z</time>
      </trkpt>
      <trkpt lat="42.36524" lon="0.85073">
        <ele>1230.43</ele>
        <time>2024-09-29T13:37:27.000Z</time>
      </trkpt>
      <trkpt lat="42.36517" lon="0.85062">
        <ele>1230.67</ele>
        <time>2024-09-29T13:37:33.000Z</time>
      </trkpt>
      <trkpt lat="42.3651" lon="0.85052">
        <ele>1230.91</ele>
        <time>2024-09-29T13:37:39.000Z</time>
      </trkpt>
      <trkpt lat="42.36504" lon="0.85042">
        <ele>1231.15</ele>
        <time>2024-09-29T13:37:45.000Z</time>
      </trkpt>
      <trkpt lat="42.36498" lon="0.85031">
        <ele>1231.4</ele>
        <time>2024-09-29T13:37:51.000Z</time>
      </trkpt>
      <trkpt lat="42.36491" lon="0.8502">
        <ele>1231.65</ele>
        <time>2024-09-29T13:37:57.000Z</time>
      </trkpt>
      <trkpt lat="42.36485" lon="0.85009">
        <ele>1231.95</ele>
        <time>2024-09-29T13:38:04.000Z</time>
      </trkpt>
      <trkpt lat="42.36479" lon="0.84999">
        <ele>1232.27</ele>
        <time>2024-09-29T13:38:11.000Z</time>
      </trkpt>
      <trkpt lat="42.36473" lon="0.84989">
        <ele>1232.59</ele>
        <time>2024-09-29T13:38:18.000Z</time>
      </trkpt>
      <trkpt lat="42.36468" lon="0.84977">
        <ele>1232.92</ele>
        <time>2024-09-29T13:38:25.000Z</time>
      </trkpt>
      <trkpt lat="42.36464" lon="0.84965">
        <ele>1233.22</ele>
        <time>2024-09-29T13:38:31.000Z</time>
      </trkpt>
      <trkpt lat="42.36464" lon="0.84951">
        <ele>1233.56</ele>
        <time>2024-09-29T13:38:38.000Z</time>
      </trkpt>
      <trkpt lat="42.36464" lon="0.84939">
        <ele>1233.87</ele>
        <time>2024-09-29T13:38:44.000Z</time>
      </trkpt>
      <trkpt lat="42.36464" lon="0.84926">
        <ele>1234.23</ele>
        <time>2024-09-29T13:38:51.000Z</time>
      </trkpt>
      <trkpt lat="42.36464" lon="0.84913">
        <ele>1234.56</ele>
        <time>2024-09-29T13:38:57.000Z</time>
      </trkpt>
      <trkpt lat="42.36464" lon="0.84899">
        <ele>1234.88</ele>
        <time>2024-09-29T13:39:03.000Z</time>
      </trkpt>
      <trkpt lat="42.36465" lon="0.84886">
        <ele>1235.19</ele>
        <time>2024-09-29T13:39:09.000Z</time>
      </trkpt>
      <trkpt lat="42.36466" lon="0.84874">
        <ele>1235.5</ele>
        <time>2024-09-29T13:39:15.000Z</time>
      </trkpt>
      <trkpt lat="42.36466" lon="0.84861">
        <ele>1235.81</ele>
        <time>2024-09-29T13:39:21.000Z</time>
      </trkpt>
      <trkpt lat="42.36468" lon="0.84849">
        <ele>1236.12</ele>
        <time>2024-09-29T13:39:27.000Z</time>
      </trkpt>
      <trkpt lat="42.36471" lon="0.84837">
        <ele>1236.42</ele>
        <time>2024-09-29T13:39:33.000Z</time>
      </trkpt>
      <trkpt lat="42.36479" lon="0.84829">
        <ele>1236.77</ele>
        <time>2024-09-29T13:39:40.000Z</time>
      </trkpt>
      <trkpt lat="42.36489" lon="0.84826">
        <ele>1237.13</ele>
        <time>2024-09-29T13:39:47.000Z</time>
      </trkpt>
      <trkpt lat="42.36499" lon="0.84824">
        <ele>1237.48</ele>
        <time>2024-09-29T13:39:54.000Z</time>
      </trkpt>
      <trkpt lat="42.36507" lon="0.84817">
        <ele>1237.79</ele>
        <time>2024-09-29T13:40:00.000Z</time>
      </trkpt>
      <trkpt lat="42.36511" lon="0.84805">
        <ele>1238.05</ele>
        <time>2024-09-29T13:40:05.000Z</time>
      </trkpt>
      <trkpt lat="42.36509" lon="0.84793">
        <ele>1238.5</ele>
        <time>2024-09-29T13:40:13.000Z</time>
      </trkpt>
      <trkpt lat="42.365" lon="0.84787">
        <ele>1238.94</ele>
        <time>2024-09-29T13:40:20.000Z</time>
      </trkpt>
      <trkpt lat="42.36489" lon="0.84789">
        <ele>1239.44</ele>
        <time>2024-09-29T13:40:26.000Z</time>
      </trkpt>
      <trkpt lat="42.36479" lon="0.84797">
        <ele>1239.95</ele>
        <time>2024-09-29T13:40:31.000Z</time>
      </trkpt>
      <trkpt lat="42.36469" lon="0.84805">
        <ele>1240.55</ele>
        <time>2024-09-29T13:40:36.000Z</time>
      </trkpt>
      <trkpt lat="42.36461" lon="0.84814">
        <ele>1241.22</ele>
        <time>2024-09-29T13:40:41.000Z</time>
      </trkpt>
      <trkpt lat="42.36454" lon="0.84828">
        <ele>1241.95</ele>
        <time>2024-09-29T13:40:46.000Z</time>
      </trkpt>
      <trkpt lat="42.36447" lon="0.8484">
        <ele>1242.67</ele>
        <time>2024-09-29T13:40:51.000Z</time>
      </trkpt>
      <trkpt lat="42.36439" lon="0.84848">
        <ele>1243.42</ele>
        <time>2024-09-29T13:40:56.000Z</time>
      </trkpt>
      <trkpt lat="42.36429" lon="0.84846">
        <ele>1244.4</ele>
        <time>2024-09-29T13:41:02.000Z</time>
      </trkpt>
      <trkpt lat="42.36425" lon="0.84834">
        <ele>1245.6</ele>
        <time>2024-09-29T13:41:09.000Z</time>
      </trkpt>
      <trkpt lat="42.36427" lon="0.84821">
        <ele>1246.47</ele>
        <time>2024-09-29T13:41:14.000Z</time>
      </trkpt>
      <trkpt lat="42.36433" lon="0.84811">
        <ele>1247.5</ele>
        <time>2024-09-29T13:41:20.000Z</time>
      </trkpt>
      <trkpt lat="42.3644" lon="0.848">
        <ele>1248.64</ele>
        <time>2024-09-29T13:41:27.000Z</time>
      </trkpt>
      <trkpt lat="42.36447" lon="0.84789">
        <ele>1249.43</ele>
        <time>2024-09-29T13:41:32.000Z</time>
      </trkpt>
      <trkpt lat="42.36454" lon="0.8478">
        <ele>1250.35</ele>
        <time>2024-09-29T13:41:38.000Z</time>
      </trkpt>
      <trkpt lat="42.36463" lon="0.84775">
        <ele>1251.08</ele>
        <time>2024-09-29T13:41:43.000Z</time>
      </trkpt>
      <trkpt lat="42.36473" lon="0.84771">
        <ele>1252.06</ele>
        <time>2024-09-29T13:41:50.000Z</time>
      </trkpt>
      <trkpt lat="42.36483" lon="0.84769">
        <ele>1252.84</ele>
        <time>2024-09-29T13:41:56.000Z</time>
      </trkpt>
      <trkpt lat="42.36491" lon="0.84765">
        <ele>1253.58</ele>
        <time>2024-09-29T13:42:02.000Z</time>
      </trkpt>
      <trkpt lat="42.365" lon="0.84762">
        <ele>1254.28</ele>
        <time>2024-09-29T13:42:08.000Z</time>
      </trkpt>
      <trkpt lat="42.36508" lon="0.84755">
        <ele>1254.95</ele>
        <time>2024-09-29T13:42:14.000Z</time>
      </trkpt>
      <trkpt lat="42.36514" lon="0.84744">
        <ele>1255.53</ele>
        <time>2024-09-29T13:42:19.000Z</time>
      </trkpt>
      <trkpt lat="42.36517" lon="0.84731">
        <ele>1256.24</ele>
        <time>2024-09-29T13:42:25.000Z</time>
      </trkpt>
      <trkpt lat="42.36513" lon="0.84719">
        <ele>1257.07</ele>
        <time>2024-09-29T13:42:32.000Z</time>
      </trkpt>
      <trkpt lat="42.36506" lon="0.84712">
        <ele>1257.78</ele>
        <time>2024-09-29T13:42:38.000Z</time>
      </trkpt>
      <trkpt lat="42.36496" lon="0.8471">
        <ele>1258.49</ele>
        <time>2024-09-29T13:42:44.000Z</time>
      </trkpt>
      <trkpt lat="42.36487" lon="0.84711">
        <ele>1259.21</ele>
        <time>2024-09-29T13:42:50.000Z</time>
      </trkpt>
      <trkpt lat="42.36478" lon="0.84716">
        <ele>1259.94</ele>
        <time>2024-09-29T13:42:56.000Z</time>
      </trkpt>
      <trkpt lat="42.36468" lon="0.84721">
        <ele>1260.78</ele>
        <time>2024-09-29T13:43:03.000Z</time>
      </trkpt>
      <trkpt lat="42.36459" lon="0.84723">
        <ele>1261.49</ele>
        <time>2024-09-29T13:43:09.000Z</time>
      </trkpt>
      <trkpt lat="42.36449" lon="0.84726">
        <ele>1262.31</ele>
        <time>2024-09-29T13:43:16.000Z</time>
      </trkpt>
      <trkpt lat="42.36439" lon="0.84726">
        <ele>1263.12</ele>
        <time>2024-09-29T13:43:23.000Z</time>
      </trkpt>
      <trkpt lat="42.36429" lon="0.84723">
        <ele>1263.93</ele>
        <time>2024-09-29T13:43:30.000Z</time>
      </trkpt>
      <trkpt lat="42.36419" lon="0.84721">
        <ele>1264.72</ele>
        <time>2024-09-29T13:43:37.000Z</time>
      </trkpt>
      <trkpt lat="42.36411" lon="0.84719">
        <ele>1265.38</ele>
        <time>2024-09-29T13:43:43.000Z</time>
      </trkpt>
      <trkpt lat="42.36401" lon="0.84715">
        <ele>1266.13</ele>
        <time>2024-09-29T13:43:50.000Z</time>
      </trkpt>
      <trkpt lat="42.36392" lon="0.84711">
        <ele>1266.78</ele>
        <time>2024-09-29T13:43:56.000Z</time>
      </trkpt>
      <trkpt lat="42.36383" lon="0.84703">
        <ele>1267.51</ele>
        <time>2024-09-29T13:44:03.000Z</time>
      </trkpt>
      <trkpt lat="42.36375" lon="0.84695">
        <ele>1268.22</ele>
        <time>2024-09-29T13:44:10.000Z</time>
      </trkpt>
      <trkpt lat="42.36367" lon="0.84688">
        <ele>1268.92</ele>
        <time>2024-09-29T13:44:17.000Z</time>
      </trkpt>
      <trkpt lat="42.36359" lon="0.8468">
        <ele>1269.5</ele>
        <time>2024-09-29T13:44:23.000Z</time>
      </trkpt>
      <trkpt lat="42.36351" lon="0.84672">
        <ele>1270.15</ele>
        <time>2024-09-29T13:44:30.000Z</time>
      </trkpt>
      <trkpt lat="42.36343" lon="0.84666">
        <ele>1270.72</ele>
        <time>2024-09-29T13:44:36.000Z</time>
      </trkpt>
      <trkpt lat="42.36334" lon="0.8466">
        <ele>1271.31</ele>
        <time>2024-09-29T13:44:42.000Z</time>
      </trkpt>
      <trkpt lat="42.36325" lon="0.84656">
        <ele>1272.09</ele>
        <time>2024-09-29T13:44:49.000Z</time>
      </trkpt>
      <trkpt lat="42.36315" lon="0.84654">
        <ele>1273</ele>
        <time>2024-09-29T13:44:56.000Z</time>
      </trkpt>
      <trkpt lat="42.36306" lon="0.84652">
        <ele>1273.85</ele>
        <time>2024-09-29T13:45:02.000Z</time>
      </trkpt>
      <trkpt lat="42.36296" lon="0.84652">
        <ele>1274.74</ele>
        <time>2024-09-29T13:45:08.000Z</time>
      </trkpt>
      <trkpt lat="42.36286" lon="0.8465">
        <ele>1275.82</ele>
        <time>2024-09-29T13:45:15.000Z</time>
      </trkpt>
      <trkpt lat="42.36277" lon="0.84649">
        <ele>1276.75</ele>
        <time>2024-09-29T13:45:21.000Z</time>
      </trkpt>
      <trkpt lat="42.36267" lon="0.84648">
        <ele>1277.83</ele>
        <time>2024-09-29T13:45:28.000Z</time>
      </trkpt>
      <trkpt lat="42.36258" lon="0.84645">
        <ele>1278.8</ele>
        <time>2024-09-29T13:45:34.000Z</time>
      </trkpt>
      <trkpt lat="42.36248" lon="0.8464">
        <ele>1279.99</ele>
        <time>2024-09-29T13:45:41.000Z</time>
      </trkpt>
      <trkpt lat="42.3624" lon="0.84633">
        <ele>1281.02</ele>
        <time>2024-09-29T13:45:47.000Z</time>
      </trkpt>
      <trkpt lat="42.36235" lon="0.84622">
        <ele>1282.19</ele>
        <time>2024-09-29T13:45:54.000Z</time>
      </trkpt>
      <trkpt lat="42.36232" lon="0.84609">
        <ele>1283.32</ele>
        <time>2024-09-29T13:46:01.000Z</time>
      </trkpt>
      <trkpt lat="42.36231" lon="0.84596">
        <ele>1284.45</ele>
        <time>2024-09-29T13:46:08.000Z</time>
      </trkpt>
      <trkpt lat="42.36228" lon="0.84582">
        <ele>1285.58</ele>
        <time>2024-09-29T13:46:15.000Z</time>
      </trkpt>
      <trkpt lat="42.36226" lon="0.8457">
        <ele>1286.69</ele>
        <time>2024-09-29T13:46:22.000Z</time>
      </trkpt>
      <trkpt lat="42.36224" lon="0.84557">
        <ele>1287.81</ele>
        <time>2024-09-29T13:46:29.000Z</time>
      </trkpt>
      <trkpt lat="42.36221" lon="0.84544">
        <ele>1288.93</ele>
        <time>2024-09-29T13:46:36.000Z</time>
      </trkpt>
      <trkpt lat="42.36218" lon="0.84532">
        <ele>1289.89</ele>
        <time>2024-09-29T13:46:42.000Z</time>
      </trkpt>
      <trkpt lat="42.36216" lon="0.84519">
        <ele>1290.98</ele>
        <time>2024-09-29T13:46:49.000Z</time>
      </trkpt>
      <trkpt lat="42.36214" lon="0.84506">
        <ele>1292.04</ele>
        <time>2024-09-29T13:46:56.000Z</time>
      </trkpt>
      <trkpt lat="42.36212" lon="0.84494">
        <ele>1292.91</ele>
        <time>2024-09-29T13:47:02.000Z</time>
      </trkpt>
      <trkpt lat="42.3621" lon="0.8448">
        <ele>1293.9</ele>
        <time>2024-09-29T13:47:09.000Z</time>
      </trkpt>
      <trkpt lat="42.36207" lon="0.84467">
        <ele>1294.85</ele>
        <time>2024-09-29T13:47:16.000Z</time>
      </trkpt>
      <trkpt lat="42.36204" lon="0.84454">
        <ele>1295.78</ele>
        <time>2024-09-29T13:47:23.000Z</time>
      </trkpt>
      <trkpt lat="42.36201" lon="0.84441">
        <ele>1296.69</ele>
        <time>2024-09-29T13:47:30.000Z</time>
      </trkpt>
      <trkpt lat="42.36198" lon="0.84428">
        <ele>1297.59</ele>
        <time>2024-09-29T13:47:37.000Z</time>
      </trkpt>
      <trkpt lat="42.36194" lon="0.84415">
        <ele>1298.48</ele>
        <time>2024-09-29T13:47:44.000Z</time>
      </trkpt>
      <trkpt lat="42.3619" lon="0.84404">
        <ele>1299.21</ele>
        <time>2024-09-29T13:47:50.000Z</time>
      </trkpt>
      <trkpt lat="42.36185" lon="0.84393">
        <ele>1299.92</ele>
        <time>2024-09-29T13:47:56.000Z</time>
      </trkpt>
      <trkpt lat="42.36179" lon="0.84383">
        <ele>1300.6</ele>
        <time>2024-09-29T13:48:02.000Z</time>
      </trkpt>
      <trkpt lat="42.36175" lon="0.84372">
        <ele>1301.24</ele>
        <time>2024-09-29T13:48:08.000Z</time>
      </trkpt>
      <trkpt lat="42.36173" lon="0.8436">
        <ele>1301.87</ele>
        <time>2024-09-29T13:48:14.000Z</time>
      </trkpt>
      <trkpt lat="42.36172" lon="0.84346">
        <ele>1302.6</ele>
        <time>2024-09-29T13:48:21.000Z</time>
      </trkpt>
      <trkpt lat="42.36171" lon="0.84332">
        <ele>1303.33</ele>
        <time>2024-09-29T13:48:27.999Z</time>
      </trkpt>
      <trkpt lat="42.3617" lon="0.8432">
        <ele>1303.94</ele>
        <time>2024-09-29T13:48:33.999Z</time>
      </trkpt>
      <trkpt lat="42.36168" lon="0.84308">
        <ele>1304.55</ele>
        <time>2024-09-29T13:48:39.999Z</time>
      </trkpt>
      <trkpt lat="42.36165" lon="0.84295">
        <ele>1305.26</ele>
        <time>2024-09-29T13:48:46.999Z</time>
      </trkpt>
      <trkpt lat="42.3616" lon="0.84284">
        <ele>1305.86</ele>
        <time>2024-09-29T13:48:52.999Z</time>
      </trkpt>
      <trkpt lat="42.36155" lon="0.84273">
        <ele>1306.47</ele>
        <time>2024-09-29T13:48:58.999Z</time>
      </trkpt>
      <trkpt lat="42.36149" lon="0.84262">
        <ele>1307.08</ele>
        <time>2024-09-29T13:49:04.999Z</time>
      </trkpt>
      <trkpt lat="42.36143" lon="0.84252">
        <ele>1307.7</ele>
        <time>2024-09-29T13:49:10.999Z</time>
      </trkpt>
      <trkpt lat="42.36137" lon="0.84242">
        <ele>1308.31</ele>
        <time>2024-09-29T13:49:16.999Z</time>
      </trkpt>
      <trkpt lat="42.3613" lon="0.84233">
        <ele>1309.03</ele>
        <time>2024-09-29T13:49:23.999Z</time>
      </trkpt>
      <trkpt lat="42.36122" lon="0.84224">
        <ele>1309.75</ele>
        <time>2024-09-29T13:49:30.999Z</time>
      </trkpt>
      <trkpt lat="42.36114" lon="0.84217">
        <ele>1310.35</ele>
        <time>2024-09-29T13:49:36.999Z</time>
      </trkpt>
      <trkpt lat="42.36105" lon="0.84211">
        <ele>1311.03</ele>
        <time>2024-09-29T13:49:43.999Z</time>
      </trkpt>
      <trkpt lat="42.36097" lon="0.84207">
        <ele>1311.6</ele>
        <time>2024-09-29T13:49:49.999Z</time>
      </trkpt>
      <trkpt lat="42.36087" lon="0.84206">
        <ele>1312.17</ele>
        <time>2024-09-29T13:49:55.999Z</time>
      </trkpt>
      <trkpt lat="42.36077" lon="0.84205">
        <ele>1312.82</ele>
        <time>2024-09-29T13:50:02.999Z</time>
      </trkpt>
      <trkpt lat="42.36067" lon="0.84204">
        <ele>1313.47</ele>
        <time>2024-09-29T13:50:09.999Z</time>
      </trkpt>
      <trkpt lat="42.36058" lon="0.842">
        <ele>1314.1</ele>
        <time>2024-09-29T13:50:16.999Z</time>
      </trkpt>
      <trkpt lat="42.36048" lon="0.84193">
        <ele>1314.6</ele>
        <time>2024-09-29T13:50:22.999Z</time>
      </trkpt>
      <trkpt lat="42.36042" lon="0.84183">
        <ele>1315.22</ele>
        <time>2024-09-29T13:50:29.999Z</time>
      </trkpt>
      <trkpt lat="42.36035" lon="0.84174">
        <ele>1315.91</ele>
        <time>2024-09-29T13:50:36.999Z</time>
      </trkpt>
      <trkpt lat="42.36026" lon="0.8417">
        <ele>1316.73</ele>
        <time>2024-09-29T13:50:43.999Z</time>
      </trkpt>
      <trkpt lat="42.36016" lon="0.84168">
        <ele>1317.7</ele>
        <time>2024-09-29T13:50:50.999Z</time>
      </trkpt>
      <trkpt lat="42.36006" lon="0.8417">
        <ele>1318.81</ele>
        <time>2024-09-29T13:50:57.999Z</time>
      </trkpt>
      <trkpt lat="42.35996" lon="0.84175">
        <ele>1319.99</ele>
        <time>2024-09-29T13:51:04.999Z</time>
      </trkpt>
      <trkpt lat="42.35987" lon="0.84179">
        <ele>1321.21</ele>
        <time>2024-09-29T13:51:11.999Z</time>
      </trkpt>
      <trkpt lat="42.35979" lon="0.84186">
        <ele>1322.42</ele>
        <time>2024-09-29T13:51:18.999Z</time>
      </trkpt>
      <trkpt lat="42.3597" lon="0.84193">
        <ele>1323.59</ele>
        <time>2024-09-29T13:51:25.999Z</time>
      </trkpt>
      <trkpt lat="42.35962" lon="0.84201">
        <ele>1324.73</ele>
        <time>2024-09-29T13:51:32.999Z</time>
      </trkpt>
      <trkpt lat="42.35953" lon="0.84208">
        <ele>1325.84</ele>
        <time>2024-09-29T13:51:39.999Z</time>
      </trkpt>
      <trkpt lat="42.35944" lon="0.84212">
        <ele>1326.94</ele>
        <time>2024-09-29T13:51:46.999Z</time>
      </trkpt>
      <trkpt lat="42.35934" lon="0.84214">
        <ele>1328</ele>
        <time>2024-09-29T13:51:53.999Z</time>
      </trkpt>
      <trkpt lat="42.35925" lon="0.84217">
        <ele>1328.9</ele>
        <time>2024-09-29T13:51:59.999Z</time>
      </trkpt>
      <trkpt lat="42.35915" lon="0.8422">
        <ele>1329.92</ele>
        <time>2024-09-29T13:52:06.999Z</time>
      </trkpt>
      <trkpt lat="42.35904" lon="0.84222">
        <ele>1330.92</ele>
        <time>2024-09-29T13:52:13.999Z</time>
      </trkpt>
      <trkpt lat="42.35895" lon="0.84224">
        <ele>1331.74</ele>
        <time>2024-09-29T13:52:19.999Z</time>
      </trkpt>
      <trkpt lat="42.35885" lon="0.84227">
        <ele>1332.67</ele>
        <time>2024-09-29T13:52:26.999Z</time>
      </trkpt>
      <trkpt lat="42.35875" lon="0.84231">
        <ele>1333.57</ele>
        <time>2024-09-29T13:52:33.999Z</time>
      </trkpt>
      <trkpt lat="42.35865" lon="0.84234">
        <ele>1334.44</ele>
        <time>2024-09-29T13:52:40.999Z</time>
      </trkpt>
      <trkpt lat="42.35855" lon="0.84237">
        <ele>1335.28</ele>
        <time>2024-09-29T13:52:47.999Z</time>
      </trkpt>
      <trkpt lat="42.35845" lon="0.84238">
        <ele>1336.08</ele>
        <time>2024-09-29T13:52:54.999Z</time>
      </trkpt>
      <trkpt lat="42.35836" lon="0.84238">
        <ele>1336.76</ele>
        <time>2024-09-29T13:53:00.999Z</time>
      </trkpt>
      <trkpt lat="42.35826" lon="0.84237">
        <ele>1337.52</ele>
        <time>2024-09-29T13:53:07.999Z</time>
      </trkpt>
      <trkpt lat="42.35816" lon="0.84235">
        <ele>1338.25</ele>
        <time>2024-09-29T13:53:14.999Z</time>
      </trkpt>
      <trkpt lat="42.35807" lon="0.84231">
        <ele>1338.94</ele>
        <time>2024-09-29T13:53:21.999Z</time>
      </trkpt>
      <trkpt lat="42.35799" lon="0.84225">
        <ele>1339.6</ele>
        <time>2024-09-29T13:53:28.999Z</time>
      </trkpt>
      <trkpt lat="42.3579" lon="0.84218">
        <ele>1340.24</ele>
        <time>2024-09-29T13:53:35.999Z</time>
      </trkpt>
      <trkpt lat="42.35782" lon="0.84212">
        <ele>1340.84</ele>
        <time>2024-09-29T13:53:42.999Z</time>
      </trkpt>
      <trkpt lat="42.35773" lon="0.84207">
        <ele>1341.34</ele>
        <time>2024-09-29T13:53:48.999Z</time>
      </trkpt>
      <trkpt lat="42.35779" lon="0.84219">
        <ele>1350.29</ele>
        <time>2024-09-29T14:01:19.000Z</time>
      </trkpt>
      <trkpt lat="42.35787" lon="0.84228">
        <ele>1350.63</ele>
        <time>2024-09-29T14:01:24.000Z</time>
      </trkpt>
      <trkpt lat="42.35794" lon="0.84235">
        <ele>1350.95</ele>
        <time>2024-09-29T14:01:29.000Z</time>
      </trkpt>
      <trkpt lat="42.35801" lon="0.84246">
        <ele>1351.28</ele>
        <time>2024-09-29T14:01:35.000Z</time>
      </trkpt>
      <trkpt lat="42.35795" lon="0.84256">
        <ele>1352.45</ele>
        <time>2024-09-29T14:02:11.000Z</time>
      </trkpt>
      <trkpt lat="42.3579" lon="0.84266">
        <ele>1352.79</ele>
        <time>2024-09-29T14:02:22.000Z</time>
      </trkpt>
      <trkpt lat="42.35797" lon="0.84258">
        <ele>1353.21</ele>
        <time>2024-09-29T14:02:40.000Z</time>
      </trkpt>
      <trkpt lat="42.35802" lon="0.84247">
        <ele>1354.06</ele>
        <time>2024-09-29T14:07:40.000Z</time>
      </trkpt>
      <trkpt lat="42.358" lon="0.84234">
        <ele>1354.24</ele>
        <time>2024-09-29T14:09:48.000Z</time>
      </trkpt>
      <trkpt lat="42.35791" lon="0.84222">
        <ele>1354.28</ele>
        <time>2024-09-29T14:09:53.000Z</time>
      </trkpt>
      <trkpt lat="42.35781" lon="0.84211">
        <ele>1354.31</ele>
        <time>2024-09-29T14:09:58.000Z</time>
      </trkpt>
      <trkpt lat="42.35772" lon="0.84201">
        <ele>1354.34</ele>
        <time>2024-09-29T14:10:03.000Z</time>
      </trkpt>
      <trkpt lat="42.35761" lon="0.84181">
        <ele>1354.48</ele>
        <time>2024-09-29T14:10:08.000Z</time>
      </trkpt>
      <trkpt lat="42.35753" lon="0.84142">
        <ele>1354.54</ele>
        <time>2024-09-29T14:10:13.000Z</time>
      </trkpt>
      <trkpt lat="42.35744" lon="0.8409">
        <ele>1354.29</ele>
        <time>2024-09-29T14:10:18.000Z</time>
      </trkpt>
      <trkpt lat="42.35733" lon="0.8403">
        <ele>1353.58</ele>
        <time>2024-09-29T14:10:23.000Z</time>
      </trkpt>
      <trkpt lat="42.35721" lon="0.83963">
        <ele>1352.76</ele>
        <time>2024-09-29T14:10:28.000Z</time>
      </trkpt>
      <trkpt lat="42.35716" lon="0.83891">
        <ele>1351.69</ele>
        <time>2024-09-29T14:10:33.000Z</time>
      </trkpt>
      <trkpt lat="42.35724" lon="0.83818">
        <ele>1350.3</ele>
        <time>2024-09-29T14:10:38.000Z</time>
      </trkpt>
      <trkpt lat="42.35747" lon="0.83745">
        <ele>1348.87</ele>
        <time>2024-09-29T14:10:43.000Z</time>
      </trkpt>
      <trkpt lat="42.35771" lon="0.83673">
        <ele>1347.01</ele>
        <time>2024-09-29T14:10:48.000Z</time>
      </trkpt>
      <trkpt lat="42.35767" lon="0.83603">
        <ele>1344.57</ele>
        <time>2024-09-29T14:10:53.000Z</time>
      </trkpt>
      <trkpt lat="42.35727" lon="0.83553">
        <ele>1341.63</ele>
        <time>2024-09-29T14:10:58.000Z</time>
      </trkpt>
      <trkpt lat="42.35709" lon="0.83483">
        <ele>1338.97</ele>
        <time>2024-09-29T14:11:03.000Z</time>
      </trkpt>
      <trkpt lat="42.35706" lon="0.83405">
        <ele>1335.78</ele>
        <time>2024-09-29T14:11:08.000Z</time>
      </trkpt>
      <trkpt lat="42.35722" lon="0.83333">
        <ele>1332.28</ele>
        <time>2024-09-29T14:11:13.000Z</time>
      </trkpt>
      <trkpt lat="42.35698" lon="0.83275">
        <ele>1328.79</ele>
        <time>2024-09-29T14:11:18.000Z</time>
      </trkpt>
      <trkpt lat="42.35643" lon="0.83259">
        <ele>1325.39</ele>
        <time>2024-09-29T14:11:23.000Z</time>
      </trkpt>
      <trkpt lat="42.35594" lon="0.83211">
        <ele>1321.35</ele>
        <time>2024-09-29T14:11:28.000Z</time>
      </trkpt>
      <trkpt lat="42.35537" lon="0.8318">
        <ele>1316.95</ele>
        <time>2024-09-29T14:11:33.000Z</time>
      </trkpt>
      <trkpt lat="42.35479" lon="0.83153">
        <ele>1312.35</ele>
        <time>2024-09-29T14:11:38.000Z</time>
      </trkpt>
      <trkpt lat="42.35419" lon="0.83129">
        <ele>1306.96</ele>
        <time>2024-09-29T14:11:43.000Z</time>
      </trkpt>
      <trkpt lat="42.35372" lon="0.83068">
        <ele>1301.21</ele>
        <time>2024-09-29T14:11:48.000Z</time>
      </trkpt>
      <trkpt lat="42.35348" lon="0.82982">
        <ele>1292.28</ele>
        <time>2024-09-29T14:11:53.000Z</time>
      </trkpt>
      <trkpt lat="42.35311" lon="0.8291">
        <ele>1284.46</ele>
        <time>2024-09-29T14:11:58.000Z</time>
      </trkpt>
      <trkpt lat="42.35307" lon="0.82825">
        <ele>1278.79</ele>
        <time>2024-09-29T14:12:03.000Z</time>
      </trkpt>
      <trkpt lat="42.35336" lon="0.82749">
        <ele>1272.84</ele>
        <time>2024-09-29T14:12:08.000Z</time>
      </trkpt>
      <trkpt lat="42.35376" lon="0.82683">
        <ele>1266.87</ele>
        <time>2024-09-29T14:12:13.000Z</time>
      </trkpt>
      <trkpt lat="42.35412" lon="0.82612">
        <ele>1261.5</ele>
        <time>2024-09-29T14:12:18.000Z</time>
      </trkpt>
      <trkpt lat="42.35448" lon="0.8254">
        <ele>1256.88</ele>
        <time>2024-09-29T14:12:23.000Z</time>
      </trkpt>
      <trkpt lat="42.35498" lon="0.82489">
        <ele>1252.44</ele>
        <time>2024-09-29T14:12:28.000Z</time>
      </trkpt>
      <trkpt lat="42.35553" lon="0.82445">
        <ele>1247.9</ele>
        <time>2024-09-29T14:12:33.000Z</time>
      </trkpt>
      <trkpt lat="42.35613" lon="0.82409">
        <ele>1243.55</ele>
        <time>2024-09-29T14:12:38.000Z</time>
      </trkpt>
      <trkpt lat="42.35687" lon="0.82375">
        <ele>1238.48</ele>
        <time>2024-09-29T14:12:43.999Z</time>
      </trkpt>
      <trkpt lat="42.3575" lon="0.82367">
        <ele>1234.35</ele>
        <time>2024-09-29T14:12:48.999Z</time>
      </trkpt>
      <trkpt lat="42.35802" lon="0.82331">
        <ele>1230.46</ele>
        <time>2024-09-29T14:12:53.999Z</time>
      </trkpt>
      <trkpt lat="42.35814" lon="0.8227">
        <ele>1226.85</ele>
        <time>2024-09-29T14:12:58.999Z</time>
      </trkpt>
      <trkpt lat="42.35789" lon="0.82231">
        <ele>1223.58</ele>
        <time>2024-09-29T14:13:03.999Z</time>
      </trkpt>
      <trkpt lat="42.35773" lon="0.82187">
        <ele>1221.17</ele>
        <time>2024-09-29T14:13:08.999Z</time>
      </trkpt>
      <trkpt lat="42.35776" lon="0.8215">
        <ele>1219.25</ele>
        <time>2024-09-29T14:13:13.999Z</time>
      </trkpt>
      <trkpt lat="42.35784" lon="0.82125">
        <ele>1217.78</ele>
        <time>2024-09-29T14:13:18.999Z</time>
      </trkpt>
      <trkpt lat="42.3579" lon="0.82104">
        <ele>1217.46</ele>
        <time>2024-09-29T14:13:23.999Z</time>
      </trkpt>
      <trkpt lat="42.35796" lon="0.82086">
        <ele>1217.03</ele>
        <time>2024-09-29T14:13:28.999Z</time>
      </trkpt>
      <trkpt lat="42.358" lon="0.82068">
        <ele>1216.55</ele>
        <time>2024-09-29T14:13:33.999Z</time>
      </trkpt>
      <trkpt lat="42.35805" lon="0.82052">
        <ele>1216.05</ele>
        <time>2024-09-29T14:13:38.999Z</time>
      </trkpt>
      <trkpt lat="42.35809" lon="0.82039">
        <ele>1215.51</ele>
        <time>2024-09-29T14:13:43.999Z</time>
      </trkpt>
      <trkpt lat="42.35814" lon="0.82026">
        <ele>1214.94</ele>
        <time>2024-09-29T14:13:48.999Z</time>
      </trkpt>
      <trkpt lat="42.35819" lon="0.82013">
        <ele>1214.34</ele>
        <time>2024-09-29T14:13:53.999Z</time>
      </trkpt>
      <trkpt lat="42.35824" lon="0.82">
        <ele>1213.78</ele>
        <time>2024-09-29T14:13:58.999Z</time>
      </trkpt>
      <trkpt lat="42.35829" lon="0.81988">
        <ele>1213.3</ele>
        <time>2024-09-29T14:14:03.999Z</time>
      </trkpt>
      <trkpt lat="42.35834" lon="0.81975">
        <ele>1212.87</ele>
        <time>2024-09-29T14:14:08.999Z</time>
      </trkpt>
      <trkpt lat="42.35839" lon="0.81961">
        <ele>1212.54</ele>
        <time>2024-09-29T14:14:13.999Z</time>
      </trkpt>
      <trkpt lat="42.35846" lon="0.81946">
        <ele>1212.3</ele>
        <time>2024-09-29T14:14:18.999Z</time>
      </trkpt>
      <trkpt lat="42.35851" lon="0.8193">
        <ele>1212.16</ele>
        <time>2024-09-29T14:14:23.999Z</time>
      </trkpt>
      <trkpt lat="42.35861" lon="0.8191">
        <ele>1212.04</ele>
        <time>2024-09-29T14:14:28.999Z</time>
      </trkpt>
      <trkpt lat="42.35876" lon="0.81892">
        <ele>1211.71</ele>
        <time>2024-09-29T14:14:33.999Z</time>
      </trkpt>
      <trkpt lat="42.35897" lon="0.81882">
        <ele>1211.56</ele>
        <time>2024-09-29T14:14:38.999Z</time>
      </trkpt>
      <trkpt lat="42.35918" lon="0.81875">
        <ele>1211.67</ele>
        <time>2024-09-29T14:14:43.999Z</time>
      </trkpt>
      <trkpt lat="42.3594" lon="0.81863">
        <ele>1211.9</ele>
        <time>2024-09-29T14:14:48.999Z</time>
      </trkpt>
      <trkpt lat="42.35961" lon="0.81843">
        <ele>1212.05</ele>
        <time>2024-09-29T14:14:53.999Z</time>
      </trkpt>
      <trkpt lat="42.35981" lon="0.8182">
        <ele>1212.08</ele>
        <time>2024-09-29T14:14:58.999Z</time>
      </trkpt>
      <trkpt lat="42.36005" lon="0.81805">
        <ele>1212.22</ele>
        <time>2024-09-29T14:15:03.999Z</time>
      </trkpt>
      <trkpt lat="42.36029" lon="0.8179">
        <ele>1212.4</ele>
        <time>2024-09-29T14:15:08.999Z</time>
      </trkpt>
      <trkpt lat="42.36052" lon="0.81772">
        <ele>1212.48</ele>
        <time>2024-09-29T14:15:13.999Z</time>
      </trkpt>
      <trkpt lat="42.36075" lon="0.81762">
        <ele>1212.65</ele>
        <time>2024-09-29T14:15:18.999Z</time>
      </trkpt>
      <trkpt lat="42.361" lon="0.8176">
        <ele>1212.66</ele>
        <time>2024-09-29T14:15:23.999Z</time>
      </trkpt>
      <trkpt lat="42.36126" lon="0.81759">
        <ele>1212.59</ele>
        <time>2024-09-29T14:15:28.999Z</time>
      </trkpt>
      <trkpt lat="42.3615" lon="0.81757">
        <ele>1212.6</ele>
        <time>2024-09-29T14:15:33.999Z</time>
      </trkpt>
      <trkpt lat="42.36173" lon="0.81754">
        <ele>1212.86</ele>
        <time>2024-09-29T14:15:38.999Z</time>
      </trkpt>
      <trkpt lat="42.36193" lon="0.81738">
        <ele>1213.04</ele>
        <time>2024-09-29T14:15:43.999Z</time>
      </trkpt>
      <trkpt lat="42.36212" lon="0.81717">
        <ele>1212.79</ele>
        <time>2024-09-29T14:15:48.999Z</time>
      </trkpt>
      <trkpt lat="42.36233" lon="0.81699">
        <ele>1212.73</ele>
        <time>2024-09-29T14:15:53.999Z</time>
      </trkpt>
      <trkpt lat="42.36256" lon="0.81685">
        <ele>1212.9</ele>
        <time>2024-09-29T14:15:58.999Z</time>
      </trkpt>
      <trkpt lat="42.3628" lon="0.81672">
        <ele>1213.16</ele>
        <time>2024-09-29T14:16:03.999Z</time>
      </trkpt>
      <trkpt lat="42.36302" lon="0.81656">
        <ele>1213.4</ele>
        <time>2024-09-29T14:16:08.999Z</time>
      </trkpt>
      <trkpt lat="42.36322" lon="0.81634">
        <ele>1213.54</ele>
        <time>2024-09-29T14:16:13.999Z</time>
      </trkpt>
      <trkpt lat="42.3633" lon="0.81602">
        <ele>1213.63</ele>
        <time>2024-09-29T14:16:18.999Z</time>
      </trkpt>
      <trkpt lat="42.36333" lon="0.81569">
        <ele>1213.61</ele>
        <time>2024-09-29T14:16:23.999Z</time>
      </trkpt>
      <trkpt lat="42.36344" lon="0.81539">
        <ele>1213.77</ele>
        <time>2024-09-29T14:16:28.999Z</time>
      </trkpt>
      <trkpt lat="42.3636" lon="0.81515">
        <ele>1214.23</ele>
        <time>2024-09-29T14:16:33.999Z</time>
      </trkpt>
      <trkpt lat="42.36366" lon="0.81482">
        <ele>1214.8</ele>
        <time>2024-09-29T14:16:38.999Z</time>
      </trkpt>
      <trkpt lat="42.36365" lon="0.8145">
        <ele>1215.25</ele>
        <time>2024-09-29T14:16:43.999Z</time>
      </trkpt>
      <trkpt lat="42.36365" lon="0.81419">
        <ele>1215.53</ele>
        <time>2024-09-29T14:16:48.999Z</time>
      </trkpt>
      <trkpt lat="42.36372" lon="0.81389">
        <ele>1215.73</ele>
        <time>2024-09-29T14:16:53.999Z</time>
      </trkpt>
      <trkpt lat="42.36382" lon="0.81358">
        <ele>1216</ele>
        <time>2024-09-29T14:16:58.999Z</time>
      </trkpt>
      <trkpt lat="42.36393" lon="0.8133">
        <ele>1216.3</ele>
        <time>2024-09-29T14:17:03.999Z</time>
      </trkpt>
      <trkpt lat="42.36409" lon="0.8131">
        <ele>1216.61</ele>
        <time>2024-09-29T14:17:08.999Z</time>
      </trkpt>
      <trkpt lat="42.36428" lon="0.81296">
        <ele>1216.89</ele>
        <time>2024-09-29T14:17:13.999Z</time>
      </trkpt>
      <trkpt lat="42.36445" lon="0.81284">
        <ele>1217.12</ele>
        <time>2024-09-29T14:17:18.999Z</time>
      </trkpt>
      <trkpt lat="42.36462" lon="0.81272">
        <ele>1217.34</ele>
        <time>2024-09-29T14:17:23.999Z</time>
      </trkpt>
      <trkpt lat="42.3648" lon="0.81266">
        <ele>1217.39</ele>
        <time>2024-09-29T14:17:28.999Z</time>
      </trkpt>
      <trkpt lat="42.36499" lon="0.81261">
        <ele>1217.46</ele>
        <time>2024-09-29T14:17:33.999Z</time>
      </trkpt>
      <trkpt lat="42.36517" lon="0.81258">
        <ele>1217.64</ele>
        <time>2024-09-29T14:17:38.999Z</time>
      </trkpt>
      <trkpt lat="42.36534" lon="0.81251">
        <ele>1217.73</ele>
        <time>2024-09-29T14:17:43.999Z</time>
      </trkpt>
      <trkpt lat="42.36549" lon="0.81241">
        <ele>1217.86</ele>
        <time>2024-09-29T14:17:48.999Z</time>
      </trkpt>
      <trkpt lat="42.36561" lon="0.81229">
        <ele>1218.02</ele>
        <time>2024-09-29T14:17:53.999Z</time>
      </trkpt>
      <trkpt lat="42.36571" lon="0.8122">
        <ele>1218.22</ele>
        <time>2024-09-29T14:17:58.999Z</time>
      </trkpt>
      <trkpt lat="42.36578" lon="0.8121">
        <ele>1218.46</ele>
        <time>2024-09-29T14:18:03.999Z</time>
      </trkpt>
      <trkpt lat="42.36586" lon="0.812">
        <ele>1218.71</ele>
        <time>2024-09-29T14:18:08.999Z</time>
      </trkpt>
      <trkpt lat="42.36594" lon="0.81191">
        <ele>1218.98</ele>
        <time>2024-09-29T14:18:13.999Z</time>
      </trkpt>
      <trkpt lat="42.36601" lon="0.81182">
        <ele>1219.26</ele>
        <time>2024-09-29T14:18:18.999Z</time>
      </trkpt>
      <trkpt lat="42.36611" lon="0.81177">
        <ele>1219.54</ele>
        <time>2024-09-29T14:18:23.999Z</time>
      </trkpt>
      <trkpt lat="42.3662" lon="0.81172">
        <ele>1219.82</ele>
        <time>2024-09-29T14:18:28.999Z</time>
      </trkpt>
      <trkpt lat="42.36628" lon="0.81165">
        <ele>1220.08</ele>
        <time>2024-09-29T14:18:33.999Z</time>
      </trkpt>
      <trkpt lat="42.36635" lon="0.81155">
        <ele>1220.34</ele>
        <time>2024-09-29T14:18:38.999Z</time>
      </trkpt>
      <trkpt lat="42.3664" lon="0.81143">
        <ele>1220.61</ele>
        <time>2024-09-29T14:18:43.999Z</time>
      </trkpt>
      <trkpt lat="42.36645" lon="0.81131">
        <ele>1220.89</ele>
        <time>2024-09-29T14:18:48.999Z</time>
      </trkpt>
      <trkpt lat="42.36649" lon="0.81119">
        <ele>1221.15</ele>
        <time>2024-09-29T14:18:53.999Z</time>
      </trkpt>
      <trkpt lat="42.36653" lon="0.81107">
        <ele>1221.42</ele>
        <time>2024-09-29T14:18:58.999Z</time>
      </trkpt>
      <trkpt lat="42.36657" lon="0.81094">
        <ele>1221.68</ele>
        <time>2024-09-29T14:19:03.999Z</time>
      </trkpt>
      <trkpt lat="42.36662" lon="0.81082">
        <ele>1221.94</ele>
        <time>2024-09-29T14:19:08.999Z</time>
      </trkpt>
      <trkpt lat="42.36666" lon="0.8107">
        <ele>1222.21</ele>
        <time>2024-09-29T14:19:13.999Z</time>
      </trkpt>
      <trkpt lat="42.3667" lon="0.81058">
        <ele>1222.47</ele>
        <time>2024-09-29T14:19:18.999Z</time>
      </trkpt>
      <trkpt lat="42.36674" lon="0.81046">
        <ele>1222.74</ele>
        <time>2024-09-29T14:19:23.999Z</time>
      </trkpt>
      <trkpt lat="42.36679" lon="0.81034">
        <ele>1223.01</ele>
        <time>2024-09-29T14:19:28.999Z</time>
      </trkpt>
      <trkpt lat="42.36683" lon="0.81023">
        <ele>1223.27</ele>
        <time>2024-09-29T14:19:33.999Z</time>
      </trkpt>
      <trkpt lat="42.36687" lon="0.8101">
        <ele>1223.54</ele>
        <time>2024-09-29T14:19:38.999Z</time>
      </trkpt>
      <trkpt lat="42.36692" lon="0.80999">
        <ele>1223.8</ele>
        <time>2024-09-29T14:19:43.999Z</time>
      </trkpt>
      <trkpt lat="42.367" lon="0.80992">
        <ele>1224.06</ele>
        <time>2024-09-29T14:19:48.999Z</time>
      </trkpt>
      <trkpt lat="42.36711" lon="0.80991">
        <ele>1224.31</ele>
        <time>2024-09-29T14:19:53.999Z</time>
      </trkpt>
      <trkpt lat="42.36724" lon="0.80997">
        <ele>1224.56</ele>
        <time>2024-09-29T14:19:58.999Z</time>
      </trkpt>
      <trkpt lat="42.36736" lon="0.81011">
        <ele>1224.8</ele>
        <time>2024-09-29T14:20:03.999Z</time>
      </trkpt>
      <trkpt lat="42.36746" lon="0.81023">
        <ele>1225.02</ele>
        <time>2024-09-29T14:20:08.999Z</time>
      </trkpt>
      <trkpt lat="42.3676" lon="0.8103">
        <ele>1225.24</ele>
        <time>2024-09-29T14:20:13.999Z</time>
      </trkpt>
      <trkpt lat="42.36775" lon="0.81029">
        <ele>1225.46</ele>
        <time>2024-09-29T14:20:18.999Z</time>
      </trkpt>
      <trkpt lat="42.3679" lon="0.8102">
        <ele>1225.67</ele>
        <time>2024-09-29T14:20:23.999Z</time>
      </trkpt>
      <trkpt lat="42.36805" lon="0.81009">
        <ele>1225.87</ele>
        <time>2024-09-29T14:20:28.999Z</time>
      </trkpt>
      <trkpt lat="42.36819" lon="0.81001">
        <ele>1226.08</ele>
        <time>2024-09-29T14:20:33.999Z</time>
      </trkpt>
      <trkpt lat="42.36833" lon="0.80994">
        <ele>1226.3</ele>
        <time>2024-09-29T14:20:38.999Z</time>
      </trkpt>
      <trkpt lat="42.36845" lon="0.80992">
        <ele>1226.51</ele>
        <time>2024-09-29T14:20:43.999Z</time>
      </trkpt>
      <trkpt lat="42.36855" lon="0.8099">
        <ele>1226.73</ele>
        <time>2024-09-29T14:20:48.999Z</time>
      </trkpt>
      <trkpt lat="42.36865" lon="0.80991">
        <ele>1226.95</ele>
        <time>2024-09-29T14:20:53.999Z</time>
      </trkpt>
      <trkpt lat="42.36875" lon="0.80991">
        <ele>1227.17</ele>
        <time>2024-09-29T14:20:58.999Z</time>
      </trkpt>
      <trkpt lat="42.36885" lon="0.80992">
        <ele>1227.39</ele>
        <time>2024-09-29T14:21:03.999Z</time>
      </trkpt>
      <trkpt lat="42.36895" lon="0.80993">
        <ele>1227.61</ele>
        <time>2024-09-29T14:21:08.999Z</time>
      </trkpt>
      <trkpt lat="42.36904" lon="0.80993">
        <ele>1227.84</ele>
        <time>2024-09-29T14:21:13.999Z</time>
      </trkpt>
      <trkpt lat="42.36915" lon="0.80994">
        <ele>1228.07</ele>
        <time>2024-09-29T14:21:18.999Z</time>
      </trkpt>
      <trkpt lat="42.36925" lon="0.80995">
        <ele>1228.31</ele>
        <time>2024-09-29T14:21:23.999Z</time>
      </trkpt>
      <trkpt lat="42.36935" lon="0.80995">
        <ele>1228.55</ele>
        <time>2024-09-29T14:21:28.999Z</time>
      </trkpt>
      <trkpt lat="42.36945" lon="0.80995">
        <ele>1228.81</ele>
        <time>2024-09-29T14:21:33.999Z</time>
      </trkpt>
      <trkpt lat="42.36955" lon="0.80996">
        <ele>1229.06</ele>
        <time>2024-09-29T14:21:38.999Z</time>
      </trkpt>
      <trkpt lat="42.36964" lon="0.80997">
        <ele>1229.33</ele>
        <time>2024-09-29T14:21:43.999Z</time>
      </trkpt>
      <trkpt lat="42.36974" lon="0.80996">
        <ele>1229.61</ele>
        <time>2024-09-29T14:21:48.999Z</time>
      </trkpt>
      <trkpt lat="42.36983" lon="0.80993">
        <ele>1229.89</ele>
        <time>2024-09-29T14:21:53.999Z</time>
      </trkpt>
      <trkpt lat="42.36993" lon="0.80988">
        <ele>1230.19</ele>
        <time>2024-09-29T14:21:58.999Z</time>
      </trkpt>
      <trkpt lat="42.37002" lon="0.80982">
        <ele>1230.5</ele>
        <time>2024-09-29T14:22:03.999Z</time>
      </trkpt>
      <trkpt lat="42.37011" lon="0.80975">
        <ele>1230.81</ele>
        <time>2024-09-29T14:22:08.999Z</time>
      </trkpt>
      <trkpt lat="42.37023" lon="0.80966">
        <ele>1231.57</ele>
        <time>2024-09-29T14:22:13.999Z</time>
      </trkpt>
      <trkpt lat="42.37045" lon="0.80951">
        <ele>1233.46</ele>
        <time>2024-09-29T14:22:18.999Z</time>
      </trkpt>
      <trkpt lat="42.37072" lon="0.80924">
        <ele>1234.21</ele>
        <time>2024-09-29T14:22:23.999Z</time>
      </trkpt>
      <trkpt lat="42.37094" lon="0.80876">
        <ele>1234.3</ele>
        <time>2024-09-29T14:22:28.999Z</time>
      </trkpt>
      <trkpt lat="42.37109" lon="0.80813">
        <ele>1233.77</ele>
        <time>2024-09-29T14:22:33.999Z</time>
      </trkpt>
      <trkpt lat="42.3711" lon="0.80751">
        <ele>1233.59</ele>
        <time>2024-09-29T14:22:38.999Z</time>
      </trkpt>
      <trkpt lat="42.37133" lon="0.80692">
        <ele>1233.01</ele>
        <time>2024-09-29T14:22:43.999Z</time>
      </trkpt>
      <trkpt lat="42.37162" lon="0.80632">
        <ele>1232.34</ele>
        <time>2024-09-29T14:22:48.999Z</time>
      </trkpt>
      <trkpt lat="42.37185" lon="0.80565">
        <ele>1231.57</ele>
        <time>2024-09-29T14:22:53.999Z</time>
      </trkpt>
      <trkpt lat="42.37238" lon="0.80536">
        <ele>1230.75</ele>
        <time>2024-09-29T14:22:58.999Z</time>
      </trkpt>
      <trkpt lat="42.37288" lon="0.80506">
        <ele>1229.95</ele>
        <time>2024-09-29T14:23:03.999Z</time>
      </trkpt>
      <trkpt lat="42.37317" lon="0.8044">
        <ele>1228.92</ele>
        <time>2024-09-29T14:23:08.999Z</time>
      </trkpt>
      <trkpt lat="42.3735" lon="0.80382">
        <ele>1227.66</ele>
        <time>2024-09-29T14:23:13.999Z</time>
      </trkpt>
      <trkpt lat="42.37361" lon="0.80318">
        <ele>1225.88</ele>
        <time>2024-09-29T14:23:18.999Z</time>
      </trkpt>
      <trkpt lat="42.37363" lon="0.8025">
        <ele>1224.08</ele>
        <time>2024-09-29T14:23:23.999Z</time>
      </trkpt>
      <trkpt lat="42.37366" lon="0.80184">
        <ele>1221.76</ele>
        <time>2024-09-29T14:23:28.999Z</time>
      </trkpt>
      <trkpt lat="42.37355" lon="0.80118">
        <ele>1218.75</ele>
        <time>2024-09-29T14:23:33.999Z</time>
      </trkpt>
      <trkpt lat="42.37319" lon="0.80066">
        <ele>1216.11</ele>
        <time>2024-09-29T14:23:38.999Z</time>
      </trkpt>
      <trkpt lat="42.37292" lon="0.80017">
        <ele>1213.8</ele>
        <time>2024-09-29T14:23:43.999Z</time>
      </trkpt>
      <trkpt lat="42.37319" lon="0.79977">
        <ele>1212.1</ele>
        <time>2024-09-29T14:23:48.999Z</time>
      </trkpt>
      <trkpt lat="42.37351" lon="0.79942">
        <ele>1210.4</ele>
        <time>2024-09-29T14:23:53.999Z</time>
      </trkpt>
      <trkpt lat="42.37368" lon="0.79896">
        <ele>1207.97</ele>
        <time>2024-09-29T14:23:58.999Z</time>
      </trkpt>
      <trkpt lat="42.37382" lon="0.7984">
        <ele>1205.36</ele>
        <time>2024-09-29T14:24:03.999Z</time>
      </trkpt>
      <trkpt lat="42.37415" lon="0.79794">
        <ele>1202.86</ele>
        <time>2024-09-29T14:24:08.999Z</time>
      </trkpt>
      <trkpt lat="42.3746" lon="0.79755">
        <ele>1199.54</ele>
        <time>2024-09-29T14:24:13.999Z</time>
      </trkpt>
      <trkpt lat="42.37498" lon="0.79698">
        <ele>1196.03</ele>
        <time>2024-09-29T14:24:18.999Z</time>
      </trkpt>
      <trkpt lat="42.37534" lon="0.79634">
        <ele>1192.82</ele>
        <time>2024-09-29T14:24:23.999Z</time>
      </trkpt>
      <trkpt lat="42.37565" lon="0.79565">
        <ele>1189.88</ele>
        <time>2024-09-29T14:24:28.999Z</time>
      </trkpt>
      <trkpt lat="42.37598" lon="0.79496">
        <ele>1186.77</ele>
        <time>2024-09-29T14:24:33.999Z</time>
      </trkpt>
      <trkpt lat="42.37631" lon="0.79428">
        <ele>1183.18</ele>
        <time>2024-09-29T14:24:38.999Z</time>
      </trkpt>
      <trkpt lat="42.37674" lon="0.79373">
        <ele>1179.7</ele>
        <time>2024-09-29T14:24:43.999Z</time>
      </trkpt>
      <trkpt lat="42.37714" lon="0.79333">
        <ele>1176.04</ele>
        <time>2024-09-29T14:24:48.999Z</time>
      </trkpt>
      <trkpt lat="42.37717" lon="0.79269">
        <ele>1167.9</ele>
        <time>2024-09-29T14:24:54.000Z</time>
      </trkpt>
      <trkpt lat="42.37739" lon="0.79235">
        <ele>1161.39</ele>
        <time>2024-09-29T14:24:59.000Z</time>
      </trkpt>
      <trkpt lat="42.37776" lon="0.79275">
        <ele>1156.63</ele>
        <time>2024-09-29T14:25:04.000Z</time>
      </trkpt>
      <trkpt lat="42.37799" lon="0.79311">
        <ele>1152.4</ele>
        <time>2024-09-29T14:25:09.000Z</time>
      </trkpt>
      <trkpt lat="42.37817" lon="0.79362">
        <ele>1150.12</ele>
        <time>2024-09-29T14:25:14.000Z</time>
      </trkpt>
      <trkpt lat="42.37834" lon="0.79401">
        <ele>1146.85</ele>
        <time>2024-09-29T14:25:19.000Z</time>
      </trkpt>
      <trkpt lat="42.37862" lon="0.79401">
        <ele>1144.7</ele>
        <time>2024-09-29T14:25:24.000Z</time>
      </trkpt>
      <trkpt lat="42.37894" lon="0.79351">
        <ele>1142.44</ele>
        <time>2024-09-29T14:25:29.000Z</time>
      </trkpt>
      <trkpt lat="42.37924" lon="0.793">
        <ele>1138.69</ele>
        <time>2024-09-29T14:25:34.000Z</time>
      </trkpt>
      <trkpt lat="42.37968" lon="0.79284">
        <ele>1134.76</ele>
        <time>2024-09-29T14:25:39.000Z</time>
      </trkpt>
      <trkpt lat="42.37996" lon="0.79234">
        <ele>1129.64</ele>
        <time>2024-09-29T14:25:44.000Z</time>
      </trkpt>
      <trkpt lat="42.38031" lon="0.7918">
        <ele>1124.71</ele>
        <time>2024-09-29T14:25:49.000Z</time>
      </trkpt>
      <trkpt lat="42.38069" lon="0.79123">
        <ele>1120.48</ele>
        <time>2024-09-29T14:25:54.000Z</time>
      </trkpt>
      <trkpt lat="42.3812" lon="0.79099">
        <ele>1117.58</ele>
        <time>2024-09-29T14:25:59.000Z</time>
      </trkpt>
      <trkpt lat="42.38173" lon="0.7913">
        <ele>1113.38</ele>
        <time>2024-09-29T14:26:04.000Z</time>
      </trkpt>
      <trkpt lat="42.38227" lon="0.79105">
        <ele>1109.96</ele>
        <time>2024-09-29T14:26:09.000Z</time>
      </trkpt>
      <trkpt lat="42.38276" lon="0.79069">
        <ele>1106.29</ele>
        <time>2024-09-29T14:26:14.000Z</time>
      </trkpt>
      <trkpt lat="42.38309" lon="0.79052">
        <ele>1105.44</ele>
        <time>2024-09-29T14:26:19.000Z</time>
      </trkpt>
      <trkpt lat="42.38329" lon="0.7902">
        <ele>1101.92</ele>
        <time>2024-09-29T14:26:24.000Z</time>
      </trkpt>
      <trkpt lat="42.3834" lon="0.78971">
        <ele>1097.71</ele>
        <time>2024-09-29T14:26:29.000Z</time>
      </trkpt>
      <trkpt lat="42.38365" lon="0.78943">
        <ele>1093.71</ele>
        <time>2024-09-29T14:26:34.000Z</time>
      </trkpt>
      <trkpt lat="42.38396" lon="0.78979">
        <ele>1090.36</ele>
        <time>2024-09-29T14:26:39.000Z</time>
      </trkpt>
      <trkpt lat="42.38428" lon="0.78998">
        <ele>1086.61</ele>
        <time>2024-09-29T14:26:44.000Z</time>
      </trkpt>
      <trkpt lat="42.38459" lon="0.78973">
        <ele>1083.01</ele>
        <time>2024-09-29T14:26:49.000Z</time>
      </trkpt>
      <trkpt lat="42.38492" lon="0.78929">
        <ele>1078.61</ele>
        <time>2024-09-29T14:26:54.000Z</time>
      </trkpt>
      <trkpt lat="42.38537" lon="0.78898">
        <ele>1075.08</ele>
        <time>2024-09-29T14:26:59.000Z</time>
      </trkpt>
      <trkpt lat="42.38585" lon="0.78877">
        <ele>1072.09</ele>
        <time>2024-09-29T14:27:04.000Z</time>
      </trkpt>
      <trkpt lat="42.38624" lon="0.78824">
        <ele>1068.74</ele>
        <time>2024-09-29T14:27:09.000Z</time>
      </trkpt>
      <trkpt lat="42.38676" lon="0.78795">
        <ele>1066.75</ele>
        <time>2024-09-29T14:27:14.000Z</time>
      </trkpt>
      <trkpt lat="42.38728" lon="0.78763">
        <ele>1064.59</ele>
        <time>2024-09-29T14:27:19.000Z</time>
      </trkpt>
      <trkpt lat="42.38787" lon="0.78741">
        <ele>1062.51</ele>
        <time>2024-09-29T14:27:24.000Z</time>
      </trkpt>
      <trkpt lat="42.38831" lon="0.78689">
        <ele>1057.82</ele>
        <time>2024-09-29T14:27:29.000Z</time>
      </trkpt>
      <trkpt lat="42.38863" lon="0.78688">
        <ele>1053.26</ele>
        <time>2024-09-29T14:27:34.000Z</time>
      </trkpt>
      <trkpt lat="42.38852" lon="0.78724">
        <ele>1047.92</ele>
        <time>2024-09-29T14:27:39.000Z</time>
      </trkpt>
      <trkpt lat="42.38814" lon="0.78748">
        <ele>1042.03</ele>
        <time>2024-09-29T14:27:44.000Z</time>
      </trkpt>
      <trkpt lat="42.3877" lon="0.78787">
        <ele>1039.48</ele>
        <time>2024-09-29T14:27:49.000Z</time>
      </trkpt>
      <trkpt lat="42.38726" lon="0.78832">
        <ele>1035.95</ele>
        <time>2024-09-29T14:27:54.000Z</time>
      </trkpt>
      <trkpt lat="42.38681" lon="0.78872">
        <ele>1027.7</ele>
        <time>2024-09-29T14:27:59.000Z</time>
      </trkpt>
      <trkpt lat="42.38669" lon="0.78918">
        <ele>1021.98</ele>
        <time>2024-09-29T14:28:04.000Z</time>
      </trkpt>
      <trkpt lat="42.3871" lon="0.78891">
        <ele>1017.44</ele>
        <time>2024-09-29T14:28:09.000Z</time>
      </trkpt>
      <trkpt lat="42.38752" lon="0.78856">
        <ele>1012.4</ele>
        <time>2024-09-29T14:28:14.000Z</time>
      </trkpt>
      <trkpt lat="42.38793" lon="0.78827">
        <ele>1009.1</ele>
        <time>2024-09-29T14:28:19.000Z</time>
      </trkpt>
      <trkpt lat="42.38842" lon="0.7884">
        <ele>1008.43</ele>
        <time>2024-09-29T14:28:24.000Z</time>
      </trkpt>
      <trkpt lat="42.38896" lon="0.7882">
        <ele>1004.39</ele>
        <time>2024-09-29T14:28:29.000Z</time>
      </trkpt>
      <trkpt lat="42.38943" lon="0.78772">
        <ele>999.22</ele>
        <time>2024-09-29T14:28:34.000Z</time>
      </trkpt>
      <trkpt lat="42.38984" lon="0.7876">
        <ele>995.57</ele>
        <time>2024-09-29T14:28:39.000Z</time>
      </trkpt>
      <trkpt lat="42.39039" lon="0.78768">
        <ele>992.35</ele>
        <time>2024-09-29T14:28:44.000Z</time>
      </trkpt>
      <trkpt lat="42.39083" lon="0.7872">
        <ele>988.2</ele>
        <time>2024-09-29T14:28:49.000Z</time>
      </trkpt>
      <trkpt lat="42.39124" lon="0.78693">
        <ele>984.98</ele>
        <time>2024-09-29T14:28:54.000Z</time>
      </trkpt>
      <trkpt lat="42.39148" lon="0.78637">
        <ele>983.29</ele>
        <time>2024-09-29T14:28:59.000Z</time>
      </trkpt>
      <trkpt lat="42.3918" lon="0.78584">
        <ele>980.45</ele>
        <time>2024-09-29T14:29:04.000Z</time>
      </trkpt>
      <trkpt lat="42.39226" lon="0.78555">
        <ele>979.01</ele>
        <time>2024-09-29T14:29:09.000Z</time>
      </trkpt>
      <trkpt lat="42.39275" lon="0.78551">
        <ele>980</ele>
        <time>2024-09-29T14:29:14.000Z</time>
      </trkpt>
      <trkpt lat="42.39323" lon="0.7855">
        <ele>977.67</ele>
        <time>2024-09-29T14:29:19.000Z</time>
      </trkpt>
      <trkpt lat="42.39368" lon="0.7855">
        <ele>974.03</ele>
        <time>2024-09-29T14:29:24.000Z</time>
      </trkpt>
      <trkpt lat="42.39394" lon="0.78518">
        <ele>970.14</ele>
        <time>2024-09-29T14:29:29.000Z</time>
      </trkpt>
      <trkpt lat="42.394" lon="0.78466">
        <ele>967.3</ele>
        <time>2024-09-29T14:29:34.000Z</time>
      </trkpt>
      <trkpt lat="42.39407" lon="0.78412">
        <ele>963.92</ele>
        <time>2024-09-29T14:29:39.000Z</time>
      </trkpt>
      <trkpt lat="42.39414" lon="0.78359">
        <ele>960.86</ele>
        <time>2024-09-29T14:29:44.000Z</time>
      </trkpt>
      <trkpt lat="42.39428" lon="0.78311">
        <ele>958.27</ele>
        <time>2024-09-29T14:29:49.000Z</time>
      </trkpt>
      <trkpt lat="42.3945" lon="0.78267">
        <ele>955.68</ele>
        <time>2024-09-29T14:29:54.000Z</time>
      </trkpt>
      <trkpt lat="42.39467" lon="0.7822">
        <ele>953.56</ele>
        <time>2024-09-29T14:29:59.000Z</time>
      </trkpt>
      <trkpt lat="42.39467" lon="0.78166">
        <ele>951.78</ele>
        <time>2024-09-29T14:30:04.000Z</time>
      </trkpt>
      <trkpt lat="42.39465" lon="0.78115">
        <ele>949.94</ele>
        <time>2024-09-29T14:30:09.000Z</time>
      </trkpt>
      <trkpt lat="42.39462" lon="0.78064">
        <ele>948.7</ele>
        <time>2024-09-29T14:30:14.000Z</time>
      </trkpt>
      <trkpt lat="42.3946" lon="0.78013">
        <ele>947.68</ele>
        <time>2024-09-29T14:30:19.000Z</time>
      </trkpt>
      <trkpt lat="42.39458" lon="0.77961">
        <ele>945.83</ele>
        <time>2024-09-29T14:30:24.000Z</time>
      </trkpt>
      <trkpt lat="42.39457" lon="0.7791">
        <ele>943.38</ele>
        <time>2024-09-29T14:30:29.000Z</time>
      </trkpt>
      <trkpt lat="42.39461" lon="0.7786">
        <ele>940.35</ele>
        <time>2024-09-29T14:30:34.000Z</time>
      </trkpt>
      <trkpt lat="42.39463" lon="0.77809">
        <ele>939.1</ele>
        <time>2024-09-29T14:30:39.000Z</time>
      </trkpt>
      <trkpt lat="42.39476" lon="0.77754">
        <ele>938.07</ele>
        <time>2024-09-29T14:30:44.000Z</time>
      </trkpt>
      <trkpt lat="42.39494" lon="0.77699">
        <ele>936.56</ele>
        <time>2024-09-29T14:30:49.000Z</time>
      </trkpt>
      <trkpt lat="42.39478" lon="0.77643">
        <ele>931.97</ele>
        <time>2024-09-29T14:30:54.000Z</time>
      </trkpt>
      <trkpt lat="42.3947" lon="0.77579">
        <ele>929.25</ele>
        <time>2024-09-29T14:30:59.000Z</time>
      </trkpt>
      <trkpt lat="42.39443" lon="0.77516">
        <ele>927.64</ele>
        <time>2024-09-29T14:31:04.000Z</time>
      </trkpt>
      <trkpt lat="42.39449" lon="0.77456">
        <ele>926.68</ele>
        <time>2024-09-29T14:31:09.000Z</time>
      </trkpt>
      <trkpt lat="42.39466" lon="0.7739">
        <ele>923.85</ele>
        <time>2024-09-29T14:31:14.000Z</time>
      </trkpt>
      <trkpt lat="42.39466" lon="0.77321">
        <ele>920.59</ele>
        <time>2024-09-29T14:31:19.000Z</time>
      </trkpt>
      <trkpt lat="42.39453" lon="0.77252">
        <ele>916.86</ele>
        <time>2024-09-29T14:31:24.000Z</time>
      </trkpt>
      <trkpt lat="42.3943" lon="0.77193">
        <ele>912.84</ele>
        <time>2024-09-29T14:31:29.000Z</time>
      </trkpt>
      <trkpt lat="42.39415" lon="0.77133">
        <ele>911.39</ele>
        <time>2024-09-29T14:31:34.000Z</time>
      </trkpt>
      <trkpt lat="42.39416" lon="0.77074">
        <ele>910.83</ele>
        <time>2024-09-29T14:31:39.000Z</time>
      </trkpt>
      <trkpt lat="42.394" lon="0.77023">
        <ele>909.11</ele>
        <time>2024-09-29T14:31:44.000Z</time>
      </trkpt>
      <trkpt lat="42.39377" lon="0.76984">
        <ele>907.13</ele>
        <time>2024-09-29T14:31:49.000Z</time>
      </trkpt>
      <trkpt lat="42.39381" lon="0.76936">
        <ele>906.68</ele>
        <time>2024-09-29T14:31:54.000Z</time>
      </trkpt>
      <trkpt lat="42.39395" lon="0.76884">
        <ele>905.09</ele>
        <time>2024-09-29T14:31:59.000Z</time>
      </trkpt>
      <trkpt lat="42.39402" lon="0.76829">
        <ele>902.97</ele>
        <time>2024-09-29T14:32:04.000Z</time>
      </trkpt>
      <trkpt lat="42.39382" lon="0.76777">
        <ele>900.69</ele>
        <time>2024-09-29T14:32:09.000Z</time>
      </trkpt>
      <trkpt lat="42.39359" lon="0.76734">
        <ele>896.72</ele>
        <time>2024-09-29T14:32:14.000Z</time>
      </trkpt>
      <trkpt lat="42.39369" lon="0.76681">
        <ele>894.25</ele>
        <time>2024-09-29T14:32:19.000Z</time>
      </trkpt>
      <trkpt lat="42.39372" lon="0.76628">
        <ele>892.79</ele>
        <time>2024-09-29T14:32:24.000Z</time>
      </trkpt>
      <trkpt lat="42.39369" lon="0.76576">
        <ele>891.58</ele>
        <time>2024-09-29T14:32:29.000Z</time>
      </trkpt>
      <trkpt lat="42.39374" lon="0.76528">
        <ele>893</ele>
        <time>2024-09-29T14:32:34.000Z</time>
      </trkpt>
      <trkpt lat="42.39391" lon="0.76481">
        <ele>894.97</ele>
        <time>2024-09-29T14:32:39.000Z</time>
      </trkpt>
      <trkpt lat="42.39419" lon="0.76446">
        <ele>893.89</ele>
        <time>2024-09-29T14:32:44.000Z</time>
      </trkpt>
      <trkpt lat="42.39438" lon="0.76399">
        <ele>891.76</ele>
        <time>2024-09-29T14:32:49.000Z</time>
      </trkpt>
      <trkpt lat="42.39453" lon="0.76354">
        <ele>890.23</ele>
        <time>2024-09-29T14:32:54.000Z</time>
      </trkpt>
      <trkpt lat="42.39459" lon="0.76303">
        <ele>888.83</ele>
        <time>2024-09-29T14:32:59.000Z</time>
      </trkpt>
      <trkpt lat="42.39445" lon="0.76256">
        <ele>887.45</ele>
        <time>2024-09-29T14:33:04.000Z</time>
      </trkpt>
      <trkpt lat="42.39418" lon="0.76216">
        <ele>886.61</ele>
        <time>2024-09-29T14:33:09.000Z</time>
      </trkpt>
      <trkpt lat="42.3939" lon="0.76175">
        <ele>885.78</ele>
        <time>2024-09-29T14:33:14.000Z</time>
      </trkpt>
      <trkpt lat="42.39378" lon="0.76124">
        <ele>885.45</ele>
        <time>2024-09-29T14:33:19.000Z</time>
      </trkpt>
      <trkpt lat="42.39375" lon="0.76074">
        <ele>885.2</ele>
        <time>2024-09-29T14:33:24.000Z</time>
      </trkpt>
      <trkpt lat="42.3936" lon="0.76025">
        <ele>884.56</ele>
        <time>2024-09-29T14:33:29.000Z</time>
      </trkpt>
      <trkpt lat="42.39345" lon="0.75976">
        <ele>882.27</ele>
        <time>2024-09-29T14:33:34.000Z</time>
      </trkpt>
      <trkpt lat="42.3933" lon="0.75929">
        <ele>880.36</ele>
        <time>2024-09-29T14:33:39.000Z</time>
      </trkpt>
      <trkpt lat="42.39315" lon="0.75885">
        <ele>879.77</ele>
        <time>2024-09-29T14:33:44.000Z</time>
      </trkpt>
      <trkpt lat="42.39291" lon="0.75853">
        <ele>878.7</ele>
        <time>2024-09-29T14:33:49.000Z</time>
      </trkpt>
      <trkpt lat="42.39262" lon="0.75831">
        <ele>877.85</ele>
        <time>2024-09-29T14:33:54.000Z</time>
      </trkpt>
      <trkpt lat="42.39236" lon="0.75803">
        <ele>877.3</ele>
        <time>2024-09-29T14:33:59.000Z</time>
      </trkpt>
      <trkpt lat="42.39218" lon="0.75764">
        <ele>876.56</ele>
        <time>2024-09-29T14:34:04.000Z</time>
      </trkpt>
      <trkpt lat="42.39199" lon="0.75723">
        <ele>875.16</ele>
        <time>2024-09-29T14:34:09.000Z</time>
      </trkpt>
      <trkpt lat="42.39179" lon="0.7568">
        <ele>873.59</ele>
        <time>2024-09-29T14:34:14.000Z</time>
      </trkpt>
      <trkpt lat="42.39156" lon="0.75637">
        <ele>872.69</ele>
        <time>2024-09-29T14:34:19.000Z</time>
      </trkpt>
      <trkpt lat="42.39124" lon="0.75611">
        <ele>871.87</ele>
        <time>2024-09-29T14:34:24.000Z</time>
      </trkpt>
      <trkpt lat="42.39087" lon="0.75598">
        <ele>870.85</ele>
        <time>2024-09-29T14:34:29.000Z</time>
      </trkpt>
      <trkpt lat="42.39049" lon="0.75608">
        <ele>869.94</ele>
        <time>2024-09-29T14:34:34.000Z</time>
      </trkpt>
      <trkpt lat="42.39014" lon="0.75624">
        <ele>868.53</ele>
        <time>2024-09-29T14:34:39.000Z</time>
      </trkpt>
      <trkpt lat="42.38983" lon="0.75604">
        <ele>866.69</ele>
        <time>2024-09-29T14:34:44.000Z</time>
      </trkpt>
      <trkpt lat="42.38992" lon="0.75549">
        <ele>865.61</ele>
        <time>2024-09-29T14:34:49.000Z</time>
      </trkpt>
      <trkpt lat="42.39012" lon="0.75499">
        <ele>864.67</ele>
        <time>2024-09-29T14:34:54.000Z</time>
      </trkpt>
      <trkpt lat="42.39042" lon="0.75465">
        <ele>863.3</ele>
        <time>2024-09-29T14:34:59.000Z</time>
      </trkpt>
      <trkpt lat="42.39069" lon="0.7543">
        <ele>862.37</ele>
        <time>2024-09-29T14:35:04.000Z</time>
      </trkpt>
      <trkpt lat="42.3908" lon="0.7539">
        <ele>861.52</ele>
        <time>2024-09-29T14:35:09.000Z</time>
      </trkpt>
      <trkpt lat="42.39076" lon="0.75335">
        <ele>860.06</ele>
        <time>2024-09-29T14:35:14.000Z</time>
      </trkpt>
      <trkpt lat="42.39048" lon="0.75298">
        <ele>858.39</ele>
        <time>2024-09-29T14:35:19.000Z</time>
      </trkpt>
      <trkpt lat="42.39013" lon="0.75272">
        <ele>857.14</ele>
        <time>2024-09-29T14:35:24.000Z</time>
      </trkpt>
      <trkpt lat="42.38983" lon="0.75241">
        <ele>855.85</ele>
        <time>2024-09-29T14:35:29.000Z</time>
      </trkpt>
      <trkpt lat="42.38966" lon="0.75203">
        <ele>855.71</ele>
        <time>2024-09-29T14:35:34.000Z</time>
      </trkpt>
      <trkpt lat="42.38961" lon="0.75166">
        <ele>854.71</ele>
        <time>2024-09-29T14:35:39.000Z</time>
      </trkpt>
      <trkpt lat="42.38964" lon="0.75133">
        <ele>854.11</ele>
        <time>2024-09-29T14:35:44.000Z</time>
      </trkpt>
      <trkpt lat="42.38973" lon="0.75102">
        <ele>853.18</ele>
        <time>2024-09-29T14:35:49.000Z</time>
      </trkpt>
      <trkpt lat="42.38984" lon="0.75066">
        <ele>852.38</ele>
        <time>2024-09-29T14:35:54.000Z</time>
      </trkpt>
      <trkpt lat="42.38994" lon="0.7503">
        <ele>851.94</ele>
        <time>2024-09-29T14:35:59.000Z</time>
      </trkpt>
      <trkpt lat="42.38998" lon="0.74991">
        <ele>851.74</ele>
        <time>2024-09-29T14:36:04.000Z</time>
      </trkpt>
      <trkpt lat="42.38988" lon="0.74954">
        <ele>851.24</ele>
        <time>2024-09-29T14:36:09.000Z</time>
      </trkpt>
      <trkpt lat="42.38971" lon="0.7493">
        <ele>851.75</ele>
        <time>2024-09-29T14:36:14.000Z</time>
      </trkpt>
      <trkpt lat="42.38957" lon="0.74917">
        <ele>851.88</ele>
        <time>2024-09-29T14:36:19.000Z</time>
      </trkpt>
      <trkpt lat="42.38946" lon="0.74908">
        <ele>851.99</ele>
        <time>2024-09-29T14:36:24.000Z</time>
      </trkpt>
      <trkpt lat="42.38935" lon="0.74898">
        <ele>852.03</ele>
        <time>2024-09-29T14:36:29.000Z</time>
      </trkpt>
      <trkpt lat="42.38926" lon="0.74887">
        <ele>852.03</ele>
        <time>2024-09-29T14:36:34.000Z</time>
      </trkpt>
      <trkpt lat="42.38916" lon="0.74873">
        <ele>852</ele>
        <time>2024-09-29T14:36:39.000Z</time>
      </trkpt>
      <trkpt lat="42.38907" lon="0.74859">
        <ele>851.98</ele>
        <time>2024-09-29T14:36:44.000Z</time>
      </trkpt>
      <trkpt lat="42.38902" lon="0.74841">
        <ele>851.97</ele>
        <time>2024-09-29T14:36:49.000Z</time>
      </trkpt>
      <trkpt lat="42.38901" lon="0.74821">
        <ele>851.96</ele>
        <time>2024-09-29T14:36:54.000Z</time>
      </trkpt>
      <trkpt lat="42.38903" lon="0.74802">
        <ele>851.92</ele>
        <time>2024-09-29T14:36:59.000Z</time>
      </trkpt>
      <trkpt lat="42.38905" lon="0.74783">
        <ele>851.89</ele>
        <time>2024-09-29T14:37:04.000Z</time>
      </trkpt>
      <trkpt lat="42.38906" lon="0.74766">
        <ele>851.86</ele>
        <time>2024-09-29T14:37:09.000Z</time>
      </trkpt>
      <trkpt lat="42.38908" lon="0.74745">
        <ele>851.82</ele>
        <time>2024-09-29T14:37:14.999Z</time>
      </trkpt>
      <trkpt lat="42.38909" lon="0.74733">
        <ele>851.55</ele>
        <time>2024-09-29T14:38:01.999Z</time>
      </trkpt>
      <trkpt lat="42.3891" lon="0.7472">
        <ele>851.4</ele>
        <time>2024-09-29T14:38:11.999Z</time>
      </trkpt>
      <trkpt lat="42.38911" lon="0.74699">
        <ele>851.31</ele>
        <time>2024-09-29T14:38:16.999Z</time>
      </trkpt>
      <trkpt lat="42.38913" lon="0.74677">
        <ele>851.22</ele>
        <time>2024-09-29T14:38:21.999Z</time>
      </trkpt>
      <trkpt lat="42.39017" lon="0.74582">
        <ele>850.23</ele>
        <time>2024-09-29T14:38:46.999Z</time>
      </trkpt>
      <trkpt lat="42.39034" lon="0.74566">
        <ele>850.27</ele>
        <time>2024-09-29T14:38:51.999Z</time>
      </trkpt>
      <trkpt lat="42.39048" lon="0.74567">
        <ele>849.92</ele>
        <time>2024-09-29T14:38:56.999Z</time>
      </trkpt>
      <trkpt lat="42.39063" lon="0.7457">
        <ele>848.92</ele>
        <time>2024-09-29T14:39:01.999Z</time>
      </trkpt>
      <trkpt lat="42.39115" lon="0.74589">
        <ele>846.28</ele>
        <time>2024-09-29T14:39:06.999Z</time>
      </trkpt>
      <trkpt lat="42.39149" lon="0.74618">
        <ele>843.05</ele>
        <time>2024-09-29T14:39:11.999Z</time>
      </trkpt>
      <trkpt lat="42.39173" lon="0.74632">
        <ele>841.77</ele>
        <time>2024-09-29T14:39:16.999Z</time>
      </trkpt>
      <trkpt lat="42.3927" lon="0.74675">
        <ele>844.94</ele>
        <time>2024-09-29T14:39:21.999Z</time>
      </trkpt>
      <trkpt lat="42.39302" lon="0.74685">
        <ele>846.12</ele>
        <time>2024-09-29T14:39:26.999Z</time>
      </trkpt>
      <trkpt lat="42.3933" lon="0.74693">
        <ele>846.59</ele>
        <time>2024-09-29T14:39:31.999Z</time>
      </trkpt>
      <trkpt lat="42.39362" lon="0.74701">
        <ele>846.89</ele>
        <time>2024-09-29T14:39:36.999Z</time>
      </trkpt>
      <trkpt lat="42.39392" lon="0.74705">
        <ele>846.88</ele>
        <time>2024-09-29T14:39:41.999Z</time>
      </trkpt>
      <trkpt lat="42.39422" lon="0.74708">
        <ele>846.98</ele>
        <time>2024-09-29T14:39:46.999Z</time>
      </trkpt>
      <trkpt lat="42.39452" lon="0.74704">
        <ele>846.99</ele>
        <time>2024-09-29T14:39:51.999Z</time>
      </trkpt>
      <trkpt lat="42.39479" lon="0.74696">
        <ele>847.43</ele>
        <time>2024-09-29T14:39:56.999Z</time>
      </trkpt>
      <trkpt lat="42.39503" lon="0.74681">
        <ele>847.12</ele>
        <time>2024-09-29T14:40:01.999Z</time>
      </trkpt>
      <trkpt lat="42.39526" lon="0.7467">
        <ele>846.57</ele>
        <time>2024-09-29T14:40:06.999Z</time>
      </trkpt>
      <trkpt lat="42.39549" lon="0.7466">
        <ele>846.05</ele>
        <time>2024-09-29T14:40:11.999Z</time>
      </trkpt>
      <trkpt lat="42.39571" lon="0.74644">
        <ele>845.14</ele>
        <time>2024-09-29T14:40:16.999Z</time>
      </trkpt>
      <trkpt lat="42.39592" lon="0.74629">
        <ele>844.52</ele>
        <time>2024-09-29T14:40:21.999Z</time>
      </trkpt>
      <trkpt lat="42.39613" lon="0.74612">
        <ele>844.16</ele>
        <time>2024-09-29T14:40:26.999Z</time>
      </trkpt>
      <trkpt lat="42.39634" lon="0.74593">
        <ele>844.14</ele>
        <time>2024-09-29T14:40:31.999Z</time>
      </trkpt>
      <trkpt lat="42.39653" lon="0.74571">
        <ele>844.21</ele>
        <time>2024-09-29T14:40:36.999Z</time>
      </trkpt>
      <trkpt lat="42.39671" lon="0.74549">
        <ele>844.3</ele>
        <time>2024-09-29T14:40:41.999Z</time>
      </trkpt>
      <trkpt lat="42.39691" lon="0.74528">
        <ele>844.41</ele>
        <time>2024-09-29T14:40:46.999Z</time>
      </trkpt>
      <trkpt lat="42.39714" lon="0.74509">
        <ele>844.31</ele>
        <time>2024-09-29T14:40:51.999Z</time>
      </trkpt>
      <trkpt lat="42.39742" lon="0.74479">
        <ele>843.8</ele>
        <time>2024-09-29T14:40:56.999Z</time>
      </trkpt>
      <trkpt lat="42.39772" lon="0.74441">
        <ele>843.16</ele>
        <time>2024-09-29T14:41:01.999Z</time>
      </trkpt>
      <trkpt lat="42.39804" lon="0.74404">
        <ele>842.67</ele>
        <time>2024-09-29T14:41:06.999Z</time>
      </trkpt>
      <trkpt lat="42.39839" lon="0.74373">
        <ele>842.77</ele>
        <time>2024-09-29T14:41:11.999Z</time>
      </trkpt>
      <trkpt lat="42.39874" lon="0.74355">
        <ele>843.04</ele>
        <time>2024-09-29T14:41:16.999Z</time>
      </trkpt>
      <trkpt lat="42.39908" lon="0.74343">
        <ele>843.12</ele>
        <time>2024-09-29T14:41:21.999Z</time>
      </trkpt>
      <trkpt lat="42.3994" lon="0.74331">
        <ele>843.05</ele>
        <time>2024-09-29T14:41:26.999Z</time>
      </trkpt>
      <trkpt lat="42.3997" lon="0.7432">
        <ele>843.1</ele>
        <time>2024-09-29T14:41:31.999Z</time>
      </trkpt>
      <trkpt lat="42.39995" lon="0.74311">
        <ele>843.42</ele>
        <time>2024-09-29T14:41:36.999Z</time>
      </trkpt>
      <trkpt lat="42.40012" lon="0.74304">
        <ele>843.55</ele>
        <time>2024-09-29T14:41:41.999Z</time>
      </trkpt>
      <trkpt lat="42.40027" lon="0.743">
        <ele>843.65</ele>
        <time>2024-09-29T14:41:46.999Z</time>
      </trkpt>
      <trkpt lat="42.40041" lon="0.74295">
        <ele>843.74</ele>
        <time>2024-09-29T14:41:51.999Z</time>
      </trkpt>
      <trkpt lat="42.40055" lon="0.74288">
        <ele>843.87</ele>
        <time>2024-09-29T14:41:56.999Z</time>
      </trkpt>
      <trkpt lat="42.40069" lon="0.74283">
        <ele>844.07</ele>
        <time>2024-09-29T14:42:01.999Z</time>
      </trkpt>
      <trkpt lat="42.40082" lon="0.74277">
        <ele>844.3</ele>
        <time>2024-09-29T14:42:06.999Z</time>
      </trkpt>
      <trkpt lat="42.40094" lon="0.74271">
        <ele>844.61</ele>
        <time>2024-09-29T14:42:11.999Z</time>
      </trkpt>
      <trkpt lat="42.40107" lon="0.74267">
        <ele>844.95</ele>
        <time>2024-09-29T14:42:16.999Z</time>
      </trkpt>
      <trkpt lat="42.40117" lon="0.74263">
        <ele>845.14</ele>
        <time>2024-09-29T14:42:44.999Z</time>
      </trkpt>
      <trkpt lat="42.40125" lon="0.74258">
        <ele>845.51</ele>
        <time>2024-09-29T14:43:24.999Z</time>
      </trkpt>
      <trkpt lat="42.40134" lon="0.74251">
        <ele>845.82</ele>
        <time>2024-09-29T14:43:34.999Z</time>
      </trkpt>
      <trkpt lat="42.40147" lon="0.74243">
        <ele>846.07</ele>
        <time>2024-09-29T14:43:39.999Z</time>
      </trkpt>
      <trkpt lat="42.40163" lon="0.74239">
        <ele>846.3</ele>
        <time>2024-09-29T14:43:44.999Z</time>
      </trkpt>
      <trkpt lat="42.40179" lon="0.74236">
        <ele>846.53</ele>
        <time>2024-09-29T14:43:49.999Z</time>
      </trkpt>
      <trkpt lat="42.4019" lon="0.74235">
        <ele>846.77</ele>
        <time>2024-09-29T14:43:54.999Z</time>
      </trkpt>
      <trkpt lat="42.40203" lon="0.74234">
        <ele>847.05</ele>
        <time>2024-09-29T14:43:59.999Z</time>
      </trkpt>
      <trkpt lat="42.40216" lon="0.74233">
        <ele>847.34</ele>
        <time>2024-09-29T14:44:04.999Z</time>
      </trkpt>
      <trkpt lat="42.40228" lon="0.74233">
        <ele>847.63</ele>
        <time>2024-09-29T14:44:09.999Z</time>
      </trkpt>
      <trkpt lat="42.40241" lon="0.74232">
        <ele>847.92</ele>
        <time>2024-09-29T14:44:14.999Z</time>
      </trkpt>
      <trkpt lat="42.40254" lon="0.7423">
        <ele>848.22</ele>
        <time>2024-09-29T14:44:19.999Z</time>
      </trkpt>
      <trkpt lat="42.40266" lon="0.74229">
        <ele>848.53</ele>
        <time>2024-09-29T14:44:24.999Z</time>
      </trkpt>
      <trkpt lat="42.40279" lon="0.74228">
        <ele>848.85</ele>
        <time>2024-09-29T14:44:29.999Z</time>
      </trkpt>
      <trkpt lat="42.40295" lon="0.74226">
        <ele>849.16</ele>
        <time>2024-09-29T14:44:34.999Z</time>
      </trkpt>
      <trkpt lat="42.40309" lon="0.74224">
        <ele>849.48</ele>
        <time>2024-09-29T14:44:39.999Z</time>
      </trkpt>
      <trkpt lat="42.4032" lon="0.74226">
        <ele>849.82</ele>
        <time>2024-09-29T14:44:44.999Z</time>
      </trkpt>
      <trkpt lat="42.40331" lon="0.74222">
        <ele>850.53</ele>
        <time>2024-09-29T14:45:07.999Z</time>
      </trkpt>
      <trkpt lat="42.4034" lon="0.74221">
        <ele>851.78</ele>
        <time>2024-09-29T14:45:45.999Z</time>
      </trkpt>
      <trkpt lat="42.40334" lon="0.74211">
        <ele>852.33</ele>
        <time>2024-09-29T14:45:51.999Z</time>
      </trkpt>
      <trkpt lat="42.40324" lon="0.74211">
        <ele>852.76</ele>
        <time>2024-09-29T14:45:56.999Z</time>
      </trkpt>
      <trkpt lat="42.40334" lon="0.74213">
        <ele>853.86</ele>
        <time>2024-09-29T14:46:10.999Z</time>
      </trkpt>
      <trkpt lat="42.40344" lon="0.7421">
        <ele>854.58</ele>
        <time>2024-09-29T14:46:45.999Z</time>
      </trkpt>
      <trkpt lat="42.40354" lon="0.74204">
        <ele>856.4</ele>
        <time>2024-09-29T14:54:33.000Z</time>
      </trkpt>
      <trkpt lat="42.40383" lon="0.74197">
        <ele>856.6</ele>
        <time>2024-09-29T14:54:38.000Z</time>
      </trkpt>
      <trkpt lat="42.40423" lon="0.74178">
        <ele>856.65</ele>
        <time>2024-09-29T14:54:43.000Z</time>
      </trkpt>
      <trkpt lat="42.40456" lon="0.74148">
        <ele>856.71</ele>
        <time>2024-09-29T14:54:48.000Z</time>
      </trkpt>
      <trkpt lat="42.40485" lon="0.74125">
        <ele>856.66</ele>
        <time>2024-09-29T14:54:53.000Z</time>
      </trkpt>
      <trkpt lat="42.4051" lon="0.74104">
        <ele>856.54</ele>
        <time>2024-09-29T14:54:58.000Z</time>
      </trkpt>
      <trkpt lat="42.40528" lon="0.7409">
        <ele>856.6</ele>
        <time>2024-09-29T14:55:03.000Z</time>
      </trkpt>
      <trkpt lat="42.40543" lon="0.74079">
        <ele>856.6</ele>
        <time>2024-09-29T14:55:08.000Z</time>
      </trkpt>
      <trkpt lat="42.40555" lon="0.74074">
        <ele>856.56</ele>
        <time>2024-09-29T14:55:13.000Z</time>
      </trkpt>
    </trkseg>
  </trk>
</gpx>